<?xml version="1.0" encoding="UTF-8" standalone="no" ?>
<gpx xmlns="http://www.topografix.com/GPX/1/1" xmlns:xsi="http://www.w3.org/2001/XMLSchema-instance" xsi:schemaLocation="http://www.topografix.com/GPX/1/1 http://www.topografix.com/GPX/1/1/gpx.xsd" version="1.1" creator="VisuGPX - https://www.visugpx.com">
  <metadata>
    <name>07 - Mont Gerbier de Jonc : 2021-07-11</name>
  </metadata>
  <trk>
    <name><![CDATA[07 - Mont Gerbier de Jonc : 2021-07-11_1]]></name>
    <trkseg>
      <trkpt lat="44.91495" lon="4.43061">
        <ele>477</ele>
        <time>2021-06-06T07:03:41Z</time>
      </trkpt>
      <trkpt lat="44.91487" lon="4.43045">
        <ele>476.6</ele>
        <time>2021-06-06T07:03:45Z</time>
      </trkpt>
      <trkpt lat="44.91481" lon="4.4303">
        <ele>476.4</ele>
        <time>2021-06-06T07:03:49Z</time>
      </trkpt>
      <trkpt lat="44.91473" lon="4.43013">
        <ele>476.4</ele>
        <time>2021-06-06T07:03:53Z</time>
      </trkpt>
      <trkpt lat="44.91465" lon="4.42995">
        <ele>476.6</ele>
        <time>2021-06-06T07:03:57Z</time>
      </trkpt>
      <trkpt lat="44.91456" lon="4.42977">
        <ele>476.4</ele>
        <time>2021-06-06T07:04:01Z</time>
      </trkpt>
      <trkpt lat="44.91447" lon="4.42959">
        <ele>476.4</ele>
        <time>2021-06-06T07:04:05Z</time>
      </trkpt>
      <trkpt lat="44.91439" lon="4.4294">
        <ele>476.8</ele>
        <time>2021-06-06T07:04:09Z</time>
      </trkpt>
      <trkpt lat="44.9143" lon="4.4292">
        <ele>476</ele>
        <time>2021-06-06T07:04:13Z</time>
      </trkpt>
      <trkpt lat="44.9142" lon="4.42899">
        <ele>476.2</ele>
        <time>2021-06-06T07:04:17Z</time>
      </trkpt>
      <trkpt lat="44.91411" lon="4.42879">
        <ele>476.6</ele>
        <time>2021-06-06T07:04:21Z</time>
      </trkpt>
      <trkpt lat="44.91402" lon="4.4286">
        <ele>476.2</ele>
        <time>2021-06-06T07:04:25Z</time>
      </trkpt>
      <trkpt lat="44.91391" lon="4.42841">
        <ele>476</ele>
        <time>2021-06-06T07:04:29Z</time>
      </trkpt>
      <trkpt lat="44.91377" lon="4.42823">
        <ele>476.2</ele>
        <time>2021-06-06T07:04:33Z</time>
      </trkpt>
      <trkpt lat="44.91363" lon="4.42809">
        <ele>476.6</ele>
        <time>2021-06-06T07:04:37Z</time>
      </trkpt>
      <trkpt lat="44.91352" lon="4.42794">
        <ele>476.4</ele>
        <time>2021-06-06T07:04:41Z</time>
      </trkpt>
      <trkpt lat="44.91341" lon="4.42779">
        <ele>477</ele>
        <time>2021-06-06T07:04:45Z</time>
      </trkpt>
      <trkpt lat="44.9133" lon="4.42766">
        <ele>477</ele>
        <time>2021-06-06T07:04:49Z</time>
      </trkpt>
      <trkpt lat="44.91314" lon="4.42754">
        <ele>477</ele>
        <time>2021-06-06T07:04:53Z</time>
      </trkpt>
      <trkpt lat="44.913" lon="4.4274">
        <ele>477.6</ele>
        <time>2021-06-06T07:04:57Z</time>
      </trkpt>
      <trkpt lat="44.91286" lon="4.42726">
        <ele>478.8</ele>
        <time>2021-06-06T07:05:01Z</time>
      </trkpt>
      <trkpt lat="44.91275" lon="4.42714">
        <ele>478.6</ele>
        <time>2021-06-06T07:05:05Z</time>
      </trkpt>
      <trkpt lat="44.9126" lon="4.42705">
        <ele>478.6</ele>
        <time>2021-06-06T07:05:09Z</time>
      </trkpt>
      <trkpt lat="44.91241" lon="4.42708">
        <ele>478.8</ele>
        <time>2021-06-06T07:05:13Z</time>
      </trkpt>
      <trkpt lat="44.91223" lon="4.42715">
        <ele>478.6</ele>
        <time>2021-06-06T07:05:17Z</time>
      </trkpt>
      <trkpt lat="44.91205" lon="4.42722">
        <ele>479.6</ele>
        <time>2021-06-06T07:05:21Z</time>
      </trkpt>
      <trkpt lat="44.91188" lon="4.42729">
        <ele>478.8</ele>
        <time>2021-06-06T07:05:25Z</time>
      </trkpt>
      <trkpt lat="44.9117" lon="4.42736">
        <ele>479.6</ele>
        <time>2021-06-06T07:05:29Z</time>
      </trkpt>
      <trkpt lat="44.91153" lon="4.42743">
        <ele>479.6</ele>
        <time>2021-06-06T07:05:33Z</time>
      </trkpt>
      <trkpt lat="44.91138" lon="4.42751">
        <ele>479.6</ele>
        <time>2021-06-06T07:05:37Z</time>
      </trkpt>
      <trkpt lat="44.91133" lon="4.42761">
        <ele>479.6</ele>
        <time>2021-06-06T07:05:41Z</time>
      </trkpt>
      <trkpt lat="44.91135" lon="4.42772">
        <ele>479</ele>
        <time>2021-06-06T07:05:45Z</time>
      </trkpt>
      <trkpt lat="44.91146" lon="4.4279">
        <ele>477.8</ele>
        <time>2021-06-06T07:05:49Z</time>
      </trkpt>
      <trkpt lat="44.91162" lon="4.42812">
        <ele>477.2</ele>
        <time>2021-06-06T07:05:53Z</time>
      </trkpt>
      <trkpt lat="44.91174" lon="4.42843">
        <ele>475.4</ele>
        <time>2021-06-06T07:05:57Z</time>
      </trkpt>
      <trkpt lat="44.91185" lon="4.42881">
        <ele>474.8</ele>
        <time>2021-06-06T07:06:01Z</time>
      </trkpt>
      <trkpt lat="44.91195" lon="4.42917">
        <ele>475.4</ele>
        <time>2021-06-06T07:06:05Z</time>
      </trkpt>
      <trkpt lat="44.91205" lon="4.42951">
        <ele>476</ele>
        <time>2021-06-06T07:06:09Z</time>
      </trkpt>
      <trkpt lat="44.91213" lon="4.42982">
        <ele>477.4</ele>
        <time>2021-06-06T07:06:13Z</time>
      </trkpt>
      <trkpt lat="44.91221" lon="4.4301">
        <ele>476.6</ele>
        <time>2021-06-06T07:06:17Z</time>
      </trkpt>
      <trkpt lat="44.91228" lon="4.43035">
        <ele>477.6</ele>
        <time>2021-06-06T07:06:21Z</time>
      </trkpt>
      <trkpt lat="44.91235" lon="4.43058">
        <ele>477.8</ele>
        <time>2021-06-06T07:06:25Z</time>
      </trkpt>
      <trkpt lat="44.91242" lon="4.43081">
        <ele>477.8</ele>
        <time>2021-06-06T07:06:29Z</time>
      </trkpt>
      <trkpt lat="44.91249" lon="4.43106">
        <ele>478.2</ele>
        <time>2021-06-06T07:06:33Z</time>
      </trkpt>
      <trkpt lat="44.91255" lon="4.43128">
        <ele>478.6</ele>
        <time>2021-06-06T07:06:37Z</time>
      </trkpt>
      <trkpt lat="44.91257" lon="4.43142">
        <ele>478.8</ele>
        <time>2021-06-06T07:06:41Z</time>
      </trkpt>
      <trkpt lat="44.9126" lon="4.43153">
        <ele>478.6</ele>
        <time>2021-06-06T07:06:45Z</time>
      </trkpt>
      <trkpt lat="44.91266" lon="4.43156">
        <ele>478</ele>
        <time>2021-06-06T07:06:49Z</time>
      </trkpt>
      <trkpt lat="44.91265" lon="4.43143">
        <ele>478.2</ele>
        <time>2021-06-06T07:06:53Z</time>
      </trkpt>
      <trkpt lat="44.91261" lon="4.43123">
        <ele>477.6</ele>
        <time>2021-06-06T07:06:57Z</time>
      </trkpt>
      <trkpt lat="44.91254" lon="4.43101">
        <ele>477.6</ele>
        <time>2021-06-06T07:07:01Z</time>
      </trkpt>
      <trkpt lat="44.91246" lon="4.43081">
        <ele>476.6</ele>
        <time>2021-06-06T07:07:05Z</time>
      </trkpt>
      <trkpt lat="44.91238" lon="4.43064">
        <ele>476.2</ele>
        <time>2021-06-06T07:07:09Z</time>
      </trkpt>
      <trkpt lat="44.91223" lon="4.43057">
        <ele>476.4</ele>
        <time>2021-06-06T07:07:13Z</time>
      </trkpt>
      <trkpt lat="44.91208" lon="4.43052">
        <ele>477.4</ele>
        <time>2021-06-06T07:07:17Z</time>
      </trkpt>
      <trkpt lat="44.91194" lon="4.43052">
        <ele>478.2</ele>
        <time>2021-06-06T07:07:21Z</time>
      </trkpt>
      <trkpt lat="44.91181" lon="4.4305">
        <ele>478.8</ele>
        <time>2021-06-06T07:07:25Z</time>
      </trkpt>
      <trkpt lat="44.91169" lon="4.4305">
        <ele>478.4</ele>
        <time>2021-06-06T07:07:29Z</time>
      </trkpt>
      <trkpt lat="44.91155" lon="4.43051">
        <ele>478.6</ele>
        <time>2021-06-06T07:07:33Z</time>
      </trkpt>
      <trkpt lat="44.91141" lon="4.43051">
        <ele>478.6</ele>
        <time>2021-06-06T07:07:37Z</time>
      </trkpt>
      <trkpt lat="44.91125" lon="4.43048">
        <ele>478.4</ele>
        <time>2021-06-06T07:07:41Z</time>
      </trkpt>
      <trkpt lat="44.91109" lon="4.43048">
        <ele>478.4</ele>
        <time>2021-06-06T07:07:45Z</time>
      </trkpt>
      <trkpt lat="44.91092" lon="4.43049">
        <ele>479</ele>
        <time>2021-06-06T07:07:49Z</time>
      </trkpt>
      <trkpt lat="44.91075" lon="4.43045">
        <ele>479.2</ele>
        <time>2021-06-06T07:07:53Z</time>
      </trkpt>
      <trkpt lat="44.91057" lon="4.4304">
        <ele>479.2</ele>
        <time>2021-06-06T07:07:57Z</time>
      </trkpt>
      <trkpt lat="44.91039" lon="4.43033">
        <ele>479.2</ele>
        <time>2021-06-06T07:08:01Z</time>
      </trkpt>
      <trkpt lat="44.9102" lon="4.43027">
        <ele>479.4</ele>
        <time>2021-06-06T07:08:05Z</time>
      </trkpt>
      <trkpt lat="44.91" lon="4.43022">
        <ele>479.4</ele>
        <time>2021-06-06T07:08:09Z</time>
      </trkpt>
      <trkpt lat="44.9098" lon="4.43021">
        <ele>479.4</ele>
        <time>2021-06-06T07:08:13Z</time>
      </trkpt>
      <trkpt lat="44.9096" lon="4.43023">
        <ele>479</ele>
        <time>2021-06-06T07:08:17Z</time>
      </trkpt>
      <trkpt lat="44.90939" lon="4.43024">
        <ele>479.8</ele>
        <time>2021-06-06T07:08:21Z</time>
      </trkpt>
      <trkpt lat="44.90922" lon="4.43023">
        <ele>480.4</ele>
        <time>2021-06-06T07:08:25Z</time>
      </trkpt>
      <trkpt lat="44.90906" lon="4.43014">
        <ele>481</ele>
        <time>2021-06-06T07:08:29Z</time>
      </trkpt>
      <trkpt lat="44.90892" lon="4.42998">
        <ele>480</ele>
        <time>2021-06-06T07:08:33Z</time>
      </trkpt>
      <trkpt lat="44.90876" lon="4.42981">
        <ele>480</ele>
        <time>2021-06-06T07:08:37Z</time>
      </trkpt>
      <trkpt lat="44.90862" lon="4.42964">
        <ele>480.2</ele>
        <time>2021-06-06T07:08:41Z</time>
      </trkpt>
      <trkpt lat="44.90851" lon="4.42944">
        <ele>480.6</ele>
        <time>2021-06-06T07:08:45Z</time>
      </trkpt>
      <trkpt lat="44.90843" lon="4.42922">
        <ele>481.2</ele>
        <time>2021-06-06T07:08:49Z</time>
      </trkpt>
      <trkpt lat="44.90838" lon="4.42897">
        <ele>481.8</ele>
        <time>2021-06-06T07:08:53Z</time>
      </trkpt>
      <trkpt lat="44.90835" lon="4.42872">
        <ele>482</ele>
        <time>2021-06-06T07:08:57Z</time>
      </trkpt>
      <trkpt lat="44.90832" lon="4.42845">
        <ele>482.4</ele>
        <time>2021-06-06T07:09:01Z</time>
      </trkpt>
      <trkpt lat="44.90826" lon="4.42819">
        <ele>482.4</ele>
        <time>2021-06-06T07:09:05Z</time>
      </trkpt>
      <trkpt lat="44.9082" lon="4.42793">
        <ele>482.2</ele>
        <time>2021-06-06T07:09:09Z</time>
      </trkpt>
      <trkpt lat="44.90812" lon="4.42767">
        <ele>482.6</ele>
        <time>2021-06-06T07:09:13Z</time>
      </trkpt>
      <trkpt lat="44.90805" lon="4.42741">
        <ele>483</ele>
        <time>2021-06-06T07:09:17Z</time>
      </trkpt>
      <trkpt lat="44.90797" lon="4.42716">
        <ele>482.6</ele>
        <time>2021-06-06T07:09:21Z</time>
      </trkpt>
      <trkpt lat="44.90786" lon="4.42691">
        <ele>482.8</ele>
        <time>2021-06-06T07:09:25Z</time>
      </trkpt>
      <trkpt lat="44.90776" lon="4.42668">
        <ele>483.2</ele>
        <time>2021-06-06T07:09:29Z</time>
      </trkpt>
      <trkpt lat="44.90764" lon="4.42646">
        <ele>483.8</ele>
        <time>2021-06-06T07:09:33Z</time>
      </trkpt>
      <trkpt lat="44.90752" lon="4.42624">
        <ele>483.6</ele>
        <time>2021-06-06T07:09:37Z</time>
      </trkpt>
      <trkpt lat="44.90739" lon="4.42604">
        <ele>483.6</ele>
        <time>2021-06-06T07:09:41Z</time>
      </trkpt>
      <trkpt lat="44.90726" lon="4.42584">
        <ele>484</ele>
        <time>2021-06-06T07:09:45Z</time>
      </trkpt>
      <trkpt lat="44.90714" lon="4.42564">
        <ele>484.2</ele>
        <time>2021-06-06T07:09:49Z</time>
      </trkpt>
      <trkpt lat="44.90701" lon="4.42546">
        <ele>484</ele>
        <time>2021-06-06T07:09:53Z</time>
      </trkpt>
      <trkpt lat="44.90688" lon="4.42524">
        <ele>484.4</ele>
        <time>2021-06-06T07:09:57Z</time>
      </trkpt>
      <trkpt lat="44.90675" lon="4.42505">
        <ele>484.2</ele>
        <time>2021-06-06T07:10:01Z</time>
      </trkpt>
      <trkpt lat="44.90663" lon="4.42482">
        <ele>483.6</ele>
        <time>2021-06-06T07:10:05Z</time>
      </trkpt>
      <trkpt lat="44.90651" lon="4.4246">
        <ele>484.2</ele>
        <time>2021-06-06T07:10:09Z</time>
      </trkpt>
      <trkpt lat="44.90646" lon="4.42454">
        <ele>484.6</ele>
        <time>2021-06-06T07:10:13Z</time>
      </trkpt>
      <trkpt lat="44.90635" lon="4.42416">
        <ele>483.4</ele>
        <time>2021-06-06T07:13:17Z</time>
      </trkpt>
      <trkpt lat="44.90631" lon="4.42394">
        <ele>484</ele>
        <time>2021-06-06T07:13:21Z</time>
      </trkpt>
      <trkpt lat="44.90628" lon="4.42373">
        <ele>484</ele>
        <time>2021-06-06T07:13:25Z</time>
      </trkpt>
      <trkpt lat="44.90623" lon="4.42355">
        <ele>484</ele>
        <time>2021-06-06T07:13:29Z</time>
      </trkpt>
      <trkpt lat="44.90612" lon="4.42344">
        <ele>484</ele>
        <time>2021-06-06T07:13:33Z</time>
      </trkpt>
      <trkpt lat="44.90605" lon="4.42333">
        <ele>484.6</ele>
        <time>2021-06-06T07:13:37Z</time>
      </trkpt>
      <trkpt lat="44.906" lon="4.42317">
        <ele>484.4</ele>
        <time>2021-06-06T07:13:41Z</time>
      </trkpt>
      <trkpt lat="44.90589" lon="4.42304">
        <ele>485</ele>
        <time>2021-06-06T07:13:45Z</time>
      </trkpt>
      <trkpt lat="44.90576" lon="4.42295">
        <ele>485.6</ele>
        <time>2021-06-06T07:13:49Z</time>
      </trkpt>
      <trkpt lat="44.90567" lon="4.42281">
        <ele>486.2</ele>
        <time>2021-06-06T07:13:53Z</time>
      </trkpt>
      <trkpt lat="44.90561" lon="4.42265">
        <ele>486.8</ele>
        <time>2021-06-06T07:13:57Z</time>
      </trkpt>
      <trkpt lat="44.90557" lon="4.42252">
        <ele>487</ele>
        <time>2021-06-06T07:14:01Z</time>
      </trkpt>
      <trkpt lat="44.90555" lon="4.42246">
        <ele>487.2</ele>
        <time>2021-06-06T07:14:05Z</time>
      </trkpt>
      <trkpt lat="44.90556" lon="4.42231">
        <ele>487</ele>
        <time>2021-06-06T07:14:09Z</time>
      </trkpt>
      <trkpt lat="44.90557" lon="4.42217">
        <ele>487.8</ele>
        <time>2021-06-06T07:14:13Z</time>
      </trkpt>
      <trkpt lat="44.90566" lon="4.42201">
        <ele>488.6</ele>
        <time>2021-06-06T07:14:17Z</time>
      </trkpt>
      <trkpt lat="44.90566" lon="4.42201">
        <ele>488.4</ele>
        <time>2021-06-06T07:14:21Z</time>
      </trkpt>
      <trkpt lat="44.90559" lon="4.42184">
        <ele>489.8</ele>
        <time>2021-06-06T07:14:49Z</time>
      </trkpt>
      <trkpt lat="44.90553" lon="4.42182">
        <ele>490.4</ele>
        <time>2021-06-06T07:14:53Z</time>
      </trkpt>
      <trkpt lat="44.90548" lon="4.42178">
        <ele>491.8</ele>
        <time>2021-06-06T07:14:57Z</time>
      </trkpt>
      <trkpt lat="44.90546" lon="4.4217">
        <ele>492.8</ele>
        <time>2021-06-06T07:15:01Z</time>
      </trkpt>
      <trkpt lat="44.90546" lon="4.42162">
        <ele>494</ele>
        <time>2021-06-06T07:15:05Z</time>
      </trkpt>
      <trkpt lat="44.90548" lon="4.4215">
        <ele>494.6</ele>
        <time>2021-06-06T07:15:09Z</time>
      </trkpt>
      <trkpt lat="44.90551" lon="4.42143">
        <ele>495.2</ele>
        <time>2021-06-06T07:15:13Z</time>
      </trkpt>
      <trkpt lat="44.90554" lon="4.42134">
        <ele>495.4</ele>
        <time>2021-06-06T07:15:17Z</time>
      </trkpt>
      <trkpt lat="44.90551" lon="4.42118">
        <ele>495.2</ele>
        <time>2021-06-06T07:15:21Z</time>
      </trkpt>
      <trkpt lat="44.90549" lon="4.42101">
        <ele>495</ele>
        <time>2021-06-06T07:15:25Z</time>
      </trkpt>
      <trkpt lat="44.90548" lon="4.4208">
        <ele>494.4</ele>
        <time>2021-06-06T07:15:29Z</time>
      </trkpt>
      <trkpt lat="44.90543" lon="4.42055">
        <ele>493.8</ele>
        <time>2021-06-06T07:15:33Z</time>
      </trkpt>
      <trkpt lat="44.90532" lon="4.42033">
        <ele>492.6</ele>
        <time>2021-06-06T07:15:37Z</time>
      </trkpt>
      <trkpt lat="44.9052" lon="4.42015">
        <ele>493.4</ele>
        <time>2021-06-06T07:15:41Z</time>
      </trkpt>
      <trkpt lat="44.9051" lon="4.41994">
        <ele>493.8</ele>
        <time>2021-06-06T07:15:45Z</time>
      </trkpt>
      <trkpt lat="44.90502" lon="4.41973">
        <ele>494.6</ele>
        <time>2021-06-06T07:15:49Z</time>
      </trkpt>
      <trkpt lat="44.90495" lon="4.41955">
        <ele>495.2</ele>
        <time>2021-06-06T07:15:53Z</time>
      </trkpt>
      <trkpt lat="44.90488" lon="4.41937">
        <ele>496</ele>
        <time>2021-06-06T07:15:57Z</time>
      </trkpt>
      <trkpt lat="44.90479" lon="4.4192">
        <ele>496.4</ele>
        <time>2021-06-06T07:16:01Z</time>
      </trkpt>
      <trkpt lat="44.90469" lon="4.41905">
        <ele>497</ele>
        <time>2021-06-06T07:16:05Z</time>
      </trkpt>
      <trkpt lat="44.90459" lon="4.41888">
        <ele>497</ele>
        <time>2021-06-06T07:16:09Z</time>
      </trkpt>
      <trkpt lat="44.90449" lon="4.41872">
        <ele>497.4</ele>
        <time>2021-06-06T07:16:13Z</time>
      </trkpt>
      <trkpt lat="44.90439" lon="4.41856">
        <ele>497.8</ele>
        <time>2021-06-06T07:16:17Z</time>
      </trkpt>
      <trkpt lat="44.90429" lon="4.41842">
        <ele>498.4</ele>
        <time>2021-06-06T07:16:21Z</time>
      </trkpt>
      <trkpt lat="44.90418" lon="4.41829">
        <ele>499.6</ele>
        <time>2021-06-06T07:16:25Z</time>
      </trkpt>
      <trkpt lat="44.90409" lon="4.41814">
        <ele>500</ele>
        <time>2021-06-06T07:16:29Z</time>
      </trkpt>
      <trkpt lat="44.904" lon="4.41797">
        <ele>500.6</ele>
        <time>2021-06-06T07:16:33Z</time>
      </trkpt>
      <trkpt lat="44.90389" lon="4.41783">
        <ele>500.4</ele>
        <time>2021-06-06T07:16:37Z</time>
      </trkpt>
      <trkpt lat="44.90381" lon="4.41765">
        <ele>500.8</ele>
        <time>2021-06-06T07:16:41Z</time>
      </trkpt>
      <trkpt lat="44.90372" lon="4.41748">
        <ele>501.4</ele>
        <time>2021-06-06T07:16:45Z</time>
      </trkpt>
      <trkpt lat="44.90364" lon="4.4173">
        <ele>501.8</ele>
        <time>2021-06-06T07:16:49Z</time>
      </trkpt>
      <trkpt lat="44.90349" lon="4.41716">
        <ele>502.2</ele>
        <time>2021-06-06T07:16:53Z</time>
      </trkpt>
      <trkpt lat="44.90338" lon="4.417">
        <ele>502.4</ele>
        <time>2021-06-06T07:16:57Z</time>
      </trkpt>
      <trkpt lat="44.90327" lon="4.41682">
        <ele>501.8</ele>
        <time>2021-06-06T07:17:01Z</time>
      </trkpt>
      <trkpt lat="44.90316" lon="4.41663">
        <ele>501.6</ele>
        <time>2021-06-06T07:17:05Z</time>
      </trkpt>
      <trkpt lat="44.90309" lon="4.41641">
        <ele>501.6</ele>
        <time>2021-06-06T07:17:09Z</time>
      </trkpt>
      <trkpt lat="44.90303" lon="4.4162">
        <ele>502.6</ele>
        <time>2021-06-06T07:17:13Z</time>
      </trkpt>
      <trkpt lat="44.90294" lon="4.416">
        <ele>502</ele>
        <time>2021-06-06T07:17:17Z</time>
      </trkpt>
      <trkpt lat="44.90283" lon="4.41582">
        <ele>502.2</ele>
        <time>2021-06-06T07:17:21Z</time>
      </trkpt>
      <trkpt lat="44.9027" lon="4.41565">
        <ele>501.8</ele>
        <time>2021-06-06T07:17:25Z</time>
      </trkpt>
      <trkpt lat="44.90257" lon="4.41547">
        <ele>502.2</ele>
        <time>2021-06-06T07:17:29Z</time>
      </trkpt>
      <trkpt lat="44.90245" lon="4.4153">
        <ele>503</ele>
        <time>2021-06-06T07:17:33Z</time>
      </trkpt>
      <trkpt lat="44.90233" lon="4.41513">
        <ele>503.2</ele>
        <time>2021-06-06T07:17:37Z</time>
      </trkpt>
      <trkpt lat="44.90223" lon="4.41496">
        <ele>503.8</ele>
        <time>2021-06-06T07:17:41Z</time>
      </trkpt>
      <trkpt lat="44.90216" lon="4.41487">
        <ele>504.4</ele>
        <time>2021-06-06T07:17:45Z</time>
      </trkpt>
      <trkpt lat="44.90204" lon="4.4148">
        <ele>504</ele>
        <time>2021-06-06T07:18:55Z</time>
      </trkpt>
      <trkpt lat="44.90195" lon="4.41468">
        <ele>504.8</ele>
        <time>2021-06-06T07:18:59Z</time>
      </trkpt>
      <trkpt lat="44.90185" lon="4.41454">
        <ele>505.2</ele>
        <time>2021-06-06T07:19:03Z</time>
      </trkpt>
      <trkpt lat="44.90175" lon="4.4144">
        <ele>505.6</ele>
        <time>2021-06-06T07:19:07Z</time>
      </trkpt>
      <trkpt lat="44.90165" lon="4.41429">
        <ele>506</ele>
        <time>2021-06-06T07:19:11Z</time>
      </trkpt>
      <trkpt lat="44.90154" lon="4.41416">
        <ele>506.4</ele>
        <time>2021-06-06T07:19:15Z</time>
      </trkpt>
      <trkpt lat="44.90142" lon="4.41407">
        <ele>506.8</ele>
        <time>2021-06-06T07:19:19Z</time>
      </trkpt>
      <trkpt lat="44.90128" lon="4.41397">
        <ele>507.2</ele>
        <time>2021-06-06T07:19:23Z</time>
      </trkpt>
      <trkpt lat="44.90112" lon="4.41389">
        <ele>507.2</ele>
        <time>2021-06-06T07:19:27Z</time>
      </trkpt>
      <trkpt lat="44.90097" lon="4.41378">
        <ele>507.2</ele>
        <time>2021-06-06T07:19:31Z</time>
      </trkpt>
      <trkpt lat="44.90082" lon="4.41368">
        <ele>507</ele>
        <time>2021-06-06T07:19:35Z</time>
      </trkpt>
      <trkpt lat="44.90066" lon="4.41358">
        <ele>507.2</ele>
        <time>2021-06-06T07:19:39Z</time>
      </trkpt>
      <trkpt lat="44.90049" lon="4.4135">
        <ele>508</ele>
        <time>2021-06-06T07:19:43Z</time>
      </trkpt>
      <trkpt lat="44.90032" lon="4.41344">
        <ele>507.4</ele>
        <time>2021-06-06T07:19:47Z</time>
      </trkpt>
      <trkpt lat="44.90014" lon="4.41341">
        <ele>507.6</ele>
        <time>2021-06-06T07:19:51Z</time>
      </trkpt>
      <trkpt lat="44.89996" lon="4.4134">
        <ele>507.6</ele>
        <time>2021-06-06T07:19:55Z</time>
      </trkpt>
      <trkpt lat="44.89978" lon="4.41339">
        <ele>507.8</ele>
        <time>2021-06-06T07:19:59Z</time>
      </trkpt>
      <trkpt lat="44.8996" lon="4.41333">
        <ele>507.8</ele>
        <time>2021-06-06T07:20:03Z</time>
      </trkpt>
      <trkpt lat="44.89943" lon="4.41322">
        <ele>507.6</ele>
        <time>2021-06-06T07:20:07Z</time>
      </trkpt>
      <trkpt lat="44.89925" lon="4.41311">
        <ele>507.6</ele>
        <time>2021-06-06T07:20:11Z</time>
      </trkpt>
      <trkpt lat="44.89908" lon="4.41302">
        <ele>507.6</ele>
        <time>2021-06-06T07:20:15Z</time>
      </trkpt>
      <trkpt lat="44.8989" lon="4.41295">
        <ele>508</ele>
        <time>2021-06-06T07:20:19Z</time>
      </trkpt>
      <trkpt lat="44.89871" lon="4.41285">
        <ele>507.2</ele>
        <time>2021-06-06T07:20:23Z</time>
      </trkpt>
      <trkpt lat="44.89853" lon="4.41274">
        <ele>507.2</ele>
        <time>2021-06-06T07:20:27Z</time>
      </trkpt>
      <trkpt lat="44.89836" lon="4.41263">
        <ele>508</ele>
        <time>2021-06-06T07:20:31Z</time>
      </trkpt>
      <trkpt lat="44.8982" lon="4.41253">
        <ele>508.4</ele>
        <time>2021-06-06T07:20:35Z</time>
      </trkpt>
      <trkpt lat="44.89805" lon="4.41243">
        <ele>508.8</ele>
        <time>2021-06-06T07:20:39Z</time>
      </trkpt>
      <trkpt lat="44.89791" lon="4.4123">
        <ele>509</ele>
        <time>2021-06-06T07:20:43Z</time>
      </trkpt>
      <trkpt lat="44.89778" lon="4.41215">
        <ele>509.8</ele>
        <time>2021-06-06T07:20:47Z</time>
      </trkpt>
      <trkpt lat="44.89766" lon="4.41199">
        <ele>509.6</ele>
        <time>2021-06-06T07:20:51Z</time>
      </trkpt>
      <trkpt lat="44.89755" lon="4.41183">
        <ele>510.6</ele>
        <time>2021-06-06T07:20:55Z</time>
      </trkpt>
      <trkpt lat="44.89744" lon="4.41166">
        <ele>510.8</ele>
        <time>2021-06-06T07:20:59Z</time>
      </trkpt>
      <trkpt lat="44.89733" lon="4.41149">
        <ele>511.6</ele>
        <time>2021-06-06T07:21:03Z</time>
      </trkpt>
      <trkpt lat="44.8972" lon="4.41132">
        <ele>511.4</ele>
        <time>2021-06-06T07:21:07Z</time>
      </trkpt>
      <trkpt lat="44.89709" lon="4.41115">
        <ele>511.2</ele>
        <time>2021-06-06T07:21:11Z</time>
      </trkpt>
      <trkpt lat="44.89697" lon="4.41097">
        <ele>511.4</ele>
        <time>2021-06-06T07:21:15Z</time>
      </trkpt>
      <trkpt lat="44.89685" lon="4.41079">
        <ele>512</ele>
        <time>2021-06-06T07:21:19Z</time>
      </trkpt>
      <trkpt lat="44.89673" lon="4.4106">
        <ele>512.2</ele>
        <time>2021-06-06T07:21:23Z</time>
      </trkpt>
      <trkpt lat="44.89662" lon="4.4104">
        <ele>512</ele>
        <time>2021-06-06T07:21:27Z</time>
      </trkpt>
      <trkpt lat="44.89656" lon="4.41015">
        <ele>512.2</ele>
        <time>2021-06-06T07:21:31Z</time>
      </trkpt>
      <trkpt lat="44.89651" lon="4.4099">
        <ele>512.6</ele>
        <time>2021-06-06T07:21:35Z</time>
      </trkpt>
      <trkpt lat="44.89646" lon="4.40964">
        <ele>512.4</ele>
        <time>2021-06-06T07:21:39Z</time>
      </trkpt>
      <trkpt lat="44.89645" lon="4.40936">
        <ele>512.6</ele>
        <time>2021-06-06T07:21:43Z</time>
      </trkpt>
      <trkpt lat="44.89647" lon="4.40909">
        <ele>513.2</ele>
        <time>2021-06-06T07:21:47Z</time>
      </trkpt>
      <trkpt lat="44.89649" lon="4.40883">
        <ele>512.8</ele>
        <time>2021-06-06T07:21:51Z</time>
      </trkpt>
      <trkpt lat="44.89653" lon="4.40861">
        <ele>513.2</ele>
        <time>2021-06-06T07:21:55Z</time>
      </trkpt>
      <trkpt lat="44.89654" lon="4.40839">
        <ele>513</ele>
        <time>2021-06-06T07:21:59Z</time>
      </trkpt>
      <trkpt lat="44.89656" lon="4.40816">
        <ele>513.4</ele>
        <time>2021-06-06T07:22:03Z</time>
      </trkpt>
      <trkpt lat="44.89659" lon="4.40793">
        <ele>513.4</ele>
        <time>2021-06-06T07:22:07Z</time>
      </trkpt>
      <trkpt lat="44.89661" lon="4.40767">
        <ele>514</ele>
        <time>2021-06-06T07:22:11Z</time>
      </trkpt>
      <trkpt lat="44.89663" lon="4.40742">
        <ele>514.2</ele>
        <time>2021-06-06T07:22:15Z</time>
      </trkpt>
      <trkpt lat="44.89663" lon="4.40717">
        <ele>514.4</ele>
        <time>2021-06-06T07:22:19Z</time>
      </trkpt>
      <trkpt lat="44.89664" lon="4.40693">
        <ele>514.8</ele>
        <time>2021-06-06T07:22:23Z</time>
      </trkpt>
      <trkpt lat="44.89666" lon="4.40669">
        <ele>515.2</ele>
        <time>2021-06-06T07:22:27Z</time>
      </trkpt>
      <trkpt lat="44.89667" lon="4.40644">
        <ele>515.2</ele>
        <time>2021-06-06T07:22:31Z</time>
      </trkpt>
      <trkpt lat="44.89669" lon="4.40619">
        <ele>515.6</ele>
        <time>2021-06-06T07:22:35Z</time>
      </trkpt>
      <trkpt lat="44.8967" lon="4.40594">
        <ele>516.2</ele>
        <time>2021-06-06T07:22:39Z</time>
      </trkpt>
      <trkpt lat="44.89672" lon="4.4057">
        <ele>516.2</ele>
        <time>2021-06-06T07:22:43Z</time>
      </trkpt>
      <trkpt lat="44.89674" lon="4.40547">
        <ele>516.8</ele>
        <time>2021-06-06T07:22:47Z</time>
      </trkpt>
      <trkpt lat="44.89675" lon="4.40524">
        <ele>516.6</ele>
        <time>2021-06-06T07:22:51Z</time>
      </trkpt>
      <trkpt lat="44.89676" lon="4.40502">
        <ele>516.8</ele>
        <time>2021-06-06T07:22:55Z</time>
      </trkpt>
      <trkpt lat="44.89677" lon="4.4048">
        <ele>517.8</ele>
        <time>2021-06-06T07:22:59Z</time>
      </trkpt>
      <trkpt lat="44.89674" lon="4.40455">
        <ele>518</ele>
        <time>2021-06-06T07:23:03Z</time>
      </trkpt>
      <trkpt lat="44.89668" lon="4.40432">
        <ele>518.4</ele>
        <time>2021-06-06T07:23:07Z</time>
      </trkpt>
      <trkpt lat="44.8966" lon="4.40409">
        <ele>519.2</ele>
        <time>2021-06-06T07:23:11Z</time>
      </trkpt>
      <trkpt lat="44.89649" lon="4.40388">
        <ele>519</ele>
        <time>2021-06-06T07:23:15Z</time>
      </trkpt>
      <trkpt lat="44.89638" lon="4.40371">
        <ele>519.2</ele>
        <time>2021-06-06T07:23:19Z</time>
      </trkpt>
      <trkpt lat="44.89626" lon="4.40354">
        <ele>519.2</ele>
        <time>2021-06-06T07:23:23Z</time>
      </trkpt>
      <trkpt lat="44.89611" lon="4.4034">
        <ele>520.4</ele>
        <time>2021-06-06T07:23:27Z</time>
      </trkpt>
      <trkpt lat="44.89594" lon="4.40333">
        <ele>520.6</ele>
        <time>2021-06-06T07:23:31Z</time>
      </trkpt>
      <trkpt lat="44.89577" lon="4.40325">
        <ele>521.2</ele>
        <time>2021-06-06T07:23:35Z</time>
      </trkpt>
      <trkpt lat="44.89559" lon="4.40324">
        <ele>521.8</ele>
        <time>2021-06-06T07:23:39Z</time>
      </trkpt>
      <trkpt lat="44.89539" lon="4.40325">
        <ele>522.2</ele>
        <time>2021-06-06T07:23:43Z</time>
      </trkpt>
      <trkpt lat="44.89524" lon="4.40322">
        <ele>522.4</ele>
        <time>2021-06-06T07:23:47Z</time>
      </trkpt>
      <trkpt lat="44.89511" lon="4.40315">
        <ele>522.4</ele>
        <time>2021-06-06T07:23:51Z</time>
      </trkpt>
      <trkpt lat="44.89495" lon="4.40313">
        <ele>522.6</ele>
        <time>2021-06-06T07:23:55Z</time>
      </trkpt>
      <trkpt lat="44.89478" lon="4.40311">
        <ele>523</ele>
        <time>2021-06-06T07:23:59Z</time>
      </trkpt>
      <trkpt lat="44.89462" lon="4.4031">
        <ele>523.4</ele>
        <time>2021-06-06T07:24:03Z</time>
      </trkpt>
      <trkpt lat="44.89445" lon="4.40309">
        <ele>523.4</ele>
        <time>2021-06-06T07:24:07Z</time>
      </trkpt>
      <trkpt lat="44.89427" lon="4.40308">
        <ele>523.8</ele>
        <time>2021-06-06T07:24:11Z</time>
      </trkpt>
      <trkpt lat="44.8941" lon="4.40307">
        <ele>524.2</ele>
        <time>2021-06-06T07:24:15Z</time>
      </trkpt>
      <trkpt lat="44.89393" lon="4.40306">
        <ele>524</ele>
        <time>2021-06-06T07:24:19Z</time>
      </trkpt>
      <trkpt lat="44.89377" lon="4.40305">
        <ele>525</ele>
        <time>2021-06-06T07:24:23Z</time>
      </trkpt>
      <trkpt lat="44.89361" lon="4.40303">
        <ele>524.8</ele>
        <time>2021-06-06T07:24:27Z</time>
      </trkpt>
      <trkpt lat="44.89345" lon="4.40298">
        <ele>524.8</ele>
        <time>2021-06-06T07:24:31Z</time>
      </trkpt>
      <trkpt lat="44.89331" lon="4.40291">
        <ele>525.6</ele>
        <time>2021-06-06T07:24:35Z</time>
      </trkpt>
      <trkpt lat="44.89318" lon="4.40279">
        <ele>526.4</ele>
        <time>2021-06-06T07:24:39Z</time>
      </trkpt>
      <trkpt lat="44.89306" lon="4.40268">
        <ele>526.4</ele>
        <time>2021-06-06T07:24:43Z</time>
      </trkpt>
      <trkpt lat="44.89295" lon="4.40252">
        <ele>526.6</ele>
        <time>2021-06-06T07:24:47Z</time>
      </trkpt>
      <trkpt lat="44.89284" lon="4.40237">
        <ele>527</ele>
        <time>2021-06-06T07:24:51Z</time>
      </trkpt>
      <trkpt lat="44.89272" lon="4.40222">
        <ele>528</ele>
        <time>2021-06-06T07:24:55Z</time>
      </trkpt>
      <trkpt lat="44.89263" lon="4.40206">
        <ele>527.6</ele>
        <time>2021-06-06T07:24:59Z</time>
      </trkpt>
      <trkpt lat="44.89252" lon="4.40191">
        <ele>528.4</ele>
        <time>2021-06-06T07:25:03Z</time>
      </trkpt>
      <trkpt lat="44.89242" lon="4.40173">
        <ele>528.6</ele>
        <time>2021-06-06T07:25:07Z</time>
      </trkpt>
      <trkpt lat="44.89233" lon="4.40155">
        <ele>528.8</ele>
        <time>2021-06-06T07:25:11Z</time>
      </trkpt>
      <trkpt lat="44.89225" lon="4.40137">
        <ele>529.2</ele>
        <time>2021-06-06T07:25:15Z</time>
      </trkpt>
      <trkpt lat="44.89216" lon="4.40121">
        <ele>530.6</ele>
        <time>2021-06-06T07:25:19Z</time>
      </trkpt>
      <trkpt lat="44.89211" lon="4.40108">
        <ele>529.6</ele>
        <time>2021-06-06T07:25:23Z</time>
      </trkpt>
      <trkpt lat="44.89203" lon="4.40095">
        <ele>529.8</ele>
        <time>2021-06-06T07:26:37Z</time>
      </trkpt>
      <trkpt lat="44.89196" lon="4.4008">
        <ele>529.8</ele>
        <time>2021-06-06T07:26:41Z</time>
      </trkpt>
      <trkpt lat="44.8919" lon="4.40064">
        <ele>529.4</ele>
        <time>2021-06-06T07:26:45Z</time>
      </trkpt>
      <trkpt lat="44.89183" lon="4.40047">
        <ele>530.2</ele>
        <time>2021-06-06T07:26:49Z</time>
      </trkpt>
      <trkpt lat="44.89176" lon="4.4003">
        <ele>530.2</ele>
        <time>2021-06-06T07:26:53Z</time>
      </trkpt>
      <trkpt lat="44.8917" lon="4.40011">
        <ele>530.8</ele>
        <time>2021-06-06T07:26:57Z</time>
      </trkpt>
      <trkpt lat="44.89165" lon="4.3999">
        <ele>531.2</ele>
        <time>2021-06-06T07:27:01Z</time>
      </trkpt>
      <trkpt lat="44.89162" lon="4.39969">
        <ele>532</ele>
        <time>2021-06-06T07:27:05Z</time>
      </trkpt>
      <trkpt lat="44.8916" lon="4.39947">
        <ele>532</ele>
        <time>2021-06-06T07:27:09Z</time>
      </trkpt>
      <trkpt lat="44.8916" lon="4.39925">
        <ele>532.4</ele>
        <time>2021-06-06T07:27:13Z</time>
      </trkpt>
      <trkpt lat="44.89162" lon="4.39902">
        <ele>533</ele>
        <time>2021-06-06T07:27:17Z</time>
      </trkpt>
      <trkpt lat="44.89165" lon="4.39879">
        <ele>533.4</ele>
        <time>2021-06-06T07:27:21Z</time>
      </trkpt>
      <trkpt lat="44.8917" lon="4.39857">
        <ele>533</ele>
        <time>2021-06-06T07:27:25Z</time>
      </trkpt>
      <trkpt lat="44.89175" lon="4.39834">
        <ele>533.6</ele>
        <time>2021-06-06T07:27:29Z</time>
      </trkpt>
      <trkpt lat="44.8918" lon="4.39812">
        <ele>533.6</ele>
        <time>2021-06-06T07:27:33Z</time>
      </trkpt>
      <trkpt lat="44.89184" lon="4.3979">
        <ele>534</ele>
        <time>2021-06-06T07:27:37Z</time>
      </trkpt>
      <trkpt lat="44.89189" lon="4.39768">
        <ele>534.4</ele>
        <time>2021-06-06T07:27:41Z</time>
      </trkpt>
      <trkpt lat="44.89195" lon="4.39746">
        <ele>534.6</ele>
        <time>2021-06-06T07:27:45Z</time>
      </trkpt>
      <trkpt lat="44.89201" lon="4.39726">
        <ele>535</ele>
        <time>2021-06-06T07:27:49Z</time>
      </trkpt>
      <trkpt lat="44.89209" lon="4.39706">
        <ele>536</ele>
        <time>2021-06-06T07:27:53Z</time>
      </trkpt>
      <trkpt lat="44.89217" lon="4.39686">
        <ele>536.4</ele>
        <time>2021-06-06T07:27:57Z</time>
      </trkpt>
      <trkpt lat="44.89226" lon="4.39666">
        <ele>536.6</ele>
        <time>2021-06-06T07:28:01Z</time>
      </trkpt>
      <trkpt lat="44.89235" lon="4.39648">
        <ele>537.2</ele>
        <time>2021-06-06T07:28:05Z</time>
      </trkpt>
      <trkpt lat="44.89247" lon="4.39631">
        <ele>537.4</ele>
        <time>2021-06-06T07:28:09Z</time>
      </trkpt>
      <trkpt lat="44.89259" lon="4.39615">
        <ele>537.4</ele>
        <time>2021-06-06T07:28:13Z</time>
      </trkpt>
      <trkpt lat="44.89271" lon="4.39601">
        <ele>538.4</ele>
        <time>2021-06-06T07:28:17Z</time>
      </trkpt>
      <trkpt lat="44.89283" lon="4.39587">
        <ele>538.4</ele>
        <time>2021-06-06T07:28:21Z</time>
      </trkpt>
      <trkpt lat="44.89294" lon="4.39574">
        <ele>539</ele>
        <time>2021-06-06T07:28:25Z</time>
      </trkpt>
      <trkpt lat="44.89305" lon="4.3956">
        <ele>539.8</ele>
        <time>2021-06-06T07:28:29Z</time>
      </trkpt>
      <trkpt lat="44.89315" lon="4.39543">
        <ele>540</ele>
        <time>2021-06-06T07:28:33Z</time>
      </trkpt>
      <trkpt lat="44.89319" lon="4.39519">
        <ele>541</ele>
        <time>2021-06-06T07:28:37Z</time>
      </trkpt>
      <trkpt lat="44.89318" lon="4.39496">
        <ele>540.4</ele>
        <time>2021-06-06T07:28:41Z</time>
      </trkpt>
      <trkpt lat="44.89312" lon="4.39471">
        <ele>540.6</ele>
        <time>2021-06-06T07:28:45Z</time>
      </trkpt>
      <trkpt lat="44.89305" lon="4.39447">
        <ele>541</ele>
        <time>2021-06-06T07:28:49Z</time>
      </trkpt>
      <trkpt lat="44.89299" lon="4.39424">
        <ele>541.8</ele>
        <time>2021-06-06T07:28:53Z</time>
      </trkpt>
      <trkpt lat="44.89293" lon="4.39402">
        <ele>541.6</ele>
        <time>2021-06-06T07:28:57Z</time>
      </trkpt>
      <trkpt lat="44.89286" lon="4.39381">
        <ele>541.8</ele>
        <time>2021-06-06T07:29:01Z</time>
      </trkpt>
      <trkpt lat="44.89277" lon="4.39361">
        <ele>541.8</ele>
        <time>2021-06-06T07:29:05Z</time>
      </trkpt>
      <trkpt lat="44.89266" lon="4.39341">
        <ele>541.4</ele>
        <time>2021-06-06T07:29:09Z</time>
      </trkpt>
      <trkpt lat="44.89255" lon="4.39321">
        <ele>541.4</ele>
        <time>2021-06-06T07:29:13Z</time>
      </trkpt>
      <trkpt lat="44.89245" lon="4.39301">
        <ele>541.8</ele>
        <time>2021-06-06T07:29:17Z</time>
      </trkpt>
      <trkpt lat="44.89236" lon="4.39281">
        <ele>542.4</ele>
        <time>2021-06-06T07:29:21Z</time>
      </trkpt>
      <trkpt lat="44.89227" lon="4.39262">
        <ele>542.6</ele>
        <time>2021-06-06T07:29:25Z</time>
      </trkpt>
      <trkpt lat="44.89218" lon="4.39242">
        <ele>543</ele>
        <time>2021-06-06T07:29:29Z</time>
      </trkpt>
      <trkpt lat="44.89209" lon="4.39223">
        <ele>543</ele>
        <time>2021-06-06T07:29:33Z</time>
      </trkpt>
      <trkpt lat="44.89201" lon="4.39203">
        <ele>543</ele>
        <time>2021-06-06T07:29:37Z</time>
      </trkpt>
      <trkpt lat="44.89195" lon="4.39182">
        <ele>543.4</ele>
        <time>2021-06-06T07:29:41Z</time>
      </trkpt>
      <trkpt lat="44.89192" lon="4.3916">
        <ele>544.2</ele>
        <time>2021-06-06T07:29:45Z</time>
      </trkpt>
      <trkpt lat="44.89192" lon="4.39137">
        <ele>543.8</ele>
        <time>2021-06-06T07:29:49Z</time>
      </trkpt>
      <trkpt lat="44.89192" lon="4.39116">
        <ele>543.6</ele>
        <time>2021-06-06T07:29:53Z</time>
      </trkpt>
      <trkpt lat="44.89185" lon="4.39093">
        <ele>544.2</ele>
        <time>2021-06-06T07:29:57Z</time>
      </trkpt>
      <trkpt lat="44.89174" lon="4.39072">
        <ele>543.8</ele>
        <time>2021-06-06T07:30:01Z</time>
      </trkpt>
      <trkpt lat="44.89164" lon="4.39052">
        <ele>544.4</ele>
        <time>2021-06-06T07:30:05Z</time>
      </trkpt>
      <trkpt lat="44.89154" lon="4.39032">
        <ele>544.6</ele>
        <time>2021-06-06T07:30:09Z</time>
      </trkpt>
      <trkpt lat="44.89145" lon="4.39012">
        <ele>544.6</ele>
        <time>2021-06-06T07:30:13Z</time>
      </trkpt>
      <trkpt lat="44.89137" lon="4.38992">
        <ele>544.8</ele>
        <time>2021-06-06T07:30:17Z</time>
      </trkpt>
      <trkpt lat="44.89128" lon="4.38971">
        <ele>545</ele>
        <time>2021-06-06T07:30:21Z</time>
      </trkpt>
      <trkpt lat="44.89116" lon="4.38954">
        <ele>544.8</ele>
        <time>2021-06-06T07:30:25Z</time>
      </trkpt>
      <trkpt lat="44.89103" lon="4.38939">
        <ele>545.2</ele>
        <time>2021-06-06T07:30:29Z</time>
      </trkpt>
      <trkpt lat="44.8909" lon="4.38924">
        <ele>544.8</ele>
        <time>2021-06-06T07:30:33Z</time>
      </trkpt>
      <trkpt lat="44.89078" lon="4.38906">
        <ele>546</ele>
        <time>2021-06-06T07:30:37Z</time>
      </trkpt>
      <trkpt lat="44.89067" lon="4.38888">
        <ele>545.8</ele>
        <time>2021-06-06T07:30:41Z</time>
      </trkpt>
      <trkpt lat="44.89058" lon="4.3887">
        <ele>546.2</ele>
        <time>2021-06-06T07:30:45Z</time>
      </trkpt>
      <trkpt lat="44.8905" lon="4.38852">
        <ele>547.2</ele>
        <time>2021-06-06T07:30:49Z</time>
      </trkpt>
      <trkpt lat="44.89045" lon="4.38833">
        <ele>547.4</ele>
        <time>2021-06-06T07:30:53Z</time>
      </trkpt>
      <trkpt lat="44.89041" lon="4.38813">
        <ele>548.2</ele>
        <time>2021-06-06T07:30:57Z</time>
      </trkpt>
      <trkpt lat="44.89038" lon="4.38792">
        <ele>549</ele>
        <time>2021-06-06T07:31:01Z</time>
      </trkpt>
      <trkpt lat="44.89035" lon="4.38771">
        <ele>549</ele>
        <time>2021-06-06T07:31:05Z</time>
      </trkpt>
      <trkpt lat="44.89031" lon="4.38749">
        <ele>549.6</ele>
        <time>2021-06-06T07:31:09Z</time>
      </trkpt>
      <trkpt lat="44.89028" lon="4.38726">
        <ele>549.4</ele>
        <time>2021-06-06T07:31:13Z</time>
      </trkpt>
      <trkpt lat="44.89028" lon="4.38704">
        <ele>549.8</ele>
        <time>2021-06-06T07:31:17Z</time>
      </trkpt>
      <trkpt lat="44.89032" lon="4.38681">
        <ele>549.8</ele>
        <time>2021-06-06T07:31:21Z</time>
      </trkpt>
      <trkpt lat="44.89037" lon="4.38659">
        <ele>550.4</ele>
        <time>2021-06-06T07:31:25Z</time>
      </trkpt>
      <trkpt lat="44.89044" lon="4.3864">
        <ele>550.2</ele>
        <time>2021-06-06T07:31:29Z</time>
      </trkpt>
      <trkpt lat="44.89055" lon="4.38623">
        <ele>550.6</ele>
        <time>2021-06-06T07:31:33Z</time>
      </trkpt>
      <trkpt lat="44.89066" lon="4.38607">
        <ele>551.4</ele>
        <time>2021-06-06T07:31:37Z</time>
      </trkpt>
      <trkpt lat="44.89078" lon="4.3859">
        <ele>551.2</ele>
        <time>2021-06-06T07:31:41Z</time>
      </trkpt>
      <trkpt lat="44.8909" lon="4.38572">
        <ele>552</ele>
        <time>2021-06-06T07:31:45Z</time>
      </trkpt>
      <trkpt lat="44.89101" lon="4.38557">
        <ele>552.2</ele>
        <time>2021-06-06T07:31:49Z</time>
      </trkpt>
      <trkpt lat="44.89111" lon="4.38539">
        <ele>552.4</ele>
        <time>2021-06-06T07:31:53Z</time>
      </trkpt>
      <trkpt lat="44.89116" lon="4.38518">
        <ele>553.2</ele>
        <time>2021-06-06T07:31:57Z</time>
      </trkpt>
      <trkpt lat="44.8912" lon="4.38495">
        <ele>553.4</ele>
        <time>2021-06-06T07:32:01Z</time>
      </trkpt>
      <trkpt lat="44.89119" lon="4.38474">
        <ele>554</ele>
        <time>2021-06-06T07:32:05Z</time>
      </trkpt>
      <trkpt lat="44.89115" lon="4.38454">
        <ele>554.2</ele>
        <time>2021-06-06T07:32:09Z</time>
      </trkpt>
      <trkpt lat="44.8911" lon="4.38435">
        <ele>555</ele>
        <time>2021-06-06T07:32:13Z</time>
      </trkpt>
      <trkpt lat="44.89106" lon="4.38415">
        <ele>555.2</ele>
        <time>2021-06-06T07:32:17Z</time>
      </trkpt>
      <trkpt lat="44.89102" lon="4.38395">
        <ele>556</ele>
        <time>2021-06-06T07:32:21Z</time>
      </trkpt>
      <trkpt lat="44.89099" lon="4.38373">
        <ele>556.2</ele>
        <time>2021-06-06T07:32:25Z</time>
      </trkpt>
      <trkpt lat="44.89099" lon="4.38352">
        <ele>555.8</ele>
        <time>2021-06-06T07:32:29Z</time>
      </trkpt>
      <trkpt lat="44.891" lon="4.3833">
        <ele>557</ele>
        <time>2021-06-06T07:32:33Z</time>
      </trkpt>
      <trkpt lat="44.891" lon="4.38309">
        <ele>557.8</ele>
        <time>2021-06-06T07:32:37Z</time>
      </trkpt>
      <trkpt lat="44.89101" lon="4.3829">
        <ele>557.6</ele>
        <time>2021-06-06T07:32:41Z</time>
      </trkpt>
      <trkpt lat="44.89103" lon="4.3827">
        <ele>557.2</ele>
        <time>2021-06-06T07:32:45Z</time>
      </trkpt>
      <trkpt lat="44.89105" lon="4.38248">
        <ele>558.2</ele>
        <time>2021-06-06T07:32:49Z</time>
      </trkpt>
      <trkpt lat="44.89108" lon="4.38226">
        <ele>558</ele>
        <time>2021-06-06T07:32:53Z</time>
      </trkpt>
      <trkpt lat="44.89111" lon="4.38202">
        <ele>558.4</ele>
        <time>2021-06-06T07:32:57Z</time>
      </trkpt>
      <trkpt lat="44.89117" lon="4.38179">
        <ele>558.6</ele>
        <time>2021-06-06T07:33:01Z</time>
      </trkpt>
      <trkpt lat="44.89126" lon="4.38158">
        <ele>558.6</ele>
        <time>2021-06-06T07:33:05Z</time>
      </trkpt>
      <trkpt lat="44.89137" lon="4.3814">
        <ele>559</ele>
        <time>2021-06-06T07:33:09Z</time>
      </trkpt>
      <trkpt lat="44.89148" lon="4.38122">
        <ele>559.4</ele>
        <time>2021-06-06T07:33:13Z</time>
      </trkpt>
      <trkpt lat="44.89158" lon="4.38104">
        <ele>559.6</ele>
        <time>2021-06-06T07:33:17Z</time>
      </trkpt>
      <trkpt lat="44.89167" lon="4.38084">
        <ele>560.2</ele>
        <time>2021-06-06T07:33:21Z</time>
      </trkpt>
      <trkpt lat="44.89175" lon="4.38063">
        <ele>560.6</ele>
        <time>2021-06-06T07:33:25Z</time>
      </trkpt>
      <trkpt lat="44.89181" lon="4.38043">
        <ele>561</ele>
        <time>2021-06-06T07:33:29Z</time>
      </trkpt>
      <trkpt lat="44.89187" lon="4.38022">
        <ele>561.2</ele>
        <time>2021-06-06T07:33:33Z</time>
      </trkpt>
      <trkpt lat="44.89195" lon="4.38001">
        <ele>562</ele>
        <time>2021-06-06T07:33:37Z</time>
      </trkpt>
      <trkpt lat="44.89202" lon="4.37979">
        <ele>562.4</ele>
        <time>2021-06-06T07:33:41Z</time>
      </trkpt>
      <trkpt lat="44.89205" lon="4.37956">
        <ele>562.8</ele>
        <time>2021-06-06T07:33:45Z</time>
      </trkpt>
      <trkpt lat="44.89205" lon="4.37933">
        <ele>562.6</ele>
        <time>2021-06-06T07:33:49Z</time>
      </trkpt>
      <trkpt lat="44.89199" lon="4.37911">
        <ele>562.4</ele>
        <time>2021-06-06T07:33:53Z</time>
      </trkpt>
      <trkpt lat="44.89186" lon="4.37893">
        <ele>562.6</ele>
        <time>2021-06-06T07:33:57Z</time>
      </trkpt>
      <trkpt lat="44.8917" lon="4.37879">
        <ele>562.8</ele>
        <time>2021-06-06T07:34:01Z</time>
      </trkpt>
      <trkpt lat="44.89154" lon="4.37869">
        <ele>562.6</ele>
        <time>2021-06-06T07:34:05Z</time>
      </trkpt>
      <trkpt lat="44.89138" lon="4.37858">
        <ele>563.2</ele>
        <time>2021-06-06T07:34:09Z</time>
      </trkpt>
      <trkpt lat="44.89123" lon="4.37847">
        <ele>561.8</ele>
        <time>2021-06-06T07:34:13Z</time>
      </trkpt>
      <trkpt lat="44.89108" lon="4.37836">
        <ele>561.8</ele>
        <time>2021-06-06T07:34:17Z</time>
      </trkpt>
      <trkpt lat="44.89093" lon="4.37826">
        <ele>562.2</ele>
        <time>2021-06-06T07:34:21Z</time>
      </trkpt>
      <trkpt lat="44.89079" lon="4.37815">
        <ele>562.8</ele>
        <time>2021-06-06T07:34:25Z</time>
      </trkpt>
      <trkpt lat="44.89065" lon="4.37805">
        <ele>563</ele>
        <time>2021-06-06T07:34:29Z</time>
      </trkpt>
      <trkpt lat="44.89052" lon="4.37795">
        <ele>562.6</ele>
        <time>2021-06-06T07:34:33Z</time>
      </trkpt>
      <trkpt lat="44.89038" lon="4.37786">
        <ele>563</ele>
        <time>2021-06-06T07:34:37Z</time>
      </trkpt>
      <trkpt lat="44.89024" lon="4.37777">
        <ele>563.4</ele>
        <time>2021-06-06T07:34:41Z</time>
      </trkpt>
      <trkpt lat="44.89014" lon="4.37768">
        <ele>564.2</ele>
        <time>2021-06-06T07:34:45Z</time>
      </trkpt>
      <trkpt lat="44.89005" lon="4.37767">
        <ele>564.2</ele>
        <time>2021-06-06T07:35:31Z</time>
      </trkpt>
      <trkpt lat="44.88992" lon="4.37758">
        <ele>564.8</ele>
        <time>2021-06-06T07:35:35Z</time>
      </trkpt>
      <trkpt lat="44.8898" lon="4.37745">
        <ele>564.4</ele>
        <time>2021-06-06T07:35:39Z</time>
      </trkpt>
      <trkpt lat="44.88968" lon="4.37731">
        <ele>564.8</ele>
        <time>2021-06-06T07:35:43Z</time>
      </trkpt>
      <trkpt lat="44.88955" lon="4.37716">
        <ele>564.8</ele>
        <time>2021-06-06T07:35:47Z</time>
      </trkpt>
      <trkpt lat="44.88943" lon="4.37703">
        <ele>565</ele>
        <time>2021-06-06T07:35:51Z</time>
      </trkpt>
      <trkpt lat="44.88931" lon="4.3769">
        <ele>565</ele>
        <time>2021-06-06T07:35:55Z</time>
      </trkpt>
      <trkpt lat="44.88918" lon="4.37677">
        <ele>565.6</ele>
        <time>2021-06-06T07:35:59Z</time>
      </trkpt>
      <trkpt lat="44.88905" lon="4.37664">
        <ele>565.2</ele>
        <time>2021-06-06T07:36:03Z</time>
      </trkpt>
      <trkpt lat="44.8889" lon="4.37651">
        <ele>566</ele>
        <time>2021-06-06T07:36:07Z</time>
      </trkpt>
      <trkpt lat="44.88877" lon="4.37637">
        <ele>566.2</ele>
        <time>2021-06-06T07:36:11Z</time>
      </trkpt>
      <trkpt lat="44.88863" lon="4.37622">
        <ele>566.4</ele>
        <time>2021-06-06T07:36:15Z</time>
      </trkpt>
      <trkpt lat="44.88849" lon="4.37607">
        <ele>566.8</ele>
        <time>2021-06-06T07:36:19Z</time>
      </trkpt>
      <trkpt lat="44.88835" lon="4.37592">
        <ele>566.8</ele>
        <time>2021-06-06T07:36:23Z</time>
      </trkpt>
      <trkpt lat="44.8882" lon="4.37581">
        <ele>567.2</ele>
        <time>2021-06-06T07:36:27Z</time>
      </trkpt>
      <trkpt lat="44.88805" lon="4.3757">
        <ele>567.8</ele>
        <time>2021-06-06T07:36:31Z</time>
      </trkpt>
      <trkpt lat="44.88789" lon="4.3756">
        <ele>568.2</ele>
        <time>2021-06-06T07:36:35Z</time>
      </trkpt>
      <trkpt lat="44.88774" lon="4.3755">
        <ele>568.6</ele>
        <time>2021-06-06T07:36:39Z</time>
      </trkpt>
      <trkpt lat="44.8876" lon="4.3754">
        <ele>569</ele>
        <time>2021-06-06T07:36:43Z</time>
      </trkpt>
      <trkpt lat="44.88745" lon="4.37531">
        <ele>569</ele>
        <time>2021-06-06T07:36:47Z</time>
      </trkpt>
      <trkpt lat="44.88732" lon="4.37519">
        <ele>569.2</ele>
        <time>2021-06-06T07:36:51Z</time>
      </trkpt>
      <trkpt lat="44.8872" lon="4.37505">
        <ele>569.6</ele>
        <time>2021-06-06T07:36:55Z</time>
      </trkpt>
      <trkpt lat="44.88709" lon="4.37485">
        <ele>569.8</ele>
        <time>2021-06-06T07:36:59Z</time>
      </trkpt>
      <trkpt lat="44.887" lon="4.37466">
        <ele>570</ele>
        <time>2021-06-06T07:37:03Z</time>
      </trkpt>
      <trkpt lat="44.88692" lon="4.37445">
        <ele>570.4</ele>
        <time>2021-06-06T07:37:07Z</time>
      </trkpt>
      <trkpt lat="44.88684" lon="4.37425">
        <ele>570.4</ele>
        <time>2021-06-06T07:37:11Z</time>
      </trkpt>
      <trkpt lat="44.88676" lon="4.37405">
        <ele>570.8</ele>
        <time>2021-06-06T07:37:15Z</time>
      </trkpt>
      <trkpt lat="44.88669" lon="4.37386">
        <ele>571</ele>
        <time>2021-06-06T07:37:19Z</time>
      </trkpt>
      <trkpt lat="44.88663" lon="4.37367">
        <ele>572</ele>
        <time>2021-06-06T07:37:23Z</time>
      </trkpt>
      <trkpt lat="44.88657" lon="4.37346">
        <ele>572.4</ele>
        <time>2021-06-06T07:37:27Z</time>
      </trkpt>
      <trkpt lat="44.8865" lon="4.37328">
        <ele>572.8</ele>
        <time>2021-06-06T07:37:31Z</time>
      </trkpt>
      <trkpt lat="44.88646" lon="4.37305">
        <ele>573.2</ele>
        <time>2021-06-06T07:37:35Z</time>
      </trkpt>
      <trkpt lat="44.88642" lon="4.37285">
        <ele>574.2</ele>
        <time>2021-06-06T07:37:39Z</time>
      </trkpt>
      <trkpt lat="44.88638" lon="4.37264">
        <ele>574.6</ele>
        <time>2021-06-06T07:37:43Z</time>
      </trkpt>
      <trkpt lat="44.88634" lon="4.37244">
        <ele>575.2</ele>
        <time>2021-06-06T07:37:47Z</time>
      </trkpt>
      <trkpt lat="44.88629" lon="4.37225">
        <ele>575.8</ele>
        <time>2021-06-06T07:37:51Z</time>
      </trkpt>
      <trkpt lat="44.88623" lon="4.37205">
        <ele>576</ele>
        <time>2021-06-06T07:37:55Z</time>
      </trkpt>
      <trkpt lat="44.88616" lon="4.37186">
        <ele>576.4</ele>
        <time>2021-06-06T07:37:59Z</time>
      </trkpt>
      <trkpt lat="44.88609" lon="4.37168">
        <ele>576.6</ele>
        <time>2021-06-06T07:38:03Z</time>
      </trkpt>
      <trkpt lat="44.88601" lon="4.37151">
        <ele>577</ele>
        <time>2021-06-06T07:38:07Z</time>
      </trkpt>
      <trkpt lat="44.88593" lon="4.37134">
        <ele>577.6</ele>
        <time>2021-06-06T07:38:11Z</time>
      </trkpt>
      <trkpt lat="44.88585" lon="4.37117">
        <ele>578.2</ele>
        <time>2021-06-06T07:38:15Z</time>
      </trkpt>
      <trkpt lat="44.88571" lon="4.37106">
        <ele>578.2</ele>
        <time>2021-06-06T07:38:19Z</time>
      </trkpt>
      <trkpt lat="44.88555" lon="4.37099">
        <ele>578</ele>
        <time>2021-06-06T07:38:23Z</time>
      </trkpt>
      <trkpt lat="44.8854" lon="4.37092">
        <ele>578</ele>
        <time>2021-06-06T07:38:27Z</time>
      </trkpt>
      <trkpt lat="44.88524" lon="4.37084">
        <ele>578.8</ele>
        <time>2021-06-06T07:38:31Z</time>
      </trkpt>
      <trkpt lat="44.88509" lon="4.37075">
        <ele>579</ele>
        <time>2021-06-06T07:38:35Z</time>
      </trkpt>
      <trkpt lat="44.88494" lon="4.37067">
        <ele>579.4</ele>
        <time>2021-06-06T07:38:39Z</time>
      </trkpt>
      <trkpt lat="44.88479" lon="4.3706">
        <ele>579.4</ele>
        <time>2021-06-06T07:38:43Z</time>
      </trkpt>
      <trkpt lat="44.88466" lon="4.3705">
        <ele>579.8</ele>
        <time>2021-06-06T07:38:47Z</time>
      </trkpt>
      <trkpt lat="44.88451" lon="4.37043">
        <ele>580</ele>
        <time>2021-06-06T07:38:51Z</time>
      </trkpt>
      <trkpt lat="44.88435" lon="4.37035">
        <ele>580.2</ele>
        <time>2021-06-06T07:38:55Z</time>
      </trkpt>
      <trkpt lat="44.88421" lon="4.37024">
        <ele>580.6</ele>
        <time>2021-06-06T07:38:59Z</time>
      </trkpt>
      <trkpt lat="44.88407" lon="4.37012">
        <ele>580.6</ele>
        <time>2021-06-06T07:39:03Z</time>
      </trkpt>
      <trkpt lat="44.88392" lon="4.37">
        <ele>580.4</ele>
        <time>2021-06-06T07:39:07Z</time>
      </trkpt>
      <trkpt lat="44.88377" lon="4.36987">
        <ele>581</ele>
        <time>2021-06-06T07:39:11Z</time>
      </trkpt>
      <trkpt lat="44.88364" lon="4.36973">
        <ele>581</ele>
        <time>2021-06-06T07:39:15Z</time>
      </trkpt>
      <trkpt lat="44.8835" lon="4.3696">
        <ele>581.2</ele>
        <time>2021-06-06T07:39:19Z</time>
      </trkpt>
      <trkpt lat="44.88337" lon="4.36946">
        <ele>581.6</ele>
        <time>2021-06-06T07:39:23Z</time>
      </trkpt>
      <trkpt lat="44.88324" lon="4.36931">
        <ele>581.8</ele>
        <time>2021-06-06T07:39:27Z</time>
      </trkpt>
      <trkpt lat="44.8831" lon="4.36918">
        <ele>581.8</ele>
        <time>2021-06-06T07:39:31Z</time>
      </trkpt>
      <trkpt lat="44.88296" lon="4.36905">
        <ele>582</ele>
        <time>2021-06-06T07:39:35Z</time>
      </trkpt>
      <trkpt lat="44.88283" lon="4.36891">
        <ele>582</ele>
        <time>2021-06-06T07:39:39Z</time>
      </trkpt>
      <trkpt lat="44.8827" lon="4.36878">
        <ele>582</ele>
        <time>2021-06-06T07:39:43Z</time>
      </trkpt>
      <trkpt lat="44.88255" lon="4.36866">
        <ele>582.8</ele>
        <time>2021-06-06T07:39:47Z</time>
      </trkpt>
      <trkpt lat="44.88241" lon="4.36852">
        <ele>583.2</ele>
        <time>2021-06-06T07:39:51Z</time>
      </trkpt>
      <trkpt lat="44.88228" lon="4.36839">
        <ele>582.6</ele>
        <time>2021-06-06T07:39:55Z</time>
      </trkpt>
      <trkpt lat="44.88217" lon="4.36819">
        <ele>584</ele>
        <time>2021-06-06T07:39:59Z</time>
      </trkpt>
      <trkpt lat="44.88205" lon="4.36803">
        <ele>584.2</ele>
        <time>2021-06-06T07:40:03Z</time>
      </trkpt>
      <trkpt lat="44.88191" lon="4.36788">
        <ele>584.6</ele>
        <time>2021-06-06T07:40:07Z</time>
      </trkpt>
      <trkpt lat="44.88177" lon="4.36776">
        <ele>585</ele>
        <time>2021-06-06T07:40:11Z</time>
      </trkpt>
      <trkpt lat="44.88163" lon="4.36762">
        <ele>584.4</ele>
        <time>2021-06-06T07:40:15Z</time>
      </trkpt>
      <trkpt lat="44.88149" lon="4.36748">
        <ele>585</ele>
        <time>2021-06-06T07:40:19Z</time>
      </trkpt>
      <trkpt lat="44.88136" lon="4.36735">
        <ele>585</ele>
        <time>2021-06-06T07:40:23Z</time>
      </trkpt>
      <trkpt lat="44.88123" lon="4.36718">
        <ele>585.8</ele>
        <time>2021-06-06T07:40:27Z</time>
      </trkpt>
      <trkpt lat="44.88111" lon="4.36703">
        <ele>585.8</ele>
        <time>2021-06-06T07:40:31Z</time>
      </trkpt>
      <trkpt lat="44.88097" lon="4.36689">
        <ele>586.8</ele>
        <time>2021-06-06T07:40:35Z</time>
      </trkpt>
      <trkpt lat="44.88083" lon="4.36674">
        <ele>587.2</ele>
        <time>2021-06-06T07:40:39Z</time>
      </trkpt>
      <trkpt lat="44.8807" lon="4.36659">
        <ele>587.2</ele>
        <time>2021-06-06T07:40:43Z</time>
      </trkpt>
      <trkpt lat="44.88057" lon="4.36645">
        <ele>587.4</ele>
        <time>2021-06-06T07:40:47Z</time>
      </trkpt>
      <trkpt lat="44.88044" lon="4.36631">
        <ele>587.8</ele>
        <time>2021-06-06T07:40:51Z</time>
      </trkpt>
      <trkpt lat="44.88029" lon="4.36624">
        <ele>587.8</ele>
        <time>2021-06-06T07:40:55Z</time>
      </trkpt>
      <trkpt lat="44.88015" lon="4.3661">
        <ele>588</ele>
        <time>2021-06-06T07:40:59Z</time>
      </trkpt>
      <trkpt lat="44.88" lon="4.366">
        <ele>588.6</ele>
        <time>2021-06-06T07:41:03Z</time>
      </trkpt>
      <trkpt lat="44.87985" lon="4.36592">
        <ele>589.6</ele>
        <time>2021-06-06T07:41:07Z</time>
      </trkpt>
      <trkpt lat="44.87969" lon="4.36589">
        <ele>589.6</ele>
        <time>2021-06-06T07:41:11Z</time>
      </trkpt>
      <trkpt lat="44.87951" lon="4.36589">
        <ele>589.4</ele>
        <time>2021-06-06T07:41:15Z</time>
      </trkpt>
      <trkpt lat="44.87935" lon="4.36588">
        <ele>590.4</ele>
        <time>2021-06-06T07:41:19Z</time>
      </trkpt>
      <trkpt lat="44.87918" lon="4.3659">
        <ele>590.4</ele>
        <time>2021-06-06T07:41:23Z</time>
      </trkpt>
      <trkpt lat="44.87902" lon="4.36593">
        <ele>590.4</ele>
        <time>2021-06-06T07:41:27Z</time>
      </trkpt>
      <trkpt lat="44.87888" lon="4.366">
        <ele>591</ele>
        <time>2021-06-06T07:41:31Z</time>
      </trkpt>
      <trkpt lat="44.87876" lon="4.36604">
        <ele>591.6</ele>
        <time>2021-06-06T07:41:35Z</time>
      </trkpt>
      <trkpt lat="44.87863" lon="4.36616">
        <ele>592</ele>
        <time>2021-06-06T07:41:39Z</time>
      </trkpt>
      <trkpt lat="44.87852" lon="4.36629">
        <ele>593</ele>
        <time>2021-06-06T07:41:43Z</time>
      </trkpt>
      <trkpt lat="44.8784" lon="4.36641">
        <ele>593</ele>
        <time>2021-06-06T07:41:47Z</time>
      </trkpt>
      <trkpt lat="44.87826" lon="4.36656">
        <ele>593.2</ele>
        <time>2021-06-06T07:41:51Z</time>
      </trkpt>
      <trkpt lat="44.87813" lon="4.36671">
        <ele>593.6</ele>
        <time>2021-06-06T07:41:55Z</time>
      </trkpt>
      <trkpt lat="44.878" lon="4.36682">
        <ele>594</ele>
        <time>2021-06-06T07:41:59Z</time>
      </trkpt>
      <trkpt lat="44.87789" lon="4.36694">
        <ele>595</ele>
        <time>2021-06-06T07:42:03Z</time>
      </trkpt>
      <trkpt lat="44.87779" lon="4.36705">
        <ele>595.4</ele>
        <time>2021-06-06T07:42:07Z</time>
      </trkpt>
      <trkpt lat="44.87765" lon="4.36719">
        <ele>595.6</ele>
        <time>2021-06-06T07:42:11Z</time>
      </trkpt>
      <trkpt lat="44.87752" lon="4.36728">
        <ele>596.4</ele>
        <time>2021-06-06T07:42:15Z</time>
      </trkpt>
      <trkpt lat="44.87739" lon="4.36738">
        <ele>596.8</ele>
        <time>2021-06-06T07:42:19Z</time>
      </trkpt>
      <trkpt lat="44.87725" lon="4.36746">
        <ele>597.4</ele>
        <time>2021-06-06T07:42:23Z</time>
      </trkpt>
      <trkpt lat="44.87711" lon="4.36751">
        <ele>597.6</ele>
        <time>2021-06-06T07:42:27Z</time>
      </trkpt>
      <trkpt lat="44.87696" lon="4.36753">
        <ele>597.8</ele>
        <time>2021-06-06T07:42:31Z</time>
      </trkpt>
      <trkpt lat="44.87681" lon="4.36756">
        <ele>598.2</ele>
        <time>2021-06-06T07:42:35Z</time>
      </trkpt>
      <trkpt lat="44.87667" lon="4.36758">
        <ele>599</ele>
        <time>2021-06-06T07:42:39Z</time>
      </trkpt>
      <trkpt lat="44.87654" lon="4.36756">
        <ele>599</ele>
        <time>2021-06-06T07:42:43Z</time>
      </trkpt>
      <trkpt lat="44.87641" lon="4.36757">
        <ele>599.8</ele>
        <time>2021-06-06T07:42:47Z</time>
      </trkpt>
      <trkpt lat="44.87625" lon="4.36761">
        <ele>600.2</ele>
        <time>2021-06-06T07:42:51Z</time>
      </trkpt>
      <trkpt lat="44.87611" lon="4.3676">
        <ele>600.8</ele>
        <time>2021-06-06T07:42:55Z</time>
      </trkpt>
      <trkpt lat="44.87597" lon="4.36754">
        <ele>601</ele>
        <time>2021-06-06T07:42:59Z</time>
      </trkpt>
      <trkpt lat="44.87584" lon="4.36748">
        <ele>601.4</ele>
        <time>2021-06-06T07:43:03Z</time>
      </trkpt>
      <trkpt lat="44.8757" lon="4.36744">
        <ele>602.2</ele>
        <time>2021-06-06T07:43:07Z</time>
      </trkpt>
      <trkpt lat="44.87556" lon="4.36739">
        <ele>602.8</ele>
        <time>2021-06-06T07:43:11Z</time>
      </trkpt>
      <trkpt lat="44.87543" lon="4.36735">
        <ele>603.2</ele>
        <time>2021-06-06T07:43:15Z</time>
      </trkpt>
      <trkpt lat="44.8753" lon="4.36731">
        <ele>603.2</ele>
        <time>2021-06-06T07:43:19Z</time>
      </trkpt>
      <trkpt lat="44.87516" lon="4.36726">
        <ele>603.4</ele>
        <time>2021-06-06T07:43:23Z</time>
      </trkpt>
      <trkpt lat="44.87503" lon="4.36721">
        <ele>604</ele>
        <time>2021-06-06T07:43:27Z</time>
      </trkpt>
      <trkpt lat="44.87492" lon="4.36714">
        <ele>604.4</ele>
        <time>2021-06-06T07:43:31Z</time>
      </trkpt>
      <trkpt lat="44.8748" lon="4.36708">
        <ele>604.8</ele>
        <time>2021-06-06T07:43:35Z</time>
      </trkpt>
      <trkpt lat="44.87468" lon="4.36703">
        <ele>605.4</ele>
        <time>2021-06-06T07:43:39Z</time>
      </trkpt>
      <trkpt lat="44.87456" lon="4.36699">
        <ele>605.8</ele>
        <time>2021-06-06T07:43:43Z</time>
      </trkpt>
      <trkpt lat="44.87444" lon="4.36681">
        <ele>607</ele>
        <time>2021-06-06T07:43:47Z</time>
      </trkpt>
      <trkpt lat="44.87432" lon="4.3667">
        <ele>607.4</ele>
        <time>2021-06-06T07:43:51Z</time>
      </trkpt>
      <trkpt lat="44.87419" lon="4.3666">
        <ele>607.8</ele>
        <time>2021-06-06T07:43:55Z</time>
      </trkpt>
      <trkpt lat="44.87409" lon="4.36642">
        <ele>608.2</ele>
        <time>2021-06-06T07:43:59Z</time>
      </trkpt>
      <trkpt lat="44.87398" lon="4.3663">
        <ele>608.8</ele>
        <time>2021-06-06T07:44:03Z</time>
      </trkpt>
      <trkpt lat="44.87386" lon="4.36622">
        <ele>609.2</ele>
        <time>2021-06-06T07:44:07Z</time>
      </trkpt>
      <trkpt lat="44.87373" lon="4.36614">
        <ele>609.8</ele>
        <time>2021-06-06T07:44:11Z</time>
      </trkpt>
      <trkpt lat="44.8736" lon="4.36606">
        <ele>609.4</ele>
        <time>2021-06-06T07:44:15Z</time>
      </trkpt>
      <trkpt lat="44.87347" lon="4.36596">
        <ele>610</ele>
        <time>2021-06-06T07:44:19Z</time>
      </trkpt>
      <trkpt lat="44.87336" lon="4.36584">
        <ele>610.4</ele>
        <time>2021-06-06T07:44:23Z</time>
      </trkpt>
      <trkpt lat="44.87328" lon="4.36568">
        <ele>611.2</ele>
        <time>2021-06-06T07:44:27Z</time>
      </trkpt>
      <trkpt lat="44.87319" lon="4.36551">
        <ele>611.8</ele>
        <time>2021-06-06T07:44:31Z</time>
      </trkpt>
      <trkpt lat="44.87309" lon="4.36539">
        <ele>612.4</ele>
        <time>2021-06-06T07:44:35Z</time>
      </trkpt>
      <trkpt lat="44.87296" lon="4.36531">
        <ele>612.8</ele>
        <time>2021-06-06T07:44:39Z</time>
      </trkpt>
      <trkpt lat="44.87283" lon="4.36534">
        <ele>613.2</ele>
        <time>2021-06-06T07:44:43Z</time>
      </trkpt>
      <trkpt lat="44.87272" lon="4.3654">
        <ele>613.4</ele>
        <time>2021-06-06T07:44:47Z</time>
      </trkpt>
      <trkpt lat="44.87263" lon="4.36551">
        <ele>614</ele>
        <time>2021-06-06T07:44:51Z</time>
      </trkpt>
      <trkpt lat="44.87254" lon="4.3656">
        <ele>614</ele>
        <time>2021-06-06T07:44:55Z</time>
      </trkpt>
      <trkpt lat="44.87243" lon="4.36571">
        <ele>613.6</ele>
        <time>2021-06-06T07:44:59Z</time>
      </trkpt>
      <trkpt lat="44.87233" lon="4.36577">
        <ele>615.2</ele>
        <time>2021-06-06T07:45:03Z</time>
      </trkpt>
      <trkpt lat="44.87225" lon="4.36579">
        <ele>615</ele>
        <time>2021-06-06T07:45:07Z</time>
      </trkpt>
      <trkpt lat="44.87216" lon="4.36582">
        <ele>615.4</ele>
        <time>2021-06-06T07:45:11Z</time>
      </trkpt>
      <trkpt lat="44.87202" lon="4.3659">
        <ele>616.2</ele>
        <time>2021-06-06T07:45:15Z</time>
      </trkpt>
      <trkpt lat="44.87188" lon="4.36595">
        <ele>616.2</ele>
        <time>2021-06-06T07:45:19Z</time>
      </trkpt>
      <trkpt lat="44.87175" lon="4.36603">
        <ele>616.8</ele>
        <time>2021-06-06T07:45:23Z</time>
      </trkpt>
      <trkpt lat="44.8716" lon="4.36605">
        <ele>616.4</ele>
        <time>2021-06-06T07:45:27Z</time>
      </trkpt>
      <trkpt lat="44.87144" lon="4.36608">
        <ele>617.2</ele>
        <time>2021-06-06T07:45:31Z</time>
      </trkpt>
      <trkpt lat="44.8713" lon="4.36609">
        <ele>617.6</ele>
        <time>2021-06-06T07:45:35Z</time>
      </trkpt>
      <trkpt lat="44.87115" lon="4.36607">
        <ele>617.2</ele>
        <time>2021-06-06T07:45:39Z</time>
      </trkpt>
      <trkpt lat="44.871" lon="4.36605">
        <ele>618.2</ele>
        <time>2021-06-06T07:45:43Z</time>
      </trkpt>
      <trkpt lat="44.87089" lon="4.36601">
        <ele>618.6</ele>
        <time>2021-06-06T07:45:47Z</time>
      </trkpt>
      <trkpt lat="44.87075" lon="4.36593">
        <ele>619.4</ele>
        <time>2021-06-06T07:45:51Z</time>
      </trkpt>
      <trkpt lat="44.87062" lon="4.36586">
        <ele>619.4</ele>
        <time>2021-06-06T07:45:55Z</time>
      </trkpt>
      <trkpt lat="44.87049" lon="4.36577">
        <ele>619.8</ele>
        <time>2021-06-06T07:45:59Z</time>
      </trkpt>
      <trkpt lat="44.8704" lon="4.36562">
        <ele>620</ele>
        <time>2021-06-06T07:46:03Z</time>
      </trkpt>
      <trkpt lat="44.87033" lon="4.36546">
        <ele>620.4</ele>
        <time>2021-06-06T07:46:07Z</time>
      </trkpt>
      <trkpt lat="44.87024" lon="4.36532">
        <ele>620.4</ele>
        <time>2021-06-06T07:46:11Z</time>
      </trkpt>
      <trkpt lat="44.87014" lon="4.36518">
        <ele>621.2</ele>
        <time>2021-06-06T07:46:15Z</time>
      </trkpt>
      <trkpt lat="44.87002" lon="4.3651">
        <ele>621.2</ele>
        <time>2021-06-06T07:46:19Z</time>
      </trkpt>
      <trkpt lat="44.86989" lon="4.365">
        <ele>621.8</ele>
        <time>2021-06-06T07:46:23Z</time>
      </trkpt>
      <trkpt lat="44.86977" lon="4.36487">
        <ele>621.6</ele>
        <time>2021-06-06T07:46:27Z</time>
      </trkpt>
      <trkpt lat="44.86965" lon="4.3648">
        <ele>622</ele>
        <time>2021-06-06T07:46:31Z</time>
      </trkpt>
      <trkpt lat="44.86952" lon="4.36471">
        <ele>622.4</ele>
        <time>2021-06-06T07:46:35Z</time>
      </trkpt>
      <trkpt lat="44.86939" lon="4.36461">
        <ele>623.4</ele>
        <time>2021-06-06T07:46:39Z</time>
      </trkpt>
      <trkpt lat="44.86926" lon="4.36453">
        <ele>622.6</ele>
        <time>2021-06-06T07:46:43Z</time>
      </trkpt>
      <trkpt lat="44.86912" lon="4.36449">
        <ele>623.6</ele>
        <time>2021-06-06T07:46:47Z</time>
      </trkpt>
      <trkpt lat="44.86898" lon="4.36443">
        <ele>624</ele>
        <time>2021-06-06T07:46:51Z</time>
      </trkpt>
      <trkpt lat="44.86884" lon="4.36438">
        <ele>624.2</ele>
        <time>2021-06-06T07:46:55Z</time>
      </trkpt>
      <trkpt lat="44.8687" lon="4.36437">
        <ele>624.4</ele>
        <time>2021-06-06T07:46:59Z</time>
      </trkpt>
      <trkpt lat="44.86858" lon="4.36434">
        <ele>625</ele>
        <time>2021-06-06T07:47:03Z</time>
      </trkpt>
      <trkpt lat="44.86845" lon="4.36435">
        <ele>625.6</ele>
        <time>2021-06-06T07:47:07Z</time>
      </trkpt>
      <trkpt lat="44.86831" lon="4.36436">
        <ele>625.4</ele>
        <time>2021-06-06T07:47:11Z</time>
      </trkpt>
      <trkpt lat="44.86818" lon="4.3644">
        <ele>626</ele>
        <time>2021-06-06T07:47:15Z</time>
      </trkpt>
      <trkpt lat="44.86804" lon="4.36445">
        <ele>626.2</ele>
        <time>2021-06-06T07:47:19Z</time>
      </trkpt>
      <trkpt lat="44.86788" lon="4.36449">
        <ele>626.2</ele>
        <time>2021-06-06T07:47:23Z</time>
      </trkpt>
      <trkpt lat="44.86773" lon="4.36446">
        <ele>626.8</ele>
        <time>2021-06-06T07:47:27Z</time>
      </trkpt>
      <trkpt lat="44.86757" lon="4.36442">
        <ele>627</ele>
        <time>2021-06-06T07:47:31Z</time>
      </trkpt>
      <trkpt lat="44.86745" lon="4.36431">
        <ele>627</ele>
        <time>2021-06-06T07:47:35Z</time>
      </trkpt>
      <trkpt lat="44.86734" lon="4.3642">
        <ele>628</ele>
        <time>2021-06-06T07:47:39Z</time>
      </trkpt>
      <trkpt lat="44.86723" lon="4.36406">
        <ele>628</ele>
        <time>2021-06-06T07:47:43Z</time>
      </trkpt>
      <trkpt lat="44.86717" lon="4.36396">
        <ele>628.6</ele>
        <time>2021-06-06T07:47:47Z</time>
      </trkpt>
      <trkpt lat="44.86711" lon="4.36371">
        <ele>628.2</ele>
        <time>2021-06-06T07:53:20Z</time>
      </trkpt>
      <trkpt lat="44.86703" lon="4.3636">
        <ele>628.6</ele>
        <time>2021-06-06T07:53:24Z</time>
      </trkpt>
      <trkpt lat="44.86694" lon="4.36347">
        <ele>629.2</ele>
        <time>2021-06-06T07:53:28Z</time>
      </trkpt>
      <trkpt lat="44.86686" lon="4.36333">
        <ele>629.4</ele>
        <time>2021-06-06T07:53:32Z</time>
      </trkpt>
      <trkpt lat="44.86678" lon="4.36319">
        <ele>630.4</ele>
        <time>2021-06-06T07:53:36Z</time>
      </trkpt>
      <trkpt lat="44.86669" lon="4.36305">
        <ele>630</ele>
        <time>2021-06-06T07:53:40Z</time>
      </trkpt>
      <trkpt lat="44.86661" lon="4.36292">
        <ele>630.2</ele>
        <time>2021-06-06T07:53:44Z</time>
      </trkpt>
      <trkpt lat="44.86652" lon="4.36278">
        <ele>630.4</ele>
        <time>2021-06-06T07:53:48Z</time>
      </trkpt>
      <trkpt lat="44.86643" lon="4.36264">
        <ele>630.8</ele>
        <time>2021-06-06T07:53:52Z</time>
      </trkpt>
      <trkpt lat="44.86635" lon="4.36251">
        <ele>630.8</ele>
        <time>2021-06-06T07:53:56Z</time>
      </trkpt>
      <trkpt lat="44.86625" lon="4.3624">
        <ele>631.4</ele>
        <time>2021-06-06T07:54:00Z</time>
      </trkpt>
      <trkpt lat="44.86613" lon="4.36229">
        <ele>631.8</ele>
        <time>2021-06-06T07:54:04Z</time>
      </trkpt>
      <trkpt lat="44.86597" lon="4.36228">
        <ele>631.8</ele>
        <time>2021-06-06T07:54:08Z</time>
      </trkpt>
      <trkpt lat="44.86581" lon="4.3623">
        <ele>632.2</ele>
        <time>2021-06-06T07:54:12Z</time>
      </trkpt>
      <trkpt lat="44.86567" lon="4.36225">
        <ele>632.8</ele>
        <time>2021-06-06T07:54:16Z</time>
      </trkpt>
      <trkpt lat="44.86555" lon="4.36218">
        <ele>633.2</ele>
        <time>2021-06-06T07:54:20Z</time>
      </trkpt>
      <trkpt lat="44.86543" lon="4.36209">
        <ele>633</ele>
        <time>2021-06-06T07:54:24Z</time>
      </trkpt>
      <trkpt lat="44.86531" lon="4.362">
        <ele>633.6</ele>
        <time>2021-06-06T07:54:28Z</time>
      </trkpt>
      <trkpt lat="44.86517" lon="4.36196">
        <ele>633.6</ele>
        <time>2021-06-06T07:54:32Z</time>
      </trkpt>
      <trkpt lat="44.86504" lon="4.36192">
        <ele>633.8</ele>
        <time>2021-06-06T07:54:36Z</time>
      </trkpt>
      <trkpt lat="44.86493" lon="4.36192">
        <ele>634.2</ele>
        <time>2021-06-06T07:54:40Z</time>
      </trkpt>
      <trkpt lat="44.86485" lon="4.36197">
        <ele>634.4</ele>
        <time>2021-06-06T07:54:44Z</time>
      </trkpt>
      <trkpt lat="44.86482" lon="4.36203">
        <ele>634.4</ele>
        <time>2021-06-06T07:54:48Z</time>
      </trkpt>
      <trkpt lat="44.86473" lon="4.36222">
        <ele>635</ele>
        <time>2021-06-06T07:54:52Z</time>
      </trkpt>
      <trkpt lat="44.86466" lon="4.36237">
        <ele>635</ele>
        <time>2021-06-06T07:54:56Z</time>
      </trkpt>
      <trkpt lat="44.86458" lon="4.36251">
        <ele>635.8</ele>
        <time>2021-06-06T07:55:00Z</time>
      </trkpt>
      <trkpt lat="44.86451" lon="4.36262">
        <ele>636</ele>
        <time>2021-06-06T07:55:04Z</time>
      </trkpt>
      <trkpt lat="44.86442" lon="4.3628">
        <ele>636.2</ele>
        <time>2021-06-06T07:55:08Z</time>
      </trkpt>
      <trkpt lat="44.86431" lon="4.36294">
        <ele>636.2</ele>
        <time>2021-06-06T07:55:12Z</time>
      </trkpt>
      <trkpt lat="44.86419" lon="4.3631">
        <ele>637</ele>
        <time>2021-06-06T07:55:16Z</time>
      </trkpt>
      <trkpt lat="44.86409" lon="4.36322">
        <ele>637.6</ele>
        <time>2021-06-06T07:55:20Z</time>
      </trkpt>
      <trkpt lat="44.86399" lon="4.36334">
        <ele>637.6</ele>
        <time>2021-06-06T07:55:24Z</time>
      </trkpt>
      <trkpt lat="44.86387" lon="4.36344">
        <ele>637.8</ele>
        <time>2021-06-06T07:55:28Z</time>
      </trkpt>
      <trkpt lat="44.86379" lon="4.3635">
        <ele>638.6</ele>
        <time>2021-06-06T07:55:32Z</time>
      </trkpt>
      <trkpt lat="44.86367" lon="4.36353">
        <ele>638.4</ele>
        <time>2021-06-06T07:55:36Z</time>
      </trkpt>
      <trkpt lat="44.86351" lon="4.36356">
        <ele>638.8</ele>
        <time>2021-06-06T07:55:40Z</time>
      </trkpt>
      <trkpt lat="44.86337" lon="4.36353">
        <ele>638.8</ele>
        <time>2021-06-06T07:55:44Z</time>
      </trkpt>
      <trkpt lat="44.86322" lon="4.36355">
        <ele>639.6</ele>
        <time>2021-06-06T07:55:48Z</time>
      </trkpt>
      <trkpt lat="44.8631" lon="4.36364">
        <ele>640.2</ele>
        <time>2021-06-06T07:55:52Z</time>
      </trkpt>
      <trkpt lat="44.86298" lon="4.36377">
        <ele>640</ele>
        <time>2021-06-06T07:55:56Z</time>
      </trkpt>
      <trkpt lat="44.86283" lon="4.36381">
        <ele>640.2</ele>
        <time>2021-06-06T07:56:00Z</time>
      </trkpt>
      <trkpt lat="44.86269" lon="4.36374">
        <ele>640.2</ele>
        <time>2021-06-06T07:56:04Z</time>
      </trkpt>
      <trkpt lat="44.86259" lon="4.36361">
        <ele>640.4</ele>
        <time>2021-06-06T07:56:08Z</time>
      </trkpt>
      <trkpt lat="44.86251" lon="4.36345">
        <ele>641</ele>
        <time>2021-06-06T07:56:12Z</time>
      </trkpt>
      <trkpt lat="44.86244" lon="4.36327">
        <ele>641.8</ele>
        <time>2021-06-06T07:56:16Z</time>
      </trkpt>
      <trkpt lat="44.86238" lon="4.3631">
        <ele>641.8</ele>
        <time>2021-06-06T07:56:20Z</time>
      </trkpt>
      <trkpt lat="44.86232" lon="4.36293">
        <ele>642.4</ele>
        <time>2021-06-06T07:56:24Z</time>
      </trkpt>
      <trkpt lat="44.86226" lon="4.36275">
        <ele>642.8</ele>
        <time>2021-06-06T07:56:28Z</time>
      </trkpt>
      <trkpt lat="44.86219" lon="4.36258">
        <ele>643</ele>
        <time>2021-06-06T07:56:32Z</time>
      </trkpt>
      <trkpt lat="44.86214" lon="4.3624">
        <ele>643.2</ele>
        <time>2021-06-06T07:56:36Z</time>
      </trkpt>
      <trkpt lat="44.86207" lon="4.36224">
        <ele>643.6</ele>
        <time>2021-06-06T07:56:40Z</time>
      </trkpt>
      <trkpt lat="44.86198" lon="4.36209">
        <ele>643.6</ele>
        <time>2021-06-06T07:56:44Z</time>
      </trkpt>
      <trkpt lat="44.86186" lon="4.36197">
        <ele>643.8</ele>
        <time>2021-06-06T07:56:48Z</time>
      </trkpt>
      <trkpt lat="44.86174" lon="4.36187">
        <ele>644.4</ele>
        <time>2021-06-06T07:56:52Z</time>
      </trkpt>
      <trkpt lat="44.86165" lon="4.36171">
        <ele>644.4</ele>
        <time>2021-06-06T07:56:56Z</time>
      </trkpt>
      <trkpt lat="44.86158" lon="4.36153">
        <ele>645</ele>
        <time>2021-06-06T07:57:00Z</time>
      </trkpt>
      <trkpt lat="44.86154" lon="4.36135">
        <ele>645.2</ele>
        <time>2021-06-06T07:57:04Z</time>
      </trkpt>
      <trkpt lat="44.86146" lon="4.36119">
        <ele>645.6</ele>
        <time>2021-06-06T07:57:08Z</time>
      </trkpt>
      <trkpt lat="44.86135" lon="4.36105">
        <ele>646</ele>
        <time>2021-06-06T07:57:12Z</time>
      </trkpt>
      <trkpt lat="44.86123" lon="4.36093">
        <ele>646.2</ele>
        <time>2021-06-06T07:57:16Z</time>
      </trkpt>
      <trkpt lat="44.86113" lon="4.36081">
        <ele>646.4</ele>
        <time>2021-06-06T07:57:20Z</time>
      </trkpt>
      <trkpt lat="44.86103" lon="4.36069">
        <ele>646</ele>
        <time>2021-06-06T07:57:24Z</time>
      </trkpt>
      <trkpt lat="44.8609" lon="4.36062">
        <ele>646.4</ele>
        <time>2021-06-06T07:57:28Z</time>
      </trkpt>
      <trkpt lat="44.86077" lon="4.36052">
        <ele>647</ele>
        <time>2021-06-06T07:57:32Z</time>
      </trkpt>
      <trkpt lat="44.86065" lon="4.36042">
        <ele>647.6</ele>
        <time>2021-06-06T07:57:36Z</time>
      </trkpt>
      <trkpt lat="44.86054" lon="4.36027">
        <ele>647.8</ele>
        <time>2021-06-06T07:57:40Z</time>
      </trkpt>
      <trkpt lat="44.86042" lon="4.36018">
        <ele>647.8</ele>
        <time>2021-06-06T07:57:44Z</time>
      </trkpt>
      <trkpt lat="44.86032" lon="4.36004">
        <ele>648</ele>
        <time>2021-06-06T07:57:48Z</time>
      </trkpt>
      <trkpt lat="44.86025" lon="4.35988">
        <ele>648.6</ele>
        <time>2021-06-06T07:57:52Z</time>
      </trkpt>
      <trkpt lat="44.86018" lon="4.35969">
        <ele>648.4</ele>
        <time>2021-06-06T07:57:56Z</time>
      </trkpt>
      <trkpt lat="44.86015" lon="4.35946">
        <ele>649.4</ele>
        <time>2021-06-06T07:58:00Z</time>
      </trkpt>
      <trkpt lat="44.86012" lon="4.35924">
        <ele>649.8</ele>
        <time>2021-06-06T07:58:04Z</time>
      </trkpt>
      <trkpt lat="44.86007" lon="4.35906">
        <ele>650.8</ele>
        <time>2021-06-06T07:58:08Z</time>
      </trkpt>
      <trkpt lat="44.86002" lon="4.35886">
        <ele>651</ele>
        <time>2021-06-06T07:58:12Z</time>
      </trkpt>
      <trkpt lat="44.85994" lon="4.3587">
        <ele>651.2</ele>
        <time>2021-06-06T07:58:16Z</time>
      </trkpt>
      <trkpt lat="44.85979" lon="4.35861">
        <ele>651.8</ele>
        <time>2021-06-06T07:58:20Z</time>
      </trkpt>
      <trkpt lat="44.85962" lon="4.35854">
        <ele>651.8</ele>
        <time>2021-06-06T07:58:24Z</time>
      </trkpt>
      <trkpt lat="44.8595" lon="4.35854">
        <ele>652</ele>
        <time>2021-06-06T07:58:28Z</time>
      </trkpt>
      <trkpt lat="44.8594" lon="4.35855">
        <ele>652.6</ele>
        <time>2021-06-06T07:58:32Z</time>
      </trkpt>
      <trkpt lat="44.85928" lon="4.35858">
        <ele>652.6</ele>
        <time>2021-06-06T07:58:36Z</time>
      </trkpt>
      <trkpt lat="44.85914" lon="4.35863">
        <ele>652.8</ele>
        <time>2021-06-06T07:58:40Z</time>
      </trkpt>
      <trkpt lat="44.85897" lon="4.35866">
        <ele>653.2</ele>
        <time>2021-06-06T07:58:44Z</time>
      </trkpt>
      <trkpt lat="44.85882" lon="4.35862">
        <ele>653.4</ele>
        <time>2021-06-06T07:58:48Z</time>
      </trkpt>
      <trkpt lat="44.85867" lon="4.35857">
        <ele>653.4</ele>
        <time>2021-06-06T07:58:52Z</time>
      </trkpt>
      <trkpt lat="44.85854" lon="4.35849">
        <ele>654.8</ele>
        <time>2021-06-06T07:58:56Z</time>
      </trkpt>
      <trkpt lat="44.85843" lon="4.35837">
        <ele>654.6</ele>
        <time>2021-06-06T07:59:00Z</time>
      </trkpt>
      <trkpt lat="44.85832" lon="4.35824">
        <ele>655</ele>
        <time>2021-06-06T07:59:04Z</time>
      </trkpt>
      <trkpt lat="44.85821" lon="4.35812">
        <ele>655.4</ele>
        <time>2021-06-06T07:59:08Z</time>
      </trkpt>
      <trkpt lat="44.85808" lon="4.35799">
        <ele>655.4</ele>
        <time>2021-06-06T07:59:12Z</time>
      </trkpt>
      <trkpt lat="44.85795" lon="4.35788">
        <ele>655.8</ele>
        <time>2021-06-06T07:59:16Z</time>
      </trkpt>
      <trkpt lat="44.85782" lon="4.35782">
        <ele>656</ele>
        <time>2021-06-06T07:59:20Z</time>
      </trkpt>
      <trkpt lat="44.85769" lon="4.35774">
        <ele>656.8</ele>
        <time>2021-06-06T07:59:24Z</time>
      </trkpt>
      <trkpt lat="44.85753" lon="4.35764">
        <ele>657.2</ele>
        <time>2021-06-06T07:59:28Z</time>
      </trkpt>
      <trkpt lat="44.85736" lon="4.35756">
        <ele>657.8</ele>
        <time>2021-06-06T07:59:32Z</time>
      </trkpt>
      <trkpt lat="44.85723" lon="4.35746">
        <ele>657.6</ele>
        <time>2021-06-06T07:59:36Z</time>
      </trkpt>
      <trkpt lat="44.85708" lon="4.3574">
        <ele>658.6</ele>
        <time>2021-06-06T07:59:40Z</time>
      </trkpt>
      <trkpt lat="44.85694" lon="4.35731">
        <ele>658.4</ele>
        <time>2021-06-06T07:59:44Z</time>
      </trkpt>
      <trkpt lat="44.85682" lon="4.35716">
        <ele>658.8</ele>
        <time>2021-06-06T07:59:48Z</time>
      </trkpt>
      <trkpt lat="44.85674" lon="4.35694">
        <ele>659.8</ele>
        <time>2021-06-06T07:59:52Z</time>
      </trkpt>
      <trkpt lat="44.85663" lon="4.35679">
        <ele>659.8</ele>
        <time>2021-06-06T07:59:56Z</time>
      </trkpt>
      <trkpt lat="44.8565" lon="4.35666">
        <ele>660</ele>
        <time>2021-06-06T08:00:00Z</time>
      </trkpt>
      <trkpt lat="44.85636" lon="4.35657">
        <ele>660.4</ele>
        <time>2021-06-06T08:00:04Z</time>
      </trkpt>
      <trkpt lat="44.85622" lon="4.35649">
        <ele>660.6</ele>
        <time>2021-06-06T08:00:08Z</time>
      </trkpt>
      <trkpt lat="44.85609" lon="4.35634">
        <ele>660.6</ele>
        <time>2021-06-06T08:00:12Z</time>
      </trkpt>
      <trkpt lat="44.85598" lon="4.35621">
        <ele>661.2</ele>
        <time>2021-06-06T08:00:16Z</time>
      </trkpt>
      <trkpt lat="44.85585" lon="4.35611">
        <ele>661.8</ele>
        <time>2021-06-06T08:00:20Z</time>
      </trkpt>
      <trkpt lat="44.85574" lon="4.35599">
        <ele>662</ele>
        <time>2021-06-06T08:00:24Z</time>
      </trkpt>
      <trkpt lat="44.85562" lon="4.35588">
        <ele>662.4</ele>
        <time>2021-06-06T08:00:28Z</time>
      </trkpt>
      <trkpt lat="44.8555" lon="4.35577">
        <ele>662.6</ele>
        <time>2021-06-06T08:00:32Z</time>
      </trkpt>
      <trkpt lat="44.85537" lon="4.35567">
        <ele>662.6</ele>
        <time>2021-06-06T08:00:36Z</time>
      </trkpt>
      <trkpt lat="44.85526" lon="4.35557">
        <ele>663.6</ele>
        <time>2021-06-06T08:00:40Z</time>
      </trkpt>
      <trkpt lat="44.85513" lon="4.35547">
        <ele>663.8</ele>
        <time>2021-06-06T08:00:44Z</time>
      </trkpt>
      <trkpt lat="44.85502" lon="4.35537">
        <ele>664.6</ele>
        <time>2021-06-06T08:00:48Z</time>
      </trkpt>
      <trkpt lat="44.8549" lon="4.35527">
        <ele>664.4</ele>
        <time>2021-06-06T08:00:52Z</time>
      </trkpt>
      <trkpt lat="44.85477" lon="4.35516">
        <ele>665</ele>
        <time>2021-06-06T08:00:56Z</time>
      </trkpt>
      <trkpt lat="44.85465" lon="4.35505">
        <ele>665.4</ele>
        <time>2021-06-06T08:01:00Z</time>
      </trkpt>
      <trkpt lat="44.85451" lon="4.35494">
        <ele>665.6</ele>
        <time>2021-06-06T08:01:04Z</time>
      </trkpt>
      <trkpt lat="44.85436" lon="4.35485">
        <ele>665.6</ele>
        <time>2021-06-06T08:01:08Z</time>
      </trkpt>
      <trkpt lat="44.85421" lon="4.35475">
        <ele>666.2</ele>
        <time>2021-06-06T08:01:12Z</time>
      </trkpt>
      <trkpt lat="44.85406" lon="4.35465">
        <ele>666</ele>
        <time>2021-06-06T08:01:16Z</time>
      </trkpt>
      <trkpt lat="44.8539" lon="4.3546">
        <ele>666.2</ele>
        <time>2021-06-06T08:01:20Z</time>
      </trkpt>
      <trkpt lat="44.85373" lon="4.35455">
        <ele>666.2</ele>
        <time>2021-06-06T08:01:24Z</time>
      </trkpt>
      <trkpt lat="44.85358" lon="4.35445">
        <ele>666.2</ele>
        <time>2021-06-06T08:01:28Z</time>
      </trkpt>
      <trkpt lat="44.85345" lon="4.35432">
        <ele>666.2</ele>
        <time>2021-06-06T08:01:32Z</time>
      </trkpt>
      <trkpt lat="44.8533" lon="4.35421">
        <ele>666.8</ele>
        <time>2021-06-06T08:01:36Z</time>
      </trkpt>
      <trkpt lat="44.85327" lon="4.35397">
        <ele>666.6</ele>
        <time>2021-06-06T08:01:40Z</time>
      </trkpt>
      <trkpt lat="44.85325" lon="4.35372">
        <ele>666.4</ele>
        <time>2021-06-06T08:01:44Z</time>
      </trkpt>
      <trkpt lat="44.85321" lon="4.35348">
        <ele>666.8</ele>
        <time>2021-06-06T08:01:48Z</time>
      </trkpt>
      <trkpt lat="44.8532" lon="4.35323">
        <ele>667</ele>
        <time>2021-06-06T08:01:52Z</time>
      </trkpt>
      <trkpt lat="44.85318" lon="4.35299">
        <ele>667.6</ele>
        <time>2021-06-06T08:01:56Z</time>
      </trkpt>
      <trkpt lat="44.85318" lon="4.35278">
        <ele>668</ele>
        <time>2021-06-06T08:02:00Z</time>
      </trkpt>
      <trkpt lat="44.85317" lon="4.35257">
        <ele>668.8</ele>
        <time>2021-06-06T08:02:04Z</time>
      </trkpt>
      <trkpt lat="44.85315" lon="4.35236">
        <ele>669</ele>
        <time>2021-06-06T08:02:08Z</time>
      </trkpt>
      <trkpt lat="44.85315" lon="4.35215">
        <ele>669.4</ele>
        <time>2021-06-06T08:02:12Z</time>
      </trkpt>
      <trkpt lat="44.85312" lon="4.35196">
        <ele>670.4</ele>
        <time>2021-06-06T08:02:16Z</time>
      </trkpt>
      <trkpt lat="44.85311" lon="4.35176">
        <ele>670.8</ele>
        <time>2021-06-06T08:02:20Z</time>
      </trkpt>
      <trkpt lat="44.8531" lon="4.35156">
        <ele>671.2</ele>
        <time>2021-06-06T08:02:24Z</time>
      </trkpt>
      <trkpt lat="44.85309" lon="4.35137">
        <ele>671.4</ele>
        <time>2021-06-06T08:02:28Z</time>
      </trkpt>
      <trkpt lat="44.85308" lon="4.35118">
        <ele>672.2</ele>
        <time>2021-06-06T08:02:32Z</time>
      </trkpt>
      <trkpt lat="44.85307" lon="4.351">
        <ele>673.2</ele>
        <time>2021-06-06T08:02:36Z</time>
      </trkpt>
      <trkpt lat="44.85306" lon="4.35082">
        <ele>673.6</ele>
        <time>2021-06-06T08:02:40Z</time>
      </trkpt>
      <trkpt lat="44.85304" lon="4.35064">
        <ele>673.8</ele>
        <time>2021-06-06T08:02:44Z</time>
      </trkpt>
      <trkpt lat="44.85304" lon="4.35045">
        <ele>674.2</ele>
        <time>2021-06-06T08:02:48Z</time>
      </trkpt>
      <trkpt lat="44.85302" lon="4.35025">
        <ele>674.8</ele>
        <time>2021-06-06T08:02:52Z</time>
      </trkpt>
      <trkpt lat="44.85297" lon="4.35007">
        <ele>675</ele>
        <time>2021-06-06T08:02:56Z</time>
      </trkpt>
      <trkpt lat="44.85289" lon="4.34992">
        <ele>675.4</ele>
        <time>2021-06-06T08:03:00Z</time>
      </trkpt>
      <trkpt lat="44.8528" lon="4.3498">
        <ele>676</ele>
        <time>2021-06-06T08:03:04Z</time>
      </trkpt>
      <trkpt lat="44.85272" lon="4.3497">
        <ele>676.4</ele>
        <time>2021-06-06T08:03:08Z</time>
      </trkpt>
      <trkpt lat="44.85268" lon="4.3496">
        <ele>676.8</ele>
        <time>2021-06-06T08:03:12Z</time>
      </trkpt>
      <trkpt lat="44.85267" lon="4.34949">
        <ele>676.6</ele>
        <time>2021-06-06T08:03:16Z</time>
      </trkpt>
      <trkpt lat="44.85276" lon="4.34904">
        <ele>677.6</ele>
        <time>2021-06-06T08:05:58Z</time>
      </trkpt>
      <trkpt lat="44.85284" lon="4.34902">
        <ele>678</ele>
        <time>2021-06-06T08:06:02Z</time>
      </trkpt>
      <trkpt lat="44.85292" lon="4.34899">
        <ele>679</ele>
        <time>2021-06-06T08:06:06Z</time>
      </trkpt>
      <trkpt lat="44.85295" lon="4.34896">
        <ele>679.4</ele>
        <time>2021-06-06T08:06:10Z</time>
      </trkpt>
      <trkpt lat="44.85302" lon="4.34891">
        <ele>680.2</ele>
        <time>2021-06-06T08:06:14Z</time>
      </trkpt>
      <trkpt lat="44.8531" lon="4.3488">
        <ele>680.8</ele>
        <time>2021-06-06T08:06:18Z</time>
      </trkpt>
      <trkpt lat="44.85316" lon="4.34872">
        <ele>682.2</ele>
        <time>2021-06-06T08:06:22Z</time>
      </trkpt>
      <trkpt lat="44.85331" lon="4.34865">
        <ele>682.8</ele>
        <time>2021-06-06T08:06:26Z</time>
      </trkpt>
      <trkpt lat="44.85336" lon="4.34857">
        <ele>683.6</ele>
        <time>2021-06-06T08:06:30Z</time>
      </trkpt>
      <trkpt lat="44.85341" lon="4.34849">
        <ele>684</ele>
        <time>2021-06-06T08:06:34Z</time>
      </trkpt>
      <trkpt lat="44.85346" lon="4.3484">
        <ele>684.8</ele>
        <time>2021-06-06T08:06:38Z</time>
      </trkpt>
      <trkpt lat="44.85351" lon="4.34834">
        <ele>685.8</ele>
        <time>2021-06-06T08:06:42Z</time>
      </trkpt>
      <trkpt lat="44.85357" lon="4.34826">
        <ele>686.4</ele>
        <time>2021-06-06T08:06:46Z</time>
      </trkpt>
      <trkpt lat="44.85363" lon="4.34818">
        <ele>687</ele>
        <time>2021-06-06T08:06:50Z</time>
      </trkpt>
      <trkpt lat="44.85371" lon="4.34809">
        <ele>687.8</ele>
        <time>2021-06-06T08:06:54Z</time>
      </trkpt>
      <trkpt lat="44.8538" lon="4.34798">
        <ele>688</ele>
        <time>2021-06-06T08:06:58Z</time>
      </trkpt>
      <trkpt lat="44.85385" lon="4.34787">
        <ele>689</ele>
        <time>2021-06-06T08:07:02Z</time>
      </trkpt>
      <trkpt lat="44.8539" lon="4.34778">
        <ele>689.4</ele>
        <time>2021-06-06T08:07:06Z</time>
      </trkpt>
      <trkpt lat="44.85394" lon="4.34768">
        <ele>690</ele>
        <time>2021-06-06T08:07:10Z</time>
      </trkpt>
      <trkpt lat="44.85399" lon="4.34757">
        <ele>690.2</ele>
        <time>2021-06-06T08:07:14Z</time>
      </trkpt>
      <trkpt lat="44.85402" lon="4.34747">
        <ele>691.2</ele>
        <time>2021-06-06T08:07:18Z</time>
      </trkpt>
      <trkpt lat="44.85404" lon="4.34737">
        <ele>691.8</ele>
        <time>2021-06-06T08:07:22Z</time>
      </trkpt>
      <trkpt lat="44.85405" lon="4.34727">
        <ele>692.6</ele>
        <time>2021-06-06T08:07:26Z</time>
      </trkpt>
      <trkpt lat="44.85405" lon="4.34719">
        <ele>693.2</ele>
        <time>2021-06-06T08:07:30Z</time>
      </trkpt>
      <trkpt lat="44.85409" lon="4.34705">
        <ele>693.4</ele>
        <time>2021-06-06T08:07:34Z</time>
      </trkpt>
      <trkpt lat="44.85413" lon="4.34693">
        <ele>694.4</ele>
        <time>2021-06-06T08:07:38Z</time>
      </trkpt>
      <trkpt lat="44.85419" lon="4.34679">
        <ele>695.6</ele>
        <time>2021-06-06T08:07:42Z</time>
      </trkpt>
      <trkpt lat="44.85426" lon="4.34669">
        <ele>696</ele>
        <time>2021-06-06T08:07:46Z</time>
      </trkpt>
      <trkpt lat="44.85432" lon="4.34658">
        <ele>697</ele>
        <time>2021-06-06T08:07:50Z</time>
      </trkpt>
      <trkpt lat="44.85439" lon="4.34648">
        <ele>698</ele>
        <time>2021-06-06T08:07:54Z</time>
      </trkpt>
      <trkpt lat="44.85445" lon="4.3464">
        <ele>698</ele>
        <time>2021-06-06T08:07:58Z</time>
      </trkpt>
      <trkpt lat="44.85452" lon="4.3463">
        <ele>698.8</ele>
        <time>2021-06-06T08:08:02Z</time>
      </trkpt>
      <trkpt lat="44.85459" lon="4.34623">
        <ele>699.4</ele>
        <time>2021-06-06T08:08:06Z</time>
      </trkpt>
      <trkpt lat="44.85466" lon="4.34615">
        <ele>700.4</ele>
        <time>2021-06-06T08:08:10Z</time>
      </trkpt>
      <trkpt lat="44.85473" lon="4.34607">
        <ele>700.6</ele>
        <time>2021-06-06T08:08:14Z</time>
      </trkpt>
      <trkpt lat="44.8548" lon="4.346">
        <ele>701.2</ele>
        <time>2021-06-06T08:08:18Z</time>
      </trkpt>
      <trkpt lat="44.85489" lon="4.34594">
        <ele>701.8</ele>
        <time>2021-06-06T08:08:22Z</time>
      </trkpt>
      <trkpt lat="44.85497" lon="4.34591">
        <ele>702.8</ele>
        <time>2021-06-06T08:08:26Z</time>
      </trkpt>
      <trkpt lat="44.85506" lon="4.34589">
        <ele>703.6</ele>
        <time>2021-06-06T08:08:30Z</time>
      </trkpt>
      <trkpt lat="44.85514" lon="4.34589">
        <ele>704.2</ele>
        <time>2021-06-06T08:08:34Z</time>
      </trkpt>
      <trkpt lat="44.85523" lon="4.34587">
        <ele>704.4</ele>
        <time>2021-06-06T08:08:38Z</time>
      </trkpt>
      <trkpt lat="44.85532" lon="4.34584">
        <ele>705</ele>
        <time>2021-06-06T08:08:42Z</time>
      </trkpt>
      <trkpt lat="44.8554" lon="4.34582">
        <ele>705.6</ele>
        <time>2021-06-06T08:08:46Z</time>
      </trkpt>
      <trkpt lat="44.85549" lon="4.34577">
        <ele>706.2</ele>
        <time>2021-06-06T08:08:50Z</time>
      </trkpt>
      <trkpt lat="44.85558" lon="4.34573">
        <ele>707.2</ele>
        <time>2021-06-06T08:08:54Z</time>
      </trkpt>
      <trkpt lat="44.85564" lon="4.34568">
        <ele>708</ele>
        <time>2021-06-06T08:08:58Z</time>
      </trkpt>
      <trkpt lat="44.85572" lon="4.34563">
        <ele>708.4</ele>
        <time>2021-06-06T08:09:02Z</time>
      </trkpt>
      <trkpt lat="44.85579" lon="4.34557">
        <ele>708.8</ele>
        <time>2021-06-06T08:09:06Z</time>
      </trkpt>
      <trkpt lat="44.85586" lon="4.34551">
        <ele>709.6</ele>
        <time>2021-06-06T08:09:10Z</time>
      </trkpt>
      <trkpt lat="44.85594" lon="4.34543">
        <ele>710.2</ele>
        <time>2021-06-06T08:09:14Z</time>
      </trkpt>
      <trkpt lat="44.856" lon="4.34534">
        <ele>710.8</ele>
        <time>2021-06-06T08:09:18Z</time>
      </trkpt>
      <trkpt lat="44.85603" lon="4.34525">
        <ele>711.4</ele>
        <time>2021-06-06T08:09:22Z</time>
      </trkpt>
      <trkpt lat="44.85604" lon="4.34517">
        <ele>711.6</ele>
        <time>2021-06-06T08:09:26Z</time>
      </trkpt>
      <trkpt lat="44.8561" lon="4.34508">
        <ele>712.4</ele>
        <time>2021-06-06T08:09:30Z</time>
      </trkpt>
      <trkpt lat="44.85613" lon="4.34501">
        <ele>713.2</ele>
        <time>2021-06-06T08:09:34Z</time>
      </trkpt>
      <trkpt lat="44.85618" lon="4.34494">
        <ele>713.4</ele>
        <time>2021-06-06T08:09:38Z</time>
      </trkpt>
      <trkpt lat="44.85624" lon="4.34485">
        <ele>714.4</ele>
        <time>2021-06-06T08:09:42Z</time>
      </trkpt>
      <trkpt lat="44.85632" lon="4.34476">
        <ele>714.6</ele>
        <time>2021-06-06T08:09:46Z</time>
      </trkpt>
      <trkpt lat="44.85638" lon="4.34466">
        <ele>715.8</ele>
        <time>2021-06-06T08:09:50Z</time>
      </trkpt>
      <trkpt lat="44.85647" lon="4.34458">
        <ele>717</ele>
        <time>2021-06-06T08:09:54Z</time>
      </trkpt>
      <trkpt lat="44.8565" lon="4.34448">
        <ele>717.2</ele>
        <time>2021-06-06T08:09:58Z</time>
      </trkpt>
      <trkpt lat="44.8566" lon="4.34441">
        <ele>717.6</ele>
        <time>2021-06-06T08:10:02Z</time>
      </trkpt>
      <trkpt lat="44.85664" lon="4.34432">
        <ele>718</ele>
        <time>2021-06-06T08:10:06Z</time>
      </trkpt>
      <trkpt lat="44.85669" lon="4.34422">
        <ele>718.4</ele>
        <time>2021-06-06T08:10:10Z</time>
      </trkpt>
      <trkpt lat="44.85671" lon="4.34411">
        <ele>719.4</ele>
        <time>2021-06-06T08:10:14Z</time>
      </trkpt>
      <trkpt lat="44.85669" lon="4.34402">
        <ele>719.4</ele>
        <time>2021-06-06T08:10:18Z</time>
      </trkpt>
      <trkpt lat="44.8567" lon="4.34392">
        <ele>720.8</ele>
        <time>2021-06-06T08:10:22Z</time>
      </trkpt>
      <trkpt lat="44.85671" lon="4.3438">
        <ele>721.2</ele>
        <time>2021-06-06T08:10:26Z</time>
      </trkpt>
      <trkpt lat="44.8567" lon="4.34369">
        <ele>722</ele>
        <time>2021-06-06T08:10:30Z</time>
      </trkpt>
      <trkpt lat="44.8567" lon="4.34358">
        <ele>722.8</ele>
        <time>2021-06-06T08:10:34Z</time>
      </trkpt>
      <trkpt lat="44.85669" lon="4.34346">
        <ele>723.4</ele>
        <time>2021-06-06T08:10:38Z</time>
      </trkpt>
      <trkpt lat="44.85668" lon="4.34333">
        <ele>724.2</ele>
        <time>2021-06-06T08:10:42Z</time>
      </trkpt>
      <trkpt lat="44.85666" lon="4.34321">
        <ele>724.4</ele>
        <time>2021-06-06T08:10:46Z</time>
      </trkpt>
      <trkpt lat="44.85665" lon="4.34309">
        <ele>725</ele>
        <time>2021-06-06T08:10:50Z</time>
      </trkpt>
      <trkpt lat="44.85666" lon="4.34295">
        <ele>725.6</ele>
        <time>2021-06-06T08:10:54Z</time>
      </trkpt>
      <trkpt lat="44.85664" lon="4.34284">
        <ele>726.4</ele>
        <time>2021-06-06T08:10:58Z</time>
      </trkpt>
      <trkpt lat="44.85664" lon="4.34271">
        <ele>727</ele>
        <time>2021-06-06T08:11:02Z</time>
      </trkpt>
      <trkpt lat="44.85667" lon="4.3426">
        <ele>727.4</ele>
        <time>2021-06-06T08:11:06Z</time>
      </trkpt>
      <trkpt lat="44.8568" lon="4.34249">
        <ele>728</ele>
        <time>2021-06-06T08:11:10Z</time>
      </trkpt>
      <trkpt lat="44.8569" lon="4.34244">
        <ele>729.2</ele>
        <time>2021-06-06T08:11:14Z</time>
      </trkpt>
      <trkpt lat="44.857" lon="4.34245">
        <ele>730</ele>
        <time>2021-06-06T08:11:18Z</time>
      </trkpt>
      <trkpt lat="44.85705" lon="4.34252">
        <ele>730.6</ele>
        <time>2021-06-06T08:11:22Z</time>
      </trkpt>
      <trkpt lat="44.85711" lon="4.34261">
        <ele>731.2</ele>
        <time>2021-06-06T08:11:26Z</time>
      </trkpt>
      <trkpt lat="44.85716" lon="4.34271">
        <ele>731.6</ele>
        <time>2021-06-06T08:11:30Z</time>
      </trkpt>
      <trkpt lat="44.85721" lon="4.34282">
        <ele>732.6</ele>
        <time>2021-06-06T08:11:34Z</time>
      </trkpt>
      <trkpt lat="44.85726" lon="4.34293">
        <ele>733.2</ele>
        <time>2021-06-06T08:11:38Z</time>
      </trkpt>
      <trkpt lat="44.85732" lon="4.34302">
        <ele>733.6</ele>
        <time>2021-06-06T08:11:42Z</time>
      </trkpt>
      <trkpt lat="44.85754" lon="4.34313">
        <ele>734.2</ele>
        <time>2021-06-06T08:13:31Z</time>
      </trkpt>
      <trkpt lat="44.8576" lon="4.34318">
        <ele>735.2</ele>
        <time>2021-06-06T08:13:35Z</time>
      </trkpt>
      <trkpt lat="44.85759" lon="4.34329">
        <ele>735.8</ele>
        <time>2021-06-06T08:13:39Z</time>
      </trkpt>
      <trkpt lat="44.85757" lon="4.3434">
        <ele>736.6</ele>
        <time>2021-06-06T08:13:43Z</time>
      </trkpt>
      <trkpt lat="44.85753" lon="4.34351">
        <ele>737.4</ele>
        <time>2021-06-06T08:13:47Z</time>
      </trkpt>
      <trkpt lat="44.85753" lon="4.34363">
        <ele>738.2</ele>
        <time>2021-06-06T08:13:51Z</time>
      </trkpt>
      <trkpt lat="44.85756" lon="4.34374">
        <ele>738.2</ele>
        <time>2021-06-06T08:13:55Z</time>
      </trkpt>
      <trkpt lat="44.85761" lon="4.34382">
        <ele>739.8</ele>
        <time>2021-06-06T08:13:59Z</time>
      </trkpt>
      <trkpt lat="44.85766" lon="4.34389">
        <ele>740.2</ele>
        <time>2021-06-06T08:14:03Z</time>
      </trkpt>
      <trkpt lat="44.85773" lon="4.34394">
        <ele>740.8</ele>
        <time>2021-06-06T08:14:07Z</time>
      </trkpt>
      <trkpt lat="44.85779" lon="4.34401">
        <ele>741.8</ele>
        <time>2021-06-06T08:14:11Z</time>
      </trkpt>
      <trkpt lat="44.85785" lon="4.34408">
        <ele>742.4</ele>
        <time>2021-06-06T08:14:15Z</time>
      </trkpt>
      <trkpt lat="44.8579" lon="4.34415">
        <ele>742.6</ele>
        <time>2021-06-06T08:14:19Z</time>
      </trkpt>
      <trkpt lat="44.85796" lon="4.34423">
        <ele>743.4</ele>
        <time>2021-06-06T08:14:23Z</time>
      </trkpt>
      <trkpt lat="44.85799" lon="4.3443">
        <ele>744.2</ele>
        <time>2021-06-06T08:14:27Z</time>
      </trkpt>
      <trkpt lat="44.85804" lon="4.34439">
        <ele>744.6</ele>
        <time>2021-06-06T08:14:31Z</time>
      </trkpt>
      <trkpt lat="44.85806" lon="4.34451">
        <ele>745.2</ele>
        <time>2021-06-06T08:14:35Z</time>
      </trkpt>
      <trkpt lat="44.85805" lon="4.3446">
        <ele>746.6</ele>
        <time>2021-06-06T08:14:39Z</time>
      </trkpt>
      <trkpt lat="44.858" lon="4.34464">
        <ele>747.4</ele>
        <time>2021-06-06T08:14:43Z</time>
      </trkpt>
      <trkpt lat="44.85794" lon="4.34465">
        <ele>748</ele>
        <time>2021-06-06T08:14:47Z</time>
      </trkpt>
      <trkpt lat="44.85788" lon="4.34465">
        <ele>749</ele>
        <time>2021-06-06T08:14:51Z</time>
      </trkpt>
      <trkpt lat="44.8578" lon="4.34471">
        <ele>749.8</ele>
        <time>2021-06-06T08:14:55Z</time>
      </trkpt>
      <trkpt lat="44.85776" lon="4.34482">
        <ele>750.4</ele>
        <time>2021-06-06T08:14:59Z</time>
      </trkpt>
      <trkpt lat="44.85776" lon="4.34493">
        <ele>751</ele>
        <time>2021-06-06T08:15:03Z</time>
      </trkpt>
      <trkpt lat="44.85778" lon="4.34503">
        <ele>751.4</ele>
        <time>2021-06-06T08:15:07Z</time>
      </trkpt>
      <trkpt lat="44.85779" lon="4.34514">
        <ele>751.8</ele>
        <time>2021-06-06T08:15:11Z</time>
      </trkpt>
      <trkpt lat="44.8578" lon="4.34526">
        <ele>753</ele>
        <time>2021-06-06T08:15:15Z</time>
      </trkpt>
      <trkpt lat="44.85779" lon="4.34537">
        <ele>753</ele>
        <time>2021-06-06T08:15:19Z</time>
      </trkpt>
      <trkpt lat="44.85778" lon="4.34548">
        <ele>753.8</ele>
        <time>2021-06-06T08:15:23Z</time>
      </trkpt>
      <trkpt lat="44.85777" lon="4.34559">
        <ele>754.8</ele>
        <time>2021-06-06T08:15:27Z</time>
      </trkpt>
      <trkpt lat="44.8578" lon="4.3457">
        <ele>754.6</ele>
        <time>2021-06-06T08:15:31Z</time>
      </trkpt>
      <trkpt lat="44.85785" lon="4.34579">
        <ele>755.6</ele>
        <time>2021-06-06T08:15:35Z</time>
      </trkpt>
      <trkpt lat="44.85791" lon="4.34587">
        <ele>756</ele>
        <time>2021-06-06T08:15:39Z</time>
      </trkpt>
      <trkpt lat="44.85796" lon="4.34594">
        <ele>756.6</ele>
        <time>2021-06-06T08:15:43Z</time>
      </trkpt>
      <trkpt lat="44.85802" lon="4.34602">
        <ele>757.2</ele>
        <time>2021-06-06T08:15:47Z</time>
      </trkpt>
      <trkpt lat="44.85806" lon="4.34611">
        <ele>757.8</ele>
        <time>2021-06-06T08:15:51Z</time>
      </trkpt>
      <trkpt lat="44.8581" lon="4.34621">
        <ele>758.6</ele>
        <time>2021-06-06T08:15:55Z</time>
      </trkpt>
      <trkpt lat="44.85813" lon="4.34632">
        <ele>759.4</ele>
        <time>2021-06-06T08:15:59Z</time>
      </trkpt>
      <trkpt lat="44.85816" lon="4.34643">
        <ele>759.8</ele>
        <time>2021-06-06T08:16:03Z</time>
      </trkpt>
      <trkpt lat="44.85819" lon="4.34653">
        <ele>760.2</ele>
        <time>2021-06-06T08:16:07Z</time>
      </trkpt>
      <trkpt lat="44.85823" lon="4.34663">
        <ele>761</ele>
        <time>2021-06-06T08:16:11Z</time>
      </trkpt>
      <trkpt lat="44.85825" lon="4.34673">
        <ele>761.6</ele>
        <time>2021-06-06T08:16:15Z</time>
      </trkpt>
      <trkpt lat="44.8583" lon="4.34681">
        <ele>761.8</ele>
        <time>2021-06-06T08:16:19Z</time>
      </trkpt>
      <trkpt lat="44.85833" lon="4.34691">
        <ele>762.4</ele>
        <time>2021-06-06T08:16:23Z</time>
      </trkpt>
      <trkpt lat="44.85839" lon="4.34699">
        <ele>762.8</ele>
        <time>2021-06-06T08:16:27Z</time>
      </trkpt>
      <trkpt lat="44.85845" lon="4.34704">
        <ele>763.6</ele>
        <time>2021-06-06T08:16:31Z</time>
      </trkpt>
      <trkpt lat="44.85851" lon="4.34698">
        <ele>764.4</ele>
        <time>2021-06-06T08:16:35Z</time>
      </trkpt>
      <trkpt lat="44.85846" lon="4.34691">
        <ele>765</ele>
        <time>2021-06-06T08:16:39Z</time>
      </trkpt>
      <trkpt lat="44.85844" lon="4.34678">
        <ele>765</ele>
        <time>2021-06-06T08:16:43Z</time>
      </trkpt>
      <trkpt lat="44.85841" lon="4.34666">
        <ele>766</ele>
        <time>2021-06-06T08:16:47Z</time>
      </trkpt>
      <trkpt lat="44.85836" lon="4.34658">
        <ele>765.8</ele>
        <time>2021-06-06T08:16:51Z</time>
      </trkpt>
      <trkpt lat="44.85833" lon="4.34648">
        <ele>766.4</ele>
        <time>2021-06-06T08:16:55Z</time>
      </trkpt>
      <trkpt lat="44.85829" lon="4.34639">
        <ele>767.2</ele>
        <time>2021-06-06T08:16:59Z</time>
      </trkpt>
      <trkpt lat="44.85829" lon="4.34626">
        <ele>768.6</ele>
        <time>2021-06-06T08:17:03Z</time>
      </trkpt>
      <trkpt lat="44.8583" lon="4.34613">
        <ele>767.4</ele>
        <time>2021-06-06T08:17:07Z</time>
      </trkpt>
      <trkpt lat="44.85827" lon="4.34602">
        <ele>768.6</ele>
        <time>2021-06-06T08:17:11Z</time>
      </trkpt>
      <trkpt lat="44.85823" lon="4.34594">
        <ele>769.6</ele>
        <time>2021-06-06T08:17:15Z</time>
      </trkpt>
      <trkpt lat="44.85824" lon="4.34581">
        <ele>769.8</ele>
        <time>2021-06-06T08:17:19Z</time>
      </trkpt>
      <trkpt lat="44.85821" lon="4.34571">
        <ele>770.8</ele>
        <time>2021-06-06T08:17:23Z</time>
      </trkpt>
      <trkpt lat="44.85822" lon="4.34559">
        <ele>771.4</ele>
        <time>2021-06-06T08:17:27Z</time>
      </trkpt>
      <trkpt lat="44.85836" lon="4.34541">
        <ele>771.4</ele>
        <time>2021-06-06T08:17:31Z</time>
      </trkpt>
      <trkpt lat="44.85841" lon="4.34531">
        <ele>772.4</ele>
        <time>2021-06-06T08:17:35Z</time>
      </trkpt>
      <trkpt lat="44.85847" lon="4.34524">
        <ele>772.8</ele>
        <time>2021-06-06T08:17:39Z</time>
      </trkpt>
      <trkpt lat="44.85853" lon="4.34516">
        <ele>773.2</ele>
        <time>2021-06-06T08:17:43Z</time>
      </trkpt>
      <trkpt lat="44.85861" lon="4.34512">
        <ele>773.8</ele>
        <time>2021-06-06T08:17:47Z</time>
      </trkpt>
      <trkpt lat="44.85869" lon="4.34506">
        <ele>774.4</ele>
        <time>2021-06-06T08:17:51Z</time>
      </trkpt>
      <trkpt lat="44.85876" lon="4.34505">
        <ele>775.6</ele>
        <time>2021-06-06T08:17:55Z</time>
      </trkpt>
      <trkpt lat="44.85884" lon="4.34505">
        <ele>775.6</ele>
        <time>2021-06-06T08:17:59Z</time>
      </trkpt>
      <trkpt lat="44.8589" lon="4.34501">
        <ele>776.6</ele>
        <time>2021-06-06T08:18:03Z</time>
      </trkpt>
      <trkpt lat="44.85896" lon="4.34496">
        <ele>777.2</ele>
        <time>2021-06-06T08:18:07Z</time>
      </trkpt>
      <trkpt lat="44.85903" lon="4.34489">
        <ele>778.2</ele>
        <time>2021-06-06T08:18:11Z</time>
      </trkpt>
      <trkpt lat="44.85908" lon="4.34479">
        <ele>779</ele>
        <time>2021-06-06T08:18:15Z</time>
      </trkpt>
      <trkpt lat="44.85911" lon="4.34471">
        <ele>779.8</ele>
        <time>2021-06-06T08:18:19Z</time>
      </trkpt>
      <trkpt lat="44.85906" lon="4.34458">
        <ele>780.8</ele>
        <time>2021-06-06T08:18:23Z</time>
      </trkpt>
      <trkpt lat="44.85896" lon="4.34451">
        <ele>781.6</ele>
        <time>2021-06-06T08:18:27Z</time>
      </trkpt>
      <trkpt lat="44.85892" lon="4.34442">
        <ele>781.6</ele>
        <time>2021-06-06T08:18:31Z</time>
      </trkpt>
      <trkpt lat="44.8589" lon="4.3443">
        <ele>782.6</ele>
        <time>2021-06-06T08:18:35Z</time>
      </trkpt>
      <trkpt lat="44.85886" lon="4.34421">
        <ele>783.6</ele>
        <time>2021-06-06T08:18:39Z</time>
      </trkpt>
      <trkpt lat="44.85884" lon="4.34409">
        <ele>783.8</ele>
        <time>2021-06-06T08:18:43Z</time>
      </trkpt>
      <trkpt lat="44.8588" lon="4.34398">
        <ele>784.8</ele>
        <time>2021-06-06T08:18:47Z</time>
      </trkpt>
      <trkpt lat="44.85874" lon="4.34389">
        <ele>785.2</ele>
        <time>2021-06-06T08:18:51Z</time>
      </trkpt>
      <trkpt lat="44.85874" lon="4.34376">
        <ele>785.8</ele>
        <time>2021-06-06T08:18:55Z</time>
      </trkpt>
      <trkpt lat="44.85875" lon="4.34363">
        <ele>786.4</ele>
        <time>2021-06-06T08:18:59Z</time>
      </trkpt>
      <trkpt lat="44.85878" lon="4.34352">
        <ele>786.6</ele>
        <time>2021-06-06T08:19:03Z</time>
      </trkpt>
      <trkpt lat="44.85883" lon="4.34341">
        <ele>787.6</ele>
        <time>2021-06-06T08:19:07Z</time>
      </trkpt>
      <trkpt lat="44.85887" lon="4.34332">
        <ele>788</ele>
        <time>2021-06-06T08:19:11Z</time>
      </trkpt>
      <trkpt lat="44.85892" lon="4.34324">
        <ele>789.2</ele>
        <time>2021-06-06T08:19:15Z</time>
      </trkpt>
      <trkpt lat="44.85899" lon="4.34318">
        <ele>789</ele>
        <time>2021-06-06T08:19:19Z</time>
      </trkpt>
      <trkpt lat="44.85904" lon="4.3431">
        <ele>789.8</ele>
        <time>2021-06-06T08:19:23Z</time>
      </trkpt>
      <trkpt lat="44.8591" lon="4.34303">
        <ele>790</ele>
        <time>2021-06-06T08:19:27Z</time>
      </trkpt>
      <trkpt lat="44.85915" lon="4.34296">
        <ele>791.4</ele>
        <time>2021-06-06T08:19:31Z</time>
      </trkpt>
      <trkpt lat="44.85921" lon="4.34289">
        <ele>791</ele>
        <time>2021-06-06T08:19:35Z</time>
      </trkpt>
      <trkpt lat="44.85926" lon="4.34283">
        <ele>792</ele>
        <time>2021-06-06T08:19:39Z</time>
      </trkpt>
      <trkpt lat="44.85927" lon="4.34274">
        <ele>792.4</ele>
        <time>2021-06-06T08:19:43Z</time>
      </trkpt>
      <trkpt lat="44.8592" lon="4.34267">
        <ele>793.2</ele>
        <time>2021-06-06T08:19:47Z</time>
      </trkpt>
      <trkpt lat="44.85918" lon="4.34256">
        <ele>794</ele>
        <time>2021-06-06T08:19:51Z</time>
      </trkpt>
      <trkpt lat="44.85919" lon="4.34242">
        <ele>794.8</ele>
        <time>2021-06-06T08:19:55Z</time>
      </trkpt>
      <trkpt lat="44.85919" lon="4.3423">
        <ele>795.6</ele>
        <time>2021-06-06T08:19:59Z</time>
      </trkpt>
      <trkpt lat="44.85916" lon="4.34219">
        <ele>796</ele>
        <time>2021-06-06T08:20:03Z</time>
      </trkpt>
      <trkpt lat="44.85912" lon="4.3421">
        <ele>796.8</ele>
        <time>2021-06-06T08:20:07Z</time>
      </trkpt>
      <trkpt lat="44.85909" lon="4.34202">
        <ele>797.2</ele>
        <time>2021-06-06T08:20:11Z</time>
      </trkpt>
      <trkpt lat="44.85904" lon="4.34193">
        <ele>797.8</ele>
        <time>2021-06-06T08:20:15Z</time>
      </trkpt>
      <trkpt lat="44.85901" lon="4.34185">
        <ele>798.4</ele>
        <time>2021-06-06T08:20:19Z</time>
      </trkpt>
      <trkpt lat="44.85899" lon="4.34174">
        <ele>799</ele>
        <time>2021-06-06T08:20:23Z</time>
      </trkpt>
      <trkpt lat="44.85899" lon="4.34164">
        <ele>799.6</ele>
        <time>2021-06-06T08:20:27Z</time>
      </trkpt>
      <trkpt lat="44.859" lon="4.34153">
        <ele>799.8</ele>
        <time>2021-06-06T08:20:31Z</time>
      </trkpt>
      <trkpt lat="44.859" lon="4.34142">
        <ele>800.8</ele>
        <time>2021-06-06T08:20:35Z</time>
      </trkpt>
      <trkpt lat="44.85899" lon="4.34131">
        <ele>801.6</ele>
        <time>2021-06-06T08:20:39Z</time>
      </trkpt>
      <trkpt lat="44.85897" lon="4.3412">
        <ele>802.2</ele>
        <time>2021-06-06T08:20:43Z</time>
      </trkpt>
      <trkpt lat="44.85894" lon="4.3411">
        <ele>802</ele>
        <time>2021-06-06T08:20:47Z</time>
      </trkpt>
      <trkpt lat="44.85891" lon="4.341">
        <ele>802.4</ele>
        <time>2021-06-06T08:20:51Z</time>
      </trkpt>
      <trkpt lat="44.85889" lon="4.34087">
        <ele>802.8</ele>
        <time>2021-06-06T08:20:55Z</time>
      </trkpt>
      <trkpt lat="44.85892" lon="4.34075">
        <ele>802.6</ele>
        <time>2021-06-06T08:20:59Z</time>
      </trkpt>
      <trkpt lat="44.85896" lon="4.34062">
        <ele>802.6</ele>
        <time>2021-06-06T08:21:03Z</time>
      </trkpt>
      <trkpt lat="44.85902" lon="4.34047">
        <ele>802</ele>
        <time>2021-06-06T08:21:07Z</time>
      </trkpt>
      <trkpt lat="44.85905" lon="4.34032">
        <ele>802</ele>
        <time>2021-06-06T08:21:11Z</time>
      </trkpt>
      <trkpt lat="44.85899" lon="4.34012">
        <ele>802</ele>
        <time>2021-06-06T08:21:15Z</time>
      </trkpt>
      <trkpt lat="44.85893" lon="4.33999">
        <ele>802.8</ele>
        <time>2021-06-06T08:21:19Z</time>
      </trkpt>
      <trkpt lat="44.85886" lon="4.33989">
        <ele>803</ele>
        <time>2021-06-06T08:21:23Z</time>
      </trkpt>
      <trkpt lat="44.85877" lon="4.33982">
        <ele>803.2</ele>
        <time>2021-06-06T08:21:27Z</time>
      </trkpt>
      <trkpt lat="44.8587" lon="4.33975">
        <ele>803.4</ele>
        <time>2021-06-06T08:21:31Z</time>
      </trkpt>
      <trkpt lat="44.85861" lon="4.33967">
        <ele>803.8</ele>
        <time>2021-06-06T08:21:35Z</time>
      </trkpt>
      <trkpt lat="44.85854" lon="4.33958">
        <ele>803.8</ele>
        <time>2021-06-06T08:21:39Z</time>
      </trkpt>
      <trkpt lat="44.85846" lon="4.33951">
        <ele>805</ele>
        <time>2021-06-06T08:21:43Z</time>
      </trkpt>
      <trkpt lat="44.8584" lon="4.33942">
        <ele>805.8</ele>
        <time>2021-06-06T08:21:47Z</time>
      </trkpt>
      <trkpt lat="44.85836" lon="4.33932">
        <ele>806.8</ele>
        <time>2021-06-06T08:21:51Z</time>
      </trkpt>
      <trkpt lat="44.85833" lon="4.33921">
        <ele>807.2</ele>
        <time>2021-06-06T08:21:55Z</time>
      </trkpt>
      <trkpt lat="44.85831" lon="4.3391">
        <ele>807.2</ele>
        <time>2021-06-06T08:21:59Z</time>
      </trkpt>
      <trkpt lat="44.85829" lon="4.33898">
        <ele>807.8</ele>
        <time>2021-06-06T08:22:03Z</time>
      </trkpt>
      <trkpt lat="44.85828" lon="4.33886">
        <ele>809</ele>
        <time>2021-06-06T08:22:07Z</time>
      </trkpt>
      <trkpt lat="44.85827" lon="4.33874">
        <ele>809.4</ele>
        <time>2021-06-06T08:22:11Z</time>
      </trkpt>
      <trkpt lat="44.85826" lon="4.33864">
        <ele>810</ele>
        <time>2021-06-06T08:22:15Z</time>
      </trkpt>
      <trkpt lat="44.85825" lon="4.33852">
        <ele>810.6</ele>
        <time>2021-06-06T08:22:19Z</time>
      </trkpt>
      <trkpt lat="44.85825" lon="4.33841">
        <ele>810.6</ele>
        <time>2021-06-06T08:22:23Z</time>
      </trkpt>
      <trkpt lat="44.85825" lon="4.3383">
        <ele>811.4</ele>
        <time>2021-06-06T08:22:27Z</time>
      </trkpt>
      <trkpt lat="44.85822" lon="4.33821">
        <ele>812.4</ele>
        <time>2021-06-06T08:22:31Z</time>
      </trkpt>
      <trkpt lat="44.85822" lon="4.33808">
        <ele>812.4</ele>
        <time>2021-06-06T08:22:35Z</time>
      </trkpt>
      <trkpt lat="44.85822" lon="4.33795">
        <ele>813.6</ele>
        <time>2021-06-06T08:22:39Z</time>
      </trkpt>
      <trkpt lat="44.85825" lon="4.33781">
        <ele>814.4</ele>
        <time>2021-06-06T08:22:43Z</time>
      </trkpt>
      <trkpt lat="44.85827" lon="4.33768">
        <ele>814.8</ele>
        <time>2021-06-06T08:22:47Z</time>
      </trkpt>
      <trkpt lat="44.85828" lon="4.33754">
        <ele>814.4</ele>
        <time>2021-06-06T08:22:51Z</time>
      </trkpt>
      <trkpt lat="44.85831" lon="4.33741">
        <ele>814.4</ele>
        <time>2021-06-06T08:22:55Z</time>
      </trkpt>
      <trkpt lat="44.85833" lon="4.33726">
        <ele>815.4</ele>
        <time>2021-06-06T08:22:59Z</time>
      </trkpt>
      <trkpt lat="44.85839" lon="4.33712">
        <ele>815.4</ele>
        <time>2021-06-06T08:23:03Z</time>
      </trkpt>
      <trkpt lat="44.85845" lon="4.33703">
        <ele>816.6</ele>
        <time>2021-06-06T08:23:07Z</time>
      </trkpt>
      <trkpt lat="44.85852" lon="4.33695">
        <ele>816.4</ele>
        <time>2021-06-06T08:23:11Z</time>
      </trkpt>
      <trkpt lat="44.85858" lon="4.33685">
        <ele>817.2</ele>
        <time>2021-06-06T08:23:15Z</time>
      </trkpt>
      <trkpt lat="44.85863" lon="4.33679">
        <ele>817.2</ele>
        <time>2021-06-06T08:23:19Z</time>
      </trkpt>
      <trkpt lat="44.85858" lon="4.33659">
        <ele>816.8</ele>
        <time>2021-06-06T08:23:23Z</time>
      </trkpt>
      <trkpt lat="44.85847" lon="4.33647">
        <ele>816.8</ele>
        <time>2021-06-06T08:23:27Z</time>
      </trkpt>
      <trkpt lat="44.85837" lon="4.33638">
        <ele>817.4</ele>
        <time>2021-06-06T08:23:31Z</time>
      </trkpt>
      <trkpt lat="44.85831" lon="4.33626">
        <ele>817.6</ele>
        <time>2021-06-06T08:23:35Z</time>
      </trkpt>
      <trkpt lat="44.85829" lon="4.33614">
        <ele>818.4</ele>
        <time>2021-06-06T08:23:39Z</time>
      </trkpt>
      <trkpt lat="44.85829" lon="4.33602">
        <ele>818.8</ele>
        <time>2021-06-06T08:23:43Z</time>
      </trkpt>
      <trkpt lat="44.85829" lon="4.33592">
        <ele>819.6</ele>
        <time>2021-06-06T08:23:47Z</time>
      </trkpt>
      <trkpt lat="44.85829" lon="4.33581">
        <ele>820.6</ele>
        <time>2021-06-06T08:23:51Z</time>
      </trkpt>
      <trkpt lat="44.85829" lon="4.33571">
        <ele>821.8</ele>
        <time>2021-06-06T08:23:55Z</time>
      </trkpt>
      <trkpt lat="44.8583" lon="4.3356">
        <ele>822</ele>
        <time>2021-06-06T08:23:59Z</time>
      </trkpt>
      <trkpt lat="44.85832" lon="4.33549">
        <ele>822.6</ele>
        <time>2021-06-06T08:24:03Z</time>
      </trkpt>
      <trkpt lat="44.85829" lon="4.3354">
        <ele>823.2</ele>
        <time>2021-06-06T08:24:07Z</time>
      </trkpt>
      <trkpt lat="44.85828" lon="4.33529">
        <ele>823.8</ele>
        <time>2021-06-06T08:24:11Z</time>
      </trkpt>
      <trkpt lat="44.85825" lon="4.33518">
        <ele>824.8</ele>
        <time>2021-06-06T08:24:15Z</time>
      </trkpt>
      <trkpt lat="44.85822" lon="4.33507">
        <ele>825.2</ele>
        <time>2021-06-06T08:24:19Z</time>
      </trkpt>
      <trkpt lat="44.8582" lon="4.33495">
        <ele>825.8</ele>
        <time>2021-06-06T08:24:23Z</time>
      </trkpt>
      <trkpt lat="44.85814" lon="4.33486">
        <ele>826.4</ele>
        <time>2021-06-06T08:24:27Z</time>
      </trkpt>
      <trkpt lat="44.85813" lon="4.33476">
        <ele>827.2</ele>
        <time>2021-06-06T08:24:31Z</time>
      </trkpt>
      <trkpt lat="44.85812" lon="4.33467">
        <ele>827.8</ele>
        <time>2021-06-06T08:24:35Z</time>
      </trkpt>
      <trkpt lat="44.85812" lon="4.33457">
        <ele>828.4</ele>
        <time>2021-06-06T08:24:39Z</time>
      </trkpt>
      <trkpt lat="44.8581" lon="4.33446">
        <ele>829.2</ele>
        <time>2021-06-06T08:24:43Z</time>
      </trkpt>
      <trkpt lat="44.85804" lon="4.33435">
        <ele>829.8</ele>
        <time>2021-06-06T08:24:47Z</time>
      </trkpt>
      <trkpt lat="44.85801" lon="4.33422">
        <ele>830.4</ele>
        <time>2021-06-06T08:24:51Z</time>
      </trkpt>
      <trkpt lat="44.85805" lon="4.33406">
        <ele>831</ele>
        <time>2021-06-06T08:24:55Z</time>
      </trkpt>
      <trkpt lat="44.85806" lon="4.33393">
        <ele>832</ele>
        <time>2021-06-06T08:24:59Z</time>
      </trkpt>
      <trkpt lat="44.85805" lon="4.33381">
        <ele>832.6</ele>
        <time>2021-06-06T08:25:03Z</time>
      </trkpt>
      <trkpt lat="44.858" lon="4.33373">
        <ele>833.4</ele>
        <time>2021-06-06T08:25:07Z</time>
      </trkpt>
      <trkpt lat="44.85799" lon="4.33362">
        <ele>833.8</ele>
        <time>2021-06-06T08:25:11Z</time>
      </trkpt>
      <trkpt lat="44.85796" lon="4.33352">
        <ele>835</ele>
        <time>2021-06-06T08:25:15Z</time>
      </trkpt>
      <trkpt lat="44.85792" lon="4.33343">
        <ele>835.2</ele>
        <time>2021-06-06T08:25:19Z</time>
      </trkpt>
      <trkpt lat="44.85789" lon="4.33335">
        <ele>835.4</ele>
        <time>2021-06-06T08:25:23Z</time>
      </trkpt>
      <trkpt lat="44.85784" lon="4.33326">
        <ele>836.4</ele>
        <time>2021-06-06T08:25:27Z</time>
      </trkpt>
      <trkpt lat="44.8578" lon="4.33317">
        <ele>837.4</ele>
        <time>2021-06-06T08:25:31Z</time>
      </trkpt>
      <trkpt lat="44.85778" lon="4.33307">
        <ele>838</ele>
        <time>2021-06-06T08:25:35Z</time>
      </trkpt>
      <trkpt lat="44.85771" lon="4.33298">
        <ele>838.6</ele>
        <time>2021-06-06T08:25:39Z</time>
      </trkpt>
      <trkpt lat="44.85768" lon="4.33288">
        <ele>839</ele>
        <time>2021-06-06T08:25:43Z</time>
      </trkpt>
      <trkpt lat="44.85764" lon="4.33278">
        <ele>840</ele>
        <time>2021-06-06T08:25:47Z</time>
      </trkpt>
      <trkpt lat="44.8576" lon="4.33268">
        <ele>840.2</ele>
        <time>2021-06-06T08:25:51Z</time>
      </trkpt>
      <trkpt lat="44.85756" lon="4.33259">
        <ele>840.8</ele>
        <time>2021-06-06T08:25:55Z</time>
      </trkpt>
      <trkpt lat="44.85756" lon="4.33247">
        <ele>841</ele>
        <time>2021-06-06T08:25:59Z</time>
      </trkpt>
      <trkpt lat="44.85759" lon="4.33234">
        <ele>841.4</ele>
        <time>2021-06-06T08:26:03Z</time>
      </trkpt>
      <trkpt lat="44.85765" lon="4.33221">
        <ele>843</ele>
        <time>2021-06-06T08:26:07Z</time>
      </trkpt>
      <trkpt lat="44.85769" lon="4.33211">
        <ele>843.8</ele>
        <time>2021-06-06T08:26:11Z</time>
      </trkpt>
      <trkpt lat="44.85774" lon="4.33202">
        <ele>844</ele>
        <time>2021-06-06T08:26:15Z</time>
      </trkpt>
      <trkpt lat="44.8578" lon="4.33194">
        <ele>844.8</ele>
        <time>2021-06-06T08:26:19Z</time>
      </trkpt>
      <trkpt lat="44.85784" lon="4.33188">
        <ele>845.2</ele>
        <time>2021-06-06T08:26:23Z</time>
      </trkpt>
      <trkpt lat="44.85789" lon="4.33181">
        <ele>845.8</ele>
        <time>2021-06-06T08:26:27Z</time>
      </trkpt>
      <trkpt lat="44.85791" lon="4.33174">
        <ele>847</ele>
        <time>2021-06-06T08:26:31Z</time>
      </trkpt>
      <trkpt lat="44.85793" lon="4.33168">
        <ele>848</ele>
        <time>2021-06-06T08:26:35Z</time>
      </trkpt>
      <trkpt lat="44.85796" lon="4.33162">
        <ele>848.8</ele>
        <time>2021-06-06T08:26:39Z</time>
      </trkpt>
      <trkpt lat="44.85798" lon="4.33156">
        <ele>849.6</ele>
        <time>2021-06-06T08:26:43Z</time>
      </trkpt>
      <trkpt lat="44.85801" lon="4.3315">
        <ele>851.2</ele>
        <time>2021-06-06T08:26:47Z</time>
      </trkpt>
      <trkpt lat="44.85806" lon="4.33145">
        <ele>851.4</ele>
        <time>2021-06-06T08:26:51Z</time>
      </trkpt>
      <trkpt lat="44.85814" lon="4.33142">
        <ele>851.8</ele>
        <time>2021-06-06T08:26:55Z</time>
      </trkpt>
      <trkpt lat="44.8582" lon="4.33139">
        <ele>852.8</ele>
        <time>2021-06-06T08:26:59Z</time>
      </trkpt>
      <trkpt lat="44.85826" lon="4.33134">
        <ele>853.2</ele>
        <time>2021-06-06T08:27:03Z</time>
      </trkpt>
      <trkpt lat="44.85831" lon="4.3313">
        <ele>853.8</ele>
        <time>2021-06-06T08:27:07Z</time>
      </trkpt>
      <trkpt lat="44.8584" lon="4.33127">
        <ele>854.4</ele>
        <time>2021-06-06T08:27:11Z</time>
      </trkpt>
      <trkpt lat="44.85846" lon="4.33122">
        <ele>855</ele>
        <time>2021-06-06T08:27:15Z</time>
      </trkpt>
      <trkpt lat="44.85853" lon="4.33116">
        <ele>855.6</ele>
        <time>2021-06-06T08:27:19Z</time>
      </trkpt>
      <trkpt lat="44.85858" lon="4.33108">
        <ele>856.6</ele>
        <time>2021-06-06T08:27:23Z</time>
      </trkpt>
      <trkpt lat="44.85859" lon="4.33102">
        <ele>857</ele>
        <time>2021-06-06T08:27:27Z</time>
      </trkpt>
      <trkpt lat="44.85859" lon="4.33097">
        <ele>858.4</ele>
        <time>2021-06-06T08:27:31Z</time>
      </trkpt>
      <trkpt lat="44.85859" lon="4.33089">
        <ele>858.6</ele>
        <time>2021-06-06T08:27:35Z</time>
      </trkpt>
      <trkpt lat="44.85861" lon="4.33083">
        <ele>859.4</ele>
        <time>2021-06-06T08:27:39Z</time>
      </trkpt>
      <trkpt lat="44.85853" lon="4.33075">
        <ele>860.2</ele>
        <time>2021-06-06T08:27:43Z</time>
      </trkpt>
      <trkpt lat="44.85849" lon="4.33066">
        <ele>861.2</ele>
        <time>2021-06-06T08:27:47Z</time>
      </trkpt>
      <trkpt lat="44.85841" lon="4.3306">
        <ele>861.8</ele>
        <time>2021-06-06T08:27:51Z</time>
      </trkpt>
      <trkpt lat="44.85838" lon="4.33053">
        <ele>862.8</ele>
        <time>2021-06-06T08:27:55Z</time>
      </trkpt>
      <trkpt lat="44.85835" lon="4.33047">
        <ele>863.4</ele>
        <time>2021-06-06T08:27:59Z</time>
      </trkpt>
      <trkpt lat="44.85831" lon="4.33041">
        <ele>863.8</ele>
        <time>2021-06-06T08:28:03Z</time>
      </trkpt>
      <trkpt lat="44.85829" lon="4.33033">
        <ele>864.2</ele>
        <time>2021-06-06T08:28:07Z</time>
      </trkpt>
      <trkpt lat="44.8583" lon="4.33025">
        <ele>865.4</ele>
        <time>2021-06-06T08:28:11Z</time>
      </trkpt>
      <trkpt lat="44.85837" lon="4.33024">
        <ele>866</ele>
        <time>2021-06-06T08:28:15Z</time>
      </trkpt>
      <trkpt lat="44.85845" lon="4.33028">
        <ele>866.8</ele>
        <time>2021-06-06T08:28:19Z</time>
      </trkpt>
      <trkpt lat="44.85852" lon="4.33034">
        <ele>867.6</ele>
        <time>2021-06-06T08:28:23Z</time>
      </trkpt>
      <trkpt lat="44.85858" lon="4.33039">
        <ele>868</ele>
        <time>2021-06-06T08:28:27Z</time>
      </trkpt>
      <trkpt lat="44.85863" lon="4.33045">
        <ele>869</ele>
        <time>2021-06-06T08:28:31Z</time>
      </trkpt>
      <trkpt lat="44.85867" lon="4.33051">
        <ele>869.4</ele>
        <time>2021-06-06T08:28:35Z</time>
      </trkpt>
      <trkpt lat="44.85869" lon="4.33057">
        <ele>870.6</ele>
        <time>2021-06-06T08:28:39Z</time>
      </trkpt>
      <trkpt lat="44.85872" lon="4.33063">
        <ele>871.2</ele>
        <time>2021-06-06T08:28:43Z</time>
      </trkpt>
      <trkpt lat="44.85879" lon="4.33063">
        <ele>872</ele>
        <time>2021-06-06T08:28:47Z</time>
      </trkpt>
      <trkpt lat="44.85879" lon="4.33053">
        <ele>872.4</ele>
        <time>2021-06-06T08:28:51Z</time>
      </trkpt>
      <trkpt lat="44.85875" lon="4.33045">
        <ele>873.2</ele>
        <time>2021-06-06T08:28:55Z</time>
      </trkpt>
      <trkpt lat="44.85873" lon="4.33037">
        <ele>873.6</ele>
        <time>2021-06-06T08:28:59Z</time>
      </trkpt>
      <trkpt lat="44.85871" lon="4.33029">
        <ele>874.2</ele>
        <time>2021-06-06T08:29:03Z</time>
      </trkpt>
      <trkpt lat="44.85869" lon="4.33021">
        <ele>875</ele>
        <time>2021-06-06T08:29:07Z</time>
      </trkpt>
      <trkpt lat="44.85866" lon="4.33015">
        <ele>875.8</ele>
        <time>2021-06-06T08:29:11Z</time>
      </trkpt>
      <trkpt lat="44.85865" lon="4.33006">
        <ele>876.8</ele>
        <time>2021-06-06T08:29:15Z</time>
      </trkpt>
      <trkpt lat="44.85865" lon="4.32997">
        <ele>877.6</ele>
        <time>2021-06-06T08:29:19Z</time>
      </trkpt>
      <trkpt lat="44.85866" lon="4.32987">
        <ele>877.6</ele>
        <time>2021-06-06T08:29:23Z</time>
      </trkpt>
      <trkpt lat="44.85864" lon="4.32979">
        <ele>878.2</ele>
        <time>2021-06-06T08:29:27Z</time>
      </trkpt>
      <trkpt lat="44.85862" lon="4.32972">
        <ele>879.2</ele>
        <time>2021-06-06T08:29:31Z</time>
      </trkpt>
      <trkpt lat="44.85862" lon="4.32963">
        <ele>879.8</ele>
        <time>2021-06-06T08:29:35Z</time>
      </trkpt>
      <trkpt lat="44.85861" lon="4.32955">
        <ele>881</ele>
        <time>2021-06-06T08:29:39Z</time>
      </trkpt>
      <trkpt lat="44.8586" lon="4.32948">
        <ele>881.4</ele>
        <time>2021-06-06T08:29:43Z</time>
      </trkpt>
      <trkpt lat="44.85859" lon="4.3294">
        <ele>881.8</ele>
        <time>2021-06-06T08:29:47Z</time>
      </trkpt>
      <trkpt lat="44.85857" lon="4.32932">
        <ele>883.2</ele>
        <time>2021-06-06T08:29:51Z</time>
      </trkpt>
      <trkpt lat="44.85855" lon="4.32924">
        <ele>883.6</ele>
        <time>2021-06-06T08:29:55Z</time>
      </trkpt>
      <trkpt lat="44.85853" lon="4.32916">
        <ele>884.8</ele>
        <time>2021-06-06T08:29:59Z</time>
      </trkpt>
      <trkpt lat="44.85852" lon="4.32908">
        <ele>885.2</ele>
        <time>2021-06-06T08:30:03Z</time>
      </trkpt>
      <trkpt lat="44.85853" lon="4.32901">
        <ele>886.6</ele>
        <time>2021-06-06T08:30:07Z</time>
      </trkpt>
      <trkpt lat="44.85854" lon="4.32893">
        <ele>886.8</ele>
        <time>2021-06-06T08:30:11Z</time>
      </trkpt>
      <trkpt lat="44.85853" lon="4.32886">
        <ele>887.2</ele>
        <time>2021-06-06T08:30:15Z</time>
      </trkpt>
      <trkpt lat="44.8585" lon="4.32878">
        <ele>888.2</ele>
        <time>2021-06-06T08:30:19Z</time>
      </trkpt>
      <trkpt lat="44.85848" lon="4.3287">
        <ele>889</ele>
        <time>2021-06-06T08:30:23Z</time>
      </trkpt>
      <trkpt lat="44.85849" lon="4.32862">
        <ele>889.4</ele>
        <time>2021-06-06T08:30:27Z</time>
      </trkpt>
      <trkpt lat="44.85861" lon="4.32859">
        <ele>890.2</ele>
        <time>2021-06-06T08:30:31Z</time>
      </trkpt>
      <trkpt lat="44.85867" lon="4.32866">
        <ele>890.8</ele>
        <time>2021-06-06T08:30:35Z</time>
      </trkpt>
      <trkpt lat="44.8587" lon="4.32875">
        <ele>891.4</ele>
        <time>2021-06-06T08:30:39Z</time>
      </trkpt>
      <trkpt lat="44.85872" lon="4.32883">
        <ele>892</ele>
        <time>2021-06-06T08:30:43Z</time>
      </trkpt>
      <trkpt lat="44.85876" lon="4.32891">
        <ele>892</ele>
        <time>2021-06-06T08:30:47Z</time>
      </trkpt>
      <trkpt lat="44.85881" lon="4.32898">
        <ele>892.6</ele>
        <time>2021-06-06T08:30:51Z</time>
      </trkpt>
      <trkpt lat="44.85885" lon="4.32906">
        <ele>893</ele>
        <time>2021-06-06T08:30:55Z</time>
      </trkpt>
      <trkpt lat="44.8589" lon="4.32912">
        <ele>893.8</ele>
        <time>2021-06-06T08:30:59Z</time>
      </trkpt>
      <trkpt lat="44.85894" lon="4.32919">
        <ele>894.4</ele>
        <time>2021-06-06T08:31:03Z</time>
      </trkpt>
      <trkpt lat="44.85899" lon="4.32926">
        <ele>894.8</ele>
        <time>2021-06-06T08:31:07Z</time>
      </trkpt>
      <trkpt lat="44.85904" lon="4.32931">
        <ele>896</ele>
        <time>2021-06-06T08:31:11Z</time>
      </trkpt>
      <trkpt lat="44.85909" lon="4.32936">
        <ele>896</ele>
        <time>2021-06-06T08:31:15Z</time>
      </trkpt>
      <trkpt lat="44.85915" lon="4.3294">
        <ele>896.4</ele>
        <time>2021-06-06T08:31:19Z</time>
      </trkpt>
      <trkpt lat="44.85919" lon="4.32946">
        <ele>897.2</ele>
        <time>2021-06-06T08:31:23Z</time>
      </trkpt>
      <trkpt lat="44.85924" lon="4.32954">
        <ele>897.6</ele>
        <time>2021-06-06T08:31:27Z</time>
      </trkpt>
      <trkpt lat="44.85927" lon="4.32962">
        <ele>898.4</ele>
        <time>2021-06-06T08:31:31Z</time>
      </trkpt>
      <trkpt lat="44.85929" lon="4.3297">
        <ele>899.4</ele>
        <time>2021-06-06T08:31:35Z</time>
      </trkpt>
      <trkpt lat="44.85933" lon="4.32977">
        <ele>900.2</ele>
        <time>2021-06-06T08:31:39Z</time>
      </trkpt>
      <trkpt lat="44.85935" lon="4.32984">
        <ele>900.6</ele>
        <time>2021-06-06T08:31:43Z</time>
      </trkpt>
      <trkpt lat="44.85939" lon="4.32992">
        <ele>901</ele>
        <time>2021-06-06T08:31:47Z</time>
      </trkpt>
      <trkpt lat="44.85941" lon="4.32999">
        <ele>902</ele>
        <time>2021-06-06T08:31:51Z</time>
      </trkpt>
      <trkpt lat="44.85942" lon="4.33007">
        <ele>902.8</ele>
        <time>2021-06-06T08:31:55Z</time>
      </trkpt>
      <trkpt lat="44.85946" lon="4.33013">
        <ele>904</ele>
        <time>2021-06-06T08:31:59Z</time>
      </trkpt>
      <trkpt lat="44.85949" lon="4.3302">
        <ele>904.6</ele>
        <time>2021-06-06T08:32:03Z</time>
      </trkpt>
      <trkpt lat="44.85953" lon="4.33025">
        <ele>905.4</ele>
        <time>2021-06-06T08:32:07Z</time>
      </trkpt>
      <trkpt lat="44.85958" lon="4.33029">
        <ele>905.8</ele>
        <time>2021-06-06T08:32:11Z</time>
      </trkpt>
      <trkpt lat="44.85962" lon="4.33031">
        <ele>906</ele>
        <time>2021-06-06T08:32:15Z</time>
      </trkpt>
      <trkpt lat="44.85965" lon="4.33032">
        <ele>906.6</ele>
        <time>2021-06-06T08:32:19Z</time>
      </trkpt>
      <trkpt lat="44.85971" lon="4.33032">
        <ele>907.6</ele>
        <time>2021-06-06T08:32:23Z</time>
      </trkpt>
      <trkpt lat="44.85974" lon="4.33033">
        <ele>908</ele>
        <time>2021-06-06T08:32:27Z</time>
      </trkpt>
      <trkpt lat="44.86046" lon="4.33079">
        <ele>916.2</ele>
        <time>2021-06-06T08:33:19Z</time>
      </trkpt>
      <trkpt lat="44.86048" lon="4.33089">
        <ele>917</ele>
        <time>2021-06-06T08:33:23Z</time>
      </trkpt>
      <trkpt lat="44.86046" lon="4.33095">
        <ele>917.6</ele>
        <time>2021-06-06T08:33:27Z</time>
      </trkpt>
      <trkpt lat="44.86044" lon="4.33099">
        <ele>918.6</ele>
        <time>2021-06-06T08:33:31Z</time>
      </trkpt>
      <trkpt lat="44.86042" lon="4.33104">
        <ele>918.8</ele>
        <time>2021-06-06T08:33:35Z</time>
      </trkpt>
      <trkpt lat="44.86039" lon="4.33111">
        <ele>919.6</ele>
        <time>2021-06-06T08:33:39Z</time>
      </trkpt>
      <trkpt lat="44.86035" lon="4.3312">
        <ele>920.2</ele>
        <time>2021-06-06T08:33:43Z</time>
      </trkpt>
      <trkpt lat="44.86033" lon="4.33129">
        <ele>921</ele>
        <time>2021-06-06T08:33:47Z</time>
      </trkpt>
      <trkpt lat="44.8603" lon="4.33141">
        <ele>921</ele>
        <time>2021-06-06T08:33:51Z</time>
      </trkpt>
      <trkpt lat="44.86026" lon="4.33149">
        <ele>921</ele>
        <time>2021-06-06T08:33:55Z</time>
      </trkpt>
      <trkpt lat="44.86021" lon="4.33154">
        <ele>922</ele>
        <time>2021-06-06T08:33:59Z</time>
      </trkpt>
      <trkpt lat="44.86015" lon="4.33155">
        <ele>922.4</ele>
        <time>2021-06-06T08:34:03Z</time>
      </trkpt>
      <trkpt lat="44.86011" lon="4.33157">
        <ele>923.2</ele>
        <time>2021-06-06T08:34:07Z</time>
      </trkpt>
      <trkpt lat="44.86008" lon="4.3316">
        <ele>923.8</ele>
        <time>2021-06-06T08:34:11Z</time>
      </trkpt>
      <trkpt lat="44.86003" lon="4.33167">
        <ele>924.2</ele>
        <time>2021-06-06T08:34:15Z</time>
      </trkpt>
      <trkpt lat="44.85997" lon="4.33173">
        <ele>925.8</ele>
        <time>2021-06-06T08:34:19Z</time>
      </trkpt>
      <trkpt lat="44.85991" lon="4.33179">
        <ele>926</ele>
        <time>2021-06-06T08:34:23Z</time>
      </trkpt>
      <trkpt lat="44.85987" lon="4.33186">
        <ele>926.4</ele>
        <time>2021-06-06T08:34:27Z</time>
      </trkpt>
      <trkpt lat="44.85982" lon="4.33193">
        <ele>926.6</ele>
        <time>2021-06-06T08:34:31Z</time>
      </trkpt>
      <trkpt lat="44.85977" lon="4.33199">
        <ele>926.6</ele>
        <time>2021-06-06T08:34:35Z</time>
      </trkpt>
      <trkpt lat="44.85973" lon="4.33208">
        <ele>927.2</ele>
        <time>2021-06-06T08:34:39Z</time>
      </trkpt>
      <trkpt lat="44.85973" lon="4.33208">
        <ele>928</ele>
        <time>2021-06-06T08:34:43Z</time>
      </trkpt>
      <trkpt lat="44.85966" lon="4.33217">
        <ele>928.2</ele>
        <time>2021-06-06T08:34:47Z</time>
      </trkpt>
      <trkpt lat="44.85961" lon="4.33224">
        <ele>929</ele>
        <time>2021-06-06T08:34:51Z</time>
      </trkpt>
      <trkpt lat="44.85956" lon="4.33231">
        <ele>929.4</ele>
        <time>2021-06-06T08:34:55Z</time>
      </trkpt>
      <trkpt lat="44.8595" lon="4.33239">
        <ele>930.2</ele>
        <time>2021-06-06T08:34:59Z</time>
      </trkpt>
      <trkpt lat="44.85948" lon="4.33248">
        <ele>930.6</ele>
        <time>2021-06-06T08:35:03Z</time>
      </trkpt>
      <trkpt lat="44.85952" lon="4.33254">
        <ele>931.8</ele>
        <time>2021-06-06T08:35:07Z</time>
      </trkpt>
      <trkpt lat="44.85958" lon="4.33251">
        <ele>932</ele>
        <time>2021-06-06T08:35:11Z</time>
      </trkpt>
      <trkpt lat="44.85963" lon="4.33246">
        <ele>932.4</ele>
        <time>2021-06-06T08:35:15Z</time>
      </trkpt>
      <trkpt lat="44.85968" lon="4.33242">
        <ele>933.2</ele>
        <time>2021-06-06T08:35:19Z</time>
      </trkpt>
      <trkpt lat="44.85973" lon="4.33239">
        <ele>933.6</ele>
        <time>2021-06-06T08:35:23Z</time>
      </trkpt>
      <trkpt lat="44.85979" lon="4.33235">
        <ele>934.6</ele>
        <time>2021-06-06T08:35:27Z</time>
      </trkpt>
      <trkpt lat="44.85983" lon="4.33231">
        <ele>935</ele>
        <time>2021-06-06T08:35:31Z</time>
      </trkpt>
      <trkpt lat="44.85989" lon="4.33228">
        <ele>935.8</ele>
        <time>2021-06-06T08:35:35Z</time>
      </trkpt>
      <trkpt lat="44.85994" lon="4.33224">
        <ele>936.6</ele>
        <time>2021-06-06T08:35:39Z</time>
      </trkpt>
      <trkpt lat="44.85998" lon="4.33221">
        <ele>937.4</ele>
        <time>2021-06-06T08:35:43Z</time>
      </trkpt>
      <trkpt lat="44.86003" lon="4.33218">
        <ele>938.2</ele>
        <time>2021-06-06T08:35:47Z</time>
      </trkpt>
      <trkpt lat="44.86007" lon="4.33213">
        <ele>939</ele>
        <time>2021-06-06T08:35:51Z</time>
      </trkpt>
      <trkpt lat="44.86012" lon="4.3321">
        <ele>940.4</ele>
        <time>2021-06-06T08:35:55Z</time>
      </trkpt>
      <trkpt lat="44.86018" lon="4.33209">
        <ele>940.6</ele>
        <time>2021-06-06T08:35:59Z</time>
      </trkpt>
      <trkpt lat="44.86023" lon="4.33208">
        <ele>941.6</ele>
        <time>2021-06-06T08:36:03Z</time>
      </trkpt>
      <trkpt lat="44.86027" lon="4.33207">
        <ele>942</ele>
        <time>2021-06-06T08:36:07Z</time>
      </trkpt>
      <trkpt lat="44.86032" lon="4.33208">
        <ele>942.8</ele>
        <time>2021-06-06T08:36:11Z</time>
      </trkpt>
      <trkpt lat="44.86037" lon="4.33207">
        <ele>943.8</ele>
        <time>2021-06-06T08:36:15Z</time>
      </trkpt>
      <trkpt lat="44.86042" lon="4.33208">
        <ele>944.4</ele>
        <time>2021-06-06T08:36:19Z</time>
      </trkpt>
      <trkpt lat="44.86047" lon="4.33211">
        <ele>945.4</ele>
        <time>2021-06-06T08:36:23Z</time>
      </trkpt>
      <trkpt lat="44.86052" lon="4.33212">
        <ele>946.2</ele>
        <time>2021-06-06T08:36:27Z</time>
      </trkpt>
      <trkpt lat="44.86058" lon="4.33213">
        <ele>947</ele>
        <time>2021-06-06T08:36:31Z</time>
      </trkpt>
      <trkpt lat="44.86065" lon="4.33212">
        <ele>947.2</ele>
        <time>2021-06-06T08:36:35Z</time>
      </trkpt>
      <trkpt lat="44.86069" lon="4.33204">
        <ele>948.2</ele>
        <time>2021-06-06T08:36:39Z</time>
      </trkpt>
      <trkpt lat="44.86073" lon="4.33197">
        <ele>949</ele>
        <time>2021-06-06T08:36:43Z</time>
      </trkpt>
      <trkpt lat="44.86077" lon="4.33191">
        <ele>949.4</ele>
        <time>2021-06-06T08:36:47Z</time>
      </trkpt>
      <trkpt lat="44.86079" lon="4.33184">
        <ele>950.2</ele>
        <time>2021-06-06T08:36:51Z</time>
      </trkpt>
      <trkpt lat="44.86082" lon="4.33179">
        <ele>950.6</ele>
        <time>2021-06-06T08:36:55Z</time>
      </trkpt>
      <trkpt lat="44.86087" lon="4.33174">
        <ele>951.6</ele>
        <time>2021-06-06T08:36:59Z</time>
      </trkpt>
      <trkpt lat="44.8609" lon="4.33166">
        <ele>951.4</ele>
        <time>2021-06-06T08:37:03Z</time>
      </trkpt>
      <trkpt lat="44.86093" lon="4.3316">
        <ele>952.4</ele>
        <time>2021-06-06T08:37:07Z</time>
      </trkpt>
      <trkpt lat="44.86096" lon="4.33155">
        <ele>953.2</ele>
        <time>2021-06-06T08:37:11Z</time>
      </trkpt>
      <trkpt lat="44.861" lon="4.33151">
        <ele>954</ele>
        <time>2021-06-06T08:37:15Z</time>
      </trkpt>
      <trkpt lat="44.86105" lon="4.33146">
        <ele>955</ele>
        <time>2021-06-06T08:37:19Z</time>
      </trkpt>
      <trkpt lat="44.86109" lon="4.33144">
        <ele>955.6</ele>
        <time>2021-06-06T08:37:23Z</time>
      </trkpt>
      <trkpt lat="44.86115" lon="4.33143">
        <ele>956.6</ele>
        <time>2021-06-06T08:37:27Z</time>
      </trkpt>
      <trkpt lat="44.86123" lon="4.33142">
        <ele>957.2</ele>
        <time>2021-06-06T08:37:31Z</time>
      </trkpt>
      <trkpt lat="44.86128" lon="4.3314">
        <ele>958</ele>
        <time>2021-06-06T08:37:35Z</time>
      </trkpt>
      <trkpt lat="44.86134" lon="4.33139">
        <ele>958.6</ele>
        <time>2021-06-06T08:37:39Z</time>
      </trkpt>
      <trkpt lat="44.8614" lon="4.33138">
        <ele>959.6</ele>
        <time>2021-06-06T08:37:43Z</time>
      </trkpt>
      <trkpt lat="44.86144" lon="4.33134">
        <ele>960.2</ele>
        <time>2021-06-06T08:37:47Z</time>
      </trkpt>
      <trkpt lat="44.86149" lon="4.33131">
        <ele>960.6</ele>
        <time>2021-06-06T08:37:51Z</time>
      </trkpt>
      <trkpt lat="44.86182" lon="4.33119">
        <ele>966.2</ele>
        <time>2021-06-06T08:38:23Z</time>
      </trkpt>
      <trkpt lat="44.86189" lon="4.33116">
        <ele>966.4</ele>
        <time>2021-06-06T08:38:27Z</time>
      </trkpt>
      <trkpt lat="44.86195" lon="4.33114">
        <ele>967.2</ele>
        <time>2021-06-06T08:38:31Z</time>
      </trkpt>
      <trkpt lat="44.86201" lon="4.3311">
        <ele>967.4</ele>
        <time>2021-06-06T08:38:35Z</time>
      </trkpt>
      <trkpt lat="44.86207" lon="4.33105">
        <ele>968</ele>
        <time>2021-06-06T08:38:39Z</time>
      </trkpt>
      <trkpt lat="44.86212" lon="4.33099">
        <ele>968.6</ele>
        <time>2021-06-06T08:38:43Z</time>
      </trkpt>
      <trkpt lat="44.86216" lon="4.33093">
        <ele>969.4</ele>
        <time>2021-06-06T08:38:47Z</time>
      </trkpt>
      <trkpt lat="44.86221" lon="4.33088">
        <ele>969.8</ele>
        <time>2021-06-06T08:38:51Z</time>
      </trkpt>
      <trkpt lat="44.86225" lon="4.33081">
        <ele>970</ele>
        <time>2021-06-06T08:38:55Z</time>
      </trkpt>
      <trkpt lat="44.86225" lon="4.33068">
        <ele>970.8</ele>
        <time>2021-06-06T08:38:59Z</time>
      </trkpt>
      <trkpt lat="44.86224" lon="4.33058">
        <ele>971</ele>
        <time>2021-06-06T08:39:03Z</time>
      </trkpt>
      <trkpt lat="44.86223" lon="4.33051">
        <ele>971.4</ele>
        <time>2021-06-06T08:39:07Z</time>
      </trkpt>
      <trkpt lat="44.86219" lon="4.33043">
        <ele>972</ele>
        <time>2021-06-06T08:39:11Z</time>
      </trkpt>
      <trkpt lat="44.86214" lon="4.33036">
        <ele>972.6</ele>
        <time>2021-06-06T08:39:15Z</time>
      </trkpt>
      <trkpt lat="44.86211" lon="4.33029">
        <ele>973.2</ele>
        <time>2021-06-06T08:39:19Z</time>
      </trkpt>
      <trkpt lat="44.86208" lon="4.33022">
        <ele>973.8</ele>
        <time>2021-06-06T08:39:23Z</time>
      </trkpt>
      <trkpt lat="44.86206" lon="4.33016">
        <ele>974.6</ele>
        <time>2021-06-06T08:39:27Z</time>
      </trkpt>
      <trkpt lat="44.86202" lon="4.33009">
        <ele>975.2</ele>
        <time>2021-06-06T08:39:31Z</time>
      </trkpt>
      <trkpt lat="44.86198" lon="4.33003">
        <ele>975.6</ele>
        <time>2021-06-06T08:39:35Z</time>
      </trkpt>
      <trkpt lat="44.86192" lon="4.32997">
        <ele>976.4</ele>
        <time>2021-06-06T08:39:39Z</time>
      </trkpt>
      <trkpt lat="44.86187" lon="4.32989">
        <ele>977</ele>
        <time>2021-06-06T08:39:43Z</time>
      </trkpt>
      <trkpt lat="44.86183" lon="4.32982">
        <ele>977.2</ele>
        <time>2021-06-06T08:39:47Z</time>
      </trkpt>
      <trkpt lat="44.86181" lon="4.32973">
        <ele>978.2</ele>
        <time>2021-06-06T08:39:51Z</time>
      </trkpt>
      <trkpt lat="44.86178" lon="4.32964">
        <ele>978.2</ele>
        <time>2021-06-06T08:39:55Z</time>
      </trkpt>
      <trkpt lat="44.86174" lon="4.32956">
        <ele>979</ele>
        <time>2021-06-06T08:39:59Z</time>
      </trkpt>
      <trkpt lat="44.86169" lon="4.3295">
        <ele>980.2</ele>
        <time>2021-06-06T08:40:03Z</time>
      </trkpt>
      <trkpt lat="44.86166" lon="4.32942">
        <ele>979.8</ele>
        <time>2021-06-06T08:40:07Z</time>
      </trkpt>
      <trkpt lat="44.86162" lon="4.32935">
        <ele>980</ele>
        <time>2021-06-06T08:40:11Z</time>
      </trkpt>
      <trkpt lat="44.86159" lon="4.32928">
        <ele>981.6</ele>
        <time>2021-06-06T08:40:15Z</time>
      </trkpt>
      <trkpt lat="44.86154" lon="4.32923">
        <ele>981.6</ele>
        <time>2021-06-06T08:40:19Z</time>
      </trkpt>
      <trkpt lat="44.86148" lon="4.32916">
        <ele>982.4</ele>
        <time>2021-06-06T08:40:23Z</time>
      </trkpt>
      <trkpt lat="44.86141" lon="4.3291">
        <ele>982.6</ele>
        <time>2021-06-06T08:40:27Z</time>
      </trkpt>
      <trkpt lat="44.86136" lon="4.32904">
        <ele>983</ele>
        <time>2021-06-06T08:40:31Z</time>
      </trkpt>
      <trkpt lat="44.86131" lon="4.32899">
        <ele>983.4</ele>
        <time>2021-06-06T08:40:35Z</time>
      </trkpt>
      <trkpt lat="44.86126" lon="4.32893">
        <ele>983.8</ele>
        <time>2021-06-06T08:40:39Z</time>
      </trkpt>
      <trkpt lat="44.86121" lon="4.32887">
        <ele>984.4</ele>
        <time>2021-06-06T08:40:43Z</time>
      </trkpt>
      <trkpt lat="44.86117" lon="4.3288">
        <ele>984.6</ele>
        <time>2021-06-06T08:40:47Z</time>
      </trkpt>
      <trkpt lat="44.86111" lon="4.32874">
        <ele>985</ele>
        <time>2021-06-06T08:40:51Z</time>
      </trkpt>
      <trkpt lat="44.86105" lon="4.32867">
        <ele>985.4</ele>
        <time>2021-06-06T08:40:55Z</time>
      </trkpt>
      <trkpt lat="44.86102" lon="4.3286">
        <ele>985.6</ele>
        <time>2021-06-06T08:40:59Z</time>
      </trkpt>
      <trkpt lat="44.86096" lon="4.32853">
        <ele>986.6</ele>
        <time>2021-06-06T08:41:03Z</time>
      </trkpt>
      <trkpt lat="44.86094" lon="4.32845">
        <ele>988</ele>
        <time>2021-06-06T08:41:07Z</time>
      </trkpt>
      <trkpt lat="44.86091" lon="4.32836">
        <ele>988.4</ele>
        <time>2021-06-06T08:41:11Z</time>
      </trkpt>
      <trkpt lat="44.86089" lon="4.32828">
        <ele>989.2</ele>
        <time>2021-06-06T08:41:15Z</time>
      </trkpt>
      <trkpt lat="44.86087" lon="4.32818">
        <ele>989.4</ele>
        <time>2021-06-06T08:41:19Z</time>
      </trkpt>
      <trkpt lat="44.86085" lon="4.32809">
        <ele>990.2</ele>
        <time>2021-06-06T08:41:23Z</time>
      </trkpt>
      <trkpt lat="44.86083" lon="4.328">
        <ele>990.8</ele>
        <time>2021-06-06T08:41:27Z</time>
      </trkpt>
      <trkpt lat="44.86079" lon="4.32791">
        <ele>991.2</ele>
        <time>2021-06-06T08:41:31Z</time>
      </trkpt>
      <trkpt lat="44.86074" lon="4.32779">
        <ele>991.8</ele>
        <time>2021-06-06T08:41:35Z</time>
      </trkpt>
      <trkpt lat="44.86068" lon="4.3277">
        <ele>992.4</ele>
        <time>2021-06-06T08:41:39Z</time>
      </trkpt>
      <trkpt lat="44.86064" lon="4.32761">
        <ele>992.6</ele>
        <time>2021-06-06T08:41:43Z</time>
      </trkpt>
      <trkpt lat="44.8606" lon="4.32752">
        <ele>993.2</ele>
        <time>2021-06-06T08:41:47Z</time>
      </trkpt>
      <trkpt lat="44.86057" lon="4.32744">
        <ele>994.2</ele>
        <time>2021-06-06T08:41:51Z</time>
      </trkpt>
      <trkpt lat="44.86052" lon="4.32736">
        <ele>994.8</ele>
        <time>2021-06-06T08:41:55Z</time>
      </trkpt>
      <trkpt lat="44.86048" lon="4.32728">
        <ele>995.2</ele>
        <time>2021-06-06T08:41:59Z</time>
      </trkpt>
      <trkpt lat="44.86044" lon="4.3272">
        <ele>995.6</ele>
        <time>2021-06-06T08:42:03Z</time>
      </trkpt>
      <trkpt lat="44.8604" lon="4.32712">
        <ele>996.2</ele>
        <time>2021-06-06T08:42:07Z</time>
      </trkpt>
      <trkpt lat="44.86036" lon="4.32704">
        <ele>997.2</ele>
        <time>2021-06-06T08:42:11Z</time>
      </trkpt>
      <trkpt lat="44.86031" lon="4.32696">
        <ele>998.2</ele>
        <time>2021-06-06T08:42:15Z</time>
      </trkpt>
      <trkpt lat="44.86027" lon="4.32688">
        <ele>998.6</ele>
        <time>2021-06-06T08:42:19Z</time>
      </trkpt>
      <trkpt lat="44.86021" lon="4.32681">
        <ele>999</ele>
        <time>2021-06-06T08:42:23Z</time>
      </trkpt>
      <trkpt lat="44.86016" lon="4.32673">
        <ele>999</ele>
        <time>2021-06-06T08:42:27Z</time>
      </trkpt>
      <trkpt lat="44.8601" lon="4.32666">
        <ele>999.8</ele>
        <time>2021-06-06T08:42:31Z</time>
      </trkpt>
      <trkpt lat="44.86005" lon="4.32658">
        <ele>1000.4</ele>
        <time>2021-06-06T08:42:35Z</time>
      </trkpt>
      <trkpt lat="44.86001" lon="4.3265">
        <ele>1000.4</ele>
        <time>2021-06-06T08:42:39Z</time>
      </trkpt>
      <trkpt lat="44.85997" lon="4.32641">
        <ele>1001.2</ele>
        <time>2021-06-06T08:42:43Z</time>
      </trkpt>
      <trkpt lat="44.85994" lon="4.32632">
        <ele>1002.2</ele>
        <time>2021-06-06T08:42:47Z</time>
      </trkpt>
      <trkpt lat="44.85993" lon="4.32621">
        <ele>1002.6</ele>
        <time>2021-06-06T08:42:51Z</time>
      </trkpt>
      <trkpt lat="44.85992" lon="4.32612">
        <ele>1003.2</ele>
        <time>2021-06-06T08:42:55Z</time>
      </trkpt>
      <trkpt lat="44.85992" lon="4.32602">
        <ele>1003.4</ele>
        <time>2021-06-06T08:42:59Z</time>
      </trkpt>
      <trkpt lat="44.85992" lon="4.32593">
        <ele>1004</ele>
        <time>2021-06-06T08:43:03Z</time>
      </trkpt>
      <trkpt lat="44.85991" lon="4.32583">
        <ele>1004.4</ele>
        <time>2021-06-06T08:43:07Z</time>
      </trkpt>
      <trkpt lat="44.85992" lon="4.32575">
        <ele>1005.4</ele>
        <time>2021-06-06T08:43:11Z</time>
      </trkpt>
      <trkpt lat="44.85991" lon="4.32564">
        <ele>1006</ele>
        <time>2021-06-06T08:43:15Z</time>
      </trkpt>
      <trkpt lat="44.85989" lon="4.32554">
        <ele>1006.6</ele>
        <time>2021-06-06T08:43:19Z</time>
      </trkpt>
      <trkpt lat="44.85989" lon="4.32544">
        <ele>1007</ele>
        <time>2021-06-06T08:43:23Z</time>
      </trkpt>
      <trkpt lat="44.85987" lon="4.32536">
        <ele>1007.8</ele>
        <time>2021-06-06T08:43:27Z</time>
      </trkpt>
      <trkpt lat="44.85987" lon="4.32525">
        <ele>1008.4</ele>
        <time>2021-06-06T08:43:31Z</time>
      </trkpt>
      <trkpt lat="44.85988" lon="4.32516">
        <ele>1008.8</ele>
        <time>2021-06-06T08:43:35Z</time>
      </trkpt>
      <trkpt lat="44.85989" lon="4.32507">
        <ele>1009.6</ele>
        <time>2021-06-06T08:43:39Z</time>
      </trkpt>
      <trkpt lat="44.85989" lon="4.32498">
        <ele>1010.2</ele>
        <time>2021-06-06T08:43:43Z</time>
      </trkpt>
      <trkpt lat="44.85991" lon="4.32488">
        <ele>1010.4</ele>
        <time>2021-06-06T08:43:47Z</time>
      </trkpt>
      <trkpt lat="44.85992" lon="4.32478">
        <ele>1011</ele>
        <time>2021-06-06T08:43:51Z</time>
      </trkpt>
      <trkpt lat="44.85993" lon="4.32468">
        <ele>1012.4</ele>
        <time>2021-06-06T08:43:55Z</time>
      </trkpt>
      <trkpt lat="44.85993" lon="4.32458">
        <ele>1013</ele>
        <time>2021-06-06T08:43:59Z</time>
      </trkpt>
      <trkpt lat="44.85993" lon="4.32449">
        <ele>1012.8</ele>
        <time>2021-06-06T08:44:03Z</time>
      </trkpt>
      <trkpt lat="44.8599" lon="4.32439">
        <ele>1013.6</ele>
        <time>2021-06-06T08:44:07Z</time>
      </trkpt>
      <trkpt lat="44.85989" lon="4.32431">
        <ele>1014.6</ele>
        <time>2021-06-06T08:44:11Z</time>
      </trkpt>
      <trkpt lat="44.85986" lon="4.32421">
        <ele>1015</ele>
        <time>2021-06-06T08:44:15Z</time>
      </trkpt>
      <trkpt lat="44.85979" lon="4.32407">
        <ele>1016</ele>
        <time>2021-06-06T08:44:19Z</time>
      </trkpt>
      <trkpt lat="44.85974" lon="4.32396">
        <ele>1015.8</ele>
        <time>2021-06-06T08:44:23Z</time>
      </trkpt>
      <trkpt lat="44.8597" lon="4.32385">
        <ele>1016.6</ele>
        <time>2021-06-06T08:44:27Z</time>
      </trkpt>
      <trkpt lat="44.85966" lon="4.32376">
        <ele>1017.2</ele>
        <time>2021-06-06T08:44:31Z</time>
      </trkpt>
      <trkpt lat="44.85962" lon="4.32366">
        <ele>1018</ele>
        <time>2021-06-06T08:44:35Z</time>
      </trkpt>
      <trkpt lat="44.85959" lon="4.32356">
        <ele>1018.6</ele>
        <time>2021-06-06T08:44:39Z</time>
      </trkpt>
      <trkpt lat="44.85957" lon="4.32346">
        <ele>1019.2</ele>
        <time>2021-06-06T08:44:43Z</time>
      </trkpt>
      <trkpt lat="44.85955" lon="4.32336">
        <ele>1020</ele>
        <time>2021-06-06T08:44:47Z</time>
      </trkpt>
      <trkpt lat="44.85953" lon="4.32326">
        <ele>1020.6</ele>
        <time>2021-06-06T08:44:51Z</time>
      </trkpt>
      <trkpt lat="44.85951" lon="4.32316">
        <ele>1021</ele>
        <time>2021-06-06T08:44:55Z</time>
      </trkpt>
      <trkpt lat="44.8595" lon="4.32305">
        <ele>1021.6</ele>
        <time>2021-06-06T08:44:59Z</time>
      </trkpt>
      <trkpt lat="44.85948" lon="4.32295">
        <ele>1022</ele>
        <time>2021-06-06T08:45:03Z</time>
      </trkpt>
      <trkpt lat="44.85948" lon="4.32284">
        <ele>1022.8</ele>
        <time>2021-06-06T08:45:07Z</time>
      </trkpt>
      <trkpt lat="44.85948" lon="4.32274">
        <ele>1023.2</ele>
        <time>2021-06-06T08:45:11Z</time>
      </trkpt>
      <trkpt lat="44.85948" lon="4.32264">
        <ele>1024</ele>
        <time>2021-06-06T08:45:15Z</time>
      </trkpt>
      <trkpt lat="44.85947" lon="4.32253">
        <ele>1024.8</ele>
        <time>2021-06-06T08:45:19Z</time>
      </trkpt>
      <trkpt lat="44.85946" lon="4.32241">
        <ele>1025.6</ele>
        <time>2021-06-06T08:45:23Z</time>
      </trkpt>
      <trkpt lat="44.85944" lon="4.32231">
        <ele>1025.6</ele>
        <time>2021-06-06T08:45:27Z</time>
      </trkpt>
      <trkpt lat="44.85942" lon="4.32221">
        <ele>1026.2</ele>
        <time>2021-06-06T08:45:31Z</time>
      </trkpt>
      <trkpt lat="44.85939" lon="4.32212">
        <ele>1027</ele>
        <time>2021-06-06T08:45:35Z</time>
      </trkpt>
      <trkpt lat="44.85936" lon="4.32202">
        <ele>1027.6</ele>
        <time>2021-06-06T08:45:39Z</time>
      </trkpt>
      <trkpt lat="44.85933" lon="4.32192">
        <ele>1028.4</ele>
        <time>2021-06-06T08:45:43Z</time>
      </trkpt>
      <trkpt lat="44.8593" lon="4.32182">
        <ele>1028.6</ele>
        <time>2021-06-06T08:45:47Z</time>
      </trkpt>
      <trkpt lat="44.85927" lon="4.32172">
        <ele>1030</ele>
        <time>2021-06-06T08:45:51Z</time>
      </trkpt>
      <trkpt lat="44.85925" lon="4.32162">
        <ele>1030.4</ele>
        <time>2021-06-06T08:45:55Z</time>
      </trkpt>
      <trkpt lat="44.85922" lon="4.32153">
        <ele>1030.8</ele>
        <time>2021-06-06T08:45:59Z</time>
      </trkpt>
      <trkpt lat="44.85919" lon="4.32143">
        <ele>1031.4</ele>
        <time>2021-06-06T08:46:03Z</time>
      </trkpt>
      <trkpt lat="44.85915" lon="4.32134">
        <ele>1033</ele>
        <time>2021-06-06T08:46:07Z</time>
      </trkpt>
      <trkpt lat="44.85912" lon="4.32123">
        <ele>1032.8</ele>
        <time>2021-06-06T08:46:11Z</time>
      </trkpt>
      <trkpt lat="44.85908" lon="4.32113">
        <ele>1033</ele>
        <time>2021-06-06T08:46:15Z</time>
      </trkpt>
      <trkpt lat="44.85905" lon="4.32102">
        <ele>1033.2</ele>
        <time>2021-06-06T08:46:19Z</time>
      </trkpt>
      <trkpt lat="44.85901" lon="4.32092">
        <ele>1033.4</ele>
        <time>2021-06-06T08:46:23Z</time>
      </trkpt>
      <trkpt lat="44.85896" lon="4.32086">
        <ele>1035</ele>
        <time>2021-06-06T08:46:27Z</time>
      </trkpt>
      <trkpt lat="44.85896" lon="4.32089">
        <ele>1034.6</ele>
        <time>2021-06-06T08:46:31Z</time>
      </trkpt>
      <trkpt lat="44.85899" lon="4.32087">
        <ele>1033.2</ele>
        <time>2021-06-06T08:46:35Z</time>
      </trkpt>
      <trkpt lat="44.85895" lon="4.32077">
        <ele>1033.6</ele>
        <time>2021-06-06T08:46:39Z</time>
      </trkpt>
      <trkpt lat="44.85892" lon="4.32065">
        <ele>1034</ele>
        <time>2021-06-06T08:46:43Z</time>
      </trkpt>
      <trkpt lat="44.8589" lon="4.32051">
        <ele>1033.8</ele>
        <time>2021-06-06T08:46:47Z</time>
      </trkpt>
      <trkpt lat="44.85888" lon="4.32037">
        <ele>1033.4</ele>
        <time>2021-06-06T08:46:51Z</time>
      </trkpt>
      <trkpt lat="44.85886" lon="4.32024">
        <ele>1034.2</ele>
        <time>2021-06-06T08:46:55Z</time>
      </trkpt>
      <trkpt lat="44.85885" lon="4.3201">
        <ele>1035</ele>
        <time>2021-06-06T08:46:59Z</time>
      </trkpt>
      <trkpt lat="44.85885" lon="4.31996">
        <ele>1034.8</ele>
        <time>2021-06-06T08:47:03Z</time>
      </trkpt>
      <trkpt lat="44.85885" lon="4.31982">
        <ele>1035</ele>
        <time>2021-06-06T08:47:07Z</time>
      </trkpt>
      <trkpt lat="44.85885" lon="4.31969">
        <ele>1035.4</ele>
        <time>2021-06-06T08:47:11Z</time>
      </trkpt>
      <trkpt lat="44.85885" lon="4.31956">
        <ele>1035.6</ele>
        <time>2021-06-06T08:47:15Z</time>
      </trkpt>
      <trkpt lat="44.85884" lon="4.31941">
        <ele>1036.2</ele>
        <time>2021-06-06T08:47:19Z</time>
      </trkpt>
      <trkpt lat="44.85885" lon="4.31927">
        <ele>1037</ele>
        <time>2021-06-06T08:47:23Z</time>
      </trkpt>
      <trkpt lat="44.85884" lon="4.31913">
        <ele>1037.2</ele>
        <time>2021-06-06T08:47:27Z</time>
      </trkpt>
      <trkpt lat="44.85884" lon="4.31899">
        <ele>1037.8</ele>
        <time>2021-06-06T08:47:31Z</time>
      </trkpt>
      <trkpt lat="44.85884" lon="4.31885">
        <ele>1038</ele>
        <time>2021-06-06T08:47:35Z</time>
      </trkpt>
      <trkpt lat="44.85885" lon="4.31871">
        <ele>1038.8</ele>
        <time>2021-06-06T08:47:39Z</time>
      </trkpt>
      <trkpt lat="44.85886" lon="4.31857">
        <ele>1038.8</ele>
        <time>2021-06-06T08:47:43Z</time>
      </trkpt>
      <trkpt lat="44.85887" lon="4.31844">
        <ele>1039.8</ele>
        <time>2021-06-06T08:47:47Z</time>
      </trkpt>
      <trkpt lat="44.85889" lon="4.31831">
        <ele>1040.4</ele>
        <time>2021-06-06T08:47:51Z</time>
      </trkpt>
      <trkpt lat="44.85892" lon="4.31818">
        <ele>1040.8</ele>
        <time>2021-06-06T08:47:55Z</time>
      </trkpt>
      <trkpt lat="44.85896" lon="4.31805">
        <ele>1041</ele>
        <time>2021-06-06T08:47:59Z</time>
      </trkpt>
      <trkpt lat="44.85903" lon="4.31793">
        <ele>1041.6</ele>
        <time>2021-06-06T08:48:03Z</time>
      </trkpt>
      <trkpt lat="44.85909" lon="4.31785">
        <ele>1042.2</ele>
        <time>2021-06-06T08:48:07Z</time>
      </trkpt>
      <trkpt lat="44.85918" lon="4.31779">
        <ele>1043.2</ele>
        <time>2021-06-06T08:48:11Z</time>
      </trkpt>
      <trkpt lat="44.85926" lon="4.31775">
        <ele>1043</ele>
        <time>2021-06-06T08:48:15Z</time>
      </trkpt>
      <trkpt lat="44.85935" lon="4.31771">
        <ele>1043.8</ele>
        <time>2021-06-06T08:48:19Z</time>
      </trkpt>
      <trkpt lat="44.85944" lon="4.31768">
        <ele>1044.6</ele>
        <time>2021-06-06T08:48:23Z</time>
      </trkpt>
      <trkpt lat="44.85953" lon="4.31767">
        <ele>1045.2</ele>
        <time>2021-06-06T08:48:27Z</time>
      </trkpt>
      <trkpt lat="44.85964" lon="4.31768">
        <ele>1045.4</ele>
        <time>2021-06-06T08:48:31Z</time>
      </trkpt>
      <trkpt lat="44.85975" lon="4.3177">
        <ele>1045.8</ele>
        <time>2021-06-06T08:48:35Z</time>
      </trkpt>
      <trkpt lat="44.85985" lon="4.3177">
        <ele>1046.6</ele>
        <time>2021-06-06T08:48:39Z</time>
      </trkpt>
      <trkpt lat="44.85993" lon="4.31769">
        <ele>1047</ele>
        <time>2021-06-06T08:48:43Z</time>
      </trkpt>
      <trkpt lat="44.86002" lon="4.31764">
        <ele>1046.4</ele>
        <time>2021-06-06T08:48:47Z</time>
      </trkpt>
      <trkpt lat="44.86009" lon="4.31757">
        <ele>1047.4</ele>
        <time>2021-06-06T08:48:51Z</time>
      </trkpt>
      <trkpt lat="44.86015" lon="4.31749">
        <ele>1047.8</ele>
        <time>2021-06-06T08:48:55Z</time>
      </trkpt>
      <trkpt lat="44.86021" lon="4.31738">
        <ele>1048.2</ele>
        <time>2021-06-06T08:48:59Z</time>
      </trkpt>
      <trkpt lat="44.86022" lon="4.31726">
        <ele>1048</ele>
        <time>2021-06-06T08:49:03Z</time>
      </trkpt>
      <trkpt lat="44.86021" lon="4.31713">
        <ele>1049</ele>
        <time>2021-06-06T08:49:07Z</time>
      </trkpt>
      <trkpt lat="44.86018" lon="4.317">
        <ele>1049</ele>
        <time>2021-06-06T08:49:11Z</time>
      </trkpt>
      <trkpt lat="44.86014" lon="4.31688">
        <ele>1049.6</ele>
        <time>2021-06-06T08:49:15Z</time>
      </trkpt>
      <trkpt lat="44.86011" lon="4.31675">
        <ele>1049.8</ele>
        <time>2021-06-06T08:49:19Z</time>
      </trkpt>
      <trkpt lat="44.86009" lon="4.31665">
        <ele>1050</ele>
        <time>2021-06-06T08:49:23Z</time>
      </trkpt>
      <trkpt lat="44.86006" lon="4.31649">
        <ele>1050.4</ele>
        <time>2021-06-06T08:49:27Z</time>
      </trkpt>
      <trkpt lat="44.86" lon="4.31629">
        <ele>1050.6</ele>
        <time>2021-06-06T08:49:31Z</time>
      </trkpt>
      <trkpt lat="44.85995" lon="4.31609">
        <ele>1050.2</ele>
        <time>2021-06-06T08:49:35Z</time>
      </trkpt>
      <trkpt lat="44.85996" lon="4.3159">
        <ele>1050.6</ele>
        <time>2021-06-06T08:49:39Z</time>
      </trkpt>
      <trkpt lat="44.85998" lon="4.31573">
        <ele>1050.6</ele>
        <time>2021-06-06T08:49:43Z</time>
      </trkpt>
      <trkpt lat="44.86" lon="4.31556">
        <ele>1050.8</ele>
        <time>2021-06-06T08:49:47Z</time>
      </trkpt>
      <trkpt lat="44.86003" lon="4.31539">
        <ele>1051.2</ele>
        <time>2021-06-06T08:49:51Z</time>
      </trkpt>
      <trkpt lat="44.86009" lon="4.31524">
        <ele>1051.6</ele>
        <time>2021-06-06T08:49:55Z</time>
      </trkpt>
      <trkpt lat="44.86016" lon="4.31519">
        <ele>1051.6</ele>
        <time>2021-06-06T08:49:59Z</time>
      </trkpt>
      <trkpt lat="44.86023" lon="4.31518">
        <ele>1052.2</ele>
        <time>2021-06-06T08:50:03Z</time>
      </trkpt>
      <trkpt lat="44.86033" lon="4.31519">
        <ele>1052.6</ele>
        <time>2021-06-06T08:50:07Z</time>
      </trkpt>
      <trkpt lat="44.86044" lon="4.31515">
        <ele>1052.8</ele>
        <time>2021-06-06T08:50:11Z</time>
      </trkpt>
      <trkpt lat="44.86055" lon="4.31515">
        <ele>1053.2</ele>
        <time>2021-06-06T08:50:15Z</time>
      </trkpt>
      <trkpt lat="44.86064" lon="4.31515">
        <ele>1052.8</ele>
        <time>2021-06-06T08:50:19Z</time>
      </trkpt>
      <trkpt lat="44.86074" lon="4.31513">
        <ele>1053.6</ele>
        <time>2021-06-06T08:50:23Z</time>
      </trkpt>
      <trkpt lat="44.86083" lon="4.31507">
        <ele>1054.2</ele>
        <time>2021-06-06T08:50:27Z</time>
      </trkpt>
      <trkpt lat="44.86091" lon="4.31497">
        <ele>1055.8</ele>
        <time>2021-06-06T08:50:31Z</time>
      </trkpt>
      <trkpt lat="44.86098" lon="4.31486">
        <ele>1055.6</ele>
        <time>2021-06-06T08:50:35Z</time>
      </trkpt>
      <trkpt lat="44.86103" lon="4.31475">
        <ele>1055.6</ele>
        <time>2021-06-06T08:50:39Z</time>
      </trkpt>
      <trkpt lat="44.86104" lon="4.31464">
        <ele>1055.6</ele>
        <time>2021-06-06T08:50:43Z</time>
      </trkpt>
      <trkpt lat="44.86108" lon="4.31453">
        <ele>1055.6</ele>
        <time>2021-06-06T08:50:47Z</time>
      </trkpt>
      <trkpt lat="44.86112" lon="4.3144">
        <ele>1055.8</ele>
        <time>2021-06-06T08:50:51Z</time>
      </trkpt>
      <trkpt lat="44.86113" lon="4.31431">
        <ele>1056.4</ele>
        <time>2021-06-06T08:50:55Z</time>
      </trkpt>
      <trkpt lat="44.86114" lon="4.31415">
        <ele>1055.6</ele>
        <time>2021-06-06T08:50:59Z</time>
      </trkpt>
      <trkpt lat="44.8611" lon="4.31402">
        <ele>1055.6</ele>
        <time>2021-06-06T08:51:03Z</time>
      </trkpt>
      <trkpt lat="44.86104" lon="4.31383">
        <ele>1055.6</ele>
        <time>2021-06-06T08:51:07Z</time>
      </trkpt>
      <trkpt lat="44.861" lon="4.31366">
        <ele>1055.6</ele>
        <time>2021-06-06T08:51:11Z</time>
      </trkpt>
      <trkpt lat="44.86094" lon="4.31349">
        <ele>1056.6</ele>
        <time>2021-06-06T08:51:15Z</time>
      </trkpt>
      <trkpt lat="44.86095" lon="4.31333">
        <ele>1056</ele>
        <time>2021-06-06T08:51:19Z</time>
      </trkpt>
      <trkpt lat="44.86094" lon="4.31313">
        <ele>1055.6</ele>
        <time>2021-06-06T08:51:23Z</time>
      </trkpt>
      <trkpt lat="44.86095" lon="4.31295">
        <ele>1056.4</ele>
        <time>2021-06-06T08:51:27Z</time>
      </trkpt>
      <trkpt lat="44.86095" lon="4.31274">
        <ele>1056.2</ele>
        <time>2021-06-06T08:51:31Z</time>
      </trkpt>
      <trkpt lat="44.86096" lon="4.31255">
        <ele>1055</ele>
        <time>2021-06-06T08:51:35Z</time>
      </trkpt>
      <trkpt lat="44.86089" lon="4.31237">
        <ele>1055.2</ele>
        <time>2021-06-06T08:51:39Z</time>
      </trkpt>
      <trkpt lat="44.86075" lon="4.31231">
        <ele>1055.2</ele>
        <time>2021-06-06T08:51:43Z</time>
      </trkpt>
      <trkpt lat="44.86062" lon="4.31234">
        <ele>1055.6</ele>
        <time>2021-06-06T08:51:47Z</time>
      </trkpt>
      <trkpt lat="44.8605" lon="4.31246">
        <ele>1055.4</ele>
        <time>2021-06-06T08:51:51Z</time>
      </trkpt>
      <trkpt lat="44.86038" lon="4.31256">
        <ele>1055</ele>
        <time>2021-06-06T08:51:55Z</time>
      </trkpt>
      <trkpt lat="44.86025" lon="4.31264">
        <ele>1054.4</ele>
        <time>2021-06-06T08:51:59Z</time>
      </trkpt>
      <trkpt lat="44.8601" lon="4.31275">
        <ele>1053.6</ele>
        <time>2021-06-06T08:52:03Z</time>
      </trkpt>
      <trkpt lat="44.85996" lon="4.31288">
        <ele>1053.6</ele>
        <time>2021-06-06T08:52:07Z</time>
      </trkpt>
      <trkpt lat="44.85985" lon="4.31307">
        <ele>1053.2</ele>
        <time>2021-06-06T08:52:11Z</time>
      </trkpt>
      <trkpt lat="44.85978" lon="4.31332">
        <ele>1052</ele>
        <time>2021-06-06T08:52:15Z</time>
      </trkpt>
      <trkpt lat="44.85964" lon="4.31352">
        <ele>1051.6</ele>
        <time>2021-06-06T08:52:19Z</time>
      </trkpt>
      <trkpt lat="44.85949" lon="4.3136">
        <ele>1052</ele>
        <time>2021-06-06T08:52:23Z</time>
      </trkpt>
      <trkpt lat="44.85937" lon="4.31363">
        <ele>1052.2</ele>
        <time>2021-06-06T08:52:27Z</time>
      </trkpt>
      <trkpt lat="44.85925" lon="4.31363">
        <ele>1051.4</ele>
        <time>2021-06-06T08:52:31Z</time>
      </trkpt>
      <trkpt lat="44.85914" lon="4.31359">
        <ele>1051.4</ele>
        <time>2021-06-06T08:52:35Z</time>
      </trkpt>
      <trkpt lat="44.859" lon="4.31353">
        <ele>1051.2</ele>
        <time>2021-06-06T08:52:39Z</time>
      </trkpt>
      <trkpt lat="44.85883" lon="4.31351">
        <ele>1050.4</ele>
        <time>2021-06-06T08:52:43Z</time>
      </trkpt>
      <trkpt lat="44.85874" lon="4.31352">
        <ele>1050.2</ele>
        <time>2021-06-06T08:52:47Z</time>
      </trkpt>
      <trkpt lat="44.85854" lon="4.31355">
        <ele>1050.6</ele>
        <time>2021-06-06T08:55:12Z</time>
      </trkpt>
      <trkpt lat="44.85842" lon="4.31354">
        <ele>1050.2</ele>
        <time>2021-06-06T08:55:16Z</time>
      </trkpt>
      <trkpt lat="44.85831" lon="4.31349">
        <ele>1050.4</ele>
        <time>2021-06-06T08:55:20Z</time>
      </trkpt>
      <trkpt lat="44.8582" lon="4.31342">
        <ele>1050.2</ele>
        <time>2021-06-06T08:55:24Z</time>
      </trkpt>
      <trkpt lat="44.85809" lon="4.3133">
        <ele>1050.4</ele>
        <time>2021-06-06T08:55:28Z</time>
      </trkpt>
      <trkpt lat="44.858" lon="4.31315">
        <ele>1049.6</ele>
        <time>2021-06-06T08:55:32Z</time>
      </trkpt>
      <trkpt lat="44.85793" lon="4.31298">
        <ele>1049.6</ele>
        <time>2021-06-06T08:55:36Z</time>
      </trkpt>
      <trkpt lat="44.85787" lon="4.31278">
        <ele>1049.6</ele>
        <time>2021-06-06T08:55:40Z</time>
      </trkpt>
      <trkpt lat="44.85774" lon="4.31264">
        <ele>1048.4</ele>
        <time>2021-06-06T08:55:44Z</time>
      </trkpt>
      <trkpt lat="44.85759" lon="4.31265">
        <ele>1049.2</ele>
        <time>2021-06-06T08:55:48Z</time>
      </trkpt>
      <trkpt lat="44.85746" lon="4.3127">
        <ele>1049</ele>
        <time>2021-06-06T08:55:52Z</time>
      </trkpt>
      <trkpt lat="44.85735" lon="4.31279">
        <ele>1049</ele>
        <time>2021-06-06T08:55:56Z</time>
      </trkpt>
      <trkpt lat="44.85722" lon="4.31286">
        <ele>1049</ele>
        <time>2021-06-06T08:56:00Z</time>
      </trkpt>
      <trkpt lat="44.8571" lon="4.31293">
        <ele>1048.8</ele>
        <time>2021-06-06T08:56:04Z</time>
      </trkpt>
      <trkpt lat="44.85692" lon="4.31282">
        <ele>1047.8</ele>
        <time>2021-06-06T08:56:08Z</time>
      </trkpt>
      <trkpt lat="44.85684" lon="4.31265">
        <ele>1047.8</ele>
        <time>2021-06-06T08:56:12Z</time>
      </trkpt>
      <trkpt lat="44.85674" lon="4.31246">
        <ele>1047.6</ele>
        <time>2021-06-06T08:56:16Z</time>
      </trkpt>
      <trkpt lat="44.85668" lon="4.31226">
        <ele>1047.2</ele>
        <time>2021-06-06T08:56:20Z</time>
      </trkpt>
      <trkpt lat="44.85671" lon="4.3121">
        <ele>1046.8</ele>
        <time>2021-06-06T08:56:24Z</time>
      </trkpt>
      <trkpt lat="44.85664" lon="4.31192">
        <ele>1046.6</ele>
        <time>2021-06-06T08:56:28Z</time>
      </trkpt>
      <trkpt lat="44.85655" lon="4.31172">
        <ele>1046.4</ele>
        <time>2021-06-06T08:56:32Z</time>
      </trkpt>
      <trkpt lat="44.85648" lon="4.3115">
        <ele>1045.6</ele>
        <time>2021-06-06T08:56:36Z</time>
      </trkpt>
      <trkpt lat="44.85645" lon="4.3113">
        <ele>1045</ele>
        <time>2021-06-06T08:56:40Z</time>
      </trkpt>
      <trkpt lat="44.8564" lon="4.3111">
        <ele>1044.6</ele>
        <time>2021-06-06T08:56:44Z</time>
      </trkpt>
      <trkpt lat="44.85637" lon="4.31088">
        <ele>1045.2</ele>
        <time>2021-06-06T08:56:48Z</time>
      </trkpt>
      <trkpt lat="44.85638" lon="4.31067">
        <ele>1045.2</ele>
        <time>2021-06-06T08:56:52Z</time>
      </trkpt>
      <trkpt lat="44.85641" lon="4.31044">
        <ele>1045</ele>
        <time>2021-06-06T08:56:56Z</time>
      </trkpt>
      <trkpt lat="44.8565" lon="4.31021">
        <ele>1044.6</ele>
        <time>2021-06-06T08:57:00Z</time>
      </trkpt>
      <trkpt lat="44.85659" lon="4.31">
        <ele>1045.2</ele>
        <time>2021-06-06T08:57:04Z</time>
      </trkpt>
      <trkpt lat="44.85652" lon="4.3098">
        <ele>1045.4</ele>
        <time>2021-06-06T08:57:08Z</time>
      </trkpt>
      <trkpt lat="44.85652" lon="4.3098">
        <ele>1044.8</ele>
        <time>2021-06-06T08:57:12Z</time>
      </trkpt>
      <trkpt lat="44.85627" lon="4.30959">
        <ele>1044.8</ele>
        <time>2021-06-06T08:57:16Z</time>
      </trkpt>
      <trkpt lat="44.85619" lon="4.30941">
        <ele>1045</ele>
        <time>2021-06-06T08:57:20Z</time>
      </trkpt>
      <trkpt lat="44.85598" lon="4.30925">
        <ele>1044.8</ele>
        <time>2021-06-06T08:57:24Z</time>
      </trkpt>
      <trkpt lat="44.8558" lon="4.30926">
        <ele>1044.4</ele>
        <time>2021-06-06T08:57:28Z</time>
      </trkpt>
      <trkpt lat="44.85564" lon="4.30942">
        <ele>1044.6</ele>
        <time>2021-06-06T08:57:32Z</time>
      </trkpt>
      <trkpt lat="44.85549" lon="4.30955">
        <ele>1043.8</ele>
        <time>2021-06-06T08:57:36Z</time>
      </trkpt>
      <trkpt lat="44.85535" lon="4.30967">
        <ele>1044.2</ele>
        <time>2021-06-06T08:57:40Z</time>
      </trkpt>
      <trkpt lat="44.85519" lon="4.30978">
        <ele>1043.8</ele>
        <time>2021-06-06T08:57:44Z</time>
      </trkpt>
      <trkpt lat="44.85503" lon="4.30988">
        <ele>1043.8</ele>
        <time>2021-06-06T08:57:48Z</time>
      </trkpt>
      <trkpt lat="44.85486" lon="4.30991">
        <ele>1043</ele>
        <time>2021-06-06T08:57:52Z</time>
      </trkpt>
      <trkpt lat="44.85468" lon="4.30993">
        <ele>1043.2</ele>
        <time>2021-06-06T08:57:56Z</time>
      </trkpt>
      <trkpt lat="44.85453" lon="4.30996">
        <ele>1043</ele>
        <time>2021-06-06T08:58:00Z</time>
      </trkpt>
      <trkpt lat="44.85446" lon="4.31005">
        <ele>1042.8</ele>
        <time>2021-06-06T08:58:04Z</time>
      </trkpt>
      <trkpt lat="44.85435" lon="4.30993">
        <ele>1042.6</ele>
        <time>2021-06-06T08:58:08Z</time>
      </trkpt>
      <trkpt lat="44.85414" lon="4.30975">
        <ele>1042.4</ele>
        <time>2021-06-06T08:58:12Z</time>
      </trkpt>
      <trkpt lat="44.85399" lon="4.30952">
        <ele>1042.2</ele>
        <time>2021-06-06T08:58:16Z</time>
      </trkpt>
      <trkpt lat="44.8539" lon="4.30929">
        <ele>1042.4</ele>
        <time>2021-06-06T08:58:20Z</time>
      </trkpt>
      <trkpt lat="44.85371" lon="4.30916">
        <ele>1042.2</ele>
        <time>2021-06-06T08:58:24Z</time>
      </trkpt>
      <trkpt lat="44.85356" lon="4.30913">
        <ele>1042.2</ele>
        <time>2021-06-06T08:58:28Z</time>
      </trkpt>
      <trkpt lat="44.85345" lon="4.30909">
        <ele>1042.6</ele>
        <time>2021-06-06T08:58:32Z</time>
      </trkpt>
      <trkpt lat="44.85333" lon="4.30906">
        <ele>1042.2</ele>
        <time>2021-06-06T08:58:36Z</time>
      </trkpt>
      <trkpt lat="44.85322" lon="4.30907">
        <ele>1041.8</ele>
        <time>2021-06-06T08:58:40Z</time>
      </trkpt>
      <trkpt lat="44.85312" lon="4.30908">
        <ele>1042.2</ele>
        <time>2021-06-06T08:58:44Z</time>
      </trkpt>
      <trkpt lat="44.85296" lon="4.30905">
        <ele>1041</ele>
        <time>2021-06-06T08:58:48Z</time>
      </trkpt>
      <trkpt lat="44.85274" lon="4.30897">
        <ele>1041</ele>
        <time>2021-06-06T08:58:52Z</time>
      </trkpt>
      <trkpt lat="44.85246" lon="4.30893">
        <ele>1041.4</ele>
        <time>2021-06-06T08:58:56Z</time>
      </trkpt>
      <trkpt lat="44.85222" lon="4.30895">
        <ele>1041</ele>
        <time>2021-06-06T08:59:00Z</time>
      </trkpt>
      <trkpt lat="44.85198" lon="4.3089">
        <ele>1040.4</ele>
        <time>2021-06-06T08:59:04Z</time>
      </trkpt>
      <trkpt lat="44.85176" lon="4.30883">
        <ele>1040.4</ele>
        <time>2021-06-06T08:59:08Z</time>
      </trkpt>
      <trkpt lat="44.85154" lon="4.30873">
        <ele>1039.6</ele>
        <time>2021-06-06T08:59:12Z</time>
      </trkpt>
      <trkpt lat="44.85134" lon="4.30863">
        <ele>1040</ele>
        <time>2021-06-06T08:59:16Z</time>
      </trkpt>
      <trkpt lat="44.85113" lon="4.30854">
        <ele>1039</ele>
        <time>2021-06-06T08:59:49Z</time>
      </trkpt>
      <trkpt lat="44.85102" lon="4.30851">
        <ele>1040</ele>
        <time>2021-06-06T08:59:53Z</time>
      </trkpt>
      <trkpt lat="44.85092" lon="4.30847">
        <ele>1040</ele>
        <time>2021-06-06T08:59:57Z</time>
      </trkpt>
      <trkpt lat="44.85085" lon="4.30842">
        <ele>1040</ele>
        <time>2021-06-06T09:00:01Z</time>
      </trkpt>
      <trkpt lat="44.85085" lon="4.30842">
        <ele>1039.4</ele>
        <time>2021-06-06T09:00:05Z</time>
      </trkpt>
      <trkpt lat="44.85074" lon="4.30844">
        <ele>1040.8</ele>
        <time>2021-06-06T09:02:20Z</time>
      </trkpt>
      <trkpt lat="44.85067" lon="4.30846">
        <ele>1040.2</ele>
        <time>2021-06-06T09:02:24Z</time>
      </trkpt>
      <trkpt lat="44.85072" lon="4.30836">
        <ele>1038.8</ele>
        <time>2021-06-06T09:03:10Z</time>
      </trkpt>
      <trkpt lat="44.85083" lon="4.30829">
        <ele>1037.2</ele>
        <time>2021-06-06T09:03:14Z</time>
      </trkpt>
      <trkpt lat="44.85091" lon="4.30821">
        <ele>1037</ele>
        <time>2021-06-06T09:03:18Z</time>
      </trkpt>
      <trkpt lat="44.85099" lon="4.30799">
        <ele>1034.4</ele>
        <time>2021-06-06T09:03:22Z</time>
      </trkpt>
      <trkpt lat="44.85098" lon="4.30768">
        <ele>1030.6</ele>
        <time>2021-06-06T09:03:26Z</time>
      </trkpt>
      <trkpt lat="44.8509" lon="4.30728">
        <ele>1028.6</ele>
        <time>2021-06-06T09:03:30Z</time>
      </trkpt>
      <trkpt lat="44.85082" lon="4.30682">
        <ele>1025.2</ele>
        <time>2021-06-06T09:03:34Z</time>
      </trkpt>
      <trkpt lat="44.85094" lon="4.30637">
        <ele>1022</ele>
        <time>2021-06-06T09:03:38Z</time>
      </trkpt>
      <trkpt lat="44.85115" lon="4.30602">
        <ele>1021.4</ele>
        <time>2021-06-06T09:03:42Z</time>
      </trkpt>
      <trkpt lat="44.85135" lon="4.3057">
        <ele>1017.8</ele>
        <time>2021-06-06T09:03:46Z</time>
      </trkpt>
      <trkpt lat="44.85156" lon="4.30555">
        <ele>1017.2</ele>
        <time>2021-06-06T09:03:50Z</time>
      </trkpt>
      <trkpt lat="44.85186" lon="4.30561">
        <ele>1012.4</ele>
        <time>2021-06-06T09:03:54Z</time>
      </trkpt>
      <trkpt lat="44.85213" lon="4.30559">
        <ele>1010</ele>
        <time>2021-06-06T09:03:58Z</time>
      </trkpt>
      <trkpt lat="44.85238" lon="4.30544">
        <ele>1005</ele>
        <time>2021-06-06T09:04:02Z</time>
      </trkpt>
      <trkpt lat="44.85266" lon="4.30513">
        <ele>1003.8</ele>
        <time>2021-06-06T09:04:06Z</time>
      </trkpt>
      <trkpt lat="44.85286" lon="4.30479">
        <ele>998.2</ele>
        <time>2021-06-06T09:04:10Z</time>
      </trkpt>
      <trkpt lat="44.85301" lon="4.30454">
        <ele>994.8</ele>
        <time>2021-06-06T09:04:14Z</time>
      </trkpt>
      <trkpt lat="44.85315" lon="4.30429">
        <ele>994.4</ele>
        <time>2021-06-06T09:04:18Z</time>
      </trkpt>
      <trkpt lat="44.85321" lon="4.30401">
        <ele>990.6</ele>
        <time>2021-06-06T09:04:22Z</time>
      </trkpt>
      <trkpt lat="44.85312" lon="4.30363">
        <ele>987.6</ele>
        <time>2021-06-06T09:04:26Z</time>
      </trkpt>
      <trkpt lat="44.85301" lon="4.30321">
        <ele>983.8</ele>
        <time>2021-06-06T09:04:30Z</time>
      </trkpt>
      <trkpt lat="44.85289" lon="4.30273">
        <ele>980.4</ele>
        <time>2021-06-06T09:04:34Z</time>
      </trkpt>
      <trkpt lat="44.853" lon="4.30231">
        <ele>977.8</ele>
        <time>2021-06-06T09:04:38Z</time>
      </trkpt>
      <trkpt lat="44.85317" lon="4.30188">
        <ele>974.2</ele>
        <time>2021-06-06T09:04:42Z</time>
      </trkpt>
      <trkpt lat="44.85336" lon="4.30143">
        <ele>971.4</ele>
        <time>2021-06-06T09:04:46Z</time>
      </trkpt>
      <trkpt lat="44.85363" lon="4.301">
        <ele>968</ele>
        <time>2021-06-06T09:04:50Z</time>
      </trkpt>
      <trkpt lat="44.85382" lon="4.3006">
        <ele>964.6</ele>
        <time>2021-06-06T09:04:54Z</time>
      </trkpt>
      <trkpt lat="44.85407" lon="4.30015">
        <ele>960.2</ele>
        <time>2021-06-06T09:04:58Z</time>
      </trkpt>
      <trkpt lat="44.85423" lon="4.2997">
        <ele>958.4</ele>
        <time>2021-06-06T09:05:02Z</time>
      </trkpt>
      <trkpt lat="44.85428" lon="4.29928">
        <ele>956.2</ele>
        <time>2021-06-06T09:05:06Z</time>
      </trkpt>
      <trkpt lat="44.85424" lon="4.29894">
        <ele>954.2</ele>
        <time>2021-06-06T09:05:10Z</time>
      </trkpt>
      <trkpt lat="44.85419" lon="4.29846">
        <ele>951.2</ele>
        <time>2021-06-06T09:05:14Z</time>
      </trkpt>
      <trkpt lat="44.85405" lon="4.29806">
        <ele>949.6</ele>
        <time>2021-06-06T09:05:18Z</time>
      </trkpt>
      <trkpt lat="44.85385" lon="4.29789">
        <ele>948.2</ele>
        <time>2021-06-06T09:05:22Z</time>
      </trkpt>
      <trkpt lat="44.85351" lon="4.29774">
        <ele>945.8</ele>
        <time>2021-06-06T09:05:26Z</time>
      </trkpt>
      <trkpt lat="44.85319" lon="4.29772">
        <ele>942.4</ele>
        <time>2021-06-06T09:05:30Z</time>
      </trkpt>
      <trkpt lat="44.85286" lon="4.29785">
        <ele>940.6</ele>
        <time>2021-06-06T09:05:34Z</time>
      </trkpt>
      <trkpt lat="44.85257" lon="4.2978">
        <ele>937.6</ele>
        <time>2021-06-06T09:05:38Z</time>
      </trkpt>
      <trkpt lat="44.85258" lon="4.29744">
        <ele>936.8</ele>
        <time>2021-06-06T09:05:42Z</time>
      </trkpt>
      <trkpt lat="44.85275" lon="4.29712">
        <ele>934.4</ele>
        <time>2021-06-06T09:05:46Z</time>
      </trkpt>
      <trkpt lat="44.8529" lon="4.29672">
        <ele>930</ele>
        <time>2021-06-06T09:05:50Z</time>
      </trkpt>
      <trkpt lat="44.85306" lon="4.29651">
        <ele>927.4</ele>
        <time>2021-06-06T09:05:54Z</time>
      </trkpt>
      <trkpt lat="44.85333" lon="4.29617">
        <ele>924</ele>
        <time>2021-06-06T09:05:58Z</time>
      </trkpt>
      <trkpt lat="44.85353" lon="4.29576">
        <ele>919.6</ele>
        <time>2021-06-06T09:06:02Z</time>
      </trkpt>
      <trkpt lat="44.85377" lon="4.29527">
        <ele>916.2</ele>
        <time>2021-06-06T09:06:06Z</time>
      </trkpt>
      <trkpt lat="44.85395" lon="4.29488">
        <ele>913.2</ele>
        <time>2021-06-06T09:06:10Z</time>
      </trkpt>
      <trkpt lat="44.85422" lon="4.29491">
        <ele>910.4</ele>
        <time>2021-06-06T09:06:14Z</time>
      </trkpt>
      <trkpt lat="44.85463" lon="4.29484">
        <ele>907.4</ele>
        <time>2021-06-06T09:06:18Z</time>
      </trkpt>
      <trkpt lat="44.85505" lon="4.29498">
        <ele>904</ele>
        <time>2021-06-06T09:06:22Z</time>
      </trkpt>
      <trkpt lat="44.85545" lon="4.29521">
        <ele>901.4</ele>
        <time>2021-06-06T09:06:26Z</time>
      </trkpt>
      <trkpt lat="44.85572" lon="4.29515">
        <ele>898.2</ele>
        <time>2021-06-06T09:06:30Z</time>
      </trkpt>
      <trkpt lat="44.85589" lon="4.29501">
        <ele>895.6</ele>
        <time>2021-06-06T09:06:34Z</time>
      </trkpt>
      <trkpt lat="44.85615" lon="4.29498">
        <ele>891.6</ele>
        <time>2021-06-06T09:06:38Z</time>
      </trkpt>
      <trkpt lat="44.85647" lon="4.29496">
        <ele>890.2</ele>
        <time>2021-06-06T09:06:42Z</time>
      </trkpt>
      <trkpt lat="44.85665" lon="4.29455">
        <ele>888.2</ele>
        <time>2021-06-06T09:06:46Z</time>
      </trkpt>
      <trkpt lat="44.85698" lon="4.29427">
        <ele>886.8</ele>
        <time>2021-06-06T09:06:50Z</time>
      </trkpt>
      <trkpt lat="44.85739" lon="4.29434">
        <ele>882.8</ele>
        <time>2021-06-06T09:06:54Z</time>
      </trkpt>
      <trkpt lat="44.85771" lon="4.29438">
        <ele>881.6</ele>
        <time>2021-06-06T09:06:58Z</time>
      </trkpt>
      <trkpt lat="44.85799" lon="4.29422">
        <ele>876.6</ele>
        <time>2021-06-06T09:07:02Z</time>
      </trkpt>
      <trkpt lat="44.85815" lon="4.29393">
        <ele>876</ele>
        <time>2021-06-06T09:07:06Z</time>
      </trkpt>
      <trkpt lat="44.85803" lon="4.29378">
        <ele>874.2</ele>
        <time>2021-06-06T09:07:10Z</time>
      </trkpt>
      <trkpt lat="44.85788" lon="4.29359">
        <ele>873</ele>
        <time>2021-06-06T09:07:14Z</time>
      </trkpt>
      <trkpt lat="44.85776" lon="4.29319">
        <ele>870</ele>
        <time>2021-06-06T09:07:18Z</time>
      </trkpt>
      <trkpt lat="44.85775" lon="4.29271">
        <ele>866.6</ele>
        <time>2021-06-06T09:07:22Z</time>
      </trkpt>
      <trkpt lat="44.85792" lon="4.29235">
        <ele>865.6</ele>
        <time>2021-06-06T09:07:26Z</time>
      </trkpt>
      <trkpt lat="44.8582" lon="4.29202">
        <ele>862.8</ele>
        <time>2021-06-06T09:07:30Z</time>
      </trkpt>
      <trkpt lat="44.85845" lon="4.29158">
        <ele>860</ele>
        <time>2021-06-06T09:07:34Z</time>
      </trkpt>
      <trkpt lat="44.85868" lon="4.29116">
        <ele>857.6</ele>
        <time>2021-06-06T09:07:38Z</time>
      </trkpt>
      <trkpt lat="44.85898" lon="4.29096">
        <ele>855.6</ele>
        <time>2021-06-06T09:07:42Z</time>
      </trkpt>
      <trkpt lat="44.8592" lon="4.29076">
        <ele>854.4</ele>
        <time>2021-06-06T09:07:46Z</time>
      </trkpt>
      <trkpt lat="44.85935" lon="4.2905">
        <ele>851.8</ele>
        <time>2021-06-06T09:07:50Z</time>
      </trkpt>
      <trkpt lat="44.85969" lon="4.29048">
        <ele>849.4</ele>
        <time>2021-06-06T09:07:54Z</time>
      </trkpt>
      <trkpt lat="44.85989" lon="4.29029">
        <ele>847.4</ele>
        <time>2021-06-06T09:07:58Z</time>
      </trkpt>
      <trkpt lat="44.85985" lon="4.29009">
        <ele>844.6</ele>
        <time>2021-06-06T09:08:02Z</time>
      </trkpt>
      <trkpt lat="44.85979" lon="4.28973">
        <ele>842</ele>
        <time>2021-06-06T09:08:06Z</time>
      </trkpt>
      <trkpt lat="44.85973" lon="4.28941">
        <ele>840.2</ele>
        <time>2021-06-06T09:08:10Z</time>
      </trkpt>
      <trkpt lat="44.85947" lon="4.28923">
        <ele>837</ele>
        <time>2021-06-06T09:08:14Z</time>
      </trkpt>
      <trkpt lat="44.85917" lon="4.28914">
        <ele>836.2</ele>
        <time>2021-06-06T09:08:18Z</time>
      </trkpt>
      <trkpt lat="44.85896" lon="4.28889">
        <ele>833.8</ele>
        <time>2021-06-06T09:08:22Z</time>
      </trkpt>
      <trkpt lat="44.85894" lon="4.28844">
        <ele>832.4</ele>
        <time>2021-06-06T09:08:26Z</time>
      </trkpt>
      <trkpt lat="44.859" lon="4.28809">
        <ele>831</ele>
        <time>2021-06-06T09:08:30Z</time>
      </trkpt>
      <trkpt lat="44.85911" lon="4.28782">
        <ele>828.4</ele>
        <time>2021-06-06T09:08:34Z</time>
      </trkpt>
      <trkpt lat="44.85905" lon="4.28731">
        <ele>824.4</ele>
        <time>2021-06-06T09:08:38Z</time>
      </trkpt>
      <trkpt lat="44.85895" lon="4.28675">
        <ele>819.8</ele>
        <time>2021-06-06T09:08:42Z</time>
      </trkpt>
      <trkpt lat="44.85888" lon="4.28637">
        <ele>820.2</ele>
        <time>2021-06-06T09:08:46Z</time>
      </trkpt>
      <trkpt lat="44.85887" lon="4.28596">
        <ele>819</ele>
        <time>2021-06-06T09:08:50Z</time>
      </trkpt>
      <trkpt lat="44.85886" lon="4.28549">
        <ele>815.6</ele>
        <time>2021-06-06T09:08:54Z</time>
      </trkpt>
      <trkpt lat="44.85875" lon="4.28499">
        <ele>814.2</ele>
        <time>2021-06-06T09:08:58Z</time>
      </trkpt>
      <trkpt lat="44.85878" lon="4.28446">
        <ele>811.6</ele>
        <time>2021-06-06T09:09:02Z</time>
      </trkpt>
      <trkpt lat="44.85883" lon="4.28386">
        <ele>807.4</ele>
        <time>2021-06-06T09:09:06Z</time>
      </trkpt>
      <trkpt lat="44.85907" lon="4.28326">
        <ele>805.6</ele>
        <time>2021-06-06T09:09:10Z</time>
      </trkpt>
      <trkpt lat="44.85911" lon="4.28263">
        <ele>805</ele>
        <time>2021-06-06T09:09:14Z</time>
      </trkpt>
      <trkpt lat="44.85917" lon="4.28202">
        <ele>800.6</ele>
        <time>2021-06-06T09:09:18Z</time>
      </trkpt>
      <trkpt lat="44.85933" lon="4.2814">
        <ele>795.8</ele>
        <time>2021-06-06T09:09:22Z</time>
      </trkpt>
      <trkpt lat="44.85953" lon="4.28091">
        <ele>797.8</ele>
        <time>2021-06-06T09:09:26Z</time>
      </trkpt>
      <trkpt lat="44.85969" lon="4.28072">
        <ele>801</ele>
        <time>2021-06-06T09:09:30Z</time>
      </trkpt>
      <trkpt lat="44.85983" lon="4.28077">
        <ele>802.4</ele>
        <time>2021-06-06T09:09:34Z</time>
      </trkpt>
      <trkpt lat="44.85994" lon="4.28081">
        <ele>803.8</ele>
        <time>2021-06-06T09:09:38Z</time>
      </trkpt>
      <trkpt lat="44.86003" lon="4.28086">
        <ele>804.8</ele>
        <time>2021-06-06T09:09:42Z</time>
      </trkpt>
      <trkpt lat="44.8601" lon="4.28089">
        <ele>805.4</ele>
        <time>2021-06-06T09:09:46Z</time>
      </trkpt>
      <trkpt lat="44.86018" lon="4.28095">
        <ele>806.2</ele>
        <time>2021-06-06T09:09:50Z</time>
      </trkpt>
      <trkpt lat="44.86025" lon="4.281">
        <ele>806.6</ele>
        <time>2021-06-06T09:09:54Z</time>
      </trkpt>
      <trkpt lat="44.86034" lon="4.28107">
        <ele>807.4</ele>
        <time>2021-06-06T09:09:58Z</time>
      </trkpt>
      <trkpt lat="44.8604" lon="4.28115">
        <ele>808</ele>
        <time>2021-06-06T09:10:02Z</time>
      </trkpt>
      <trkpt lat="44.86046" lon="4.28124">
        <ele>808.6</ele>
        <time>2021-06-06T09:10:06Z</time>
      </trkpt>
      <trkpt lat="44.86052" lon="4.28132">
        <ele>808.8</ele>
        <time>2021-06-06T09:10:10Z</time>
      </trkpt>
      <trkpt lat="44.86058" lon="4.2814">
        <ele>810.2</ele>
        <time>2021-06-06T09:10:14Z</time>
      </trkpt>
      <trkpt lat="44.86064" lon="4.28148">
        <ele>810</ele>
        <time>2021-06-06T09:10:18Z</time>
      </trkpt>
      <trkpt lat="44.86072" lon="4.28155">
        <ele>810.4</ele>
        <time>2021-06-06T09:10:22Z</time>
      </trkpt>
      <trkpt lat="44.8608" lon="4.28163">
        <ele>811.2</ele>
        <time>2021-06-06T09:10:26Z</time>
      </trkpt>
      <trkpt lat="44.86086" lon="4.28171">
        <ele>812</ele>
        <time>2021-06-06T09:10:30Z</time>
      </trkpt>
      <trkpt lat="44.86092" lon="4.28181">
        <ele>813</ele>
        <time>2021-06-06T09:10:34Z</time>
      </trkpt>
      <trkpt lat="44.86098" lon="4.28191">
        <ele>813.6</ele>
        <time>2021-06-06T09:10:38Z</time>
      </trkpt>
      <trkpt lat="44.86103" lon="4.28204">
        <ele>814</ele>
        <time>2021-06-06T09:10:42Z</time>
      </trkpt>
      <trkpt lat="44.86106" lon="4.28217">
        <ele>814.4</ele>
        <time>2021-06-06T09:10:46Z</time>
      </trkpt>
      <trkpt lat="44.86109" lon="4.2823">
        <ele>815.4</ele>
        <time>2021-06-06T09:10:50Z</time>
      </trkpt>
      <trkpt lat="44.86112" lon="4.28242">
        <ele>815.8</ele>
        <time>2021-06-06T09:10:54Z</time>
      </trkpt>
      <trkpt lat="44.86114" lon="4.28254">
        <ele>816.6</ele>
        <time>2021-06-06T09:10:58Z</time>
      </trkpt>
      <trkpt lat="44.86117" lon="4.28266">
        <ele>816.8</ele>
        <time>2021-06-06T09:11:02Z</time>
      </trkpt>
      <trkpt lat="44.86121" lon="4.28276">
        <ele>817.8</ele>
        <time>2021-06-06T09:11:06Z</time>
      </trkpt>
      <trkpt lat="44.86124" lon="4.28285">
        <ele>819</ele>
        <time>2021-06-06T09:11:10Z</time>
      </trkpt>
      <trkpt lat="44.86128" lon="4.28298">
        <ele>819.8</ele>
        <time>2021-06-06T09:11:14Z</time>
      </trkpt>
      <trkpt lat="44.86131" lon="4.28309">
        <ele>820.2</ele>
        <time>2021-06-06T09:11:18Z</time>
      </trkpt>
      <trkpt lat="44.86135" lon="4.28322">
        <ele>821</ele>
        <time>2021-06-06T09:11:22Z</time>
      </trkpt>
      <trkpt lat="44.8614" lon="4.28335">
        <ele>821.4</ele>
        <time>2021-06-06T09:11:26Z</time>
      </trkpt>
      <trkpt lat="44.86144" lon="4.28348">
        <ele>822</ele>
        <time>2021-06-06T09:11:30Z</time>
      </trkpt>
      <trkpt lat="44.86148" lon="4.2836">
        <ele>822.6</ele>
        <time>2021-06-06T09:11:34Z</time>
      </trkpt>
      <trkpt lat="44.86152" lon="4.28372">
        <ele>823.2</ele>
        <time>2021-06-06T09:11:38Z</time>
      </trkpt>
      <trkpt lat="44.86157" lon="4.28383">
        <ele>824</ele>
        <time>2021-06-06T09:11:42Z</time>
      </trkpt>
      <trkpt lat="44.86162" lon="4.28394">
        <ele>824.4</ele>
        <time>2021-06-06T09:11:46Z</time>
      </trkpt>
      <trkpt lat="44.86167" lon="4.28406">
        <ele>824.6</ele>
        <time>2021-06-06T09:11:50Z</time>
      </trkpt>
      <trkpt lat="44.86173" lon="4.2842">
        <ele>824.6</ele>
        <time>2021-06-06T09:11:54Z</time>
      </trkpt>
      <trkpt lat="44.86177" lon="4.28434">
        <ele>825</ele>
        <time>2021-06-06T09:11:58Z</time>
      </trkpt>
      <trkpt lat="44.8618" lon="4.28448">
        <ele>825.6</ele>
        <time>2021-06-06T09:12:02Z</time>
      </trkpt>
      <trkpt lat="44.86182" lon="4.28462">
        <ele>826</ele>
        <time>2021-06-06T09:12:06Z</time>
      </trkpt>
      <trkpt lat="44.86184" lon="4.28476">
        <ele>826.4</ele>
        <time>2021-06-06T09:12:10Z</time>
      </trkpt>
      <trkpt lat="44.86186" lon="4.28489">
        <ele>827.2</ele>
        <time>2021-06-06T09:12:14Z</time>
      </trkpt>
      <trkpt lat="44.86188" lon="4.285">
        <ele>828.4</ele>
        <time>2021-06-06T09:12:18Z</time>
      </trkpt>
      <trkpt lat="44.86192" lon="4.2851">
        <ele>829</ele>
        <time>2021-06-06T09:12:22Z</time>
      </trkpt>
      <trkpt lat="44.86198" lon="4.28518">
        <ele>830</ele>
        <time>2021-06-06T09:12:26Z</time>
      </trkpt>
      <trkpt lat="44.86205" lon="4.28517">
        <ele>830.6</ele>
        <time>2021-06-06T09:12:30Z</time>
      </trkpt>
      <trkpt lat="44.86212" lon="4.2851">
        <ele>831.4</ele>
        <time>2021-06-06T09:12:34Z</time>
      </trkpt>
      <trkpt lat="44.86216" lon="4.28501">
        <ele>832.2</ele>
        <time>2021-06-06T09:12:38Z</time>
      </trkpt>
      <trkpt lat="44.86219" lon="4.28491">
        <ele>832.8</ele>
        <time>2021-06-06T09:12:42Z</time>
      </trkpt>
      <trkpt lat="44.86222" lon="4.2848">
        <ele>833.4</ele>
        <time>2021-06-06T09:12:46Z</time>
      </trkpt>
      <trkpt lat="44.86224" lon="4.28469">
        <ele>833.6</ele>
        <time>2021-06-06T09:12:50Z</time>
      </trkpt>
      <trkpt lat="44.86222" lon="4.28457">
        <ele>834.6</ele>
        <time>2021-06-06T09:12:54Z</time>
      </trkpt>
      <trkpt lat="44.8622" lon="4.28446">
        <ele>835</ele>
        <time>2021-06-06T09:12:58Z</time>
      </trkpt>
      <trkpt lat="44.86219" lon="4.28435">
        <ele>836.2</ele>
        <time>2021-06-06T09:13:02Z</time>
      </trkpt>
      <trkpt lat="44.86219" lon="4.28423">
        <ele>837</ele>
        <time>2021-06-06T09:13:06Z</time>
      </trkpt>
      <trkpt lat="44.86222" lon="4.28411">
        <ele>837.4</ele>
        <time>2021-06-06T09:13:10Z</time>
      </trkpt>
      <trkpt lat="44.86228" lon="4.28403">
        <ele>838</ele>
        <time>2021-06-06T09:13:14Z</time>
      </trkpt>
      <trkpt lat="44.86236" lon="4.28402">
        <ele>838.6</ele>
        <time>2021-06-06T09:13:18Z</time>
      </trkpt>
      <trkpt lat="44.86245" lon="4.28402">
        <ele>839</ele>
        <time>2021-06-06T09:13:22Z</time>
      </trkpt>
      <trkpt lat="44.86253" lon="4.28403">
        <ele>839.6</ele>
        <time>2021-06-06T09:13:26Z</time>
      </trkpt>
      <trkpt lat="44.86262" lon="4.28404">
        <ele>840.8</ele>
        <time>2021-06-06T09:13:30Z</time>
      </trkpt>
      <trkpt lat="44.8627" lon="4.28406">
        <ele>841.2</ele>
        <time>2021-06-06T09:13:34Z</time>
      </trkpt>
      <trkpt lat="44.86278" lon="4.28409">
        <ele>841.8</ele>
        <time>2021-06-06T09:13:38Z</time>
      </trkpt>
      <trkpt lat="44.86287" lon="4.28413">
        <ele>842.4</ele>
        <time>2021-06-06T09:13:42Z</time>
      </trkpt>
      <trkpt lat="44.86294" lon="4.28417">
        <ele>843.2</ele>
        <time>2021-06-06T09:13:46Z</time>
      </trkpt>
      <trkpt lat="44.86301" lon="4.28421">
        <ele>844</ele>
        <time>2021-06-06T09:13:50Z</time>
      </trkpt>
      <trkpt lat="44.86309" lon="4.28425">
        <ele>844.4</ele>
        <time>2021-06-06T09:13:54Z</time>
      </trkpt>
      <trkpt lat="44.86316" lon="4.28429">
        <ele>844.6</ele>
        <time>2021-06-06T09:13:58Z</time>
      </trkpt>
      <trkpt lat="44.86323" lon="4.28433">
        <ele>845.6</ele>
        <time>2021-06-06T09:14:02Z</time>
      </trkpt>
      <trkpt lat="44.86329" lon="4.28436">
        <ele>846.4</ele>
        <time>2021-06-06T09:14:06Z</time>
      </trkpt>
      <trkpt lat="44.86336" lon="4.28441">
        <ele>846.8</ele>
        <time>2021-06-06T09:14:10Z</time>
      </trkpt>
      <trkpt lat="44.86343" lon="4.28444">
        <ele>848</ele>
        <time>2021-06-06T09:14:14Z</time>
      </trkpt>
      <trkpt lat="44.86349" lon="4.28448">
        <ele>848.2</ele>
        <time>2021-06-06T09:14:18Z</time>
      </trkpt>
      <trkpt lat="44.86357" lon="4.2845">
        <ele>848.8</ele>
        <time>2021-06-06T09:14:22Z</time>
      </trkpt>
      <trkpt lat="44.86366" lon="4.28452">
        <ele>849.4</ele>
        <time>2021-06-06T09:14:26Z</time>
      </trkpt>
      <trkpt lat="44.86373" lon="4.28454">
        <ele>850</ele>
        <time>2021-06-06T09:14:30Z</time>
      </trkpt>
      <trkpt lat="44.8638" lon="4.28453">
        <ele>850.6</ele>
        <time>2021-06-06T09:14:34Z</time>
      </trkpt>
      <trkpt lat="44.86387" lon="4.28453">
        <ele>851.4</ele>
        <time>2021-06-06T09:14:38Z</time>
      </trkpt>
      <trkpt lat="44.86398" lon="4.28457">
        <ele>852.2</ele>
        <time>2021-06-06T09:14:42Z</time>
      </trkpt>
      <trkpt lat="44.86407" lon="4.28457">
        <ele>852.4</ele>
        <time>2021-06-06T09:14:46Z</time>
      </trkpt>
      <trkpt lat="44.86414" lon="4.28457">
        <ele>853</ele>
        <time>2021-06-06T09:14:50Z</time>
      </trkpt>
      <trkpt lat="44.86421" lon="4.28455">
        <ele>853.8</ele>
        <time>2021-06-06T09:14:54Z</time>
      </trkpt>
      <trkpt lat="44.86425" lon="4.28452">
        <ele>854.4</ele>
        <time>2021-06-06T09:14:58Z</time>
      </trkpt>
      <trkpt lat="44.86432" lon="4.2845">
        <ele>854.6</ele>
        <time>2021-06-06T09:15:02Z</time>
      </trkpt>
      <trkpt lat="44.86437" lon="4.28446">
        <ele>855.2</ele>
        <time>2021-06-06T09:15:06Z</time>
      </trkpt>
      <trkpt lat="44.86442" lon="4.28439">
        <ele>855.4</ele>
        <time>2021-06-06T09:15:10Z</time>
      </trkpt>
      <trkpt lat="44.86447" lon="4.28429">
        <ele>856.4</ele>
        <time>2021-06-06T09:15:14Z</time>
      </trkpt>
      <trkpt lat="44.86451" lon="4.28419">
        <ele>857</ele>
        <time>2021-06-06T09:15:18Z</time>
      </trkpt>
      <trkpt lat="44.86457" lon="4.28412">
        <ele>858.2</ele>
        <time>2021-06-06T09:15:22Z</time>
      </trkpt>
      <trkpt lat="44.86465" lon="4.28405">
        <ele>858.6</ele>
        <time>2021-06-06T09:15:26Z</time>
      </trkpt>
      <trkpt lat="44.86473" lon="4.28398">
        <ele>859.4</ele>
        <time>2021-06-06T09:15:30Z</time>
      </trkpt>
      <trkpt lat="44.86476" lon="4.28392">
        <ele>859.2</ele>
        <time>2021-06-06T09:15:34Z</time>
      </trkpt>
      <trkpt lat="44.86478" lon="4.28382">
        <ele>859.8</ele>
        <time>2021-06-06T09:15:38Z</time>
      </trkpt>
      <trkpt lat="44.86477" lon="4.28371">
        <ele>860.6</ele>
        <time>2021-06-06T09:15:42Z</time>
      </trkpt>
      <trkpt lat="44.86474" lon="4.28361">
        <ele>861</ele>
        <time>2021-06-06T09:15:46Z</time>
      </trkpt>
      <trkpt lat="44.86471" lon="4.28351">
        <ele>861.8</ele>
        <time>2021-06-06T09:15:50Z</time>
      </trkpt>
      <trkpt lat="44.86468" lon="4.28343">
        <ele>862.8</ele>
        <time>2021-06-06T09:15:54Z</time>
      </trkpt>
      <trkpt lat="44.86464" lon="4.28335">
        <ele>863.4</ele>
        <time>2021-06-06T09:15:58Z</time>
      </trkpt>
      <trkpt lat="44.8646" lon="4.28328">
        <ele>863.8</ele>
        <time>2021-06-06T09:16:02Z</time>
      </trkpt>
      <trkpt lat="44.86455" lon="4.2832">
        <ele>864.6</ele>
        <time>2021-06-06T09:16:06Z</time>
      </trkpt>
      <trkpt lat="44.86451" lon="4.28313">
        <ele>865.2</ele>
        <time>2021-06-06T09:16:10Z</time>
      </trkpt>
      <trkpt lat="44.86445" lon="4.28305">
        <ele>865.8</ele>
        <time>2021-06-06T09:16:14Z</time>
      </trkpt>
      <trkpt lat="44.8644" lon="4.28296">
        <ele>866.4</ele>
        <time>2021-06-06T09:16:18Z</time>
      </trkpt>
      <trkpt lat="44.86437" lon="4.28287">
        <ele>867.2</ele>
        <time>2021-06-06T09:16:22Z</time>
      </trkpt>
      <trkpt lat="44.86434" lon="4.28276">
        <ele>867.6</ele>
        <time>2021-06-06T09:16:26Z</time>
      </trkpt>
      <trkpt lat="44.86433" lon="4.28269">
        <ele>868.4</ele>
        <time>2021-06-06T09:16:30Z</time>
      </trkpt>
      <trkpt lat="44.8643" lon="4.28259">
        <ele>869.2</ele>
        <time>2021-06-06T09:16:34Z</time>
      </trkpt>
      <trkpt lat="44.86432" lon="4.28246">
        <ele>870</ele>
        <time>2021-06-06T09:16:38Z</time>
      </trkpt>
      <trkpt lat="44.86431" lon="4.28233">
        <ele>870.4</ele>
        <time>2021-06-06T09:16:42Z</time>
      </trkpt>
      <trkpt lat="44.86429" lon="4.2822">
        <ele>870.8</ele>
        <time>2021-06-06T09:16:46Z</time>
      </trkpt>
      <trkpt lat="44.86429" lon="4.28207">
        <ele>871.6</ele>
        <time>2021-06-06T09:16:50Z</time>
      </trkpt>
      <trkpt lat="44.8643" lon="4.28196">
        <ele>872.2</ele>
        <time>2021-06-06T09:16:54Z</time>
      </trkpt>
      <trkpt lat="44.86432" lon="4.28186">
        <ele>873</ele>
        <time>2021-06-06T09:16:58Z</time>
      </trkpt>
      <trkpt lat="44.86436" lon="4.2817">
        <ele>874</ele>
        <time>2021-06-06T09:17:17Z</time>
      </trkpt>
      <trkpt lat="44.86437" lon="4.28158">
        <ele>874</ele>
        <time>2021-06-06T09:17:21Z</time>
      </trkpt>
      <trkpt lat="44.86421" lon="4.28148">
        <ele>876.2</ele>
        <time>2021-06-06T09:22:04Z</time>
      </trkpt>
      <trkpt lat="44.86414" lon="4.28143">
        <ele>877.6</ele>
        <time>2021-06-06T09:22:08Z</time>
      </trkpt>
      <trkpt lat="44.86407" lon="4.28137">
        <ele>877.8</ele>
        <time>2021-06-06T09:22:12Z</time>
      </trkpt>
      <trkpt lat="44.86401" lon="4.2813">
        <ele>878.6</ele>
        <time>2021-06-06T09:22:16Z</time>
      </trkpt>
      <trkpt lat="44.86397" lon="4.28121">
        <ele>879</ele>
        <time>2021-06-06T09:22:20Z</time>
      </trkpt>
      <trkpt lat="44.86393" lon="4.28111">
        <ele>879.8</ele>
        <time>2021-06-06T09:22:24Z</time>
      </trkpt>
      <trkpt lat="44.86391" lon="4.28101">
        <ele>880.6</ele>
        <time>2021-06-06T09:22:28Z</time>
      </trkpt>
      <trkpt lat="44.86388" lon="4.2809">
        <ele>881</ele>
        <time>2021-06-06T09:22:32Z</time>
      </trkpt>
      <trkpt lat="44.86386" lon="4.28079">
        <ele>881.4</ele>
        <time>2021-06-06T09:22:36Z</time>
      </trkpt>
      <trkpt lat="44.86385" lon="4.28067">
        <ele>881.8</ele>
        <time>2021-06-06T09:22:40Z</time>
      </trkpt>
      <trkpt lat="44.86382" lon="4.28056">
        <ele>882.2</ele>
        <time>2021-06-06T09:22:44Z</time>
      </trkpt>
      <trkpt lat="44.86382" lon="4.28045">
        <ele>883.2</ele>
        <time>2021-06-06T09:22:48Z</time>
      </trkpt>
      <trkpt lat="44.86381" lon="4.28033">
        <ele>883.4</ele>
        <time>2021-06-06T09:22:52Z</time>
      </trkpt>
      <trkpt lat="44.8638" lon="4.28022">
        <ele>884.2</ele>
        <time>2021-06-06T09:22:56Z</time>
      </trkpt>
      <trkpt lat="44.8638" lon="4.2801">
        <ele>884.6</ele>
        <time>2021-06-06T09:23:00Z</time>
      </trkpt>
      <trkpt lat="44.86379" lon="4.28">
        <ele>885</ele>
        <time>2021-06-06T09:23:04Z</time>
      </trkpt>
      <trkpt lat="44.86378" lon="4.27988">
        <ele>887</ele>
        <time>2021-06-06T09:23:08Z</time>
      </trkpt>
      <trkpt lat="44.86378" lon="4.27977">
        <ele>887</ele>
        <time>2021-06-06T09:23:12Z</time>
      </trkpt>
      <trkpt lat="44.86377" lon="4.27964">
        <ele>887.8</ele>
        <time>2021-06-06T09:23:16Z</time>
      </trkpt>
      <trkpt lat="44.86378" lon="4.27951">
        <ele>888</ele>
        <time>2021-06-06T09:23:20Z</time>
      </trkpt>
      <trkpt lat="44.86378" lon="4.2794">
        <ele>888.2</ele>
        <time>2021-06-06T09:23:24Z</time>
      </trkpt>
      <trkpt lat="44.86377" lon="4.27928">
        <ele>889.2</ele>
        <time>2021-06-06T09:23:28Z</time>
      </trkpt>
      <trkpt lat="44.86377" lon="4.27917">
        <ele>890</ele>
        <time>2021-06-06T09:23:32Z</time>
      </trkpt>
      <trkpt lat="44.86376" lon="4.27906">
        <ele>890.6</ele>
        <time>2021-06-06T09:23:36Z</time>
      </trkpt>
      <trkpt lat="44.86376" lon="4.27894">
        <ele>891.4</ele>
        <time>2021-06-06T09:23:40Z</time>
      </trkpt>
      <trkpt lat="44.86373" lon="4.27883">
        <ele>891.4</ele>
        <time>2021-06-06T09:23:44Z</time>
      </trkpt>
      <trkpt lat="44.86369" lon="4.27872">
        <ele>891.8</ele>
        <time>2021-06-06T09:23:48Z</time>
      </trkpt>
      <trkpt lat="44.86365" lon="4.27863">
        <ele>892.2</ele>
        <time>2021-06-06T09:23:52Z</time>
      </trkpt>
      <trkpt lat="44.8636" lon="4.27853">
        <ele>893</ele>
        <time>2021-06-06T09:23:56Z</time>
      </trkpt>
      <trkpt lat="44.86356" lon="4.27841">
        <ele>893.6</ele>
        <time>2021-06-06T09:24:00Z</time>
      </trkpt>
      <trkpt lat="44.86352" lon="4.27829">
        <ele>894.2</ele>
        <time>2021-06-06T09:24:04Z</time>
      </trkpt>
      <trkpt lat="44.86348" lon="4.27817">
        <ele>894.6</ele>
        <time>2021-06-06T09:24:08Z</time>
      </trkpt>
      <trkpt lat="44.86347" lon="4.27805">
        <ele>895.6</ele>
        <time>2021-06-06T09:24:12Z</time>
      </trkpt>
      <trkpt lat="44.86346" lon="4.27794">
        <ele>895.2</ele>
        <time>2021-06-06T09:24:16Z</time>
      </trkpt>
      <trkpt lat="44.86345" lon="4.27783">
        <ele>896.4</ele>
        <time>2021-06-06T09:24:20Z</time>
      </trkpt>
      <trkpt lat="44.86344" lon="4.27771">
        <ele>897.4</ele>
        <time>2021-06-06T09:24:24Z</time>
      </trkpt>
      <trkpt lat="44.86344" lon="4.27759">
        <ele>897.8</ele>
        <time>2021-06-06T09:24:28Z</time>
      </trkpt>
      <trkpt lat="44.86343" lon="4.27746">
        <ele>898.4</ele>
        <time>2021-06-06T09:24:32Z</time>
      </trkpt>
      <trkpt lat="44.86344" lon="4.27734">
        <ele>898.6</ele>
        <time>2021-06-06T09:24:36Z</time>
      </trkpt>
      <trkpt lat="44.86346" lon="4.27723">
        <ele>899.4</ele>
        <time>2021-06-06T09:24:40Z</time>
      </trkpt>
      <trkpt lat="44.86351" lon="4.27713">
        <ele>899.8</ele>
        <time>2021-06-06T09:24:44Z</time>
      </trkpt>
      <trkpt lat="44.86355" lon="4.27702">
        <ele>900.6</ele>
        <time>2021-06-06T09:24:48Z</time>
      </trkpt>
      <trkpt lat="44.86358" lon="4.27692">
        <ele>900.4</ele>
        <time>2021-06-06T09:24:52Z</time>
      </trkpt>
      <trkpt lat="44.86361" lon="4.27683">
        <ele>901.4</ele>
        <time>2021-06-06T09:24:56Z</time>
      </trkpt>
      <trkpt lat="44.86367" lon="4.27676">
        <ele>902.2</ele>
        <time>2021-06-06T09:25:00Z</time>
      </trkpt>
      <trkpt lat="44.86372" lon="4.27669">
        <ele>903.6</ele>
        <time>2021-06-06T09:25:04Z</time>
      </trkpt>
      <trkpt lat="44.86377" lon="4.27661">
        <ele>904</ele>
        <time>2021-06-06T09:25:08Z</time>
      </trkpt>
      <trkpt lat="44.86383" lon="4.27653">
        <ele>905</ele>
        <time>2021-06-06T09:25:12Z</time>
      </trkpt>
      <trkpt lat="44.86389" lon="4.27644">
        <ele>906.4</ele>
        <time>2021-06-06T09:25:16Z</time>
      </trkpt>
      <trkpt lat="44.86395" lon="4.27638">
        <ele>907</ele>
        <time>2021-06-06T09:25:20Z</time>
      </trkpt>
      <trkpt lat="44.86402" lon="4.2763">
        <ele>907.4</ele>
        <time>2021-06-06T09:25:24Z</time>
      </trkpt>
      <trkpt lat="44.86408" lon="4.27622">
        <ele>907.8</ele>
        <time>2021-06-06T09:25:28Z</time>
      </trkpt>
      <trkpt lat="44.86415" lon="4.27614">
        <ele>908.4</ele>
        <time>2021-06-06T09:25:32Z</time>
      </trkpt>
      <trkpt lat="44.8642" lon="4.27605">
        <ele>908.4</ele>
        <time>2021-06-06T09:25:36Z</time>
      </trkpt>
      <trkpt lat="44.86428" lon="4.27599">
        <ele>909</ele>
        <time>2021-06-06T09:25:40Z</time>
      </trkpt>
      <trkpt lat="44.86435" lon="4.27591">
        <ele>909.2</ele>
        <time>2021-06-06T09:25:44Z</time>
      </trkpt>
      <trkpt lat="44.86438" lon="4.27582">
        <ele>909.8</ele>
        <time>2021-06-06T09:25:48Z</time>
      </trkpt>
      <trkpt lat="44.86444" lon="4.27574">
        <ele>910.6</ele>
        <time>2021-06-06T09:25:52Z</time>
      </trkpt>
      <trkpt lat="44.86451" lon="4.27567">
        <ele>911</ele>
        <time>2021-06-06T09:25:56Z</time>
      </trkpt>
      <trkpt lat="44.86459" lon="4.27559">
        <ele>911.4</ele>
        <time>2021-06-06T09:26:00Z</time>
      </trkpt>
      <trkpt lat="44.86468" lon="4.27554">
        <ele>911.6</ele>
        <time>2021-06-06T09:26:04Z</time>
      </trkpt>
      <trkpt lat="44.86477" lon="4.27547">
        <ele>913</ele>
        <time>2021-06-06T09:26:08Z</time>
      </trkpt>
      <trkpt lat="44.86486" lon="4.27541">
        <ele>912.8</ele>
        <time>2021-06-06T09:26:12Z</time>
      </trkpt>
      <trkpt lat="44.86489" lon="4.27529">
        <ele>913</ele>
        <time>2021-06-06T09:26:16Z</time>
      </trkpt>
      <trkpt lat="44.86493" lon="4.27518">
        <ele>913.4</ele>
        <time>2021-06-06T09:26:20Z</time>
      </trkpt>
      <trkpt lat="44.86492" lon="4.27513">
        <ele>913.4</ele>
        <time>2021-06-06T09:26:24Z</time>
      </trkpt>
      <trkpt lat="44.86482" lon="4.27515">
        <ele>913.6</ele>
        <time>2021-06-06T09:26:28Z</time>
      </trkpt>
      <trkpt lat="44.86475" lon="4.27519">
        <ele>914.4</ele>
        <time>2021-06-06T09:26:32Z</time>
      </trkpt>
      <trkpt lat="44.86468" lon="4.2752">
        <ele>915</ele>
        <time>2021-06-06T09:26:36Z</time>
      </trkpt>
      <trkpt lat="44.8646" lon="4.27523">
        <ele>915.6</ele>
        <time>2021-06-06T09:26:40Z</time>
      </trkpt>
      <trkpt lat="44.86452" lon="4.27525">
        <ele>916.2</ele>
        <time>2021-06-06T09:26:44Z</time>
      </trkpt>
      <trkpt lat="44.86446" lon="4.27527">
        <ele>916.2</ele>
        <time>2021-06-06T09:26:48Z</time>
      </trkpt>
      <trkpt lat="44.86436" lon="4.2753">
        <ele>916.8</ele>
        <time>2021-06-06T09:26:52Z</time>
      </trkpt>
      <trkpt lat="44.86428" lon="4.27533">
        <ele>917</ele>
        <time>2021-06-06T09:26:56Z</time>
      </trkpt>
      <trkpt lat="44.8642" lon="4.27538">
        <ele>917.6</ele>
        <time>2021-06-06T09:27:00Z</time>
      </trkpt>
      <trkpt lat="44.86413" lon="4.27545">
        <ele>917.8</ele>
        <time>2021-06-06T09:27:04Z</time>
      </trkpt>
      <trkpt lat="44.86405" lon="4.27549">
        <ele>918.4</ele>
        <time>2021-06-06T09:27:08Z</time>
      </trkpt>
      <trkpt lat="44.86398" lon="4.27557">
        <ele>919.4</ele>
        <time>2021-06-06T09:27:12Z</time>
      </trkpt>
      <trkpt lat="44.86391" lon="4.27565">
        <ele>919.8</ele>
        <time>2021-06-06T09:27:16Z</time>
      </trkpt>
      <trkpt lat="44.86384" lon="4.27572">
        <ele>920.2</ele>
        <time>2021-06-06T09:27:20Z</time>
      </trkpt>
      <trkpt lat="44.86376" lon="4.2758">
        <ele>920.6</ele>
        <time>2021-06-06T09:27:24Z</time>
      </trkpt>
      <trkpt lat="44.86369" lon="4.27587">
        <ele>921.4</ele>
        <time>2021-06-06T09:27:28Z</time>
      </trkpt>
      <trkpt lat="44.86361" lon="4.27593">
        <ele>922</ele>
        <time>2021-06-06T09:27:32Z</time>
      </trkpt>
      <trkpt lat="44.86356" lon="4.27599">
        <ele>922.4</ele>
        <time>2021-06-06T09:27:36Z</time>
      </trkpt>
      <trkpt lat="44.86351" lon="4.27605">
        <ele>923</ele>
        <time>2021-06-06T09:27:40Z</time>
      </trkpt>
      <trkpt lat="44.86345" lon="4.27615">
        <ele>924.2</ele>
        <time>2021-06-06T09:27:44Z</time>
      </trkpt>
      <trkpt lat="44.8634" lon="4.27622">
        <ele>924.2</ele>
        <time>2021-06-06T09:27:48Z</time>
      </trkpt>
      <trkpt lat="44.86333" lon="4.27634">
        <ele>924</ele>
        <time>2021-06-06T09:28:31Z</time>
      </trkpt>
      <trkpt lat="44.86326" lon="4.2764">
        <ele>924.2</ele>
        <time>2021-06-06T09:28:35Z</time>
      </trkpt>
      <trkpt lat="44.86317" lon="4.27643">
        <ele>925</ele>
        <time>2021-06-06T09:28:39Z</time>
      </trkpt>
      <trkpt lat="44.8631" lon="4.27647">
        <ele>926.4</ele>
        <time>2021-06-06T09:28:43Z</time>
      </trkpt>
      <trkpt lat="44.86302" lon="4.27651">
        <ele>926.8</ele>
        <time>2021-06-06T09:28:47Z</time>
      </trkpt>
      <trkpt lat="44.86292" lon="4.27651">
        <ele>928</ele>
        <time>2021-06-06T09:28:51Z</time>
      </trkpt>
      <trkpt lat="44.86283" lon="4.27651">
        <ele>928.4</ele>
        <time>2021-06-06T09:28:55Z</time>
      </trkpt>
      <trkpt lat="44.86273" lon="4.2765">
        <ele>929.8</ele>
        <time>2021-06-06T09:28:59Z</time>
      </trkpt>
      <trkpt lat="44.86264" lon="4.27647">
        <ele>930.6</ele>
        <time>2021-06-06T09:29:03Z</time>
      </trkpt>
      <trkpt lat="44.86256" lon="4.27644">
        <ele>931.4</ele>
        <time>2021-06-06T09:29:07Z</time>
      </trkpt>
      <trkpt lat="44.86247" lon="4.2764">
        <ele>931.8</ele>
        <time>2021-06-06T09:29:11Z</time>
      </trkpt>
      <trkpt lat="44.86239" lon="4.27635">
        <ele>932.2</ele>
        <time>2021-06-06T09:29:15Z</time>
      </trkpt>
      <trkpt lat="44.86232" lon="4.27628">
        <ele>933</ele>
        <time>2021-06-06T09:29:19Z</time>
      </trkpt>
      <trkpt lat="44.86225" lon="4.27619">
        <ele>933.2</ele>
        <time>2021-06-06T09:29:23Z</time>
      </trkpt>
      <trkpt lat="44.86222" lon="4.27606">
        <ele>934</ele>
        <time>2021-06-06T09:29:27Z</time>
      </trkpt>
      <trkpt lat="44.86222" lon="4.27595">
        <ele>934.8</ele>
        <time>2021-06-06T09:29:31Z</time>
      </trkpt>
      <trkpt lat="44.86222" lon="4.27583">
        <ele>935.2</ele>
        <time>2021-06-06T09:29:35Z</time>
      </trkpt>
      <trkpt lat="44.86223" lon="4.27572">
        <ele>935.4</ele>
        <time>2021-06-06T09:29:39Z</time>
      </trkpt>
      <trkpt lat="44.86224" lon="4.2756">
        <ele>935.8</ele>
        <time>2021-06-06T09:29:43Z</time>
      </trkpt>
      <trkpt lat="44.86224" lon="4.2755">
        <ele>936.4</ele>
        <time>2021-06-06T09:29:47Z</time>
      </trkpt>
      <trkpt lat="44.86225" lon="4.27538">
        <ele>937.2</ele>
        <time>2021-06-06T09:29:51Z</time>
      </trkpt>
      <trkpt lat="44.86224" lon="4.27525">
        <ele>937.4</ele>
        <time>2021-06-06T09:29:55Z</time>
      </trkpt>
      <trkpt lat="44.86224" lon="4.27513">
        <ele>938.8</ele>
        <time>2021-06-06T09:29:59Z</time>
      </trkpt>
      <trkpt lat="44.86223" lon="4.27501">
        <ele>939.2</ele>
        <time>2021-06-06T09:30:03Z</time>
      </trkpt>
      <trkpt lat="44.8622" lon="4.27488">
        <ele>939.6</ele>
        <time>2021-06-06T09:30:07Z</time>
      </trkpt>
      <trkpt lat="44.86215" lon="4.27476">
        <ele>940.4</ele>
        <time>2021-06-06T09:30:11Z</time>
      </trkpt>
      <trkpt lat="44.86212" lon="4.27463">
        <ele>941</ele>
        <time>2021-06-06T09:30:15Z</time>
      </trkpt>
      <trkpt lat="44.86212" lon="4.27451">
        <ele>941.4</ele>
        <time>2021-06-06T09:30:19Z</time>
      </trkpt>
      <trkpt lat="44.86213" lon="4.2744">
        <ele>942.8</ele>
        <time>2021-06-06T09:30:23Z</time>
      </trkpt>
      <trkpt lat="44.86215" lon="4.2743">
        <ele>943.6</ele>
        <time>2021-06-06T09:30:27Z</time>
      </trkpt>
      <trkpt lat="44.86215" lon="4.27417">
        <ele>943.8</ele>
        <time>2021-06-06T09:30:31Z</time>
      </trkpt>
      <trkpt lat="44.86214" lon="4.27404">
        <ele>944.6</ele>
        <time>2021-06-06T09:30:35Z</time>
      </trkpt>
      <trkpt lat="44.86208" lon="4.27393">
        <ele>944.8</ele>
        <time>2021-06-06T09:30:39Z</time>
      </trkpt>
      <trkpt lat="44.862" lon="4.27387">
        <ele>945.8</ele>
        <time>2021-06-06T09:30:43Z</time>
      </trkpt>
      <trkpt lat="44.86192" lon="4.27385">
        <ele>946</ele>
        <time>2021-06-06T09:30:47Z</time>
      </trkpt>
      <trkpt lat="44.86183" lon="4.27382">
        <ele>947</ele>
        <time>2021-06-06T09:30:51Z</time>
      </trkpt>
      <trkpt lat="44.86175" lon="4.27378">
        <ele>947.6</ele>
        <time>2021-06-06T09:30:55Z</time>
      </trkpt>
      <trkpt lat="44.86167" lon="4.27374">
        <ele>948.2</ele>
        <time>2021-06-06T09:30:59Z</time>
      </trkpt>
      <trkpt lat="44.86159" lon="4.27372">
        <ele>948.4</ele>
        <time>2021-06-06T09:31:03Z</time>
      </trkpt>
      <trkpt lat="44.8615" lon="4.27371">
        <ele>948.8</ele>
        <time>2021-06-06T09:31:07Z</time>
      </trkpt>
      <trkpt lat="44.86141" lon="4.27373">
        <ele>949</ele>
        <time>2021-06-06T09:31:11Z</time>
      </trkpt>
      <trkpt lat="44.86132" lon="4.27374">
        <ele>949.2</ele>
        <time>2021-06-06T09:31:15Z</time>
      </trkpt>
      <trkpt lat="44.86123" lon="4.27377">
        <ele>949.6</ele>
        <time>2021-06-06T09:31:19Z</time>
      </trkpt>
      <trkpt lat="44.86114" lon="4.27379">
        <ele>950.4</ele>
        <time>2021-06-06T09:31:23Z</time>
      </trkpt>
      <trkpt lat="44.86106" lon="4.27374">
        <ele>951.2</ele>
        <time>2021-06-06T09:31:27Z</time>
      </trkpt>
      <trkpt lat="44.86101" lon="4.27364">
        <ele>952.4</ele>
        <time>2021-06-06T09:31:31Z</time>
      </trkpt>
      <trkpt lat="44.86099" lon="4.27353">
        <ele>953.2</ele>
        <time>2021-06-06T09:31:35Z</time>
      </trkpt>
      <trkpt lat="44.86098" lon="4.2734">
        <ele>953.8</ele>
        <time>2021-06-06T09:31:39Z</time>
      </trkpt>
      <trkpt lat="44.86098" lon="4.27328">
        <ele>954</ele>
        <time>2021-06-06T09:31:43Z</time>
      </trkpt>
      <trkpt lat="44.86099" lon="4.27314">
        <ele>954.2</ele>
        <time>2021-06-06T09:31:47Z</time>
      </trkpt>
      <trkpt lat="44.861" lon="4.27304">
        <ele>955.2</ele>
        <time>2021-06-06T09:31:51Z</time>
      </trkpt>
      <trkpt lat="44.86101" lon="4.27291">
        <ele>955.4</ele>
        <time>2021-06-06T09:31:55Z</time>
      </trkpt>
      <trkpt lat="44.86102" lon="4.27278">
        <ele>956.8</ele>
        <time>2021-06-06T09:31:59Z</time>
      </trkpt>
      <trkpt lat="44.86104" lon="4.27266">
        <ele>956.4</ele>
        <time>2021-06-06T09:32:03Z</time>
      </trkpt>
      <trkpt lat="44.86106" lon="4.27253">
        <ele>957.8</ele>
        <time>2021-06-06T09:32:07Z</time>
      </trkpt>
      <trkpt lat="44.86108" lon="4.2724">
        <ele>958</ele>
        <time>2021-06-06T09:32:11Z</time>
      </trkpt>
      <trkpt lat="44.86109" lon="4.27226">
        <ele>958.6</ele>
        <time>2021-06-06T09:32:15Z</time>
      </trkpt>
      <trkpt lat="44.86108" lon="4.27211">
        <ele>959.6</ele>
        <time>2021-06-06T09:32:19Z</time>
      </trkpt>
      <trkpt lat="44.86107" lon="4.27198">
        <ele>960.2</ele>
        <time>2021-06-06T09:32:23Z</time>
      </trkpt>
      <trkpt lat="44.86105" lon="4.27185">
        <ele>960.8</ele>
        <time>2021-06-06T09:32:27Z</time>
      </trkpt>
      <trkpt lat="44.86102" lon="4.27171">
        <ele>961.4</ele>
        <time>2021-06-06T09:32:31Z</time>
      </trkpt>
      <trkpt lat="44.86101" lon="4.27158">
        <ele>961.2</ele>
        <time>2021-06-06T09:32:35Z</time>
      </trkpt>
      <trkpt lat="44.861" lon="4.27144">
        <ele>962.2</ele>
        <time>2021-06-06T09:32:39Z</time>
      </trkpt>
      <trkpt lat="44.861" lon="4.27131">
        <ele>962.6</ele>
        <time>2021-06-06T09:32:43Z</time>
      </trkpt>
      <trkpt lat="44.86096" lon="4.27114">
        <ele>963</ele>
        <time>2021-06-06T09:32:47Z</time>
      </trkpt>
      <trkpt lat="44.86093" lon="4.271">
        <ele>963.2</ele>
        <time>2021-06-06T09:32:51Z</time>
      </trkpt>
      <trkpt lat="44.86088" lon="4.27087">
        <ele>963.6</ele>
        <time>2021-06-06T09:32:55Z</time>
      </trkpt>
      <trkpt lat="44.86082" lon="4.27074">
        <ele>964</ele>
        <time>2021-06-06T09:32:59Z</time>
      </trkpt>
      <trkpt lat="44.86076" lon="4.27062">
        <ele>964.8</ele>
        <time>2021-06-06T09:33:03Z</time>
      </trkpt>
      <trkpt lat="44.8607" lon="4.27052">
        <ele>965.4</ele>
        <time>2021-06-06T09:33:07Z</time>
      </trkpt>
      <trkpt lat="44.86063" lon="4.27041">
        <ele>965.4</ele>
        <time>2021-06-06T09:33:11Z</time>
      </trkpt>
      <trkpt lat="44.86055" lon="4.2703">
        <ele>965.8</ele>
        <time>2021-06-06T09:33:15Z</time>
      </trkpt>
      <trkpt lat="44.86052" lon="4.27014">
        <ele>966.6</ele>
        <time>2021-06-06T09:33:19Z</time>
      </trkpt>
      <trkpt lat="44.86053" lon="4.27002">
        <ele>967.6</ele>
        <time>2021-06-06T09:33:23Z</time>
      </trkpt>
      <trkpt lat="44.86058" lon="4.26992">
        <ele>968</ele>
        <time>2021-06-06T09:33:27Z</time>
      </trkpt>
      <trkpt lat="44.86066" lon="4.26984">
        <ele>968.4</ele>
        <time>2021-06-06T09:33:31Z</time>
      </trkpt>
      <trkpt lat="44.86074" lon="4.26977">
        <ele>969.4</ele>
        <time>2021-06-06T09:33:35Z</time>
      </trkpt>
      <trkpt lat="44.86082" lon="4.26971">
        <ele>969.4</ele>
        <time>2021-06-06T09:33:39Z</time>
      </trkpt>
      <trkpt lat="44.86088" lon="4.26963">
        <ele>970</ele>
        <time>2021-06-06T09:33:43Z</time>
      </trkpt>
      <trkpt lat="44.86096" lon="4.26954">
        <ele>970.6</ele>
        <time>2021-06-06T09:33:47Z</time>
      </trkpt>
      <trkpt lat="44.861" lon="4.26943">
        <ele>970.6</ele>
        <time>2021-06-06T09:33:51Z</time>
      </trkpt>
      <trkpt lat="44.86108" lon="4.26935">
        <ele>971.4</ele>
        <time>2021-06-06T09:33:55Z</time>
      </trkpt>
      <trkpt lat="44.86114" lon="4.26926">
        <ele>971.8</ele>
        <time>2021-06-06T09:33:59Z</time>
      </trkpt>
      <trkpt lat="44.86118" lon="4.26916">
        <ele>972</ele>
        <time>2021-06-06T09:34:03Z</time>
      </trkpt>
      <trkpt lat="44.86124" lon="4.26907">
        <ele>972.6</ele>
        <time>2021-06-06T09:34:07Z</time>
      </trkpt>
      <trkpt lat="44.86133" lon="4.26896">
        <ele>973.4</ele>
        <time>2021-06-06T09:34:11Z</time>
      </trkpt>
      <trkpt lat="44.86138" lon="4.26887">
        <ele>973.8</ele>
        <time>2021-06-06T09:34:15Z</time>
      </trkpt>
      <trkpt lat="44.86152" lon="4.2688">
        <ele>974.8</ele>
        <time>2021-06-06T09:34:19Z</time>
      </trkpt>
      <trkpt lat="44.86157" lon="4.26868">
        <ele>975</ele>
        <time>2021-06-06T09:34:23Z</time>
      </trkpt>
      <trkpt lat="44.86162" lon="4.26855">
        <ele>975.6</ele>
        <time>2021-06-06T09:34:27Z</time>
      </trkpt>
      <trkpt lat="44.86167" lon="4.26844">
        <ele>976.6</ele>
        <time>2021-06-06T09:34:31Z</time>
      </trkpt>
      <trkpt lat="44.86177" lon="4.26834">
        <ele>977.2</ele>
        <time>2021-06-06T09:34:35Z</time>
      </trkpt>
      <trkpt lat="44.86185" lon="4.26825">
        <ele>977.4</ele>
        <time>2021-06-06T09:34:39Z</time>
      </trkpt>
      <trkpt lat="44.8619" lon="4.26816">
        <ele>978.4</ele>
        <time>2021-06-06T09:34:43Z</time>
      </trkpt>
      <trkpt lat="44.86197" lon="4.26809">
        <ele>978.8</ele>
        <time>2021-06-06T09:34:47Z</time>
      </trkpt>
      <trkpt lat="44.86205" lon="4.26802">
        <ele>979.2</ele>
        <time>2021-06-06T09:34:51Z</time>
      </trkpt>
      <trkpt lat="44.86212" lon="4.26796">
        <ele>980</ele>
        <time>2021-06-06T09:34:55Z</time>
      </trkpt>
      <trkpt lat="44.86219" lon="4.26791">
        <ele>981.2</ele>
        <time>2021-06-06T09:34:59Z</time>
      </trkpt>
      <trkpt lat="44.86227" lon="4.26782">
        <ele>981.4</ele>
        <time>2021-06-06T09:35:03Z</time>
      </trkpt>
      <trkpt lat="44.86237" lon="4.26774">
        <ele>982</ele>
        <time>2021-06-06T09:35:07Z</time>
      </trkpt>
      <trkpt lat="44.86238" lon="4.26759">
        <ele>982.8</ele>
        <time>2021-06-06T09:35:11Z</time>
      </trkpt>
      <trkpt lat="44.86236" lon="4.2674">
        <ele>983</ele>
        <time>2021-06-06T09:35:15Z</time>
      </trkpt>
      <trkpt lat="44.86238" lon="4.26723">
        <ele>983.2</ele>
        <time>2021-06-06T09:35:19Z</time>
      </trkpt>
      <trkpt lat="44.86241" lon="4.26706">
        <ele>983.6</ele>
        <time>2021-06-06T09:35:23Z</time>
      </trkpt>
      <trkpt lat="44.86245" lon="4.2669">
        <ele>984.2</ele>
        <time>2021-06-06T09:35:27Z</time>
      </trkpt>
      <trkpt lat="44.8625" lon="4.26677">
        <ele>985.6</ele>
        <time>2021-06-06T09:35:31Z</time>
      </trkpt>
      <trkpt lat="44.86257" lon="4.26668">
        <ele>985.6</ele>
        <time>2021-06-06T09:35:35Z</time>
      </trkpt>
      <trkpt lat="44.86262" lon="4.26655">
        <ele>986.4</ele>
        <time>2021-06-06T09:35:39Z</time>
      </trkpt>
      <trkpt lat="44.86266" lon="4.2664">
        <ele>987.2</ele>
        <time>2021-06-06T09:35:43Z</time>
      </trkpt>
      <trkpt lat="44.86269" lon="4.26626">
        <ele>988</ele>
        <time>2021-06-06T09:35:47Z</time>
      </trkpt>
      <trkpt lat="44.86268" lon="4.26613">
        <ele>988</ele>
        <time>2021-06-06T09:35:51Z</time>
      </trkpt>
      <trkpt lat="44.86265" lon="4.26599">
        <ele>988.8</ele>
        <time>2021-06-06T09:35:55Z</time>
      </trkpt>
      <trkpt lat="44.8626" lon="4.26585">
        <ele>988.6</ele>
        <time>2021-06-06T09:35:59Z</time>
      </trkpt>
      <trkpt lat="44.86257" lon="4.2657">
        <ele>989.4</ele>
        <time>2021-06-06T09:36:03Z</time>
      </trkpt>
      <trkpt lat="44.86256" lon="4.26558">
        <ele>990</ele>
        <time>2021-06-06T09:36:07Z</time>
      </trkpt>
      <trkpt lat="44.86256" lon="4.26543">
        <ele>990.8</ele>
        <time>2021-06-06T09:36:11Z</time>
      </trkpt>
      <trkpt lat="44.86254" lon="4.26529">
        <ele>991.6</ele>
        <time>2021-06-06T09:36:15Z</time>
      </trkpt>
      <trkpt lat="44.86251" lon="4.26515">
        <ele>992.4</ele>
        <time>2021-06-06T09:36:19Z</time>
      </trkpt>
      <trkpt lat="44.86251" lon="4.26503">
        <ele>992.4</ele>
        <time>2021-06-06T09:36:23Z</time>
      </trkpt>
      <trkpt lat="44.86248" lon="4.26494">
        <ele>993.4</ele>
        <time>2021-06-06T09:36:27Z</time>
      </trkpt>
      <trkpt lat="44.86245" lon="4.26478">
        <ele>994</ele>
        <time>2021-06-06T09:36:31Z</time>
      </trkpt>
      <trkpt lat="44.86239" lon="4.26464">
        <ele>994.4</ele>
        <time>2021-06-06T09:36:35Z</time>
      </trkpt>
      <trkpt lat="44.86232" lon="4.26453">
        <ele>994.8</ele>
        <time>2021-06-06T09:36:39Z</time>
      </trkpt>
      <trkpt lat="44.86225" lon="4.26444">
        <ele>995.6</ele>
        <time>2021-06-06T09:36:43Z</time>
      </trkpt>
      <trkpt lat="44.86216" lon="4.26437">
        <ele>996</ele>
        <time>2021-06-06T09:36:47Z</time>
      </trkpt>
      <trkpt lat="44.86208" lon="4.26431">
        <ele>996.6</ele>
        <time>2021-06-06T09:36:51Z</time>
      </trkpt>
      <trkpt lat="44.86199" lon="4.26427">
        <ele>997.2</ele>
        <time>2021-06-06T09:36:55Z</time>
      </trkpt>
      <trkpt lat="44.8619" lon="4.26425">
        <ele>997.4</ele>
        <time>2021-06-06T09:36:59Z</time>
      </trkpt>
      <trkpt lat="44.86182" lon="4.26419">
        <ele>997.8</ele>
        <time>2021-06-06T09:37:03Z</time>
      </trkpt>
      <trkpt lat="44.86166" lon="4.26419">
        <ele>998.6</ele>
        <time>2021-06-06T09:37:20Z</time>
      </trkpt>
      <trkpt lat="44.86158" lon="4.26419">
        <ele>998.4</ele>
        <time>2021-06-06T09:37:24Z</time>
      </trkpt>
      <trkpt lat="44.86149" lon="4.26417">
        <ele>999</ele>
        <time>2021-06-06T09:37:28Z</time>
      </trkpt>
      <trkpt lat="44.8614" lon="4.26416">
        <ele>999.2</ele>
        <time>2021-06-06T09:37:32Z</time>
      </trkpt>
      <trkpt lat="44.86131" lon="4.26415">
        <ele>999.8</ele>
        <time>2021-06-06T09:37:36Z</time>
      </trkpt>
      <trkpt lat="44.86121" lon="4.26413">
        <ele>1000.6</ele>
        <time>2021-06-06T09:37:40Z</time>
      </trkpt>
      <trkpt lat="44.86112" lon="4.26413">
        <ele>1001.4</ele>
        <time>2021-06-06T09:37:44Z</time>
      </trkpt>
      <trkpt lat="44.86103" lon="4.26413">
        <ele>1002.2</ele>
        <time>2021-06-06T09:37:48Z</time>
      </trkpt>
      <trkpt lat="44.86095" lon="4.26408">
        <ele>1002.2</ele>
        <time>2021-06-06T09:37:52Z</time>
      </trkpt>
      <trkpt lat="44.86086" lon="4.26402">
        <ele>1003</ele>
        <time>2021-06-06T09:37:56Z</time>
      </trkpt>
      <trkpt lat="44.86079" lon="4.26395">
        <ele>1003.2</ele>
        <time>2021-06-06T09:38:00Z</time>
      </trkpt>
      <trkpt lat="44.86073" lon="4.26386">
        <ele>1003.8</ele>
        <time>2021-06-06T09:38:04Z</time>
      </trkpt>
      <trkpt lat="44.86069" lon="4.26374">
        <ele>1004.2</ele>
        <time>2021-06-06T09:38:08Z</time>
      </trkpt>
      <trkpt lat="44.86067" lon="4.26362">
        <ele>1004.8</ele>
        <time>2021-06-06T09:38:12Z</time>
      </trkpt>
      <trkpt lat="44.86066" lon="4.2635">
        <ele>1005.4</ele>
        <time>2021-06-06T09:38:16Z</time>
      </trkpt>
      <trkpt lat="44.86065" lon="4.26338">
        <ele>1005.8</ele>
        <time>2021-06-06T09:38:20Z</time>
      </trkpt>
      <trkpt lat="44.86066" lon="4.26326">
        <ele>1006.4</ele>
        <time>2021-06-06T09:38:24Z</time>
      </trkpt>
      <trkpt lat="44.86067" lon="4.26314">
        <ele>1007.2</ele>
        <time>2021-06-06T09:38:28Z</time>
      </trkpt>
      <trkpt lat="44.86069" lon="4.26303">
        <ele>1007.6</ele>
        <time>2021-06-06T09:38:32Z</time>
      </trkpt>
      <trkpt lat="44.86071" lon="4.26292">
        <ele>1008.4</ele>
        <time>2021-06-06T09:38:36Z</time>
      </trkpt>
      <trkpt lat="44.86075" lon="4.2628">
        <ele>1009.4</ele>
        <time>2021-06-06T09:38:40Z</time>
      </trkpt>
      <trkpt lat="44.86078" lon="4.26269">
        <ele>1009.4</ele>
        <time>2021-06-06T09:38:44Z</time>
      </trkpt>
      <trkpt lat="44.86081" lon="4.26258">
        <ele>1010.2</ele>
        <time>2021-06-06T09:38:48Z</time>
      </trkpt>
      <trkpt lat="44.86085" lon="4.26246">
        <ele>1010.8</ele>
        <time>2021-06-06T09:38:52Z</time>
      </trkpt>
      <trkpt lat="44.8609" lon="4.26235">
        <ele>1011.4</ele>
        <time>2021-06-06T09:38:56Z</time>
      </trkpt>
      <trkpt lat="44.86096" lon="4.26227">
        <ele>1011.8</ele>
        <time>2021-06-06T09:39:00Z</time>
      </trkpt>
      <trkpt lat="44.86103" lon="4.26219">
        <ele>1012.6</ele>
        <time>2021-06-06T09:39:04Z</time>
      </trkpt>
      <trkpt lat="44.8611" lon="4.26211">
        <ele>1013.2</ele>
        <time>2021-06-06T09:39:08Z</time>
      </trkpt>
      <trkpt lat="44.86117" lon="4.26203">
        <ele>1013.8</ele>
        <time>2021-06-06T09:39:12Z</time>
      </trkpt>
      <trkpt lat="44.86118" lon="4.26187">
        <ele>1013.8</ele>
        <time>2021-06-06T09:39:16Z</time>
      </trkpt>
      <trkpt lat="44.86122" lon="4.26176">
        <ele>1014.4</ele>
        <time>2021-06-06T09:39:20Z</time>
      </trkpt>
      <trkpt lat="44.86124" lon="4.26162">
        <ele>1014.8</ele>
        <time>2021-06-06T09:39:24Z</time>
      </trkpt>
      <trkpt lat="44.86123" lon="4.26147">
        <ele>1014.8</ele>
        <time>2021-06-06T09:39:28Z</time>
      </trkpt>
      <trkpt lat="44.86121" lon="4.26133">
        <ele>1015.8</ele>
        <time>2021-06-06T09:39:32Z</time>
      </trkpt>
      <trkpt lat="44.86116" lon="4.26121">
        <ele>1016.4</ele>
        <time>2021-06-06T09:39:36Z</time>
      </trkpt>
      <trkpt lat="44.86111" lon="4.2611">
        <ele>1016.2</ele>
        <time>2021-06-06T09:39:40Z</time>
      </trkpt>
      <trkpt lat="44.86103" lon="4.261">
        <ele>1016.8</ele>
        <time>2021-06-06T09:39:44Z</time>
      </trkpt>
      <trkpt lat="44.86098" lon="4.26088">
        <ele>1018</ele>
        <time>2021-06-06T09:39:48Z</time>
      </trkpt>
      <trkpt lat="44.86093" lon="4.26077">
        <ele>1017.8</ele>
        <time>2021-06-06T09:39:52Z</time>
      </trkpt>
      <trkpt lat="44.86089" lon="4.26064">
        <ele>1018.4</ele>
        <time>2021-06-06T09:39:56Z</time>
      </trkpt>
      <trkpt lat="44.86085" lon="4.2605">
        <ele>1018.6</ele>
        <time>2021-06-06T09:40:00Z</time>
      </trkpt>
      <trkpt lat="44.86082" lon="4.26038">
        <ele>1019.2</ele>
        <time>2021-06-06T09:40:04Z</time>
      </trkpt>
      <trkpt lat="44.86083" lon="4.26024">
        <ele>1019.6</ele>
        <time>2021-06-06T09:40:08Z</time>
      </trkpt>
      <trkpt lat="44.86086" lon="4.26012">
        <ele>1020.8</ele>
        <time>2021-06-06T09:40:12Z</time>
      </trkpt>
      <trkpt lat="44.86089" lon="4.26">
        <ele>1021.4</ele>
        <time>2021-06-06T09:40:16Z</time>
      </trkpt>
      <trkpt lat="44.86093" lon="4.25988">
        <ele>1021.6</ele>
        <time>2021-06-06T09:40:20Z</time>
      </trkpt>
      <trkpt lat="44.86097" lon="4.25976">
        <ele>1022.8</ele>
        <time>2021-06-06T09:40:24Z</time>
      </trkpt>
      <trkpt lat="44.86101" lon="4.25964">
        <ele>1023</ele>
        <time>2021-06-06T09:40:28Z</time>
      </trkpt>
      <trkpt lat="44.86105" lon="4.25951">
        <ele>1023</ele>
        <time>2021-06-06T09:40:32Z</time>
      </trkpt>
      <trkpt lat="44.86109" lon="4.2594">
        <ele>1023.8</ele>
        <time>2021-06-06T09:40:36Z</time>
      </trkpt>
      <trkpt lat="44.86111" lon="4.25927">
        <ele>1025</ele>
        <time>2021-06-06T09:40:40Z</time>
      </trkpt>
      <trkpt lat="44.86114" lon="4.25915">
        <ele>1025.2</ele>
        <time>2021-06-06T09:40:44Z</time>
      </trkpt>
      <trkpt lat="44.86116" lon="4.25903">
        <ele>1025.6</ele>
        <time>2021-06-06T09:40:48Z</time>
      </trkpt>
      <trkpt lat="44.86119" lon="4.25891">
        <ele>1026</ele>
        <time>2021-06-06T09:40:52Z</time>
      </trkpt>
      <trkpt lat="44.86121" lon="4.25879">
        <ele>1026.6</ele>
        <time>2021-06-06T09:40:56Z</time>
      </trkpt>
      <trkpt lat="44.86124" lon="4.25866">
        <ele>1026.8</ele>
        <time>2021-06-06T09:41:00Z</time>
      </trkpt>
      <trkpt lat="44.86126" lon="4.25853">
        <ele>1027.6</ele>
        <time>2021-06-06T09:41:04Z</time>
      </trkpt>
      <trkpt lat="44.86127" lon="4.25838">
        <ele>1028.2</ele>
        <time>2021-06-06T09:41:08Z</time>
      </trkpt>
      <trkpt lat="44.86129" lon="4.25824">
        <ele>1028.4</ele>
        <time>2021-06-06T09:41:12Z</time>
      </trkpt>
      <trkpt lat="44.86132" lon="4.25811">
        <ele>1028.8</ele>
        <time>2021-06-06T09:41:16Z</time>
      </trkpt>
      <trkpt lat="44.86134" lon="4.25799">
        <ele>1029.2</ele>
        <time>2021-06-06T09:41:20Z</time>
      </trkpt>
      <trkpt lat="44.86136" lon="4.25786">
        <ele>1030</ele>
        <time>2021-06-06T09:41:24Z</time>
      </trkpt>
      <trkpt lat="44.86138" lon="4.25772">
        <ele>1030.2</ele>
        <time>2021-06-06T09:41:28Z</time>
      </trkpt>
      <trkpt lat="44.8614" lon="4.25758">
        <ele>1031</ele>
        <time>2021-06-06T09:41:32Z</time>
      </trkpt>
      <trkpt lat="44.86142" lon="4.25746">
        <ele>1031.8</ele>
        <time>2021-06-06T09:41:36Z</time>
      </trkpt>
      <trkpt lat="44.86146" lon="4.25734">
        <ele>1032.2</ele>
        <time>2021-06-06T09:41:40Z</time>
      </trkpt>
      <trkpt lat="44.86147" lon="4.25722">
        <ele>1033</ele>
        <time>2021-06-06T09:41:44Z</time>
      </trkpt>
      <trkpt lat="44.86148" lon="4.25711">
        <ele>1033.4</ele>
        <time>2021-06-06T09:41:48Z</time>
      </trkpt>
      <trkpt lat="44.86149" lon="4.257">
        <ele>1034.2</ele>
        <time>2021-06-06T09:41:52Z</time>
      </trkpt>
      <trkpt lat="44.8615" lon="4.25688">
        <ele>1034.8</ele>
        <time>2021-06-06T09:41:56Z</time>
      </trkpt>
      <trkpt lat="44.86153" lon="4.25678">
        <ele>1035.2</ele>
        <time>2021-06-06T09:42:00Z</time>
      </trkpt>
      <trkpt lat="44.86155" lon="4.25667">
        <ele>1036</ele>
        <time>2021-06-06T09:42:04Z</time>
      </trkpt>
      <trkpt lat="44.86157" lon="4.25655">
        <ele>1036</ele>
        <time>2021-06-06T09:42:08Z</time>
      </trkpt>
      <trkpt lat="44.86159" lon="4.25644">
        <ele>1036.8</ele>
        <time>2021-06-06T09:42:12Z</time>
      </trkpt>
      <trkpt lat="44.8616" lon="4.25633">
        <ele>1036.8</ele>
        <time>2021-06-06T09:42:16Z</time>
      </trkpt>
      <trkpt lat="44.86162" lon="4.25622">
        <ele>1037.4</ele>
        <time>2021-06-06T09:42:20Z</time>
      </trkpt>
      <trkpt lat="44.86162" lon="4.2561">
        <ele>1037.8</ele>
        <time>2021-06-06T09:42:24Z</time>
      </trkpt>
      <trkpt lat="44.86161" lon="4.25597">
        <ele>1038.4</ele>
        <time>2021-06-06T09:42:28Z</time>
      </trkpt>
      <trkpt lat="44.86163" lon="4.25587">
        <ele>1039.2</ele>
        <time>2021-06-06T09:42:32Z</time>
      </trkpt>
      <trkpt lat="44.86166" lon="4.25575">
        <ele>1040.6</ele>
        <time>2021-06-06T09:42:36Z</time>
      </trkpt>
      <trkpt lat="44.86169" lon="4.25564">
        <ele>1040.8</ele>
        <time>2021-06-06T09:42:40Z</time>
      </trkpt>
      <trkpt lat="44.8617" lon="4.25552">
        <ele>1041.2</ele>
        <time>2021-06-06T09:42:44Z</time>
      </trkpt>
      <trkpt lat="44.86176" lon="4.25541">
        <ele>1042.2</ele>
        <time>2021-06-06T09:42:48Z</time>
      </trkpt>
      <trkpt lat="44.86177" lon="4.25531">
        <ele>1042</ele>
        <time>2021-06-06T09:42:52Z</time>
      </trkpt>
      <trkpt lat="44.86181" lon="4.25518">
        <ele>1042.6</ele>
        <time>2021-06-06T09:42:56Z</time>
      </trkpt>
      <trkpt lat="44.86183" lon="4.25506">
        <ele>1043</ele>
        <time>2021-06-06T09:43:00Z</time>
      </trkpt>
      <trkpt lat="44.86185" lon="4.25494">
        <ele>1043.8</ele>
        <time>2021-06-06T09:43:04Z</time>
      </trkpt>
      <trkpt lat="44.86191" lon="4.25484">
        <ele>1044</ele>
        <time>2021-06-06T09:43:08Z</time>
      </trkpt>
      <trkpt lat="44.86194" lon="4.25472">
        <ele>1044.4</ele>
        <time>2021-06-06T09:43:12Z</time>
      </trkpt>
      <trkpt lat="44.86193" lon="4.25455">
        <ele>1044.8</ele>
        <time>2021-06-06T09:43:16Z</time>
      </trkpt>
      <trkpt lat="44.86182" lon="4.25437">
        <ele>1044.8</ele>
        <time>2021-06-06T09:43:20Z</time>
      </trkpt>
      <trkpt lat="44.86172" lon="4.25436">
        <ele>1045.8</ele>
        <time>2021-06-06T09:43:24Z</time>
      </trkpt>
      <trkpt lat="44.86167" lon="4.25447">
        <ele>1046.6</ele>
        <time>2021-06-06T09:43:28Z</time>
      </trkpt>
      <trkpt lat="44.86165" lon="4.25461">
        <ele>1046.2</ele>
        <time>2021-06-06T09:43:32Z</time>
      </trkpt>
      <trkpt lat="44.86165" lon="4.25478">
        <ele>1047.6</ele>
        <time>2021-06-06T09:43:36Z</time>
      </trkpt>
      <trkpt lat="44.86162" lon="4.25493">
        <ele>1047</ele>
        <time>2021-06-06T09:43:40Z</time>
      </trkpt>
      <trkpt lat="44.86157" lon="4.25507">
        <ele>1047.4</ele>
        <time>2021-06-06T09:43:44Z</time>
      </trkpt>
      <trkpt lat="44.86151" lon="4.25521">
        <ele>1047.6</ele>
        <time>2021-06-06T09:43:48Z</time>
      </trkpt>
      <trkpt lat="44.86144" lon="4.25532">
        <ele>1047.8</ele>
        <time>2021-06-06T09:43:52Z</time>
      </trkpt>
      <trkpt lat="44.86138" lon="4.25545">
        <ele>1048</ele>
        <time>2021-06-06T09:43:56Z</time>
      </trkpt>
      <trkpt lat="44.86132" lon="4.25562">
        <ele>1048.4</ele>
        <time>2021-06-06T09:44:00Z</time>
      </trkpt>
      <trkpt lat="44.86127" lon="4.2558">
        <ele>1048.8</ele>
        <time>2021-06-06T09:44:04Z</time>
      </trkpt>
      <trkpt lat="44.86123" lon="4.25594">
        <ele>1049.2</ele>
        <time>2021-06-06T09:44:08Z</time>
      </trkpt>
      <trkpt lat="44.86119" lon="4.25606">
        <ele>1050</ele>
        <time>2021-06-06T09:44:12Z</time>
      </trkpt>
      <trkpt lat="44.86114" lon="4.25623">
        <ele>1050.4</ele>
        <time>2021-06-06T09:44:16Z</time>
      </trkpt>
      <trkpt lat="44.86111" lon="4.25636">
        <ele>1050.8</ele>
        <time>2021-06-06T09:44:20Z</time>
      </trkpt>
      <trkpt lat="44.86104" lon="4.25638">
        <ele>1051.8</ele>
        <time>2021-06-06T09:44:24Z</time>
      </trkpt>
      <trkpt lat="44.86095" lon="4.25642">
        <ele>1052.6</ele>
        <time>2021-06-06T09:44:28Z</time>
      </trkpt>
      <trkpt lat="44.86085" lon="4.25646">
        <ele>1053</ele>
        <time>2021-06-06T09:44:32Z</time>
      </trkpt>
      <trkpt lat="44.86075" lon="4.2565">
        <ele>1053.6</ele>
        <time>2021-06-06T09:44:36Z</time>
      </trkpt>
      <trkpt lat="44.86064" lon="4.25654">
        <ele>1054.6</ele>
        <time>2021-06-06T09:44:40Z</time>
      </trkpt>
      <trkpt lat="44.86059" lon="4.25649">
        <ele>1055.6</ele>
        <time>2021-06-06T09:44:44Z</time>
      </trkpt>
      <trkpt lat="44.86055" lon="4.25639">
        <ele>1056.2</ele>
        <time>2021-06-06T09:44:48Z</time>
      </trkpt>
      <trkpt lat="44.8605" lon="4.25629">
        <ele>1056.8</ele>
        <time>2021-06-06T09:44:52Z</time>
      </trkpt>
      <trkpt lat="44.86045" lon="4.25618">
        <ele>1057.6</ele>
        <time>2021-06-06T09:44:56Z</time>
      </trkpt>
      <trkpt lat="44.86041" lon="4.25608">
        <ele>1058.2</ele>
        <time>2021-06-06T09:45:00Z</time>
      </trkpt>
      <trkpt lat="44.86038" lon="4.25599">
        <ele>1058.6</ele>
        <time>2021-06-06T09:45:04Z</time>
      </trkpt>
      <trkpt lat="44.86034" lon="4.25589">
        <ele>1059.2</ele>
        <time>2021-06-06T09:45:08Z</time>
      </trkpt>
      <trkpt lat="44.8603" lon="4.25578">
        <ele>1059.6</ele>
        <time>2021-06-06T09:45:12Z</time>
      </trkpt>
      <trkpt lat="44.86028" lon="4.25568">
        <ele>1060.2</ele>
        <time>2021-06-06T09:45:16Z</time>
      </trkpt>
      <trkpt lat="44.86025" lon="4.25558">
        <ele>1060.2</ele>
        <time>2021-06-06T09:45:20Z</time>
      </trkpt>
      <trkpt lat="44.86022" lon="4.25547">
        <ele>1061.2</ele>
        <time>2021-06-06T09:45:24Z</time>
      </trkpt>
      <trkpt lat="44.8602" lon="4.25538">
        <ele>1061.8</ele>
        <time>2021-06-06T09:45:28Z</time>
      </trkpt>
      <trkpt lat="44.86018" lon="4.25527">
        <ele>1062.4</ele>
        <time>2021-06-06T09:45:32Z</time>
      </trkpt>
      <trkpt lat="44.86015" lon="4.25518">
        <ele>1062.8</ele>
        <time>2021-06-06T09:45:36Z</time>
      </trkpt>
      <trkpt lat="44.86014" lon="4.25507">
        <ele>1063.8</ele>
        <time>2021-06-06T09:45:40Z</time>
      </trkpt>
      <trkpt lat="44.86012" lon="4.25497">
        <ele>1064.8</ele>
        <time>2021-06-06T09:45:44Z</time>
      </trkpt>
      <trkpt lat="44.8601" lon="4.25486">
        <ele>1065.6</ele>
        <time>2021-06-06T09:45:48Z</time>
      </trkpt>
      <trkpt lat="44.86007" lon="4.25476">
        <ele>1065.8</ele>
        <time>2021-06-06T09:45:52Z</time>
      </trkpt>
      <trkpt lat="44.86005" lon="4.25466">
        <ele>1066.4</ele>
        <time>2021-06-06T09:45:56Z</time>
      </trkpt>
      <trkpt lat="44.86002" lon="4.25457">
        <ele>1067</ele>
        <time>2021-06-06T09:46:00Z</time>
      </trkpt>
      <trkpt lat="44.85998" lon="4.25448">
        <ele>1067.2</ele>
        <time>2021-06-06T09:46:04Z</time>
      </trkpt>
      <trkpt lat="44.85996" lon="4.25437">
        <ele>1067.8</ele>
        <time>2021-06-06T09:46:08Z</time>
      </trkpt>
      <trkpt lat="44.85993" lon="4.25427">
        <ele>1069</ele>
        <time>2021-06-06T09:46:12Z</time>
      </trkpt>
      <trkpt lat="44.85991" lon="4.25417">
        <ele>1069.4</ele>
        <time>2021-06-06T09:46:16Z</time>
      </trkpt>
      <trkpt lat="44.85989" lon="4.25408">
        <ele>1069.6</ele>
        <time>2021-06-06T09:46:20Z</time>
      </trkpt>
      <trkpt lat="44.85988" lon="4.254">
        <ele>1070</ele>
        <time>2021-06-06T09:46:24Z</time>
      </trkpt>
      <trkpt lat="44.85989" lon="4.25389">
        <ele>1071</ele>
        <time>2021-06-06T09:46:28Z</time>
      </trkpt>
      <trkpt lat="44.85988" lon="4.2538">
        <ele>1072.2</ele>
        <time>2021-06-06T09:46:32Z</time>
      </trkpt>
      <trkpt lat="44.85987" lon="4.25364">
        <ele>1072.4</ele>
        <time>2021-06-06T09:46:36Z</time>
      </trkpt>
      <trkpt lat="44.85982" lon="4.2535">
        <ele>1072.8</ele>
        <time>2021-06-06T09:46:40Z</time>
      </trkpt>
      <trkpt lat="44.85979" lon="4.25337">
        <ele>1074</ele>
        <time>2021-06-06T09:46:44Z</time>
      </trkpt>
      <trkpt lat="44.85974" lon="4.25327">
        <ele>1074.4</ele>
        <time>2021-06-06T09:46:48Z</time>
      </trkpt>
      <trkpt lat="44.8597" lon="4.25316">
        <ele>1074.2</ele>
        <time>2021-06-06T09:46:52Z</time>
      </trkpt>
      <trkpt lat="44.85964" lon="4.25308">
        <ele>1075.4</ele>
        <time>2021-06-06T09:46:56Z</time>
      </trkpt>
      <trkpt lat="44.85958" lon="4.253">
        <ele>1076</ele>
        <time>2021-06-06T09:47:00Z</time>
      </trkpt>
      <trkpt lat="44.85949" lon="4.25298">
        <ele>1076.6</ele>
        <time>2021-06-06T09:47:04Z</time>
      </trkpt>
      <trkpt lat="44.85942" lon="4.25294">
        <ele>1077.4</ele>
        <time>2021-06-06T09:47:08Z</time>
      </trkpt>
      <trkpt lat="44.85936" lon="4.25289">
        <ele>1077.6</ele>
        <time>2021-06-06T09:47:12Z</time>
      </trkpt>
      <trkpt lat="44.8593" lon="4.2528">
        <ele>1078.4</ele>
        <time>2021-06-06T09:47:16Z</time>
      </trkpt>
      <trkpt lat="44.85923" lon="4.25272">
        <ele>1079</ele>
        <time>2021-06-06T09:47:20Z</time>
      </trkpt>
      <trkpt lat="44.85916" lon="4.25264">
        <ele>1079</ele>
        <time>2021-06-06T09:47:24Z</time>
      </trkpt>
      <trkpt lat="44.85911" lon="4.25254">
        <ele>1080.2</ele>
        <time>2021-06-06T09:47:28Z</time>
      </trkpt>
      <trkpt lat="44.8591" lon="4.25244">
        <ele>1081.2</ele>
        <time>2021-06-06T09:47:32Z</time>
      </trkpt>
      <trkpt lat="44.85909" lon="4.25237">
        <ele>1081.6</ele>
        <time>2021-06-06T09:47:36Z</time>
      </trkpt>
      <trkpt lat="44.8591" lon="4.25226">
        <ele>1082.2</ele>
        <time>2021-06-06T09:47:40Z</time>
      </trkpt>
      <trkpt lat="44.85912" lon="4.25216">
        <ele>1082.6</ele>
        <time>2021-06-06T09:47:44Z</time>
      </trkpt>
      <trkpt lat="44.85912" lon="4.25207">
        <ele>1083.4</ele>
        <time>2021-06-06T09:47:48Z</time>
      </trkpt>
      <trkpt lat="44.85912" lon="4.25195">
        <ele>1084</ele>
        <time>2021-06-06T09:47:52Z</time>
      </trkpt>
      <trkpt lat="44.85913" lon="4.25185">
        <ele>1085</ele>
        <time>2021-06-06T09:47:56Z</time>
      </trkpt>
      <trkpt lat="44.85914" lon="4.25174">
        <ele>1085.4</ele>
        <time>2021-06-06T09:48:00Z</time>
      </trkpt>
      <trkpt lat="44.85915" lon="4.25163">
        <ele>1086.8</ele>
        <time>2021-06-06T09:48:04Z</time>
      </trkpt>
      <trkpt lat="44.85915" lon="4.25152">
        <ele>1087</ele>
        <time>2021-06-06T09:48:08Z</time>
      </trkpt>
      <trkpt lat="44.85914" lon="4.25139">
        <ele>1087</ele>
        <time>2021-06-06T09:48:12Z</time>
      </trkpt>
      <trkpt lat="44.8591" lon="4.25126">
        <ele>1087.8</ele>
        <time>2021-06-06T09:48:16Z</time>
      </trkpt>
      <trkpt lat="44.85907" lon="4.25114">
        <ele>1088.6</ele>
        <time>2021-06-06T09:48:20Z</time>
      </trkpt>
      <trkpt lat="44.85903" lon="4.25103">
        <ele>1089.2</ele>
        <time>2021-06-06T09:48:24Z</time>
      </trkpt>
      <trkpt lat="44.85899" lon="4.25092">
        <ele>1089.8</ele>
        <time>2021-06-06T09:48:28Z</time>
      </trkpt>
      <trkpt lat="44.85896" lon="4.25081">
        <ele>1090.6</ele>
        <time>2021-06-06T09:48:32Z</time>
      </trkpt>
      <trkpt lat="44.85893" lon="4.2507">
        <ele>1091.2</ele>
        <time>2021-06-06T09:48:36Z</time>
      </trkpt>
      <trkpt lat="44.8589" lon="4.2506">
        <ele>1091.4</ele>
        <time>2021-06-06T09:48:40Z</time>
      </trkpt>
      <trkpt lat="44.85887" lon="4.25049">
        <ele>1092.2</ele>
        <time>2021-06-06T09:48:44Z</time>
      </trkpt>
      <trkpt lat="44.85885" lon="4.25039">
        <ele>1093.2</ele>
        <time>2021-06-06T09:48:48Z</time>
      </trkpt>
      <trkpt lat="44.85882" lon="4.25029">
        <ele>1093.4</ele>
        <time>2021-06-06T09:48:52Z</time>
      </trkpt>
      <trkpt lat="44.85878" lon="4.25019">
        <ele>1094</ele>
        <time>2021-06-06T09:48:56Z</time>
      </trkpt>
      <trkpt lat="44.85874" lon="4.25008">
        <ele>1094.6</ele>
        <time>2021-06-06T09:49:00Z</time>
      </trkpt>
      <trkpt lat="44.8587" lon="4.24999">
        <ele>1095.4</ele>
        <time>2021-06-06T09:49:04Z</time>
      </trkpt>
      <trkpt lat="44.85865" lon="4.24991">
        <ele>1095.6</ele>
        <time>2021-06-06T09:49:08Z</time>
      </trkpt>
      <trkpt lat="44.8586" lon="4.24983">
        <ele>1096.8</ele>
        <time>2021-06-06T09:49:12Z</time>
      </trkpt>
      <trkpt lat="44.85855" lon="4.24974">
        <ele>1097</ele>
        <time>2021-06-06T09:49:16Z</time>
      </trkpt>
      <trkpt lat="44.85849" lon="4.24967">
        <ele>1097.6</ele>
        <time>2021-06-06T09:49:20Z</time>
      </trkpt>
      <trkpt lat="44.85844" lon="4.24959">
        <ele>1098.4</ele>
        <time>2021-06-06T09:49:24Z</time>
      </trkpt>
      <trkpt lat="44.85838" lon="4.2495">
        <ele>1098.8</ele>
        <time>2021-06-06T09:49:28Z</time>
      </trkpt>
      <trkpt lat="44.85833" lon="4.24942">
        <ele>1099.6</ele>
        <time>2021-06-06T09:49:32Z</time>
      </trkpt>
      <trkpt lat="44.85829" lon="4.24933">
        <ele>1100.2</ele>
        <time>2021-06-06T09:49:36Z</time>
      </trkpt>
      <trkpt lat="44.85824" lon="4.24925">
        <ele>1100.8</ele>
        <time>2021-06-06T09:49:40Z</time>
      </trkpt>
      <trkpt lat="44.8582" lon="4.24916">
        <ele>1101.2</ele>
        <time>2021-06-06T09:49:44Z</time>
      </trkpt>
      <trkpt lat="44.85815" lon="4.24906">
        <ele>1101.6</ele>
        <time>2021-06-06T09:49:48Z</time>
      </trkpt>
      <trkpt lat="44.85811" lon="4.24897">
        <ele>1102</ele>
        <time>2021-06-06T09:49:52Z</time>
      </trkpt>
      <trkpt lat="44.85807" lon="4.24887">
        <ele>1103.2</ele>
        <time>2021-06-06T09:49:56Z</time>
      </trkpt>
      <trkpt lat="44.85802" lon="4.24877">
        <ele>1103.6</ele>
        <time>2021-06-06T09:50:00Z</time>
      </trkpt>
      <trkpt lat="44.85796" lon="4.24868">
        <ele>1104.4</ele>
        <time>2021-06-06T09:50:04Z</time>
      </trkpt>
      <trkpt lat="44.85789" lon="4.24861">
        <ele>1105</ele>
        <time>2021-06-06T09:50:08Z</time>
      </trkpt>
      <trkpt lat="44.85785" lon="4.24855">
        <ele>1106</ele>
        <time>2021-06-06T09:50:12Z</time>
      </trkpt>
      <trkpt lat="44.85779" lon="4.24849">
        <ele>1106.6</ele>
        <time>2021-06-06T09:50:16Z</time>
      </trkpt>
      <trkpt lat="44.85773" lon="4.24845">
        <ele>1107</ele>
        <time>2021-06-06T09:50:20Z</time>
      </trkpt>
      <trkpt lat="44.85769" lon="4.24841">
        <ele>1107.6</ele>
        <time>2021-06-06T09:50:24Z</time>
      </trkpt>
      <trkpt lat="44.85763" lon="4.24841">
        <ele>1108.2</ele>
        <time>2021-06-06T09:50:28Z</time>
      </trkpt>
      <trkpt lat="44.85753" lon="4.24838">
        <ele>1109</ele>
        <time>2021-06-06T09:50:32Z</time>
      </trkpt>
      <trkpt lat="44.85746" lon="4.24834">
        <ele>1109.6</ele>
        <time>2021-06-06T09:50:36Z</time>
      </trkpt>
      <trkpt lat="44.85736" lon="4.24832">
        <ele>1110.4</ele>
        <time>2021-06-06T09:50:40Z</time>
      </trkpt>
      <trkpt lat="44.85728" lon="4.2483">
        <ele>1110.8</ele>
        <time>2021-06-06T09:50:44Z</time>
      </trkpt>
      <trkpt lat="44.8572" lon="4.24829">
        <ele>1111.6</ele>
        <time>2021-06-06T09:50:48Z</time>
      </trkpt>
      <trkpt lat="44.85713" lon="4.24827">
        <ele>1112</ele>
        <time>2021-06-06T09:50:52Z</time>
      </trkpt>
      <trkpt lat="44.85704" lon="4.24825">
        <ele>1112.6</ele>
        <time>2021-06-06T09:50:56Z</time>
      </trkpt>
      <trkpt lat="44.85697" lon="4.24821">
        <ele>1113</ele>
        <time>2021-06-06T09:51:00Z</time>
      </trkpt>
      <trkpt lat="44.8569" lon="4.24817">
        <ele>1114</ele>
        <time>2021-06-06T09:51:04Z</time>
      </trkpt>
      <trkpt lat="44.85682" lon="4.24816">
        <ele>1114.4</ele>
        <time>2021-06-06T09:51:08Z</time>
      </trkpt>
      <trkpt lat="44.85672" lon="4.24813">
        <ele>1114.4</ele>
        <time>2021-06-06T09:51:12Z</time>
      </trkpt>
      <trkpt lat="44.85663" lon="4.24812">
        <ele>1115.4</ele>
        <time>2021-06-06T09:51:16Z</time>
      </trkpt>
      <trkpt lat="44.85655" lon="4.24811">
        <ele>1116.2</ele>
        <time>2021-06-06T09:51:20Z</time>
      </trkpt>
      <trkpt lat="44.85649" lon="4.2481">
        <ele>1116.8</ele>
        <time>2021-06-06T09:51:24Z</time>
      </trkpt>
      <trkpt lat="44.8564" lon="4.24808">
        <ele>1118.4</ele>
        <time>2021-06-06T09:51:28Z</time>
      </trkpt>
      <trkpt lat="44.85633" lon="4.24806">
        <ele>1119</ele>
        <time>2021-06-06T09:51:32Z</time>
      </trkpt>
      <trkpt lat="44.85627" lon="4.24803">
        <ele>1119.6</ele>
        <time>2021-06-06T09:51:36Z</time>
      </trkpt>
      <trkpt lat="44.8562" lon="4.24799">
        <ele>1119.6</ele>
        <time>2021-06-06T09:51:40Z</time>
      </trkpt>
      <trkpt lat="44.85613" lon="4.24793">
        <ele>1120.4</ele>
        <time>2021-06-06T09:51:44Z</time>
      </trkpt>
      <trkpt lat="44.85606" lon="4.2479">
        <ele>1120.6</ele>
        <time>2021-06-06T09:51:48Z</time>
      </trkpt>
      <trkpt lat="44.85598" lon="4.24786">
        <ele>1121.4</ele>
        <time>2021-06-06T09:51:52Z</time>
      </trkpt>
      <trkpt lat="44.85592" lon="4.24775">
        <ele>1122.4</ele>
        <time>2021-06-06T09:51:56Z</time>
      </trkpt>
      <trkpt lat="44.85585" lon="4.24764">
        <ele>1122.4</ele>
        <time>2021-06-06T09:52:00Z</time>
      </trkpt>
      <trkpt lat="44.85578" lon="4.24757">
        <ele>1123</ele>
        <time>2021-06-06T09:52:04Z</time>
      </trkpt>
      <trkpt lat="44.85573" lon="4.24749">
        <ele>1123.8</ele>
        <time>2021-06-06T09:52:08Z</time>
      </trkpt>
      <trkpt lat="44.85567" lon="4.24743">
        <ele>1124.2</ele>
        <time>2021-06-06T09:52:12Z</time>
      </trkpt>
      <trkpt lat="44.85561" lon="4.24736">
        <ele>1125.2</ele>
        <time>2021-06-06T09:52:16Z</time>
      </trkpt>
      <trkpt lat="44.85556" lon="4.24725">
        <ele>1125.6</ele>
        <time>2021-06-06T09:52:20Z</time>
      </trkpt>
      <trkpt lat="44.85551" lon="4.24717">
        <ele>1126</ele>
        <time>2021-06-06T09:52:24Z</time>
      </trkpt>
      <trkpt lat="44.85545" lon="4.24709">
        <ele>1126.6</ele>
        <time>2021-06-06T09:52:28Z</time>
      </trkpt>
      <trkpt lat="44.85539" lon="4.24701">
        <ele>1127</ele>
        <time>2021-06-06T09:52:32Z</time>
      </trkpt>
      <trkpt lat="44.85534" lon="4.24693">
        <ele>1127.4</ele>
        <time>2021-06-06T09:52:36Z</time>
      </trkpt>
      <trkpt lat="44.85528" lon="4.24685">
        <ele>1128.2</ele>
        <time>2021-06-06T09:52:40Z</time>
      </trkpt>
      <trkpt lat="44.85521" lon="4.24678">
        <ele>1128.6</ele>
        <time>2021-06-06T09:52:44Z</time>
      </trkpt>
      <trkpt lat="44.85515" lon="4.24669">
        <ele>1129.2</ele>
        <time>2021-06-06T09:52:48Z</time>
      </trkpt>
      <trkpt lat="44.8551" lon="4.24661">
        <ele>1129.4</ele>
        <time>2021-06-06T09:52:52Z</time>
      </trkpt>
      <trkpt lat="44.85504" lon="4.24652">
        <ele>1130.2</ele>
        <time>2021-06-06T09:52:56Z</time>
      </trkpt>
      <trkpt lat="44.85497" lon="4.24645">
        <ele>1130.4</ele>
        <time>2021-06-06T09:53:00Z</time>
      </trkpt>
      <trkpt lat="44.85487" lon="4.2464">
        <ele>1130.4</ele>
        <time>2021-06-06T09:53:04Z</time>
      </trkpt>
      <trkpt lat="44.85477" lon="4.24642">
        <ele>1130.2</ele>
        <time>2021-06-06T09:53:08Z</time>
      </trkpt>
      <trkpt lat="44.85469" lon="4.24645">
        <ele>1131.2</ele>
        <time>2021-06-06T09:53:12Z</time>
      </trkpt>
      <trkpt lat="44.8546" lon="4.24648">
        <ele>1131.6</ele>
        <time>2021-06-06T09:53:16Z</time>
      </trkpt>
      <trkpt lat="44.85452" lon="4.24652">
        <ele>1132.4</ele>
        <time>2021-06-06T09:53:20Z</time>
      </trkpt>
      <trkpt lat="44.85443" lon="4.24652">
        <ele>1132.2</ele>
        <time>2021-06-06T09:53:24Z</time>
      </trkpt>
      <trkpt lat="44.85435" lon="4.24653">
        <ele>1133.2</ele>
        <time>2021-06-06T09:53:28Z</time>
      </trkpt>
      <trkpt lat="44.85426" lon="4.24654">
        <ele>1133.8</ele>
        <time>2021-06-06T09:53:32Z</time>
      </trkpt>
      <trkpt lat="44.85419" lon="4.24654">
        <ele>1134.2</ele>
        <time>2021-06-06T09:53:36Z</time>
      </trkpt>
      <trkpt lat="44.85411" lon="4.24653">
        <ele>1134.6</ele>
        <time>2021-06-06T09:53:40Z</time>
      </trkpt>
      <trkpt lat="44.85405" lon="4.24654">
        <ele>1135</ele>
        <time>2021-06-06T09:53:44Z</time>
      </trkpt>
      <trkpt lat="44.854" lon="4.24663">
        <ele>1135.6</ele>
        <time>2021-06-06T09:53:48Z</time>
      </trkpt>
      <trkpt lat="44.85396" lon="4.24679">
        <ele>1135.8</ele>
        <time>2021-06-06T09:53:52Z</time>
      </trkpt>
      <trkpt lat="44.854" lon="4.24692">
        <ele>1136.2</ele>
        <time>2021-06-06T09:53:56Z</time>
      </trkpt>
      <trkpt lat="44.85406" lon="4.24703">
        <ele>1136.4</ele>
        <time>2021-06-06T09:54:00Z</time>
      </trkpt>
      <trkpt lat="44.85411" lon="4.24715">
        <ele>1136.6</ele>
        <time>2021-06-06T09:54:04Z</time>
      </trkpt>
      <trkpt lat="44.85414" lon="4.24729">
        <ele>1137.4</ele>
        <time>2021-06-06T09:54:08Z</time>
      </trkpt>
      <trkpt lat="44.85414" lon="4.24741">
        <ele>1137.6</ele>
        <time>2021-06-06T09:54:12Z</time>
      </trkpt>
      <trkpt lat="44.85412" lon="4.24753">
        <ele>1138</ele>
        <time>2021-06-06T09:54:16Z</time>
      </trkpt>
      <trkpt lat="44.8541" lon="4.24764">
        <ele>1138.8</ele>
        <time>2021-06-06T09:54:20Z</time>
      </trkpt>
      <trkpt lat="44.8541" lon="4.24776">
        <ele>1139.2</ele>
        <time>2021-06-06T09:54:24Z</time>
      </trkpt>
      <trkpt lat="44.85409" lon="4.24789">
        <ele>1140.2</ele>
        <time>2021-06-06T09:54:28Z</time>
      </trkpt>
      <trkpt lat="44.85409" lon="4.24802">
        <ele>1140</ele>
        <time>2021-06-06T09:54:32Z</time>
      </trkpt>
      <trkpt lat="44.85412" lon="4.24815">
        <ele>1140.8</ele>
        <time>2021-06-06T09:54:36Z</time>
      </trkpt>
      <trkpt lat="44.85414" lon="4.24826">
        <ele>1140.6</ele>
        <time>2021-06-06T09:54:40Z</time>
      </trkpt>
      <trkpt lat="44.85417" lon="4.24839">
        <ele>1142</ele>
        <time>2021-06-06T09:54:44Z</time>
      </trkpt>
      <trkpt lat="44.85419" lon="4.24851">
        <ele>1141.4</ele>
        <time>2021-06-06T09:54:48Z</time>
      </trkpt>
      <trkpt lat="44.85421" lon="4.24864">
        <ele>1141.2</ele>
        <time>2021-06-06T09:54:52Z</time>
      </trkpt>
      <trkpt lat="44.85424" lon="4.24875">
        <ele>1142</ele>
        <time>2021-06-06T09:54:56Z</time>
      </trkpt>
      <trkpt lat="44.85426" lon="4.24887">
        <ele>1143.2</ele>
        <time>2021-06-06T09:55:00Z</time>
      </trkpt>
      <trkpt lat="44.8543" lon="4.24898">
        <ele>1143.6</ele>
        <time>2021-06-06T09:55:04Z</time>
      </trkpt>
      <trkpt lat="44.85432" lon="4.2491">
        <ele>1144.8</ele>
        <time>2021-06-06T09:55:08Z</time>
      </trkpt>
      <trkpt lat="44.85434" lon="4.24921">
        <ele>1145.2</ele>
        <time>2021-06-06T09:55:12Z</time>
      </trkpt>
      <trkpt lat="44.85435" lon="4.24932">
        <ele>1145.4</ele>
        <time>2021-06-06T09:55:16Z</time>
      </trkpt>
      <trkpt lat="44.85438" lon="4.24944">
        <ele>1146.8</ele>
        <time>2021-06-06T09:55:20Z</time>
      </trkpt>
      <trkpt lat="44.8544" lon="4.24955">
        <ele>1147.2</ele>
        <time>2021-06-06T09:55:24Z</time>
      </trkpt>
      <trkpt lat="44.85442" lon="4.24966">
        <ele>1147.6</ele>
        <time>2021-06-06T09:55:28Z</time>
      </trkpt>
      <trkpt lat="44.85444" lon="4.24977">
        <ele>1147.6</ele>
        <time>2021-06-06T09:55:32Z</time>
      </trkpt>
      <trkpt lat="44.85446" lon="4.24988">
        <ele>1148.2</ele>
        <time>2021-06-06T09:55:36Z</time>
      </trkpt>
      <trkpt lat="44.85448" lon="4.25">
        <ele>1148</ele>
        <time>2021-06-06T09:55:40Z</time>
      </trkpt>
      <trkpt lat="44.85451" lon="4.25011">
        <ele>1147</ele>
        <time>2021-06-06T09:55:44Z</time>
      </trkpt>
      <trkpt lat="44.85449" lon="4.25023">
        <ele>1154.2</ele>
        <time>2021-06-06T09:55:48Z</time>
      </trkpt>
      <trkpt lat="44.8545" lon="4.25036">
        <ele>1151.2</ele>
        <time>2021-06-06T09:55:52Z</time>
      </trkpt>
      <trkpt lat="44.85452" lon="4.25048">
        <ele>1151.6</ele>
        <time>2021-06-06T09:55:56Z</time>
      </trkpt>
      <trkpt lat="44.85456" lon="4.2506">
        <ele>1152.2</ele>
        <time>2021-06-06T09:56:00Z</time>
      </trkpt>
      <trkpt lat="44.85457" lon="4.25073">
        <ele>1152.8</ele>
        <time>2021-06-06T09:56:04Z</time>
      </trkpt>
      <trkpt lat="44.85459" lon="4.25084">
        <ele>1153.6</ele>
        <time>2021-06-06T09:56:08Z</time>
      </trkpt>
      <trkpt lat="44.85461" lon="4.25096">
        <ele>1153.8</ele>
        <time>2021-06-06T09:56:12Z</time>
      </trkpt>
      <trkpt lat="44.85462" lon="4.25108">
        <ele>1154.4</ele>
        <time>2021-06-06T09:56:16Z</time>
      </trkpt>
      <trkpt lat="44.85464" lon="4.25119">
        <ele>1155</ele>
        <time>2021-06-06T09:56:20Z</time>
      </trkpt>
      <trkpt lat="44.85465" lon="4.2513">
        <ele>1155.6</ele>
        <time>2021-06-06T09:56:24Z</time>
      </trkpt>
      <trkpt lat="44.85466" lon="4.25141">
        <ele>1156.2</ele>
        <time>2021-06-06T09:56:28Z</time>
      </trkpt>
      <trkpt lat="44.85467" lon="4.25152">
        <ele>1156</ele>
        <time>2021-06-06T09:56:32Z</time>
      </trkpt>
      <trkpt lat="44.85469" lon="4.25162">
        <ele>1157</ele>
        <time>2021-06-06T09:56:36Z</time>
      </trkpt>
      <trkpt lat="44.85469" lon="4.2517">
        <ele>1157.4</ele>
        <time>2021-06-06T09:56:40Z</time>
      </trkpt>
      <trkpt lat="44.85468" lon="4.25183">
        <ele>1158</ele>
        <time>2021-06-06T09:56:44Z</time>
      </trkpt>
      <trkpt lat="44.85468" lon="4.25192">
        <ele>1158.6</ele>
        <time>2021-06-06T09:56:48Z</time>
      </trkpt>
      <trkpt lat="44.85468" lon="4.25201">
        <ele>1159</ele>
        <time>2021-06-06T09:56:52Z</time>
      </trkpt>
      <trkpt lat="44.85466" lon="4.25213">
        <ele>1160</ele>
        <time>2021-06-06T09:56:56Z</time>
      </trkpt>
      <trkpt lat="44.85464" lon="4.25223">
        <ele>1160.6</ele>
        <time>2021-06-06T09:57:00Z</time>
      </trkpt>
      <trkpt lat="44.85462" lon="4.25233">
        <ele>1161.2</ele>
        <time>2021-06-06T09:57:04Z</time>
      </trkpt>
      <trkpt lat="44.85461" lon="4.25245">
        <ele>1161.6</ele>
        <time>2021-06-06T09:57:08Z</time>
      </trkpt>
      <trkpt lat="44.85458" lon="4.25255">
        <ele>1161.8</ele>
        <time>2021-06-06T09:57:12Z</time>
      </trkpt>
      <trkpt lat="44.85454" lon="4.25266">
        <ele>1162.2</ele>
        <time>2021-06-06T09:57:16Z</time>
      </trkpt>
      <trkpt lat="44.8545" lon="4.25277">
        <ele>1163.6</ele>
        <time>2021-06-06T09:57:20Z</time>
      </trkpt>
      <trkpt lat="44.85444" lon="4.25287">
        <ele>1164.4</ele>
        <time>2021-06-06T09:57:24Z</time>
      </trkpt>
      <trkpt lat="44.85438" lon="4.25297">
        <ele>1164.6</ele>
        <time>2021-06-06T09:57:28Z</time>
      </trkpt>
      <trkpt lat="44.85432" lon="4.25307">
        <ele>1165</ele>
        <time>2021-06-06T09:57:32Z</time>
      </trkpt>
      <trkpt lat="44.85427" lon="4.25317">
        <ele>1165.6</ele>
        <time>2021-06-06T09:57:36Z</time>
      </trkpt>
      <trkpt lat="44.85423" lon="4.25329">
        <ele>1166</ele>
        <time>2021-06-06T09:57:40Z</time>
      </trkpt>
      <trkpt lat="44.85418" lon="4.25339">
        <ele>1166.4</ele>
        <time>2021-06-06T09:57:44Z</time>
      </trkpt>
      <trkpt lat="44.85415" lon="4.2535">
        <ele>1166.4</ele>
        <time>2021-06-06T09:57:48Z</time>
      </trkpt>
      <trkpt lat="44.85413" lon="4.25362">
        <ele>1167.4</ele>
        <time>2021-06-06T09:57:52Z</time>
      </trkpt>
      <trkpt lat="44.8541" lon="4.25373">
        <ele>1168.2</ele>
        <time>2021-06-06T09:57:56Z</time>
      </trkpt>
      <trkpt lat="44.85408" lon="4.25384">
        <ele>1168.6</ele>
        <time>2021-06-06T09:58:00Z</time>
      </trkpt>
      <trkpt lat="44.85405" lon="4.25396">
        <ele>1169.4</ele>
        <time>2021-06-06T09:58:04Z</time>
      </trkpt>
      <trkpt lat="44.85401" lon="4.25407">
        <ele>1170</ele>
        <time>2021-06-06T09:58:08Z</time>
      </trkpt>
      <trkpt lat="44.85398" lon="4.25421">
        <ele>1170.6</ele>
        <time>2021-06-06T09:58:12Z</time>
      </trkpt>
      <trkpt lat="44.85395" lon="4.25434">
        <ele>1171.2</ele>
        <time>2021-06-06T09:58:16Z</time>
      </trkpt>
      <trkpt lat="44.85389" lon="4.25446">
        <ele>1171.4</ele>
        <time>2021-06-06T09:58:20Z</time>
      </trkpt>
      <trkpt lat="44.85379" lon="4.2545">
        <ele>1171.4</ele>
        <time>2021-06-06T09:58:24Z</time>
      </trkpt>
      <trkpt lat="44.85372" lon="4.25443">
        <ele>1171.4</ele>
        <time>2021-06-06T09:58:28Z</time>
      </trkpt>
      <trkpt lat="44.85368" lon="4.25434">
        <ele>1171.8</ele>
        <time>2021-06-06T09:58:32Z</time>
      </trkpt>
      <trkpt lat="44.85368" lon="4.25427">
        <ele>1172.2</ele>
        <time>2021-06-06T09:58:36Z</time>
      </trkpt>
      <trkpt lat="44.85376" lon="4.25422">
        <ele>1172</ele>
        <time>2021-06-06T09:59:16Z</time>
      </trkpt>
      <trkpt lat="44.85383" lon="4.25415">
        <ele>1172.8</ele>
        <time>2021-06-06T09:59:20Z</time>
      </trkpt>
      <trkpt lat="44.85391" lon="4.25409">
        <ele>1173.4</ele>
        <time>2021-06-06T09:59:24Z</time>
      </trkpt>
      <trkpt lat="44.85396" lon="4.25398">
        <ele>1173.4</ele>
        <time>2021-06-06T09:59:28Z</time>
      </trkpt>
      <trkpt lat="44.854" lon="4.25387">
        <ele>1173.8</ele>
        <time>2021-06-06T09:59:32Z</time>
      </trkpt>
      <trkpt lat="44.85403" lon="4.25375">
        <ele>1174.4</ele>
        <time>2021-06-06T09:59:36Z</time>
      </trkpt>
      <trkpt lat="44.85405" lon="4.25362">
        <ele>1175</ele>
        <time>2021-06-06T09:59:40Z</time>
      </trkpt>
      <trkpt lat="44.85406" lon="4.25351">
        <ele>1175.4</ele>
        <time>2021-06-06T09:59:44Z</time>
      </trkpt>
      <trkpt lat="44.85408" lon="4.25338">
        <ele>1175.6</ele>
        <time>2021-06-06T09:59:48Z</time>
      </trkpt>
      <trkpt lat="44.8541" lon="4.25326">
        <ele>1176</ele>
        <time>2021-06-06T09:59:52Z</time>
      </trkpt>
      <trkpt lat="44.85413" lon="4.25314">
        <ele>1176.8</ele>
        <time>2021-06-06T09:59:56Z</time>
      </trkpt>
      <trkpt lat="44.85417" lon="4.25302">
        <ele>1177.8</ele>
        <time>2021-06-06T10:00:00Z</time>
      </trkpt>
      <trkpt lat="44.85423" lon="4.25294">
        <ele>1178.2</ele>
        <time>2021-06-06T10:00:04Z</time>
      </trkpt>
      <trkpt lat="44.85429" lon="4.25284">
        <ele>1178.2</ele>
        <time>2021-06-06T10:00:08Z</time>
      </trkpt>
      <trkpt lat="44.85433" lon="4.25274">
        <ele>1179</ele>
        <time>2021-06-06T10:00:12Z</time>
      </trkpt>
      <trkpt lat="44.85435" lon="4.25261">
        <ele>1179.4</ele>
        <time>2021-06-06T10:00:16Z</time>
      </trkpt>
      <trkpt lat="44.85436" lon="4.25249">
        <ele>1180</ele>
        <time>2021-06-06T10:00:20Z</time>
      </trkpt>
      <trkpt lat="44.85436" lon="4.25236">
        <ele>1180.6</ele>
        <time>2021-06-06T10:00:24Z</time>
      </trkpt>
      <trkpt lat="44.85436" lon="4.25225">
        <ele>1181.2</ele>
        <time>2021-06-06T10:00:28Z</time>
      </trkpt>
      <trkpt lat="44.85435" lon="4.25212">
        <ele>1181.8</ele>
        <time>2021-06-06T10:00:32Z</time>
      </trkpt>
      <trkpt lat="44.85433" lon="4.25198">
        <ele>1182.4</ele>
        <time>2021-06-06T10:00:36Z</time>
      </trkpt>
      <trkpt lat="44.85433" lon="4.25187">
        <ele>1183</ele>
        <time>2021-06-06T10:00:40Z</time>
      </trkpt>
      <trkpt lat="44.8543" lon="4.25175">
        <ele>1183.6</ele>
        <time>2021-06-06T10:00:44Z</time>
      </trkpt>
      <trkpt lat="44.85425" lon="4.25164">
        <ele>1184.4</ele>
        <time>2021-06-06T10:00:48Z</time>
      </trkpt>
      <trkpt lat="44.85418" lon="4.25151">
        <ele>1185</ele>
        <time>2021-06-06T10:00:52Z</time>
      </trkpt>
      <trkpt lat="44.85414" lon="4.25139">
        <ele>1185.6</ele>
        <time>2021-06-06T10:00:56Z</time>
      </trkpt>
      <trkpt lat="44.85409" lon="4.25128">
        <ele>1186</ele>
        <time>2021-06-06T10:01:00Z</time>
      </trkpt>
      <trkpt lat="44.85405" lon="4.25117">
        <ele>1186.6</ele>
        <time>2021-06-06T10:01:04Z</time>
      </trkpt>
      <trkpt lat="44.85401" lon="4.25105">
        <ele>1187.2</ele>
        <time>2021-06-06T10:01:08Z</time>
      </trkpt>
      <trkpt lat="44.85397" lon="4.25092">
        <ele>1187.8</ele>
        <time>2021-06-06T10:01:12Z</time>
      </trkpt>
      <trkpt lat="44.85392" lon="4.25081">
        <ele>1188.6</ele>
        <time>2021-06-06T10:01:16Z</time>
      </trkpt>
      <trkpt lat="44.85387" lon="4.2507">
        <ele>1189.6</ele>
        <time>2021-06-06T10:01:20Z</time>
      </trkpt>
      <trkpt lat="44.85383" lon="4.25059">
        <ele>1190</ele>
        <time>2021-06-06T10:01:24Z</time>
      </trkpt>
      <trkpt lat="44.85379" lon="4.25049">
        <ele>1190.4</ele>
        <time>2021-06-06T10:01:28Z</time>
      </trkpt>
      <trkpt lat="44.85373" lon="4.25038">
        <ele>1190.8</ele>
        <time>2021-06-06T10:01:32Z</time>
      </trkpt>
      <trkpt lat="44.85368" lon="4.25028">
        <ele>1191.2</ele>
        <time>2021-06-06T10:01:36Z</time>
      </trkpt>
      <trkpt lat="44.85362" lon="4.25018">
        <ele>1192.4</ele>
        <time>2021-06-06T10:01:40Z</time>
      </trkpt>
      <trkpt lat="44.85355" lon="4.25008">
        <ele>1193.2</ele>
        <time>2021-06-06T10:01:44Z</time>
      </trkpt>
      <trkpt lat="44.8535" lon="4.24997">
        <ele>1193.8</ele>
        <time>2021-06-06T10:01:48Z</time>
      </trkpt>
      <trkpt lat="44.85345" lon="4.24986">
        <ele>1194.2</ele>
        <time>2021-06-06T10:01:52Z</time>
      </trkpt>
      <trkpt lat="44.85341" lon="4.24974">
        <ele>1194.8</ele>
        <time>2021-06-06T10:01:56Z</time>
      </trkpt>
      <trkpt lat="44.85336" lon="4.24962">
        <ele>1195.4</ele>
        <time>2021-06-06T10:02:00Z</time>
      </trkpt>
      <trkpt lat="44.85331" lon="4.24951">
        <ele>1195.6</ele>
        <time>2021-06-06T10:02:04Z</time>
      </trkpt>
      <trkpt lat="44.85327" lon="4.24939">
        <ele>1196</ele>
        <time>2021-06-06T10:02:08Z</time>
      </trkpt>
      <trkpt lat="44.85322" lon="4.24928">
        <ele>1197</ele>
        <time>2021-06-06T10:02:12Z</time>
      </trkpt>
      <trkpt lat="44.85317" lon="4.24918">
        <ele>1196.6</ele>
        <time>2021-06-06T10:02:16Z</time>
      </trkpt>
      <trkpt lat="44.85312" lon="4.24908">
        <ele>1197.8</ele>
        <time>2021-06-06T10:02:20Z</time>
      </trkpt>
      <trkpt lat="44.85307" lon="4.24899">
        <ele>1198.8</ele>
        <time>2021-06-06T10:02:24Z</time>
      </trkpt>
      <trkpt lat="44.85303" lon="4.2489">
        <ele>1198.6</ele>
        <time>2021-06-06T10:02:28Z</time>
      </trkpt>
      <trkpt lat="44.85298" lon="4.2488">
        <ele>1199</ele>
        <time>2021-06-06T10:02:32Z</time>
      </trkpt>
      <trkpt lat="44.85294" lon="4.24869">
        <ele>1200</ele>
        <time>2021-06-06T10:02:36Z</time>
      </trkpt>
      <trkpt lat="44.85291" lon="4.24859">
        <ele>1200.4</ele>
        <time>2021-06-06T10:02:40Z</time>
      </trkpt>
      <trkpt lat="44.85288" lon="4.24849">
        <ele>1201.2</ele>
        <time>2021-06-06T10:02:44Z</time>
      </trkpt>
      <trkpt lat="44.85287" lon="4.24839">
        <ele>1201.4</ele>
        <time>2021-06-06T10:02:48Z</time>
      </trkpt>
      <trkpt lat="44.85286" lon="4.24829">
        <ele>1202.4</ele>
        <time>2021-06-06T10:02:52Z</time>
      </trkpt>
      <trkpt lat="44.85284" lon="4.24819">
        <ele>1203</ele>
        <time>2021-06-06T10:02:56Z</time>
      </trkpt>
      <trkpt lat="44.85283" lon="4.2481">
        <ele>1203.4</ele>
        <time>2021-06-06T10:03:00Z</time>
      </trkpt>
      <trkpt lat="44.8528" lon="4.24799">
        <ele>1203.8</ele>
        <time>2021-06-06T10:03:04Z</time>
      </trkpt>
      <trkpt lat="44.85277" lon="4.24789">
        <ele>1204.6</ele>
        <time>2021-06-06T10:03:08Z</time>
      </trkpt>
      <trkpt lat="44.85273" lon="4.2478">
        <ele>1205</ele>
        <time>2021-06-06T10:03:12Z</time>
      </trkpt>
      <trkpt lat="44.85269" lon="4.24771">
        <ele>1205.4</ele>
        <time>2021-06-06T10:03:16Z</time>
      </trkpt>
      <trkpt lat="44.85265" lon="4.24762">
        <ele>1205.8</ele>
        <time>2021-06-06T10:03:20Z</time>
      </trkpt>
      <trkpt lat="44.8526" lon="4.24753">
        <ele>1206.6</ele>
        <time>2021-06-06T10:03:24Z</time>
      </trkpt>
      <trkpt lat="44.85256" lon="4.24744">
        <ele>1207.8</ele>
        <time>2021-06-06T10:03:28Z</time>
      </trkpt>
      <trkpt lat="44.85252" lon="4.24736">
        <ele>1207.8</ele>
        <time>2021-06-06T10:03:32Z</time>
      </trkpt>
      <trkpt lat="44.85248" lon="4.24728">
        <ele>1208.2</ele>
        <time>2021-06-06T10:03:36Z</time>
      </trkpt>
      <trkpt lat="44.85243" lon="4.24719">
        <ele>1208.8</ele>
        <time>2021-06-06T10:03:40Z</time>
      </trkpt>
      <trkpt lat="44.85239" lon="4.24711">
        <ele>1209.4</ele>
        <time>2021-06-06T10:03:44Z</time>
      </trkpt>
      <trkpt lat="44.85234" lon="4.24703">
        <ele>1209.8</ele>
        <time>2021-06-06T10:03:48Z</time>
      </trkpt>
      <trkpt lat="44.85232" lon="4.24692">
        <ele>1211</ele>
        <time>2021-06-06T10:03:52Z</time>
      </trkpt>
      <trkpt lat="44.85228" lon="4.24683">
        <ele>1211.2</ele>
        <time>2021-06-06T10:03:56Z</time>
      </trkpt>
      <trkpt lat="44.85225" lon="4.24674">
        <ele>1212</ele>
        <time>2021-06-06T10:04:00Z</time>
      </trkpt>
      <trkpt lat="44.85221" lon="4.24665">
        <ele>1212.6</ele>
        <time>2021-06-06T10:04:04Z</time>
      </trkpt>
      <trkpt lat="44.85219" lon="4.24656">
        <ele>1212.6</ele>
        <time>2021-06-06T10:04:08Z</time>
      </trkpt>
      <trkpt lat="44.8522" lon="4.24647">
        <ele>1213.2</ele>
        <time>2021-06-06T10:04:12Z</time>
      </trkpt>
      <trkpt lat="44.85221" lon="4.2464">
        <ele>1213.8</ele>
        <time>2021-06-06T10:04:16Z</time>
      </trkpt>
      <trkpt lat="44.85223" lon="4.24634">
        <ele>1214.4</ele>
        <time>2021-06-06T10:04:20Z</time>
      </trkpt>
      <trkpt lat="44.85222" lon="4.24625">
        <ele>1215</ele>
        <time>2021-06-06T10:04:24Z</time>
      </trkpt>
      <trkpt lat="44.85221" lon="4.24616">
        <ele>1216.2</ele>
        <time>2021-06-06T10:04:28Z</time>
      </trkpt>
      <trkpt lat="44.85222" lon="4.24608">
        <ele>1216.2</ele>
        <time>2021-06-06T10:04:32Z</time>
      </trkpt>
      <trkpt lat="44.85221" lon="4.24598">
        <ele>1217.4</ele>
        <time>2021-06-06T10:04:36Z</time>
      </trkpt>
      <trkpt lat="44.85222" lon="4.24589">
        <ele>1217.4</ele>
        <time>2021-06-06T10:04:40Z</time>
      </trkpt>
      <trkpt lat="44.85223" lon="4.24579">
        <ele>1218.2</ele>
        <time>2021-06-06T10:04:44Z</time>
      </trkpt>
      <trkpt lat="44.85224" lon="4.24568">
        <ele>1218.8</ele>
        <time>2021-06-06T10:04:48Z</time>
      </trkpt>
      <trkpt lat="44.85226" lon="4.24558">
        <ele>1218.8</ele>
        <time>2021-06-06T10:04:52Z</time>
      </trkpt>
      <trkpt lat="44.85229" lon="4.24545">
        <ele>1220</ele>
        <time>2021-06-06T10:04:56Z</time>
      </trkpt>
      <trkpt lat="44.85232" lon="4.24537">
        <ele>1220.2</ele>
        <time>2021-06-06T10:05:00Z</time>
      </trkpt>
      <trkpt lat="44.85232" lon="4.24521">
        <ele>1221.2</ele>
        <time>2021-06-06T10:05:04Z</time>
      </trkpt>
      <trkpt lat="44.85234" lon="4.24511">
        <ele>1222</ele>
        <time>2021-06-06T10:05:08Z</time>
      </trkpt>
      <trkpt lat="44.85238" lon="4.24503">
        <ele>1222.4</ele>
        <time>2021-06-06T10:05:12Z</time>
      </trkpt>
      <trkpt lat="44.85241" lon="4.24494">
        <ele>1222.6</ele>
        <time>2021-06-06T10:05:16Z</time>
      </trkpt>
      <trkpt lat="44.85244" lon="4.24484">
        <ele>1223.2</ele>
        <time>2021-06-06T10:05:20Z</time>
      </trkpt>
      <trkpt lat="44.85247" lon="4.24476">
        <ele>1224.6</ele>
        <time>2021-06-06T10:05:24Z</time>
      </trkpt>
      <trkpt lat="44.85249" lon="4.24466">
        <ele>1225.2</ele>
        <time>2021-06-06T10:05:28Z</time>
      </trkpt>
      <trkpt lat="44.85252" lon="4.24457">
        <ele>1226</ele>
        <time>2021-06-06T10:05:32Z</time>
      </trkpt>
      <trkpt lat="44.85255" lon="4.24449">
        <ele>1226.6</ele>
        <time>2021-06-06T10:05:36Z</time>
      </trkpt>
      <trkpt lat="44.85259" lon="4.2444">
        <ele>1226.8</ele>
        <time>2021-06-06T10:05:40Z</time>
      </trkpt>
      <trkpt lat="44.85263" lon="4.24432">
        <ele>1227.8</ele>
        <time>2021-06-06T10:05:44Z</time>
      </trkpt>
      <trkpt lat="44.85268" lon="4.24426">
        <ele>1227.8</ele>
        <time>2021-06-06T10:05:48Z</time>
      </trkpt>
      <trkpt lat="44.85274" lon="4.24423">
        <ele>1228.2</ele>
        <time>2021-06-06T10:05:52Z</time>
      </trkpt>
      <trkpt lat="44.8528" lon="4.24424">
        <ele>1229.6</ele>
        <time>2021-06-06T10:05:56Z</time>
      </trkpt>
      <trkpt lat="44.85287" lon="4.24428">
        <ele>1230.2</ele>
        <time>2021-06-06T10:06:00Z</time>
      </trkpt>
      <trkpt lat="44.85294" lon="4.24431">
        <ele>1230.6</ele>
        <time>2021-06-06T10:06:04Z</time>
      </trkpt>
      <trkpt lat="44.85301" lon="4.24433">
        <ele>1230.8</ele>
        <time>2021-06-06T10:06:08Z</time>
      </trkpt>
      <trkpt lat="44.85308" lon="4.24436">
        <ele>1231</ele>
        <time>2021-06-06T10:06:12Z</time>
      </trkpt>
      <trkpt lat="44.85314" lon="4.2444">
        <ele>1232</ele>
        <time>2021-06-06T10:06:16Z</time>
      </trkpt>
      <trkpt lat="44.85321" lon="4.24445">
        <ele>1232.2</ele>
        <time>2021-06-06T10:06:20Z</time>
      </trkpt>
      <trkpt lat="44.8533" lon="4.24444">
        <ele>1233</ele>
        <time>2021-06-06T10:06:24Z</time>
      </trkpt>
      <trkpt lat="44.85338" lon="4.24443">
        <ele>1234</ele>
        <time>2021-06-06T10:06:28Z</time>
      </trkpt>
      <trkpt lat="44.85346" lon="4.24441">
        <ele>1234.4</ele>
        <time>2021-06-06T10:06:32Z</time>
      </trkpt>
      <trkpt lat="44.85353" lon="4.24435">
        <ele>1235.2</ele>
        <time>2021-06-06T10:06:36Z</time>
      </trkpt>
      <trkpt lat="44.85359" lon="4.24429">
        <ele>1235.6</ele>
        <time>2021-06-06T10:06:40Z</time>
      </trkpt>
      <trkpt lat="44.85363" lon="4.24422">
        <ele>1236</ele>
        <time>2021-06-06T10:06:44Z</time>
      </trkpt>
      <trkpt lat="44.85368" lon="4.24416">
        <ele>1236.6</ele>
        <time>2021-06-06T10:06:48Z</time>
      </trkpt>
      <trkpt lat="44.85373" lon="4.24409">
        <ele>1239</ele>
        <time>2021-06-06T10:06:52Z</time>
      </trkpt>
      <trkpt lat="44.85377" lon="4.24402">
        <ele>1238.4</ele>
        <time>2021-06-06T10:06:56Z</time>
      </trkpt>
      <trkpt lat="44.85381" lon="4.24394">
        <ele>1239</ele>
        <time>2021-06-06T10:07:00Z</time>
      </trkpt>
      <trkpt lat="44.85386" lon="4.24387">
        <ele>1239.6</ele>
        <time>2021-06-06T10:07:04Z</time>
      </trkpt>
      <trkpt lat="44.8539" lon="4.24379">
        <ele>1240.2</ele>
        <time>2021-06-06T10:07:08Z</time>
      </trkpt>
      <trkpt lat="44.85396" lon="4.24373">
        <ele>1240.6</ele>
        <time>2021-06-06T10:07:12Z</time>
      </trkpt>
      <trkpt lat="44.85401" lon="4.24367">
        <ele>1241.4</ele>
        <time>2021-06-06T10:07:16Z</time>
      </trkpt>
      <trkpt lat="44.85407" lon="4.24361">
        <ele>1241.8</ele>
        <time>2021-06-06T10:07:20Z</time>
      </trkpt>
      <trkpt lat="44.85412" lon="4.24355">
        <ele>1241.8</ele>
        <time>2021-06-06T10:07:24Z</time>
      </trkpt>
      <trkpt lat="44.85418" lon="4.24351">
        <ele>1243</ele>
        <time>2021-06-06T10:07:28Z</time>
      </trkpt>
      <trkpt lat="44.85425" lon="4.24348">
        <ele>1243</ele>
        <time>2021-06-06T10:07:32Z</time>
      </trkpt>
      <trkpt lat="44.85432" lon="4.24343">
        <ele>1243.6</ele>
        <time>2021-06-06T10:07:36Z</time>
      </trkpt>
      <trkpt lat="44.85437" lon="4.24338">
        <ele>1243.6</ele>
        <time>2021-06-06T10:07:40Z</time>
      </trkpt>
      <trkpt lat="44.85443" lon="4.24334">
        <ele>1244.4</ele>
        <time>2021-06-06T10:07:44Z</time>
      </trkpt>
      <trkpt lat="44.85451" lon="4.24332">
        <ele>1245.2</ele>
        <time>2021-06-06T10:07:48Z</time>
      </trkpt>
      <trkpt lat="44.85459" lon="4.2433">
        <ele>1246.6</ele>
        <time>2021-06-06T10:07:52Z</time>
      </trkpt>
      <trkpt lat="44.85466" lon="4.24331">
        <ele>1247.2</ele>
        <time>2021-06-06T10:07:56Z</time>
      </trkpt>
      <trkpt lat="44.85474" lon="4.24335">
        <ele>1246.8</ele>
        <time>2021-06-06T10:08:00Z</time>
      </trkpt>
      <trkpt lat="44.85481" lon="4.2434">
        <ele>1247.4</ele>
        <time>2021-06-06T10:08:04Z</time>
      </trkpt>
      <trkpt lat="44.85485" lon="4.24345">
        <ele>1247.4</ele>
        <time>2021-06-06T10:08:08Z</time>
      </trkpt>
      <trkpt lat="44.85494" lon="4.24343">
        <ele>1248.2</ele>
        <time>2021-06-06T10:08:12Z</time>
      </trkpt>
      <trkpt lat="44.855" lon="4.24336">
        <ele>1248.6</ele>
        <time>2021-06-06T10:08:16Z</time>
      </trkpt>
      <trkpt lat="44.855" lon="4.24325">
        <ele>1249.2</ele>
        <time>2021-06-06T10:08:20Z</time>
      </trkpt>
      <trkpt lat="44.85493" lon="4.24318">
        <ele>1249.8</ele>
        <time>2021-06-06T10:08:24Z</time>
      </trkpt>
      <trkpt lat="44.85485" lon="4.24313">
        <ele>1250.2</ele>
        <time>2021-06-06T10:08:28Z</time>
      </trkpt>
      <trkpt lat="44.85476" lon="4.2431">
        <ele>1251</ele>
        <time>2021-06-06T10:08:32Z</time>
      </trkpt>
      <trkpt lat="44.85468" lon="4.24307">
        <ele>1251.2</ele>
        <time>2021-06-06T10:08:36Z</time>
      </trkpt>
      <trkpt lat="44.8546" lon="4.24305">
        <ele>1251.6</ele>
        <time>2021-06-06T10:08:40Z</time>
      </trkpt>
      <trkpt lat="44.85452" lon="4.24303">
        <ele>1252.8</ele>
        <time>2021-06-06T10:08:44Z</time>
      </trkpt>
      <trkpt lat="44.85445" lon="4.24302">
        <ele>1253.4</ele>
        <time>2021-06-06T10:08:48Z</time>
      </trkpt>
      <trkpt lat="44.85439" lon="4.24302">
        <ele>1253.8</ele>
        <time>2021-06-06T10:08:52Z</time>
      </trkpt>
      <trkpt lat="44.85431" lon="4.24302">
        <ele>1254.2</ele>
        <time>2021-06-06T10:08:56Z</time>
      </trkpt>
      <trkpt lat="44.85424" lon="4.24303">
        <ele>1255.2</ele>
        <time>2021-06-06T10:09:00Z</time>
      </trkpt>
      <trkpt lat="44.85417" lon="4.24304">
        <ele>1255.8</ele>
        <time>2021-06-06T10:09:04Z</time>
      </trkpt>
      <trkpt lat="44.85409" lon="4.24304">
        <ele>1256.2</ele>
        <time>2021-06-06T10:09:08Z</time>
      </trkpt>
      <trkpt lat="44.85402" lon="4.24305">
        <ele>1257.2</ele>
        <time>2021-06-06T10:09:12Z</time>
      </trkpt>
      <trkpt lat="44.85394" lon="4.24306">
        <ele>1257.6</ele>
        <time>2021-06-06T10:09:16Z</time>
      </trkpt>
      <trkpt lat="44.85388" lon="4.24308">
        <ele>1258.4</ele>
        <time>2021-06-06T10:09:20Z</time>
      </trkpt>
      <trkpt lat="44.85382" lon="4.24311">
        <ele>1259.2</ele>
        <time>2021-06-06T10:09:24Z</time>
      </trkpt>
      <trkpt lat="44.85374" lon="4.24313">
        <ele>1259.6</ele>
        <time>2021-06-06T10:09:28Z</time>
      </trkpt>
      <trkpt lat="44.85367" lon="4.24319">
        <ele>1260.2</ele>
        <time>2021-06-06T10:09:32Z</time>
      </trkpt>
      <trkpt lat="44.85359" lon="4.24322">
        <ele>1260.4</ele>
        <time>2021-06-06T10:09:36Z</time>
      </trkpt>
      <trkpt lat="44.85352" lon="4.24325">
        <ele>1261</ele>
        <time>2021-06-06T10:09:40Z</time>
      </trkpt>
      <trkpt lat="44.85344" lon="4.24326">
        <ele>1261.6</ele>
        <time>2021-06-06T10:09:44Z</time>
      </trkpt>
      <trkpt lat="44.85336" lon="4.24328">
        <ele>1262</ele>
        <time>2021-06-06T10:09:48Z</time>
      </trkpt>
      <trkpt lat="44.85328" lon="4.24326">
        <ele>1262.8</ele>
        <time>2021-06-06T10:09:52Z</time>
      </trkpt>
      <trkpt lat="44.8532" lon="4.24322">
        <ele>1263</ele>
        <time>2021-06-06T10:09:56Z</time>
      </trkpt>
      <trkpt lat="44.85313" lon="4.24317">
        <ele>1263.4</ele>
        <time>2021-06-06T10:10:00Z</time>
      </trkpt>
      <trkpt lat="44.85308" lon="4.24311">
        <ele>1264.4</ele>
        <time>2021-06-06T10:10:04Z</time>
      </trkpt>
      <trkpt lat="44.85305" lon="4.24303">
        <ele>1264.8</ele>
        <time>2021-06-06T10:10:08Z</time>
      </trkpt>
      <trkpt lat="44.853" lon="4.24295">
        <ele>1265.4</ele>
        <time>2021-06-06T10:10:12Z</time>
      </trkpt>
      <trkpt lat="44.85294" lon="4.24286">
        <ele>1266</ele>
        <time>2021-06-06T10:10:16Z</time>
      </trkpt>
      <trkpt lat="44.85286" lon="4.24277">
        <ele>1266.8</ele>
        <time>2021-06-06T10:10:20Z</time>
      </trkpt>
      <trkpt lat="44.8528" lon="4.24268">
        <ele>1267.8</ele>
        <time>2021-06-06T10:10:24Z</time>
      </trkpt>
      <trkpt lat="44.85275" lon="4.2426">
        <ele>1268</ele>
        <time>2021-06-06T10:10:28Z</time>
      </trkpt>
      <trkpt lat="44.85268" lon="4.24253">
        <ele>1268.8</ele>
        <time>2021-06-06T10:10:32Z</time>
      </trkpt>
      <trkpt lat="44.85261" lon="4.24246">
        <ele>1269.8</ele>
        <time>2021-06-06T10:10:36Z</time>
      </trkpt>
      <trkpt lat="44.85252" lon="4.24242">
        <ele>1270</ele>
        <time>2021-06-06T10:10:40Z</time>
      </trkpt>
      <trkpt lat="44.85246" lon="4.24236">
        <ele>1271</ele>
        <time>2021-06-06T10:10:44Z</time>
      </trkpt>
      <trkpt lat="44.85241" lon="4.2423">
        <ele>1271.4</ele>
        <time>2021-06-06T10:10:48Z</time>
      </trkpt>
      <trkpt lat="44.85234" lon="4.24223">
        <ele>1271.4</ele>
        <time>2021-06-06T10:10:52Z</time>
      </trkpt>
      <trkpt lat="44.85226" lon="4.24217">
        <ele>1271.8</ele>
        <time>2021-06-06T10:10:56Z</time>
      </trkpt>
      <trkpt lat="44.85219" lon="4.2421">
        <ele>1272.8</ele>
        <time>2021-06-06T10:11:00Z</time>
      </trkpt>
      <trkpt lat="44.85213" lon="4.24203">
        <ele>1273.6</ele>
        <time>2021-06-06T10:11:04Z</time>
      </trkpt>
      <trkpt lat="44.85209" lon="4.24194">
        <ele>1274.2</ele>
        <time>2021-06-06T10:11:08Z</time>
      </trkpt>
      <trkpt lat="44.85206" lon="4.24186">
        <ele>1274.6</ele>
        <time>2021-06-06T10:11:12Z</time>
      </trkpt>
      <trkpt lat="44.85206" lon="4.24178">
        <ele>1275.4</ele>
        <time>2021-06-06T10:11:16Z</time>
      </trkpt>
      <trkpt lat="44.85205" lon="4.24168">
        <ele>1276</ele>
        <time>2021-06-06T10:11:20Z</time>
      </trkpt>
      <trkpt lat="44.85204" lon="4.2416">
        <ele>1276.2</ele>
        <time>2021-06-06T10:11:24Z</time>
      </trkpt>
      <trkpt lat="44.85203" lon="4.24152">
        <ele>1277</ele>
        <time>2021-06-06T10:11:28Z</time>
      </trkpt>
      <trkpt lat="44.85203" lon="4.24143">
        <ele>1277.6</ele>
        <time>2021-06-06T10:11:32Z</time>
      </trkpt>
      <trkpt lat="44.85202" lon="4.24133">
        <ele>1278.4</ele>
        <time>2021-06-06T10:11:36Z</time>
      </trkpt>
      <trkpt lat="44.85198" lon="4.2412">
        <ele>1278.6</ele>
        <time>2021-06-06T10:11:40Z</time>
      </trkpt>
      <trkpt lat="44.85194" lon="4.24111">
        <ele>1279.2</ele>
        <time>2021-06-06T10:11:44Z</time>
      </trkpt>
      <trkpt lat="44.85189" lon="4.24103">
        <ele>1279.8</ele>
        <time>2021-06-06T10:11:48Z</time>
      </trkpt>
      <trkpt lat="44.85182" lon="4.24095">
        <ele>1280.4</ele>
        <time>2021-06-06T10:11:52Z</time>
      </trkpt>
      <trkpt lat="44.85175" lon="4.24091">
        <ele>1280.8</ele>
        <time>2021-06-06T10:11:56Z</time>
      </trkpt>
      <trkpt lat="44.85165" lon="4.2409">
        <ele>1281.6</ele>
        <time>2021-06-06T10:12:00Z</time>
      </trkpt>
      <trkpt lat="44.85156" lon="4.24091">
        <ele>1281.4</ele>
        <time>2021-06-06T10:12:04Z</time>
      </trkpt>
      <trkpt lat="44.85147" lon="4.24091">
        <ele>1282.4</ele>
        <time>2021-06-06T10:12:08Z</time>
      </trkpt>
      <trkpt lat="44.85138" lon="4.24092">
        <ele>1283</ele>
        <time>2021-06-06T10:12:12Z</time>
      </trkpt>
      <trkpt lat="44.8513" lon="4.24094">
        <ele>1283.2</ele>
        <time>2021-06-06T10:12:16Z</time>
      </trkpt>
      <trkpt lat="44.85122" lon="4.24095">
        <ele>1283.6</ele>
        <time>2021-06-06T10:12:20Z</time>
      </trkpt>
      <trkpt lat="44.85114" lon="4.24097">
        <ele>1284.6</ele>
        <time>2021-06-06T10:12:24Z</time>
      </trkpt>
      <trkpt lat="44.85106" lon="4.24099">
        <ele>1284.8</ele>
        <time>2021-06-06T10:12:28Z</time>
      </trkpt>
      <trkpt lat="44.85098" lon="4.24101">
        <ele>1285.4</ele>
        <time>2021-06-06T10:12:32Z</time>
      </trkpt>
      <trkpt lat="44.85091" lon="4.241">
        <ele>1286.2</ele>
        <time>2021-06-06T10:12:36Z</time>
      </trkpt>
      <trkpt lat="44.85084" lon="4.24102">
        <ele>1287</ele>
        <time>2021-06-06T10:12:40Z</time>
      </trkpt>
      <trkpt lat="44.85076" lon="4.24102">
        <ele>1287.6</ele>
        <time>2021-06-06T10:12:44Z</time>
      </trkpt>
      <trkpt lat="44.85067" lon="4.24102">
        <ele>1287.8</ele>
        <time>2021-06-06T10:12:48Z</time>
      </trkpt>
      <trkpt lat="44.85058" lon="4.24101">
        <ele>1288.4</ele>
        <time>2021-06-06T10:12:52Z</time>
      </trkpt>
      <trkpt lat="44.85049" lon="4.241">
        <ele>1288.8</ele>
        <time>2021-06-06T10:12:56Z</time>
      </trkpt>
      <trkpt lat="44.85042" lon="4.24099">
        <ele>1289.6</ele>
        <time>2021-06-06T10:13:00Z</time>
      </trkpt>
      <trkpt lat="44.85035" lon="4.24097">
        <ele>1290.4</ele>
        <time>2021-06-06T10:13:04Z</time>
      </trkpt>
      <trkpt lat="44.85028" lon="4.24092">
        <ele>1290.6</ele>
        <time>2021-06-06T10:13:08Z</time>
      </trkpt>
      <trkpt lat="44.8502" lon="4.24088">
        <ele>1291</ele>
        <time>2021-06-06T10:13:12Z</time>
      </trkpt>
      <trkpt lat="44.85011" lon="4.24087">
        <ele>1292.2</ele>
        <time>2021-06-06T10:13:16Z</time>
      </trkpt>
      <trkpt lat="44.85003" lon="4.24084">
        <ele>1292.8</ele>
        <time>2021-06-06T10:13:20Z</time>
      </trkpt>
      <trkpt lat="44.84996" lon="4.24082">
        <ele>1293.2</ele>
        <time>2021-06-06T10:13:24Z</time>
      </trkpt>
      <trkpt lat="44.84988" lon="4.24079">
        <ele>1294</ele>
        <time>2021-06-06T10:13:28Z</time>
      </trkpt>
      <trkpt lat="44.84979" lon="4.24076">
        <ele>1294.2</ele>
        <time>2021-06-06T10:13:32Z</time>
      </trkpt>
      <trkpt lat="44.8497" lon="4.24071">
        <ele>1294.8</ele>
        <time>2021-06-06T10:13:36Z</time>
      </trkpt>
      <trkpt lat="44.84962" lon="4.24065">
        <ele>1295.6</ele>
        <time>2021-06-06T10:13:40Z</time>
      </trkpt>
      <trkpt lat="44.84955" lon="4.24058">
        <ele>1296</ele>
        <time>2021-06-06T10:13:44Z</time>
      </trkpt>
      <trkpt lat="44.8495" lon="4.24048">
        <ele>1296.6</ele>
        <time>2021-06-06T10:13:48Z</time>
      </trkpt>
      <trkpt lat="44.84945" lon="4.24039">
        <ele>1297.2</ele>
        <time>2021-06-06T10:13:52Z</time>
      </trkpt>
      <trkpt lat="44.8494" lon="4.24029">
        <ele>1297.4</ele>
        <time>2021-06-06T10:13:56Z</time>
      </trkpt>
      <trkpt lat="44.84934" lon="4.2402">
        <ele>1298</ele>
        <time>2021-06-06T10:14:00Z</time>
      </trkpt>
      <trkpt lat="44.84931" lon="4.24009">
        <ele>1298.2</ele>
        <time>2021-06-06T10:14:04Z</time>
      </trkpt>
      <trkpt lat="44.84929" lon="4.23997">
        <ele>1298.8</ele>
        <time>2021-06-06T10:14:08Z</time>
      </trkpt>
      <trkpt lat="44.84927" lon="4.23986">
        <ele>1299.2</ele>
        <time>2021-06-06T10:14:12Z</time>
      </trkpt>
      <trkpt lat="44.84927" lon="4.23974">
        <ele>1300.2</ele>
        <time>2021-06-06T10:14:16Z</time>
      </trkpt>
      <trkpt lat="44.84927" lon="4.23963">
        <ele>1301.2</ele>
        <time>2021-06-06T10:14:20Z</time>
      </trkpt>
      <trkpt lat="44.84927" lon="4.23951">
        <ele>1301.4</ele>
        <time>2021-06-06T10:14:24Z</time>
      </trkpt>
      <trkpt lat="44.84927" lon="4.23939">
        <ele>1302</ele>
        <time>2021-06-06T10:14:28Z</time>
      </trkpt>
      <trkpt lat="44.84928" lon="4.23928">
        <ele>1302.8</ele>
        <time>2021-06-06T10:14:32Z</time>
      </trkpt>
      <trkpt lat="44.84929" lon="4.23917">
        <ele>1303</ele>
        <time>2021-06-06T10:14:36Z</time>
      </trkpt>
      <trkpt lat="44.8493" lon="4.23905">
        <ele>1304.2</ele>
        <time>2021-06-06T10:14:40Z</time>
      </trkpt>
      <trkpt lat="44.84932" lon="4.23894">
        <ele>1304.4</ele>
        <time>2021-06-06T10:14:44Z</time>
      </trkpt>
      <trkpt lat="44.84933" lon="4.23883">
        <ele>1304.8</ele>
        <time>2021-06-06T10:14:48Z</time>
      </trkpt>
      <trkpt lat="44.84934" lon="4.23872">
        <ele>1305.6</ele>
        <time>2021-06-06T10:14:52Z</time>
      </trkpt>
      <trkpt lat="44.84936" lon="4.23861">
        <ele>1307</ele>
        <time>2021-06-06T10:14:56Z</time>
      </trkpt>
      <trkpt lat="44.84938" lon="4.2385">
        <ele>1307.2</ele>
        <time>2021-06-06T10:15:00Z</time>
      </trkpt>
      <trkpt lat="44.84939" lon="4.23839">
        <ele>1307.8</ele>
        <time>2021-06-06T10:15:04Z</time>
      </trkpt>
      <trkpt lat="44.84941" lon="4.2383">
        <ele>1308.2</ele>
        <time>2021-06-06T10:15:08Z</time>
      </trkpt>
      <trkpt lat="44.8494" lon="4.23818">
        <ele>1309.4</ele>
        <time>2021-06-06T10:15:12Z</time>
      </trkpt>
      <trkpt lat="44.84938" lon="4.23807">
        <ele>1309.4</ele>
        <time>2021-06-06T10:15:16Z</time>
      </trkpt>
      <trkpt lat="44.84937" lon="4.23796">
        <ele>1309.8</ele>
        <time>2021-06-06T10:15:20Z</time>
      </trkpt>
      <trkpt lat="44.84933" lon="4.23785">
        <ele>1310.6</ele>
        <time>2021-06-06T10:15:24Z</time>
      </trkpt>
      <trkpt lat="44.84931" lon="4.23773">
        <ele>1311.2</ele>
        <time>2021-06-06T10:15:28Z</time>
      </trkpt>
      <trkpt lat="44.84929" lon="4.23762">
        <ele>1312</ele>
        <time>2021-06-06T10:15:32Z</time>
      </trkpt>
      <trkpt lat="44.84925" lon="4.23752">
        <ele>1312.4</ele>
        <time>2021-06-06T10:15:36Z</time>
      </trkpt>
      <trkpt lat="44.84923" lon="4.23741">
        <ele>1312.8</ele>
        <time>2021-06-06T10:15:40Z</time>
      </trkpt>
      <trkpt lat="44.8492" lon="4.23731">
        <ele>1313.4</ele>
        <time>2021-06-06T10:15:44Z</time>
      </trkpt>
      <trkpt lat="44.84918" lon="4.23722">
        <ele>1314.2</ele>
        <time>2021-06-06T10:15:48Z</time>
      </trkpt>
      <trkpt lat="44.84916" lon="4.2371">
        <ele>1314.6</ele>
        <time>2021-06-06T10:15:52Z</time>
      </trkpt>
      <trkpt lat="44.84915" lon="4.23698">
        <ele>1315.8</ele>
        <time>2021-06-06T10:15:56Z</time>
      </trkpt>
      <trkpt lat="44.84915" lon="4.23684">
        <ele>1316.2</ele>
        <time>2021-06-06T10:16:00Z</time>
      </trkpt>
      <trkpt lat="44.84914" lon="4.23672">
        <ele>1316.2</ele>
        <time>2021-06-06T10:16:04Z</time>
      </trkpt>
      <trkpt lat="44.84914" lon="4.23659">
        <ele>1316.6</ele>
        <time>2021-06-06T10:16:08Z</time>
      </trkpt>
      <trkpt lat="44.84913" lon="4.23648">
        <ele>1317.8</ele>
        <time>2021-06-06T10:16:12Z</time>
      </trkpt>
      <trkpt lat="44.84913" lon="4.23635">
        <ele>1318.8</ele>
        <time>2021-06-06T10:16:16Z</time>
      </trkpt>
      <trkpt lat="44.84911" lon="4.23622">
        <ele>1319</ele>
        <time>2021-06-06T10:16:20Z</time>
      </trkpt>
      <trkpt lat="44.84909" lon="4.23611">
        <ele>1319.4</ele>
        <time>2021-06-06T10:16:24Z</time>
      </trkpt>
      <trkpt lat="44.84905" lon="4.236">
        <ele>1319.6</ele>
        <time>2021-06-06T10:16:28Z</time>
      </trkpt>
      <trkpt lat="44.84904" lon="4.23588">
        <ele>1320.2</ele>
        <time>2021-06-06T10:16:32Z</time>
      </trkpt>
      <trkpt lat="44.84903" lon="4.23576">
        <ele>1320.8</ele>
        <time>2021-06-06T10:16:36Z</time>
      </trkpt>
      <trkpt lat="44.84901" lon="4.23566">
        <ele>1321.2</ele>
        <time>2021-06-06T10:16:40Z</time>
      </trkpt>
      <trkpt lat="44.849" lon="4.23556">
        <ele>1321.4</ele>
        <time>2021-06-06T10:16:44Z</time>
      </trkpt>
      <trkpt lat="44.84898" lon="4.23548">
        <ele>1322</ele>
        <time>2021-06-06T10:16:48Z</time>
      </trkpt>
      <trkpt lat="44.84897" lon="4.2354">
        <ele>1322.2</ele>
        <time>2021-06-06T10:16:52Z</time>
      </trkpt>
      <trkpt lat="44.84894" lon="4.23531">
        <ele>1322.8</ele>
        <time>2021-06-06T10:16:56Z</time>
      </trkpt>
      <trkpt lat="44.84895" lon="4.23523">
        <ele>1323.4</ele>
        <time>2021-06-06T10:17:00Z</time>
      </trkpt>
      <trkpt lat="44.84895" lon="4.23513">
        <ele>1324.2</ele>
        <time>2021-06-06T10:17:04Z</time>
      </trkpt>
      <trkpt lat="44.84895" lon="4.23502">
        <ele>1325.2</ele>
        <time>2021-06-06T10:17:08Z</time>
      </trkpt>
      <trkpt lat="44.84896" lon="4.23492">
        <ele>1325</ele>
        <time>2021-06-06T10:17:12Z</time>
      </trkpt>
      <trkpt lat="44.84899" lon="4.23483">
        <ele>1325.4</ele>
        <time>2021-06-06T10:17:16Z</time>
      </trkpt>
      <trkpt lat="44.84904" lon="4.23475">
        <ele>1325.8</ele>
        <time>2021-06-06T10:17:20Z</time>
      </trkpt>
      <trkpt lat="44.84908" lon="4.23465">
        <ele>1326.4</ele>
        <time>2021-06-06T10:17:24Z</time>
      </trkpt>
      <trkpt lat="44.84911" lon="4.23455">
        <ele>1326.8</ele>
        <time>2021-06-06T10:17:28Z</time>
      </trkpt>
      <trkpt lat="44.84916" lon="4.23446">
        <ele>1327.4</ele>
        <time>2021-06-06T10:17:32Z</time>
      </trkpt>
      <trkpt lat="44.84921" lon="4.23437">
        <ele>1327.6</ele>
        <time>2021-06-06T10:17:36Z</time>
      </trkpt>
      <trkpt lat="44.84927" lon="4.23429">
        <ele>1328.2</ele>
        <time>2021-06-06T10:17:40Z</time>
      </trkpt>
      <trkpt lat="44.84933" lon="4.23421">
        <ele>1328.8</ele>
        <time>2021-06-06T10:17:44Z</time>
      </trkpt>
      <trkpt lat="44.8494" lon="4.23414">
        <ele>1329.6</ele>
        <time>2021-06-06T10:17:48Z</time>
      </trkpt>
      <trkpt lat="44.84945" lon="4.23407">
        <ele>1329.8</ele>
        <time>2021-06-06T10:17:52Z</time>
      </trkpt>
      <trkpt lat="44.84952" lon="4.23401">
        <ele>1330.8</ele>
        <time>2021-06-06T10:17:56Z</time>
      </trkpt>
      <trkpt lat="44.84959" lon="4.23395">
        <ele>1330.8</ele>
        <time>2021-06-06T10:18:00Z</time>
      </trkpt>
      <trkpt lat="44.84966" lon="4.2339">
        <ele>1332</ele>
        <time>2021-06-06T10:18:04Z</time>
      </trkpt>
      <trkpt lat="44.84973" lon="4.23385">
        <ele>1332.6</ele>
        <time>2021-06-06T10:18:08Z</time>
      </trkpt>
      <trkpt lat="44.84979" lon="4.23379">
        <ele>1332.8</ele>
        <time>2021-06-06T10:18:12Z</time>
      </trkpt>
      <trkpt lat="44.84986" lon="4.23374">
        <ele>1333.6</ele>
        <time>2021-06-06T10:18:16Z</time>
      </trkpt>
      <trkpt lat="44.84993" lon="4.23368">
        <ele>1333.8</ele>
        <time>2021-06-06T10:18:20Z</time>
      </trkpt>
      <trkpt lat="44.84999" lon="4.23361">
        <ele>1334</ele>
        <time>2021-06-06T10:18:24Z</time>
      </trkpt>
      <trkpt lat="44.85005" lon="4.23355">
        <ele>1335</ele>
        <time>2021-06-06T10:18:28Z</time>
      </trkpt>
      <trkpt lat="44.85012" lon="4.23349">
        <ele>1335.2</ele>
        <time>2021-06-06T10:18:32Z</time>
      </trkpt>
      <trkpt lat="44.85019" lon="4.23343">
        <ele>1335.6</ele>
        <time>2021-06-06T10:18:36Z</time>
      </trkpt>
      <trkpt lat="44.85025" lon="4.23338">
        <ele>1336.2</ele>
        <time>2021-06-06T10:18:40Z</time>
      </trkpt>
      <trkpt lat="44.85031" lon="4.23331">
        <ele>1337.4</ele>
        <time>2021-06-06T10:18:44Z</time>
      </trkpt>
      <trkpt lat="44.85037" lon="4.23325">
        <ele>1337.4</ele>
        <time>2021-06-06T10:18:48Z</time>
      </trkpt>
      <trkpt lat="44.85042" lon="4.23317">
        <ele>1339.2</ele>
        <time>2021-06-06T10:18:52Z</time>
      </trkpt>
      <trkpt lat="44.85047" lon="4.23309">
        <ele>1338.4</ele>
        <time>2021-06-06T10:18:56Z</time>
      </trkpt>
      <trkpt lat="44.85052" lon="4.23301">
        <ele>1339</ele>
        <time>2021-06-06T10:19:00Z</time>
      </trkpt>
      <trkpt lat="44.85058" lon="4.23294">
        <ele>1339.6</ele>
        <time>2021-06-06T10:19:04Z</time>
      </trkpt>
      <trkpt lat="44.85063" lon="4.23287">
        <ele>1339.8</ele>
        <time>2021-06-06T10:19:08Z</time>
      </trkpt>
      <trkpt lat="44.8507" lon="4.23281">
        <ele>1340.6</ele>
        <time>2021-06-06T10:19:12Z</time>
      </trkpt>
      <trkpt lat="44.85076" lon="4.23276">
        <ele>1341.2</ele>
        <time>2021-06-06T10:19:16Z</time>
      </trkpt>
      <trkpt lat="44.85082" lon="4.2327">
        <ele>1341.2</ele>
        <time>2021-06-06T10:19:20Z</time>
      </trkpt>
      <trkpt lat="44.85087" lon="4.23263">
        <ele>1342.2</ele>
        <time>2021-06-06T10:19:24Z</time>
      </trkpt>
      <trkpt lat="44.85091" lon="4.23255">
        <ele>1342.6</ele>
        <time>2021-06-06T10:19:28Z</time>
      </trkpt>
      <trkpt lat="44.85092" lon="4.23245">
        <ele>1343.6</ele>
        <time>2021-06-06T10:19:32Z</time>
      </trkpt>
      <trkpt lat="44.85092" lon="4.23233">
        <ele>1344.2</ele>
        <time>2021-06-06T10:19:36Z</time>
      </trkpt>
      <trkpt lat="44.8509" lon="4.23222">
        <ele>1344.4</ele>
        <time>2021-06-06T10:19:40Z</time>
      </trkpt>
      <trkpt lat="44.85088" lon="4.23212">
        <ele>1345.4</ele>
        <time>2021-06-06T10:19:44Z</time>
      </trkpt>
      <trkpt lat="44.85085" lon="4.232">
        <ele>1345.6</ele>
        <time>2021-06-06T10:19:48Z</time>
      </trkpt>
      <trkpt lat="44.8508" lon="4.23191">
        <ele>1346.6</ele>
        <time>2021-06-06T10:19:52Z</time>
      </trkpt>
      <trkpt lat="44.85075" lon="4.23181">
        <ele>1346.8</ele>
        <time>2021-06-06T10:19:56Z</time>
      </trkpt>
      <trkpt lat="44.85069" lon="4.23172">
        <ele>1347.4</ele>
        <time>2021-06-06T10:20:00Z</time>
      </trkpt>
      <trkpt lat="44.85063" lon="4.23164">
        <ele>1347.8</ele>
        <time>2021-06-06T10:20:04Z</time>
      </trkpt>
      <trkpt lat="44.85057" lon="4.23156">
        <ele>1348.8</ele>
        <time>2021-06-06T10:20:08Z</time>
      </trkpt>
      <trkpt lat="44.85051" lon="4.23148">
        <ele>1349</ele>
        <time>2021-06-06T10:20:12Z</time>
      </trkpt>
      <trkpt lat="44.85045" lon="4.2314">
        <ele>1349.6</ele>
        <time>2021-06-06T10:20:16Z</time>
      </trkpt>
      <trkpt lat="44.8504" lon="4.2313">
        <ele>1350.2</ele>
        <time>2021-06-06T10:20:20Z</time>
      </trkpt>
      <trkpt lat="44.85037" lon="4.23121">
        <ele>1350.6</ele>
        <time>2021-06-06T10:20:24Z</time>
      </trkpt>
      <trkpt lat="44.85033" lon="4.23112">
        <ele>1351</ele>
        <time>2021-06-06T10:20:28Z</time>
      </trkpt>
      <trkpt lat="44.8503" lon="4.23102">
        <ele>1351.8</ele>
        <time>2021-06-06T10:20:32Z</time>
      </trkpt>
      <trkpt lat="44.85027" lon="4.23092">
        <ele>1352.6</ele>
        <time>2021-06-06T10:20:36Z</time>
      </trkpt>
      <trkpt lat="44.85025" lon="4.23082">
        <ele>1353.2</ele>
        <time>2021-06-06T10:20:40Z</time>
      </trkpt>
      <trkpt lat="44.85022" lon="4.23072">
        <ele>1353.4</ele>
        <time>2021-06-06T10:20:44Z</time>
      </trkpt>
      <trkpt lat="44.8502" lon="4.23062">
        <ele>1354</ele>
        <time>2021-06-06T10:20:48Z</time>
      </trkpt>
      <trkpt lat="44.85017" lon="4.23052">
        <ele>1354.2</ele>
        <time>2021-06-06T10:20:52Z</time>
      </trkpt>
      <trkpt lat="44.85014" lon="4.23041">
        <ele>1354.8</ele>
        <time>2021-06-06T10:20:56Z</time>
      </trkpt>
      <trkpt lat="44.85009" lon="4.23032">
        <ele>1354.6</ele>
        <time>2021-06-06T10:21:00Z</time>
      </trkpt>
      <trkpt lat="44.85004" lon="4.23024">
        <ele>1355.2</ele>
        <time>2021-06-06T10:21:04Z</time>
      </trkpt>
      <trkpt lat="44.84998" lon="4.23018">
        <ele>1355.2</ele>
        <time>2021-06-06T10:21:08Z</time>
      </trkpt>
      <trkpt lat="44.84994" lon="4.23009">
        <ele>1354.2</ele>
        <time>2021-06-06T10:21:12Z</time>
      </trkpt>
      <trkpt lat="44.84991" lon="4.23018">
        <ele>1353.8</ele>
        <time>2021-06-06T10:23:46Z</time>
      </trkpt>
      <trkpt lat="44.84987" lon="4.23025">
        <ele>1355.2</ele>
        <time>2021-06-06T10:23:50Z</time>
      </trkpt>
      <trkpt lat="44.84985" lon="4.23033">
        <ele>1355.4</ele>
        <time>2021-06-06T10:23:54Z</time>
      </trkpt>
      <trkpt lat="44.84987" lon="4.23041">
        <ele>1354.8</ele>
        <time>2021-06-06T10:23:58Z</time>
      </trkpt>
      <trkpt lat="44.84992" lon="4.23052">
        <ele>1355.2</ele>
        <time>2021-06-06T10:24:02Z</time>
      </trkpt>
      <trkpt lat="44.84995" lon="4.23063">
        <ele>1356.4</ele>
        <time>2021-06-06T10:24:06Z</time>
      </trkpt>
      <trkpt lat="44.84999" lon="4.23074">
        <ele>1356.6</ele>
        <time>2021-06-06T10:24:10Z</time>
      </trkpt>
      <trkpt lat="44.85002" lon="4.23084">
        <ele>1357.2</ele>
        <time>2021-06-06T10:24:14Z</time>
      </trkpt>
      <trkpt lat="44.85005" lon="4.23096">
        <ele>1357.6</ele>
        <time>2021-06-06T10:24:18Z</time>
      </trkpt>
      <trkpt lat="44.85006" lon="4.23107">
        <ele>1358</ele>
        <time>2021-06-06T10:24:22Z</time>
      </trkpt>
      <trkpt lat="44.85007" lon="4.23118">
        <ele>1358.2</ele>
        <time>2021-06-06T10:24:26Z</time>
      </trkpt>
      <trkpt lat="44.85007" lon="4.2313">
        <ele>1359.4</ele>
        <time>2021-06-06T10:24:30Z</time>
      </trkpt>
      <trkpt lat="44.85007" lon="4.23141">
        <ele>1360</ele>
        <time>2021-06-06T10:24:34Z</time>
      </trkpt>
      <trkpt lat="44.85007" lon="4.23152">
        <ele>1360.8</ele>
        <time>2021-06-06T10:24:38Z</time>
      </trkpt>
      <trkpt lat="44.85007" lon="4.23164">
        <ele>1360.8</ele>
        <time>2021-06-06T10:24:42Z</time>
      </trkpt>
      <trkpt lat="44.85006" lon="4.23175">
        <ele>1361.2</ele>
        <time>2021-06-06T10:24:46Z</time>
      </trkpt>
      <trkpt lat="44.85004" lon="4.23186">
        <ele>1362.2</ele>
        <time>2021-06-06T10:24:50Z</time>
      </trkpt>
      <trkpt lat="44.85001" lon="4.23197">
        <ele>1362</ele>
        <time>2021-06-06T10:24:54Z</time>
      </trkpt>
      <trkpt lat="44.84997" lon="4.23207">
        <ele>1363.2</ele>
        <time>2021-06-06T10:24:58Z</time>
      </trkpt>
      <trkpt lat="44.84992" lon="4.23216">
        <ele>1363</ele>
        <time>2021-06-06T10:25:02Z</time>
      </trkpt>
      <trkpt lat="44.84986" lon="4.23224">
        <ele>1365.2</ele>
        <time>2021-06-06T10:25:06Z</time>
      </trkpt>
      <trkpt lat="44.8498" lon="4.23232">
        <ele>1364.8</ele>
        <time>2021-06-06T10:25:10Z</time>
      </trkpt>
      <trkpt lat="44.84973" lon="4.23239">
        <ele>1366.2</ele>
        <time>2021-06-06T10:25:14Z</time>
      </trkpt>
      <trkpt lat="44.84966" lon="4.23245">
        <ele>1366.4</ele>
        <time>2021-06-06T10:25:18Z</time>
      </trkpt>
      <trkpt lat="44.84957" lon="4.23249">
        <ele>1367.2</ele>
        <time>2021-06-06T10:25:22Z</time>
      </trkpt>
      <trkpt lat="44.84949" lon="4.23251">
        <ele>1368.2</ele>
        <time>2021-06-06T10:25:26Z</time>
      </trkpt>
      <trkpt lat="44.84941" lon="4.23252">
        <ele>1368.6</ele>
        <time>2021-06-06T10:25:30Z</time>
      </trkpt>
      <trkpt lat="44.84933" lon="4.23254">
        <ele>1369.2</ele>
        <time>2021-06-06T10:25:34Z</time>
      </trkpt>
      <trkpt lat="44.84925" lon="4.23255">
        <ele>1369.6</ele>
        <time>2021-06-06T10:25:38Z</time>
      </trkpt>
      <trkpt lat="44.84917" lon="4.23256">
        <ele>1370.4</ele>
        <time>2021-06-06T10:25:42Z</time>
      </trkpt>
      <trkpt lat="44.84909" lon="4.23257">
        <ele>1371</ele>
        <time>2021-06-06T10:25:46Z</time>
      </trkpt>
      <trkpt lat="44.84901" lon="4.23258">
        <ele>1371.6</ele>
        <time>2021-06-06T10:25:50Z</time>
      </trkpt>
      <trkpt lat="44.84893" lon="4.23259">
        <ele>1372.4</ele>
        <time>2021-06-06T10:25:54Z</time>
      </trkpt>
      <trkpt lat="44.84885" lon="4.2326">
        <ele>1373.2</ele>
        <time>2021-06-06T10:25:58Z</time>
      </trkpt>
      <trkpt lat="44.84877" lon="4.23261">
        <ele>1373.8</ele>
        <time>2021-06-06T10:26:02Z</time>
      </trkpt>
      <trkpt lat="44.84869" lon="4.23262">
        <ele>1374</ele>
        <time>2021-06-06T10:26:06Z</time>
      </trkpt>
      <trkpt lat="44.8486" lon="4.23263">
        <ele>1374.6</ele>
        <time>2021-06-06T10:26:10Z</time>
      </trkpt>
      <trkpt lat="44.84852" lon="4.23265">
        <ele>1374.8</ele>
        <time>2021-06-06T10:26:14Z</time>
      </trkpt>
      <trkpt lat="44.84845" lon="4.23266">
        <ele>1375.6</ele>
        <time>2021-06-06T10:26:18Z</time>
      </trkpt>
      <trkpt lat="44.84837" lon="4.23268">
        <ele>1377</ele>
        <time>2021-06-06T10:26:22Z</time>
      </trkpt>
      <trkpt lat="44.84829" lon="4.23271">
        <ele>1377.4</ele>
        <time>2021-06-06T10:26:26Z</time>
      </trkpt>
      <trkpt lat="44.84821" lon="4.23272">
        <ele>1377.8</ele>
        <time>2021-06-06T10:26:30Z</time>
      </trkpt>
      <trkpt lat="44.84813" lon="4.23274">
        <ele>1378.6</ele>
        <time>2021-06-06T10:26:34Z</time>
      </trkpt>
      <trkpt lat="44.84805" lon="4.23277">
        <ele>1379</ele>
        <time>2021-06-06T10:26:38Z</time>
      </trkpt>
      <trkpt lat="44.84797" lon="4.23279">
        <ele>1379.6</ele>
        <time>2021-06-06T10:26:42Z</time>
      </trkpt>
      <trkpt lat="44.84789" lon="4.23281">
        <ele>1380.4</ele>
        <time>2021-06-06T10:26:46Z</time>
      </trkpt>
      <trkpt lat="44.84781" lon="4.23284">
        <ele>1380.4</ele>
        <time>2021-06-06T10:26:50Z</time>
      </trkpt>
      <trkpt lat="44.84773" lon="4.23286">
        <ele>1381.4</ele>
        <time>2021-06-06T10:26:54Z</time>
      </trkpt>
      <trkpt lat="44.84766" lon="4.23287">
        <ele>1382.8</ele>
        <time>2021-06-06T10:26:58Z</time>
      </trkpt>
      <trkpt lat="44.84758" lon="4.23289">
        <ele>1383.2</ele>
        <time>2021-06-06T10:27:02Z</time>
      </trkpt>
      <trkpt lat="44.8475" lon="4.23292">
        <ele>1383.4</ele>
        <time>2021-06-06T10:27:06Z</time>
      </trkpt>
      <trkpt lat="44.84742" lon="4.23294">
        <ele>1384.4</ele>
        <time>2021-06-06T10:27:10Z</time>
      </trkpt>
      <trkpt lat="44.84734" lon="4.23294">
        <ele>1385</ele>
        <time>2021-06-06T10:27:14Z</time>
      </trkpt>
      <trkpt lat="44.84724" lon="4.23292">
        <ele>1385.8</ele>
        <time>2021-06-06T10:27:18Z</time>
      </trkpt>
      <trkpt lat="44.84717" lon="4.23289">
        <ele>1386.4</ele>
        <time>2021-06-06T10:27:22Z</time>
      </trkpt>
      <trkpt lat="44.84709" lon="4.23285">
        <ele>1386.8</ele>
        <time>2021-06-06T10:27:26Z</time>
      </trkpt>
      <trkpt lat="44.84702" lon="4.2328">
        <ele>1387.6</ele>
        <time>2021-06-06T10:27:30Z</time>
      </trkpt>
      <trkpt lat="44.84695" lon="4.23275">
        <ele>1388.8</ele>
        <time>2021-06-06T10:27:34Z</time>
      </trkpt>
      <trkpt lat="44.84688" lon="4.2327">
        <ele>1389</ele>
        <time>2021-06-06T10:27:38Z</time>
      </trkpt>
      <trkpt lat="44.84681" lon="4.23264">
        <ele>1389.4</ele>
        <time>2021-06-06T10:27:42Z</time>
      </trkpt>
      <trkpt lat="44.84675" lon="4.23257">
        <ele>1390</ele>
        <time>2021-06-06T10:27:46Z</time>
      </trkpt>
      <trkpt lat="44.8467" lon="4.23248">
        <ele>1390.4</ele>
        <time>2021-06-06T10:27:50Z</time>
      </trkpt>
      <trkpt lat="44.84665" lon="4.23239">
        <ele>1391.6</ele>
        <time>2021-06-06T10:27:54Z</time>
      </trkpt>
      <trkpt lat="44.84662" lon="4.23229">
        <ele>1392</ele>
        <time>2021-06-06T10:27:58Z</time>
      </trkpt>
      <trkpt lat="44.84658" lon="4.23218">
        <ele>1392.6</ele>
        <time>2021-06-06T10:28:02Z</time>
      </trkpt>
      <trkpt lat="44.84655" lon="4.23208">
        <ele>1393.6</ele>
        <time>2021-06-06T10:28:06Z</time>
      </trkpt>
      <trkpt lat="44.84652" lon="4.23198">
        <ele>1393.2</ele>
        <time>2021-06-06T10:28:10Z</time>
      </trkpt>
      <trkpt lat="44.84649" lon="4.23188">
        <ele>1393.4</ele>
        <time>2021-06-06T10:28:14Z</time>
      </trkpt>
      <trkpt lat="44.84647" lon="4.23178">
        <ele>1394</ele>
        <time>2021-06-06T10:28:18Z</time>
      </trkpt>
      <trkpt lat="44.84644" lon="4.23168">
        <ele>1395</ele>
        <time>2021-06-06T10:28:22Z</time>
      </trkpt>
      <trkpt lat="44.84641" lon="4.23158">
        <ele>1395.6</ele>
        <time>2021-06-06T10:28:26Z</time>
      </trkpt>
      <trkpt lat="44.84638" lon="4.23148">
        <ele>1396.6</ele>
        <time>2021-06-06T10:28:30Z</time>
      </trkpt>
      <trkpt lat="44.84634" lon="4.23138">
        <ele>1397</ele>
        <time>2021-06-06T10:28:34Z</time>
      </trkpt>
      <trkpt lat="44.84631" lon="4.23129">
        <ele>1397.8</ele>
        <time>2021-06-06T10:28:38Z</time>
      </trkpt>
      <trkpt lat="44.84626" lon="4.23119">
        <ele>1398.4</ele>
        <time>2021-06-06T10:28:42Z</time>
      </trkpt>
      <trkpt lat="44.84621" lon="4.23111">
        <ele>1398.6</ele>
        <time>2021-06-06T10:28:46Z</time>
      </trkpt>
      <trkpt lat="44.84615" lon="4.23104">
        <ele>1399.6</ele>
        <time>2021-06-06T10:28:50Z</time>
      </trkpt>
      <trkpt lat="44.84609" lon="4.23096">
        <ele>1400.4</ele>
        <time>2021-06-06T10:28:54Z</time>
      </trkpt>
      <trkpt lat="44.84602" lon="4.2309">
        <ele>1401.2</ele>
        <time>2021-06-06T10:28:58Z</time>
      </trkpt>
      <trkpt lat="44.84596" lon="4.23085">
        <ele>1401.4</ele>
        <time>2021-06-06T10:29:02Z</time>
      </trkpt>
      <trkpt lat="44.8459" lon="4.23078">
        <ele>1402.4</ele>
        <time>2021-06-06T10:29:06Z</time>
      </trkpt>
      <trkpt lat="44.84583" lon="4.23073">
        <ele>1402.4</ele>
        <time>2021-06-06T10:29:10Z</time>
      </trkpt>
      <trkpt lat="44.84576" lon="4.23067">
        <ele>1403</ele>
        <time>2021-06-06T10:29:14Z</time>
      </trkpt>
      <trkpt lat="44.8457" lon="4.2306">
        <ele>1403.6</ele>
        <time>2021-06-06T10:29:18Z</time>
      </trkpt>
      <trkpt lat="44.84562" lon="4.23055">
        <ele>1404.8</ele>
        <time>2021-06-06T10:29:22Z</time>
      </trkpt>
      <trkpt lat="44.84555" lon="4.2305">
        <ele>1404.8</ele>
        <time>2021-06-06T10:29:26Z</time>
      </trkpt>
      <trkpt lat="44.84547" lon="4.23046">
        <ele>1405.8</ele>
        <time>2021-06-06T10:29:30Z</time>
      </trkpt>
      <trkpt lat="44.84539" lon="4.23043">
        <ele>1406.4</ele>
        <time>2021-06-06T10:29:34Z</time>
      </trkpt>
      <trkpt lat="44.84532" lon="4.23041">
        <ele>1407.4</ele>
        <time>2021-06-06T10:29:38Z</time>
      </trkpt>
      <trkpt lat="44.84524" lon="4.23041">
        <ele>1408</ele>
        <time>2021-06-06T10:29:42Z</time>
      </trkpt>
      <trkpt lat="44.84519" lon="4.23043">
        <ele>1408.4</ele>
        <time>2021-06-06T10:29:46Z</time>
      </trkpt>
      <trkpt lat="44.8451" lon="4.23046">
        <ele>1408.8</ele>
        <time>2021-06-06T10:29:50Z</time>
      </trkpt>
      <trkpt lat="44.84496" lon="4.2305">
        <ele>1409.8</ele>
        <time>2021-06-06T10:30:04Z</time>
      </trkpt>
      <trkpt lat="44.84487" lon="4.2305">
        <ele>1410.8</ele>
        <time>2021-06-06T10:30:08Z</time>
      </trkpt>
      <trkpt lat="44.8448" lon="4.23048">
        <ele>1411.4</ele>
        <time>2021-06-06T10:30:12Z</time>
      </trkpt>
      <trkpt lat="44.84472" lon="4.23045">
        <ele>1412.6</ele>
        <time>2021-06-06T10:30:16Z</time>
      </trkpt>
      <trkpt lat="44.84467" lon="4.2304">
        <ele>1412.8</ele>
        <time>2021-06-06T10:30:20Z</time>
      </trkpt>
      <trkpt lat="44.84461" lon="4.23033">
        <ele>1414</ele>
        <time>2021-06-06T10:30:24Z</time>
      </trkpt>
      <trkpt lat="44.84457" lon="4.23025">
        <ele>1414.6</ele>
        <time>2021-06-06T10:30:28Z</time>
      </trkpt>
      <trkpt lat="44.84452" lon="4.23015">
        <ele>1415.2</ele>
        <time>2021-06-06T10:30:32Z</time>
      </trkpt>
      <trkpt lat="44.84447" lon="4.23006">
        <ele>1415.6</ele>
        <time>2021-06-06T10:30:36Z</time>
      </trkpt>
      <trkpt lat="44.84443" lon="4.22995">
        <ele>1416.4</ele>
        <time>2021-06-06T10:30:40Z</time>
      </trkpt>
      <trkpt lat="44.84439" lon="4.22985">
        <ele>1416.4</ele>
        <time>2021-06-06T10:30:44Z</time>
      </trkpt>
      <trkpt lat="44.84436" lon="4.22974">
        <ele>1417</ele>
        <time>2021-06-06T10:30:48Z</time>
      </trkpt>
      <trkpt lat="44.84431" lon="4.22964">
        <ele>1417.4</ele>
        <time>2021-06-06T10:30:52Z</time>
      </trkpt>
      <trkpt lat="44.84428" lon="4.22954">
        <ele>1418</ele>
        <time>2021-06-06T10:30:56Z</time>
      </trkpt>
      <trkpt lat="44.84425" lon="4.22944">
        <ele>1419</ele>
        <time>2021-06-06T10:31:00Z</time>
      </trkpt>
      <trkpt lat="44.84423" lon="4.22932">
        <ele>1419.4</ele>
        <time>2021-06-06T10:31:04Z</time>
      </trkpt>
      <trkpt lat="44.84422" lon="4.2292">
        <ele>1419.8</ele>
        <time>2021-06-06T10:31:08Z</time>
      </trkpt>
      <trkpt lat="44.84418" lon="4.22905">
        <ele>1420.4</ele>
        <time>2021-06-06T10:31:12Z</time>
      </trkpt>
      <trkpt lat="44.84418" lon="4.22892">
        <ele>1421</ele>
        <time>2021-06-06T10:31:16Z</time>
      </trkpt>
      <trkpt lat="44.84418" lon="4.22878">
        <ele>1421</ele>
        <time>2021-06-06T10:31:20Z</time>
      </trkpt>
      <trkpt lat="44.84416" lon="4.22862">
        <ele>1421</ele>
        <time>2021-06-06T10:31:24Z</time>
      </trkpt>
      <trkpt lat="44.84412" lon="4.22845">
        <ele>1421.6</ele>
        <time>2021-06-06T10:31:28Z</time>
      </trkpt>
      <trkpt lat="44.84408" lon="4.2283">
        <ele>1420.6</ele>
        <time>2021-06-06T10:31:32Z</time>
      </trkpt>
      <trkpt lat="44.84399" lon="4.22816">
        <ele>1421</ele>
        <time>2021-06-06T10:31:36Z</time>
      </trkpt>
      <trkpt lat="44.84391" lon="4.22804">
        <ele>1421</ele>
        <time>2021-06-06T10:31:40Z</time>
      </trkpt>
      <trkpt lat="44.84382" lon="4.22795">
        <ele>1421.2</ele>
        <time>2021-06-06T10:31:44Z</time>
      </trkpt>
      <trkpt lat="44.84373" lon="4.22788">
        <ele>1421.6</ele>
        <time>2021-06-06T10:31:48Z</time>
      </trkpt>
      <trkpt lat="44.84366" lon="4.22781">
        <ele>1422.6</ele>
        <time>2021-06-06T10:31:52Z</time>
      </trkpt>
      <trkpt lat="44.84358" lon="4.22775">
        <ele>1423.4</ele>
        <time>2021-06-06T10:31:56Z</time>
      </trkpt>
      <trkpt lat="44.8435" lon="4.22769">
        <ele>1424</ele>
        <time>2021-06-06T10:32:00Z</time>
      </trkpt>
      <trkpt lat="44.84341" lon="4.22764">
        <ele>1424.8</ele>
        <time>2021-06-06T10:32:04Z</time>
      </trkpt>
      <trkpt lat="44.84333" lon="4.22758">
        <ele>1424.6</ele>
        <time>2021-06-06T10:32:08Z</time>
      </trkpt>
      <trkpt lat="44.84324" lon="4.22752">
        <ele>1425.6</ele>
        <time>2021-06-06T10:32:12Z</time>
      </trkpt>
      <trkpt lat="44.84318" lon="4.22745">
        <ele>1426.4</ele>
        <time>2021-06-06T10:32:16Z</time>
      </trkpt>
      <trkpt lat="44.84311" lon="4.2274">
        <ele>1426.6</ele>
        <time>2021-06-06T10:32:20Z</time>
      </trkpt>
      <trkpt lat="44.84305" lon="4.22734">
        <ele>1427.6</ele>
        <time>2021-06-06T10:32:24Z</time>
      </trkpt>
      <trkpt lat="44.84299" lon="4.22728">
        <ele>1428</ele>
        <time>2021-06-06T10:32:28Z</time>
      </trkpt>
      <trkpt lat="44.84293" lon="4.22721">
        <ele>1428.8</ele>
        <time>2021-06-06T10:32:32Z</time>
      </trkpt>
      <trkpt lat="44.84286" lon="4.22715">
        <ele>1429.2</ele>
        <time>2021-06-06T10:32:36Z</time>
      </trkpt>
      <trkpt lat="44.84279" lon="4.22707">
        <ele>1430.6</ele>
        <time>2021-06-06T10:32:40Z</time>
      </trkpt>
      <trkpt lat="44.84272" lon="4.22697">
        <ele>1430.6</ele>
        <time>2021-06-06T10:32:44Z</time>
      </trkpt>
      <trkpt lat="44.84265" lon="4.22691">
        <ele>1431.2</ele>
        <time>2021-06-06T10:32:48Z</time>
      </trkpt>
      <trkpt lat="44.84259" lon="4.22683">
        <ele>1431.4</ele>
        <time>2021-06-06T10:32:52Z</time>
      </trkpt>
      <trkpt lat="44.84252" lon="4.22674">
        <ele>1431.8</ele>
        <time>2021-06-06T10:32:56Z</time>
      </trkpt>
      <trkpt lat="44.84246" lon="4.22664">
        <ele>1433</ele>
        <time>2021-06-06T10:33:00Z</time>
      </trkpt>
      <trkpt lat="44.84241" lon="4.22656">
        <ele>1433.2</ele>
        <time>2021-06-06T10:33:04Z</time>
      </trkpt>
      <trkpt lat="44.84234" lon="4.22647">
        <ele>1433.6</ele>
        <time>2021-06-06T10:33:08Z</time>
      </trkpt>
      <trkpt lat="44.84228" lon="4.22638">
        <ele>1434.4</ele>
        <time>2021-06-06T10:33:12Z</time>
      </trkpt>
      <trkpt lat="44.84221" lon="4.22629">
        <ele>1434.4</ele>
        <time>2021-06-06T10:33:16Z</time>
      </trkpt>
      <trkpt lat="44.84212" lon="4.2262">
        <ele>1434.6</ele>
        <time>2021-06-06T10:33:20Z</time>
      </trkpt>
      <trkpt lat="44.84204" lon="4.2261">
        <ele>1435.6</ele>
        <time>2021-06-06T10:33:24Z</time>
      </trkpt>
      <trkpt lat="44.84195" lon="4.22601">
        <ele>1436</ele>
        <time>2021-06-06T10:33:28Z</time>
      </trkpt>
      <trkpt lat="44.84186" lon="4.22592">
        <ele>1436.8</ele>
        <time>2021-06-06T10:33:32Z</time>
      </trkpt>
      <trkpt lat="44.84177" lon="4.22582">
        <ele>1437</ele>
        <time>2021-06-06T10:33:36Z</time>
      </trkpt>
      <trkpt lat="44.8417" lon="4.2257">
        <ele>1437.4</ele>
        <time>2021-06-06T10:33:40Z</time>
      </trkpt>
      <trkpt lat="44.84165" lon="4.22556">
        <ele>1437.2</ele>
        <time>2021-06-06T10:33:44Z</time>
      </trkpt>
      <trkpt lat="44.84161" lon="4.22542">
        <ele>1438</ele>
        <time>2021-06-06T10:33:48Z</time>
      </trkpt>
      <trkpt lat="44.84156" lon="4.22528">
        <ele>1437.4</ele>
        <time>2021-06-06T10:33:52Z</time>
      </trkpt>
      <trkpt lat="44.84154" lon="4.22517">
        <ele>1437.8</ele>
        <time>2021-06-06T10:33:56Z</time>
      </trkpt>
      <trkpt lat="44.84152" lon="4.22508">
        <ele>1437.8</ele>
        <time>2021-06-06T10:34:00Z</time>
      </trkpt>
      <trkpt lat="44.84148" lon="4.22496">
        <ele>1438.6</ele>
        <time>2021-06-06T10:34:04Z</time>
      </trkpt>
      <trkpt lat="44.84143" lon="4.22482">
        <ele>1438.4</ele>
        <time>2021-06-06T10:34:08Z</time>
      </trkpt>
      <trkpt lat="44.84133" lon="4.22464">
        <ele>1438.8</ele>
        <time>2021-06-06T10:34:12Z</time>
      </trkpt>
      <trkpt lat="44.84122" lon="4.22444">
        <ele>1439.8</ele>
        <time>2021-06-06T10:34:16Z</time>
      </trkpt>
      <trkpt lat="44.84109" lon="4.22416">
        <ele>1438.4</ele>
        <time>2021-06-06T10:34:20Z</time>
      </trkpt>
      <trkpt lat="44.84104" lon="4.22398">
        <ele>1439</ele>
        <time>2021-06-06T10:34:24Z</time>
      </trkpt>
      <trkpt lat="44.84102" lon="4.22383">
        <ele>1439</ele>
        <time>2021-06-06T10:34:35Z</time>
      </trkpt>
      <trkpt lat="44.84101" lon="4.22372">
        <ele>1439.4</ele>
        <time>2021-06-06T10:34:39Z</time>
      </trkpt>
      <trkpt lat="44.84103" lon="4.22359">
        <ele>1439</ele>
        <time>2021-06-06T10:34:43Z</time>
      </trkpt>
      <trkpt lat="44.84104" lon="4.22347">
        <ele>1439.2</ele>
        <time>2021-06-06T10:34:47Z</time>
      </trkpt>
      <trkpt lat="44.84106" lon="4.22334">
        <ele>1439</ele>
        <time>2021-06-06T10:34:51Z</time>
      </trkpt>
      <trkpt lat="44.84107" lon="4.22321">
        <ele>1438.8</ele>
        <time>2021-06-06T10:34:55Z</time>
      </trkpt>
      <trkpt lat="44.84109" lon="4.22307">
        <ele>1438.4</ele>
        <time>2021-06-06T10:34:59Z</time>
      </trkpt>
      <trkpt lat="44.8411" lon="4.22292">
        <ele>1437.8</ele>
        <time>2021-06-06T10:35:03Z</time>
      </trkpt>
      <trkpt lat="44.84113" lon="4.22274">
        <ele>1437.8</ele>
        <time>2021-06-06T10:35:07Z</time>
      </trkpt>
      <trkpt lat="44.84116" lon="4.22256">
        <ele>1437.8</ele>
        <time>2021-06-06T10:35:11Z</time>
      </trkpt>
      <trkpt lat="44.84118" lon="4.22237">
        <ele>1438</ele>
        <time>2021-06-06T10:35:15Z</time>
      </trkpt>
      <trkpt lat="44.84122" lon="4.2222">
        <ele>1438</ele>
        <time>2021-06-06T10:35:19Z</time>
      </trkpt>
      <trkpt lat="44.84125" lon="4.22202">
        <ele>1438.6</ele>
        <time>2021-06-06T10:35:23Z</time>
      </trkpt>
      <trkpt lat="44.84128" lon="4.22184">
        <ele>1438.6</ele>
        <time>2021-06-06T10:35:27Z</time>
      </trkpt>
      <trkpt lat="44.84131" lon="4.22166">
        <ele>1438.4</ele>
        <time>2021-06-06T10:35:31Z</time>
      </trkpt>
      <trkpt lat="44.84134" lon="4.22147">
        <ele>1438</ele>
        <time>2021-06-06T10:35:35Z</time>
      </trkpt>
      <trkpt lat="44.84138" lon="4.22127">
        <ele>1437.6</ele>
        <time>2021-06-06T10:35:39Z</time>
      </trkpt>
      <trkpt lat="44.84142" lon="4.22107">
        <ele>1437.8</ele>
        <time>2021-06-06T10:35:43Z</time>
      </trkpt>
      <trkpt lat="44.84146" lon="4.22086">
        <ele>1438.2</ele>
        <time>2021-06-06T10:35:47Z</time>
      </trkpt>
      <trkpt lat="44.84151" lon="4.22066">
        <ele>1438.4</ele>
        <time>2021-06-06T10:35:51Z</time>
      </trkpt>
      <trkpt lat="44.84155" lon="4.22044">
        <ele>1438.2</ele>
        <time>2021-06-06T10:35:55Z</time>
      </trkpt>
      <trkpt lat="44.84159" lon="4.22022">
        <ele>1438.2</ele>
        <time>2021-06-06T10:35:59Z</time>
      </trkpt>
      <trkpt lat="44.84164" lon="4.22001">
        <ele>1438.6</ele>
        <time>2021-06-06T10:36:03Z</time>
      </trkpt>
      <trkpt lat="44.84167" lon="4.21985">
        <ele>1439.2</ele>
        <time>2021-06-06T10:36:07Z</time>
      </trkpt>
      <trkpt lat="44.84171" lon="4.21971">
        <ele>1439.4</ele>
        <time>2021-06-06T10:36:11Z</time>
      </trkpt>
      <trkpt lat="44.84173" lon="4.2196">
        <ele>1439.2</ele>
        <time>2021-06-06T10:36:15Z</time>
      </trkpt>
      <trkpt lat="44.84174" lon="4.21953">
        <ele>1438.8</ele>
        <time>2021-06-06T10:36:19Z</time>
      </trkpt>
      <trkpt lat="44.84181" lon="4.21878">
        <ele>1437.8</ele>
        <time>2021-06-06T10:57:49Z</time>
      </trkpt>
      <trkpt lat="44.84183" lon="4.21863">
        <ele>1437.2</ele>
        <time>2021-06-06T10:57:53Z</time>
      </trkpt>
      <trkpt lat="44.84186" lon="4.21847">
        <ele>1437.2</ele>
        <time>2021-06-06T10:57:57Z</time>
      </trkpt>
      <trkpt lat="44.84189" lon="4.2183">
        <ele>1437.2</ele>
        <time>2021-06-06T10:58:01Z</time>
      </trkpt>
      <trkpt lat="44.84193" lon="4.21811">
        <ele>1437.4</ele>
        <time>2021-06-06T10:58:05Z</time>
      </trkpt>
      <trkpt lat="44.842" lon="4.21793">
        <ele>1438.4</ele>
        <time>2021-06-06T10:58:09Z</time>
      </trkpt>
      <trkpt lat="44.84206" lon="4.21776">
        <ele>1438.4</ele>
        <time>2021-06-06T10:58:13Z</time>
      </trkpt>
      <trkpt lat="44.84213" lon="4.21759">
        <ele>1438.2</ele>
        <time>2021-06-06T10:58:17Z</time>
      </trkpt>
      <trkpt lat="44.8422" lon="4.21742">
        <ele>1437.8</ele>
        <time>2021-06-06T10:58:21Z</time>
      </trkpt>
      <trkpt lat="44.84228" lon="4.21725">
        <ele>1437.8</ele>
        <time>2021-06-06T10:58:25Z</time>
      </trkpt>
      <trkpt lat="44.84238" lon="4.21709">
        <ele>1436.6</ele>
        <time>2021-06-06T10:58:29Z</time>
      </trkpt>
      <trkpt lat="44.84249" lon="4.21693">
        <ele>1435.4</ele>
        <time>2021-06-06T10:58:33Z</time>
      </trkpt>
      <trkpt lat="44.84262" lon="4.21677">
        <ele>1436.2</ele>
        <time>2021-06-06T10:58:37Z</time>
      </trkpt>
      <trkpt lat="44.84275" lon="4.21663">
        <ele>1436</ele>
        <time>2021-06-06T10:58:41Z</time>
      </trkpt>
      <trkpt lat="44.84288" lon="4.21651">
        <ele>1436.2</ele>
        <time>2021-06-06T10:58:45Z</time>
      </trkpt>
      <trkpt lat="44.84302" lon="4.21637">
        <ele>1436.2</ele>
        <time>2021-06-06T10:58:49Z</time>
      </trkpt>
      <trkpt lat="44.84316" lon="4.21625">
        <ele>1437</ele>
        <time>2021-06-06T10:58:53Z</time>
      </trkpt>
      <trkpt lat="44.84327" lon="4.2161">
        <ele>1435.8</ele>
        <time>2021-06-06T10:58:57Z</time>
      </trkpt>
      <trkpt lat="44.84337" lon="4.21594">
        <ele>1436.2</ele>
        <time>2021-06-06T10:59:01Z</time>
      </trkpt>
      <trkpt lat="44.84345" lon="4.21573">
        <ele>1435.2</ele>
        <time>2021-06-06T10:59:05Z</time>
      </trkpt>
      <trkpt lat="44.84351" lon="4.21555">
        <ele>1436.2</ele>
        <time>2021-06-06T10:59:09Z</time>
      </trkpt>
      <trkpt lat="44.84358" lon="4.21537">
        <ele>1436.4</ele>
        <time>2021-06-06T10:59:13Z</time>
      </trkpt>
      <trkpt lat="44.84365" lon="4.21518">
        <ele>1436.2</ele>
        <time>2021-06-06T10:59:17Z</time>
      </trkpt>
      <trkpt lat="44.84372" lon="4.21499">
        <ele>1436</ele>
        <time>2021-06-06T10:59:21Z</time>
      </trkpt>
      <trkpt lat="44.84379" lon="4.21479">
        <ele>1436</ele>
        <time>2021-06-06T10:59:25Z</time>
      </trkpt>
      <trkpt lat="44.84386" lon="4.21457">
        <ele>1435.2</ele>
        <time>2021-06-06T10:59:29Z</time>
      </trkpt>
      <trkpt lat="44.84392" lon="4.21435">
        <ele>1436.6</ele>
        <time>2021-06-06T10:59:33Z</time>
      </trkpt>
      <trkpt lat="44.84397" lon="4.21412">
        <ele>1435.6</ele>
        <time>2021-06-06T10:59:37Z</time>
      </trkpt>
      <trkpt lat="44.84401" lon="4.21392">
        <ele>1435.4</ele>
        <time>2021-06-06T10:59:41Z</time>
      </trkpt>
      <trkpt lat="44.84406" lon="4.21372">
        <ele>1436</ele>
        <time>2021-06-06T10:59:45Z</time>
      </trkpt>
      <trkpt lat="44.8441" lon="4.21352">
        <ele>1436</ele>
        <time>2021-06-06T10:59:49Z</time>
      </trkpt>
      <trkpt lat="44.84414" lon="4.21336">
        <ele>1436.2</ele>
        <time>2021-06-06T10:59:53Z</time>
      </trkpt>
      <trkpt lat="44.84417" lon="4.21321">
        <ele>1435.4</ele>
        <time>2021-06-06T10:59:57Z</time>
      </trkpt>
      <trkpt lat="44.84421" lon="4.21305">
        <ele>1435.2</ele>
        <time>2021-06-06T11:00:01Z</time>
      </trkpt>
      <trkpt lat="44.84427" lon="4.21284">
        <ele>1435</ele>
        <time>2021-06-06T11:00:05Z</time>
      </trkpt>
      <trkpt lat="44.84437" lon="4.21262">
        <ele>1433.2</ele>
        <time>2021-06-06T11:00:09Z</time>
      </trkpt>
      <trkpt lat="44.84451" lon="4.21241">
        <ele>1431.8</ele>
        <time>2021-06-06T11:00:13Z</time>
      </trkpt>
      <trkpt lat="44.84469" lon="4.21228">
        <ele>1430.2</ele>
        <time>2021-06-06T11:00:17Z</time>
      </trkpt>
      <trkpt lat="44.84487" lon="4.21218">
        <ele>1430</ele>
        <time>2021-06-06T11:00:21Z</time>
      </trkpt>
      <trkpt lat="44.84505" lon="4.21208">
        <ele>1428.4</ele>
        <time>2021-06-06T11:00:25Z</time>
      </trkpt>
      <trkpt lat="44.84521" lon="4.21197">
        <ele>1428.2</ele>
        <time>2021-06-06T11:00:29Z</time>
      </trkpt>
      <trkpt lat="44.84544" lon="4.21187">
        <ele>1427.6</ele>
        <time>2021-06-06T11:00:33Z</time>
      </trkpt>
      <trkpt lat="44.84571" lon="4.21174">
        <ele>1426.2</ele>
        <time>2021-06-06T11:00:37Z</time>
      </trkpt>
      <trkpt lat="44.84596" lon="4.21158">
        <ele>1424.8</ele>
        <time>2021-06-06T11:00:41Z</time>
      </trkpt>
      <trkpt lat="44.84622" lon="4.21142">
        <ele>1423.4</ele>
        <time>2021-06-06T11:00:45Z</time>
      </trkpt>
      <trkpt lat="44.84647" lon="4.21125">
        <ele>1421</ele>
        <time>2021-06-06T11:00:49Z</time>
      </trkpt>
      <trkpt lat="44.8467" lon="4.21105">
        <ele>1419.8</ele>
        <time>2021-06-06T11:00:53Z</time>
      </trkpt>
      <trkpt lat="44.84691" lon="4.21081">
        <ele>1419.8</ele>
        <time>2021-06-06T11:00:57Z</time>
      </trkpt>
      <trkpt lat="44.8471" lon="4.2105">
        <ele>1418.6</ele>
        <time>2021-06-06T11:01:01Z</time>
      </trkpt>
      <trkpt lat="44.84725" lon="4.21017">
        <ele>1417.6</ele>
        <time>2021-06-06T11:01:05Z</time>
      </trkpt>
      <trkpt lat="44.84737" lon="4.20978">
        <ele>1417</ele>
        <time>2021-06-06T11:01:09Z</time>
      </trkpt>
      <trkpt lat="44.84744" lon="4.20944">
        <ele>1415.4</ele>
        <time>2021-06-06T11:01:13Z</time>
      </trkpt>
      <trkpt lat="44.84746" lon="4.20917">
        <ele>1414.8</ele>
        <time>2021-06-06T11:01:43Z</time>
      </trkpt>
      <trkpt lat="44.84747" lon="4.20894">
        <ele>1413.2</ele>
        <time>2021-06-06T11:01:47Z</time>
      </trkpt>
      <trkpt lat="44.84751" lon="4.20866">
        <ele>1412.4</ele>
        <time>2021-06-06T11:01:51Z</time>
      </trkpt>
      <trkpt lat="44.84761" lon="4.20838">
        <ele>1411.6</ele>
        <time>2021-06-06T11:01:55Z</time>
      </trkpt>
      <trkpt lat="44.84772" lon="4.20808">
        <ele>1410.6</ele>
        <time>2021-06-06T11:01:59Z</time>
      </trkpt>
      <trkpt lat="44.84786" lon="4.20782">
        <ele>1410.4</ele>
        <time>2021-06-06T11:02:03Z</time>
      </trkpt>
      <trkpt lat="44.84796" lon="4.20763">
        <ele>1409.6</ele>
        <time>2021-06-06T11:02:07Z</time>
      </trkpt>
      <trkpt lat="44.84803" lon="4.2075">
        <ele>1409.6</ele>
        <time>2021-06-06T11:02:11Z</time>
      </trkpt>
      <trkpt lat="44.84809" lon="4.20737">
        <ele>1409.4</ele>
        <time>2021-06-06T11:02:15Z</time>
      </trkpt>
      <trkpt lat="44.84817" lon="4.20723">
        <ele>1409</ele>
        <time>2021-06-06T11:02:19Z</time>
      </trkpt>
      <trkpt lat="44.84826" lon="4.20703">
        <ele>1407.8</ele>
        <time>2021-06-06T11:02:23Z</time>
      </trkpt>
      <trkpt lat="44.84835" lon="4.20684">
        <ele>1406.4</ele>
        <time>2021-06-06T11:02:27Z</time>
      </trkpt>
      <trkpt lat="44.84843" lon="4.20657">
        <ele>1406.2</ele>
        <time>2021-06-06T11:02:31Z</time>
      </trkpt>
      <trkpt lat="44.84842" lon="4.2063">
        <ele>1405.8</ele>
        <time>2021-06-06T11:02:35Z</time>
      </trkpt>
      <trkpt lat="44.84828" lon="4.20602">
        <ele>1405.4</ele>
        <time>2021-06-06T11:02:39Z</time>
      </trkpt>
      <trkpt lat="44.84818" lon="4.20582">
        <ele>1405.8</ele>
        <time>2021-06-06T11:02:43Z</time>
      </trkpt>
      <trkpt lat="44.84806" lon="4.20564">
        <ele>1406.2</ele>
        <time>2021-06-06T11:02:47Z</time>
      </trkpt>
      <trkpt lat="44.84796" lon="4.20546">
        <ele>1406</ele>
        <time>2021-06-06T11:02:51Z</time>
      </trkpt>
      <trkpt lat="44.84786" lon="4.20529">
        <ele>1406</ele>
        <time>2021-06-06T11:02:55Z</time>
      </trkpt>
      <trkpt lat="44.84778" lon="4.20508">
        <ele>1405.4</ele>
        <time>2021-06-06T11:02:59Z</time>
      </trkpt>
      <trkpt lat="44.8478" lon="4.20481">
        <ele>1404.2</ele>
        <time>2021-06-06T11:03:03Z</time>
      </trkpt>
      <trkpt lat="44.84789" lon="4.20454">
        <ele>1402</ele>
        <time>2021-06-06T11:03:07Z</time>
      </trkpt>
      <trkpt lat="44.84806" lon="4.2043">
        <ele>1400.8</ele>
        <time>2021-06-06T11:03:11Z</time>
      </trkpt>
      <trkpt lat="44.84826" lon="4.2041">
        <ele>1399.2</ele>
        <time>2021-06-06T11:03:15Z</time>
      </trkpt>
      <trkpt lat="44.8485" lon="4.20394">
        <ele>1395.8</ele>
        <time>2021-06-06T11:03:19Z</time>
      </trkpt>
      <trkpt lat="44.84881" lon="4.20389">
        <ele>1394.6</ele>
        <time>2021-06-06T11:03:23Z</time>
      </trkpt>
      <trkpt lat="44.84913" lon="4.20382">
        <ele>1394</ele>
        <time>2021-06-06T11:03:27Z</time>
      </trkpt>
      <trkpt lat="44.84949" lon="4.20379">
        <ele>1389</ele>
        <time>2021-06-06T11:03:31Z</time>
      </trkpt>
      <trkpt lat="44.84986" lon="4.20378">
        <ele>1386.8</ele>
        <time>2021-06-06T11:03:35Z</time>
      </trkpt>
      <trkpt lat="44.85021" lon="4.20387">
        <ele>1384.6</ele>
        <time>2021-06-06T11:03:39Z</time>
      </trkpt>
      <trkpt lat="44.85056" lon="4.20412">
        <ele>1381.4</ele>
        <time>2021-06-06T11:03:43Z</time>
      </trkpt>
      <trkpt lat="44.85085" lon="4.2045">
        <ele>1379.4</ele>
        <time>2021-06-06T11:03:47Z</time>
      </trkpt>
      <trkpt lat="44.85121" lon="4.20484">
        <ele>1375.8</ele>
        <time>2021-06-06T11:03:51Z</time>
      </trkpt>
      <trkpt lat="44.85155" lon="4.20504">
        <ele>1373</ele>
        <time>2021-06-06T11:03:55Z</time>
      </trkpt>
      <trkpt lat="44.85189" lon="4.20514">
        <ele>1371.8</ele>
        <time>2021-06-06T11:03:59Z</time>
      </trkpt>
      <trkpt lat="44.8522" lon="4.20523">
        <ele>1373.8</ele>
        <time>2021-06-06T11:04:03Z</time>
      </trkpt>
      <trkpt lat="44.85247" lon="4.2053">
        <ele>1373</ele>
        <time>2021-06-06T11:04:07Z</time>
      </trkpt>
      <trkpt lat="44.8527" lon="4.20536">
        <ele>1373.6</ele>
        <time>2021-06-06T11:04:11Z</time>
      </trkpt>
      <trkpt lat="44.8529" lon="4.20542">
        <ele>1375.4</ele>
        <time>2021-06-06T11:04:15Z</time>
      </trkpt>
      <trkpt lat="44.85306" lon="4.20548">
        <ele>1376</ele>
        <time>2021-06-06T11:04:19Z</time>
      </trkpt>
      <trkpt lat="44.85319" lon="4.20553">
        <ele>1375.6</ele>
        <time>2021-06-06T11:04:23Z</time>
      </trkpt>
      <trkpt lat="44.85333" lon="4.20557">
        <ele>1377.8</ele>
        <time>2021-06-06T11:04:27Z</time>
      </trkpt>
      <trkpt lat="44.85349" lon="4.20558">
        <ele>1378.2</ele>
        <time>2021-06-06T11:04:31Z</time>
      </trkpt>
      <trkpt lat="44.85365" lon="4.20557">
        <ele>1377.8</ele>
        <time>2021-06-06T11:04:35Z</time>
      </trkpt>
      <trkpt lat="44.85382" lon="4.20552">
        <ele>1378.4</ele>
        <time>2021-06-06T11:04:39Z</time>
      </trkpt>
      <trkpt lat="44.85397" lon="4.20544">
        <ele>1378.2</ele>
        <time>2021-06-06T11:04:43Z</time>
      </trkpt>
      <trkpt lat="44.85397" lon="4.20544">
        <ele>1378.4</ele>
        <time>2021-06-06T11:04:47Z</time>
      </trkpt>
      <trkpt lat="44.85416" lon="4.20531">
        <ele>1378.4</ele>
        <time>2021-06-06T11:04:51Z</time>
      </trkpt>
      <trkpt lat="44.85429" lon="4.20517">
        <ele>1378.4</ele>
        <time>2021-06-06T11:04:55Z</time>
      </trkpt>
      <trkpt lat="44.8544" lon="4.20503">
        <ele>1378.8</ele>
        <time>2021-06-06T11:04:59Z</time>
      </trkpt>
      <trkpt lat="44.85449" lon="4.20494">
        <ele>1378.6</ele>
        <time>2021-06-06T11:05:03Z</time>
      </trkpt>
      <trkpt lat="44.8545" lon="4.205">
        <ele>1378.4</ele>
        <time>2021-06-06T11:05:07Z</time>
      </trkpt>
      <trkpt lat="44.85445" lon="4.20511">
        <ele>1378.8</ele>
        <time>2021-06-06T11:05:11Z</time>
      </trkpt>
      <trkpt lat="44.85451" lon="4.20492">
        <ele>1378.4</ele>
        <time>2021-06-06T11:31:17Z</time>
      </trkpt>
      <trkpt lat="44.85453" lon="4.2048">
        <ele>1378.2</ele>
        <time>2021-06-06T11:31:21Z</time>
      </trkpt>
      <trkpt lat="44.85457" lon="4.20464">
        <ele>1378.8</ele>
        <time>2021-06-06T11:31:25Z</time>
      </trkpt>
      <trkpt lat="44.85462" lon="4.20449">
        <ele>1379.8</ele>
        <time>2021-06-06T11:31:29Z</time>
      </trkpt>
      <trkpt lat="44.85466" lon="4.20433">
        <ele>1379.6</ele>
        <time>2021-06-06T11:31:33Z</time>
      </trkpt>
      <trkpt lat="44.8547" lon="4.20418">
        <ele>1380</ele>
        <time>2021-06-06T11:31:37Z</time>
      </trkpt>
      <trkpt lat="44.85473" lon="4.20403">
        <ele>1380.4</ele>
        <time>2021-06-06T11:31:41Z</time>
      </trkpt>
      <trkpt lat="44.85476" lon="4.2039">
        <ele>1380.6</ele>
        <time>2021-06-06T11:31:45Z</time>
      </trkpt>
      <trkpt lat="44.85478" lon="4.20376">
        <ele>1381.2</ele>
        <time>2021-06-06T11:31:49Z</time>
      </trkpt>
      <trkpt lat="44.85479" lon="4.20359">
        <ele>1381.6</ele>
        <time>2021-06-06T11:31:53Z</time>
      </trkpt>
      <trkpt lat="44.85482" lon="4.20344">
        <ele>1382.6</ele>
        <time>2021-06-06T11:31:57Z</time>
      </trkpt>
      <trkpt lat="44.85484" lon="4.20325">
        <ele>1382.6</ele>
        <time>2021-06-06T11:32:01Z</time>
      </trkpt>
      <trkpt lat="44.85486" lon="4.20309">
        <ele>1383.4</ele>
        <time>2021-06-06T11:32:05Z</time>
      </trkpt>
      <trkpt lat="44.85488" lon="4.2029">
        <ele>1383.6</ele>
        <time>2021-06-06T11:32:09Z</time>
      </trkpt>
      <trkpt lat="44.8549" lon="4.20274">
        <ele>1384.2</ele>
        <time>2021-06-06T11:32:13Z</time>
      </trkpt>
      <trkpt lat="44.85493" lon="4.20258">
        <ele>1384.8</ele>
        <time>2021-06-06T11:32:17Z</time>
      </trkpt>
      <trkpt lat="44.85495" lon="4.20242">
        <ele>1384.8</ele>
        <time>2021-06-06T11:32:21Z</time>
      </trkpt>
      <trkpt lat="44.85496" lon="4.20221">
        <ele>1385</ele>
        <time>2021-06-06T11:32:25Z</time>
      </trkpt>
      <trkpt lat="44.85499" lon="4.20205">
        <ele>1386</ele>
        <time>2021-06-06T11:32:29Z</time>
      </trkpt>
      <trkpt lat="44.85501" lon="4.20186">
        <ele>1386.2</ele>
        <time>2021-06-06T11:32:33Z</time>
      </trkpt>
      <trkpt lat="44.85502" lon="4.20165">
        <ele>1386.4</ele>
        <time>2021-06-06T11:32:37Z</time>
      </trkpt>
      <trkpt lat="44.85504" lon="4.20147">
        <ele>1387.2</ele>
        <time>2021-06-06T11:32:41Z</time>
      </trkpt>
      <trkpt lat="44.85507" lon="4.20131">
        <ele>1388</ele>
        <time>2021-06-06T11:32:45Z</time>
      </trkpt>
      <trkpt lat="44.85508" lon="4.20112">
        <ele>1388.2</ele>
        <time>2021-06-06T11:32:49Z</time>
      </trkpt>
      <trkpt lat="44.85512" lon="4.20096">
        <ele>1389</ele>
        <time>2021-06-06T11:32:53Z</time>
      </trkpt>
      <trkpt lat="44.85516" lon="4.20076">
        <ele>1389.2</ele>
        <time>2021-06-06T11:32:57Z</time>
      </trkpt>
      <trkpt lat="44.85521" lon="4.20056">
        <ele>1389.6</ele>
        <time>2021-06-06T11:33:01Z</time>
      </trkpt>
      <trkpt lat="44.85528" lon="4.20041">
        <ele>1390.2</ele>
        <time>2021-06-06T11:33:05Z</time>
      </trkpt>
      <trkpt lat="44.85537" lon="4.20028">
        <ele>1390.2</ele>
        <time>2021-06-06T11:33:09Z</time>
      </trkpt>
      <trkpt lat="44.85545" lon="4.20015">
        <ele>1390.4</ele>
        <time>2021-06-06T11:33:13Z</time>
      </trkpt>
      <trkpt lat="44.85554" lon="4.20001">
        <ele>1390.2</ele>
        <time>2021-06-06T11:33:17Z</time>
      </trkpt>
      <trkpt lat="44.85561" lon="4.19987">
        <ele>1390.6</ele>
        <time>2021-06-06T11:33:21Z</time>
      </trkpt>
      <trkpt lat="44.85569" lon="4.19973">
        <ele>1392.8</ele>
        <time>2021-06-06T11:33:25Z</time>
      </trkpt>
      <trkpt lat="44.85577" lon="4.19962">
        <ele>1393</ele>
        <time>2021-06-06T11:33:29Z</time>
      </trkpt>
      <trkpt lat="44.85586" lon="4.19948">
        <ele>1392</ele>
        <time>2021-06-06T11:33:33Z</time>
      </trkpt>
      <trkpt lat="44.85595" lon="4.19935">
        <ele>1393.8</ele>
        <time>2021-06-06T11:33:37Z</time>
      </trkpt>
      <trkpt lat="44.85606" lon="4.19927">
        <ele>1394.2</ele>
        <time>2021-06-06T11:33:41Z</time>
      </trkpt>
      <trkpt lat="44.85616" lon="4.1992">
        <ele>1394.6</ele>
        <time>2021-06-06T11:33:45Z</time>
      </trkpt>
      <trkpt lat="44.85626" lon="4.19914">
        <ele>1395.6</ele>
        <time>2021-06-06T11:33:49Z</time>
      </trkpt>
      <trkpt lat="44.85637" lon="4.19908">
        <ele>1396</ele>
        <time>2021-06-06T11:33:53Z</time>
      </trkpt>
      <trkpt lat="44.85645" lon="4.199">
        <ele>1396.8</ele>
        <time>2021-06-06T11:33:57Z</time>
      </trkpt>
      <trkpt lat="44.85654" lon="4.19895">
        <ele>1397.2</ele>
        <time>2021-06-06T11:34:01Z</time>
      </trkpt>
      <trkpt lat="44.85664" lon="4.19891">
        <ele>1396.8</ele>
        <time>2021-06-06T11:34:05Z</time>
      </trkpt>
      <trkpt lat="44.85673" lon="4.19889">
        <ele>1396.8</ele>
        <time>2021-06-06T11:34:09Z</time>
      </trkpt>
      <trkpt lat="44.85683" lon="4.19892">
        <ele>1398.2</ele>
        <time>2021-06-06T11:34:13Z</time>
      </trkpt>
      <trkpt lat="44.85693" lon="4.19896">
        <ele>1398</ele>
        <time>2021-06-06T11:34:17Z</time>
      </trkpt>
      <trkpt lat="44.85703" lon="4.199">
        <ele>1399.2</ele>
        <time>2021-06-06T11:34:21Z</time>
      </trkpt>
      <trkpt lat="44.85714" lon="4.19904">
        <ele>1398.8</ele>
        <time>2021-06-06T11:34:25Z</time>
      </trkpt>
      <trkpt lat="44.85724" lon="4.19909">
        <ele>1400.6</ele>
        <time>2021-06-06T11:34:29Z</time>
      </trkpt>
      <trkpt lat="44.85735" lon="4.19913">
        <ele>1400.8</ele>
        <time>2021-06-06T11:34:33Z</time>
      </trkpt>
      <trkpt lat="44.85746" lon="4.19918">
        <ele>1401.2</ele>
        <time>2021-06-06T11:34:37Z</time>
      </trkpt>
      <trkpt lat="44.85757" lon="4.19922">
        <ele>1401.2</ele>
        <time>2021-06-06T11:34:41Z</time>
      </trkpt>
      <trkpt lat="44.85769" lon="4.19927">
        <ele>1401.4</ele>
        <time>2021-06-06T11:34:45Z</time>
      </trkpt>
      <trkpt lat="44.85779" lon="4.1993">
        <ele>1401.8</ele>
        <time>2021-06-06T11:34:49Z</time>
      </trkpt>
      <trkpt lat="44.8579" lon="4.19934">
        <ele>1402</ele>
        <time>2021-06-06T11:34:53Z</time>
      </trkpt>
      <trkpt lat="44.858" lon="4.19939">
        <ele>1402.2</ele>
        <time>2021-06-06T11:34:57Z</time>
      </trkpt>
      <trkpt lat="44.85814" lon="4.1994">
        <ele>1403</ele>
        <time>2021-06-06T11:35:01Z</time>
      </trkpt>
      <trkpt lat="44.85825" lon="4.1994">
        <ele>1403.8</ele>
        <time>2021-06-06T11:35:05Z</time>
      </trkpt>
      <trkpt lat="44.85837" lon="4.19938">
        <ele>1404.2</ele>
        <time>2021-06-06T11:35:09Z</time>
      </trkpt>
      <trkpt lat="44.85849" lon="4.19933">
        <ele>1404.6</ele>
        <time>2021-06-06T11:35:13Z</time>
      </trkpt>
      <trkpt lat="44.8586" lon="4.19929">
        <ele>1404.2</ele>
        <time>2021-06-06T11:35:17Z</time>
      </trkpt>
      <trkpt lat="44.85871" lon="4.19922">
        <ele>1405.4</ele>
        <time>2021-06-06T11:35:21Z</time>
      </trkpt>
      <trkpt lat="44.8588" lon="4.19912">
        <ele>1406</ele>
        <time>2021-06-06T11:35:25Z</time>
      </trkpt>
      <trkpt lat="44.85889" lon="4.19901">
        <ele>1406.4</ele>
        <time>2021-06-06T11:35:29Z</time>
      </trkpt>
      <trkpt lat="44.85898" lon="4.1989">
        <ele>1405.8</ele>
        <time>2021-06-06T11:35:33Z</time>
      </trkpt>
      <trkpt lat="44.85904" lon="4.19876">
        <ele>1406.4</ele>
        <time>2021-06-06T11:35:37Z</time>
      </trkpt>
      <trkpt lat="44.85909" lon="4.19861">
        <ele>1407.4</ele>
        <time>2021-06-06T11:35:41Z</time>
      </trkpt>
      <trkpt lat="44.85913" lon="4.19847">
        <ele>1408.4</ele>
        <time>2021-06-06T11:35:45Z</time>
      </trkpt>
      <trkpt lat="44.85916" lon="4.19833">
        <ele>1409.2</ele>
        <time>2021-06-06T11:35:49Z</time>
      </trkpt>
      <trkpt lat="44.85919" lon="4.1982">
        <ele>1409.8</ele>
        <time>2021-06-06T11:35:53Z</time>
      </trkpt>
      <trkpt lat="44.85923" lon="4.19807">
        <ele>1410.4</ele>
        <time>2021-06-06T11:35:57Z</time>
      </trkpt>
      <trkpt lat="44.85927" lon="4.19794">
        <ele>1411</ele>
        <time>2021-06-06T11:36:01Z</time>
      </trkpt>
      <trkpt lat="44.85932" lon="4.19781">
        <ele>1411.6</ele>
        <time>2021-06-06T11:36:05Z</time>
      </trkpt>
      <trkpt lat="44.85938" lon="4.19769">
        <ele>1411.6</ele>
        <time>2021-06-06T11:36:09Z</time>
      </trkpt>
      <trkpt lat="44.85946" lon="4.19757">
        <ele>1412.2</ele>
        <time>2021-06-06T11:36:13Z</time>
      </trkpt>
      <trkpt lat="44.85954" lon="4.19747">
        <ele>1412.8</ele>
        <time>2021-06-06T11:36:17Z</time>
      </trkpt>
      <trkpt lat="44.85964" lon="4.19739">
        <ele>1413</ele>
        <time>2021-06-06T11:36:21Z</time>
      </trkpt>
      <trkpt lat="44.85975" lon="4.19734">
        <ele>1413.2</ele>
        <time>2021-06-06T11:36:25Z</time>
      </trkpt>
      <trkpt lat="44.85986" lon="4.19732">
        <ele>1414.2</ele>
        <time>2021-06-06T11:36:29Z</time>
      </trkpt>
      <trkpt lat="44.85998" lon="4.19733">
        <ele>1414.4</ele>
        <time>2021-06-06T11:36:33Z</time>
      </trkpt>
      <trkpt lat="44.8601" lon="4.19734">
        <ele>1414.4</ele>
        <time>2021-06-06T11:36:37Z</time>
      </trkpt>
      <trkpt lat="44.86024" lon="4.19736">
        <ele>1413.8</ele>
        <time>2021-06-06T11:36:41Z</time>
      </trkpt>
      <trkpt lat="44.86038" lon="4.19738">
        <ele>1414</ele>
        <time>2021-06-06T11:36:45Z</time>
      </trkpt>
      <trkpt lat="44.86051" lon="4.1974">
        <ele>1414</ele>
        <time>2021-06-06T11:36:49Z</time>
      </trkpt>
      <trkpt lat="44.86064" lon="4.19742">
        <ele>1413.6</ele>
        <time>2021-06-06T11:36:53Z</time>
      </trkpt>
      <trkpt lat="44.86076" lon="4.19744">
        <ele>1414.2</ele>
        <time>2021-06-06T11:36:57Z</time>
      </trkpt>
      <trkpt lat="44.86091" lon="4.19746">
        <ele>1414.6</ele>
        <time>2021-06-06T11:37:01Z</time>
      </trkpt>
      <trkpt lat="44.86107" lon="4.19747">
        <ele>1414.4</ele>
        <time>2021-06-06T11:37:05Z</time>
      </trkpt>
      <trkpt lat="44.86123" lon="4.19749">
        <ele>1415.2</ele>
        <time>2021-06-06T11:37:09Z</time>
      </trkpt>
      <trkpt lat="44.86138" lon="4.1975">
        <ele>1414.2</ele>
        <time>2021-06-06T11:37:13Z</time>
      </trkpt>
      <trkpt lat="44.86154" lon="4.1975">
        <ele>1416</ele>
        <time>2021-06-06T11:37:17Z</time>
      </trkpt>
      <trkpt lat="44.8617" lon="4.1975">
        <ele>1415.8</ele>
        <time>2021-06-06T11:37:21Z</time>
      </trkpt>
      <trkpt lat="44.86186" lon="4.19748">
        <ele>1415.6</ele>
        <time>2021-06-06T11:37:25Z</time>
      </trkpt>
      <trkpt lat="44.86201" lon="4.19743">
        <ele>1415.4</ele>
        <time>2021-06-06T11:37:29Z</time>
      </trkpt>
      <trkpt lat="44.86215" lon="4.19735">
        <ele>1416.8</ele>
        <time>2021-06-06T11:37:33Z</time>
      </trkpt>
      <trkpt lat="44.86228" lon="4.19727">
        <ele>1416.6</ele>
        <time>2021-06-06T11:37:37Z</time>
      </trkpt>
      <trkpt lat="44.86241" lon="4.19719">
        <ele>1416.8</ele>
        <time>2021-06-06T11:37:41Z</time>
      </trkpt>
      <trkpt lat="44.86254" lon="4.19711">
        <ele>1416.8</ele>
        <time>2021-06-06T11:37:45Z</time>
      </trkpt>
      <trkpt lat="44.86267" lon="4.19703">
        <ele>1417.2</ele>
        <time>2021-06-06T11:37:49Z</time>
      </trkpt>
      <trkpt lat="44.86281" lon="4.19696">
        <ele>1417.4</ele>
        <time>2021-06-06T11:37:53Z</time>
      </trkpt>
      <trkpt lat="44.86295" lon="4.19689">
        <ele>1417.4</ele>
        <time>2021-06-06T11:37:57Z</time>
      </trkpt>
      <trkpt lat="44.86309" lon="4.19682">
        <ele>1418</ele>
        <time>2021-06-06T11:38:01Z</time>
      </trkpt>
      <trkpt lat="44.86325" lon="4.19675">
        <ele>1418</ele>
        <time>2021-06-06T11:38:05Z</time>
      </trkpt>
      <trkpt lat="44.86341" lon="4.19669">
        <ele>1418.8</ele>
        <time>2021-06-06T11:38:09Z</time>
      </trkpt>
      <trkpt lat="44.86358" lon="4.19663">
        <ele>1418.4</ele>
        <time>2021-06-06T11:38:13Z</time>
      </trkpt>
      <trkpt lat="44.86375" lon="4.19655">
        <ele>1418.8</ele>
        <time>2021-06-06T11:38:17Z</time>
      </trkpt>
      <trkpt lat="44.8639" lon="4.19646">
        <ele>1418.6</ele>
        <time>2021-06-06T11:38:21Z</time>
      </trkpt>
      <trkpt lat="44.86404" lon="4.19635">
        <ele>1418.4</ele>
        <time>2021-06-06T11:38:25Z</time>
      </trkpt>
      <trkpt lat="44.86418" lon="4.19624">
        <ele>1418.4</ele>
        <time>2021-06-06T11:38:29Z</time>
      </trkpt>
      <trkpt lat="44.86432" lon="4.19613">
        <ele>1419</ele>
        <time>2021-06-06T11:38:33Z</time>
      </trkpt>
      <trkpt lat="44.86446" lon="4.19602">
        <ele>1419.2</ele>
        <time>2021-06-06T11:38:37Z</time>
      </trkpt>
      <trkpt lat="44.86459" lon="4.19591">
        <ele>1419.4</ele>
        <time>2021-06-06T11:38:41Z</time>
      </trkpt>
      <trkpt lat="44.86472" lon="4.1958">
        <ele>1419</ele>
        <time>2021-06-06T11:38:45Z</time>
      </trkpt>
      <trkpt lat="44.86486" lon="4.1957">
        <ele>1418.8</ele>
        <time>2021-06-06T11:38:49Z</time>
      </trkpt>
      <trkpt lat="44.865" lon="4.19559">
        <ele>1419.2</ele>
        <time>2021-06-06T11:38:53Z</time>
      </trkpt>
      <trkpt lat="44.86513" lon="4.19549">
        <ele>1420.2</ele>
        <time>2021-06-06T11:38:57Z</time>
      </trkpt>
      <trkpt lat="44.86526" lon="4.19538">
        <ele>1419.8</ele>
        <time>2021-06-06T11:39:01Z</time>
      </trkpt>
      <trkpt lat="44.8654" lon="4.19528">
        <ele>1420</ele>
        <time>2021-06-06T11:39:05Z</time>
      </trkpt>
      <trkpt lat="44.86553" lon="4.19518">
        <ele>1419</ele>
        <time>2021-06-06T11:39:09Z</time>
      </trkpt>
      <trkpt lat="44.86565" lon="4.19508">
        <ele>1420</ele>
        <time>2021-06-06T11:39:13Z</time>
      </trkpt>
      <trkpt lat="44.86576" lon="4.19495">
        <ele>1420</ele>
        <time>2021-06-06T11:39:17Z</time>
      </trkpt>
      <trkpt lat="44.86586" lon="4.19482">
        <ele>1420.2</ele>
        <time>2021-06-06T11:39:21Z</time>
      </trkpt>
      <trkpt lat="44.86595" lon="4.19469">
        <ele>1420.6</ele>
        <time>2021-06-06T11:39:25Z</time>
      </trkpt>
      <trkpt lat="44.86602" lon="4.19454">
        <ele>1420.8</ele>
        <time>2021-06-06T11:39:29Z</time>
      </trkpt>
      <trkpt lat="44.8661" lon="4.19437">
        <ele>1422</ele>
        <time>2021-06-06T11:39:33Z</time>
      </trkpt>
      <trkpt lat="44.86619" lon="4.19421">
        <ele>1421.8</ele>
        <time>2021-06-06T11:39:37Z</time>
      </trkpt>
      <trkpt lat="44.8663" lon="4.19405">
        <ele>1421.4</ele>
        <time>2021-06-06T11:39:41Z</time>
      </trkpt>
      <trkpt lat="44.86642" lon="4.19393">
        <ele>1421.6</ele>
        <time>2021-06-06T11:39:45Z</time>
      </trkpt>
      <trkpt lat="44.86656" lon="4.19383">
        <ele>1421.6</ele>
        <time>2021-06-06T11:39:49Z</time>
      </trkpt>
      <trkpt lat="44.86673" lon="4.19386">
        <ele>1420.6</ele>
        <time>2021-06-06T11:39:53Z</time>
      </trkpt>
      <trkpt lat="44.86688" lon="4.19396">
        <ele>1420.4</ele>
        <time>2021-06-06T11:39:57Z</time>
      </trkpt>
      <trkpt lat="44.86703" lon="4.19406">
        <ele>1420.8</ele>
        <time>2021-06-06T11:40:01Z</time>
      </trkpt>
      <trkpt lat="44.86719" lon="4.19409">
        <ele>1420.2</ele>
        <time>2021-06-06T11:40:05Z</time>
      </trkpt>
      <trkpt lat="44.86734" lon="4.19403">
        <ele>1421</ele>
        <time>2021-06-06T11:40:09Z</time>
      </trkpt>
      <trkpt lat="44.86745" lon="4.19393">
        <ele>1421.4</ele>
        <time>2021-06-06T11:40:13Z</time>
      </trkpt>
      <trkpt lat="44.86762" lon="4.19385">
        <ele>1420.6</ele>
        <time>2021-06-06T11:40:17Z</time>
      </trkpt>
      <trkpt lat="44.86778" lon="4.19385">
        <ele>1421.4</ele>
        <time>2021-06-06T11:40:21Z</time>
      </trkpt>
      <trkpt lat="44.86793" lon="4.19384">
        <ele>1421.4</ele>
        <time>2021-06-06T11:40:25Z</time>
      </trkpt>
      <trkpt lat="44.86806" lon="4.19382">
        <ele>1421</ele>
        <time>2021-06-06T11:40:29Z</time>
      </trkpt>
      <trkpt lat="44.86824" lon="4.19379">
        <ele>1421.2</ele>
        <time>2021-06-06T11:40:33Z</time>
      </trkpt>
      <trkpt lat="44.86841" lon="4.19384">
        <ele>1421.4</ele>
        <time>2021-06-06T11:40:37Z</time>
      </trkpt>
      <trkpt lat="44.86856" lon="4.194">
        <ele>1421.4</ele>
        <time>2021-06-06T11:40:41Z</time>
      </trkpt>
      <trkpt lat="44.86862" lon="4.19427">
        <ele>1421.2</ele>
        <time>2021-06-06T11:40:45Z</time>
      </trkpt>
      <trkpt lat="44.86865" lon="4.19454">
        <ele>1420.8</ele>
        <time>2021-06-06T11:40:49Z</time>
      </trkpt>
      <trkpt lat="44.86875" lon="4.19479">
        <ele>1419.6</ele>
        <time>2021-06-06T11:40:53Z</time>
      </trkpt>
      <trkpt lat="44.86889" lon="4.19494">
        <ele>1419.6</ele>
        <time>2021-06-06T11:40:57Z</time>
      </trkpt>
      <trkpt lat="44.86905" lon="4.19503">
        <ele>1419.6</ele>
        <time>2021-06-06T11:41:01Z</time>
      </trkpt>
      <trkpt lat="44.86923" lon="4.19503">
        <ele>1419.4</ele>
        <time>2021-06-06T11:41:05Z</time>
      </trkpt>
      <trkpt lat="44.86939" lon="4.19498">
        <ele>1419.2</ele>
        <time>2021-06-06T11:41:09Z</time>
      </trkpt>
      <trkpt lat="44.86954" lon="4.19492">
        <ele>1418.2</ele>
        <time>2021-06-06T11:41:13Z</time>
      </trkpt>
      <trkpt lat="44.8697" lon="4.19485">
        <ele>1417.4</ele>
        <time>2021-06-06T11:41:17Z</time>
      </trkpt>
      <trkpt lat="44.86988" lon="4.1949">
        <ele>1417.2</ele>
        <time>2021-06-06T11:41:21Z</time>
      </trkpt>
      <trkpt lat="44.87009" lon="4.19498">
        <ele>1417</ele>
        <time>2021-06-06T11:41:25Z</time>
      </trkpt>
      <trkpt lat="44.87028" lon="4.19503">
        <ele>1416.8</ele>
        <time>2021-06-06T11:41:29Z</time>
      </trkpt>
      <trkpt lat="44.87048" lon="4.19509">
        <ele>1416.2</ele>
        <time>2021-06-06T11:41:33Z</time>
      </trkpt>
      <trkpt lat="44.87068" lon="4.19516">
        <ele>1415.2</ele>
        <time>2021-06-06T11:41:37Z</time>
      </trkpt>
      <trkpt lat="44.87086" lon="4.19521">
        <ele>1414.8</ele>
        <time>2021-06-06T11:41:41Z</time>
      </trkpt>
      <trkpt lat="44.87105" lon="4.19521">
        <ele>1414.4</ele>
        <time>2021-06-06T11:41:45Z</time>
      </trkpt>
      <trkpt lat="44.87122" lon="4.19514">
        <ele>1415</ele>
        <time>2021-06-06T11:41:49Z</time>
      </trkpt>
      <trkpt lat="44.87139" lon="4.19506">
        <ele>1414.8</ele>
        <time>2021-06-06T11:41:53Z</time>
      </trkpt>
      <trkpt lat="44.87158" lon="4.195">
        <ele>1414.4</ele>
        <time>2021-06-06T11:41:57Z</time>
      </trkpt>
      <trkpt lat="44.87176" lon="4.19499">
        <ele>1414.2</ele>
        <time>2021-06-06T11:42:01Z</time>
      </trkpt>
      <trkpt lat="44.87194" lon="4.195">
        <ele>1414</ele>
        <time>2021-06-06T11:42:05Z</time>
      </trkpt>
      <trkpt lat="44.87213" lon="4.19506">
        <ele>1413.4</ele>
        <time>2021-06-06T11:42:09Z</time>
      </trkpt>
      <trkpt lat="44.8723" lon="4.19519">
        <ele>1413.6</ele>
        <time>2021-06-06T11:42:13Z</time>
      </trkpt>
      <trkpt lat="44.87248" lon="4.19532">
        <ele>1413.4</ele>
        <time>2021-06-06T11:42:17Z</time>
      </trkpt>
      <trkpt lat="44.87265" lon="4.19545">
        <ele>1413.8</ele>
        <time>2021-06-06T11:42:21Z</time>
      </trkpt>
      <trkpt lat="44.87279" lon="4.19557">
        <ele>1415</ele>
        <time>2021-06-06T11:42:25Z</time>
      </trkpt>
      <trkpt lat="44.87289" lon="4.19566">
        <ele>1415.2</ele>
        <time>2021-06-06T11:42:29Z</time>
      </trkpt>
      <trkpt lat="44.87298" lon="4.19575">
        <ele>1416.8</ele>
        <time>2021-06-06T11:42:33Z</time>
      </trkpt>
      <trkpt lat="44.87305" lon="4.19583">
        <ele>1417.4</ele>
        <time>2021-06-06T11:42:37Z</time>
      </trkpt>
      <trkpt lat="44.87313" lon="4.19591">
        <ele>1417.8</ele>
        <time>2021-06-06T11:42:41Z</time>
      </trkpt>
      <trkpt lat="44.87322" lon="4.19598">
        <ele>1419</ele>
        <time>2021-06-06T11:42:45Z</time>
      </trkpt>
      <trkpt lat="44.87332" lon="4.19602">
        <ele>1419.6</ele>
        <time>2021-06-06T11:42:49Z</time>
      </trkpt>
      <trkpt lat="44.87342" lon="4.19598">
        <ele>1420</ele>
        <time>2021-06-06T11:42:53Z</time>
      </trkpt>
      <trkpt lat="44.8735" lon="4.19587">
        <ele>1420.4</ele>
        <time>2021-06-06T11:42:57Z</time>
      </trkpt>
      <trkpt lat="44.87355" lon="4.19571">
        <ele>1420.6</ele>
        <time>2021-06-06T11:43:01Z</time>
      </trkpt>
      <trkpt lat="44.87358" lon="4.19552">
        <ele>1421</ele>
        <time>2021-06-06T11:43:05Z</time>
      </trkpt>
      <trkpt lat="44.8736" lon="4.19533">
        <ele>1421</ele>
        <time>2021-06-06T11:43:09Z</time>
      </trkpt>
      <trkpt lat="44.87362" lon="4.19513">
        <ele>1421</ele>
        <time>2021-06-06T11:43:13Z</time>
      </trkpt>
      <trkpt lat="44.87365" lon="4.19492">
        <ele>1421.4</ele>
        <time>2021-06-06T11:43:17Z</time>
      </trkpt>
      <trkpt lat="44.87369" lon="4.19472">
        <ele>1420.8</ele>
        <time>2021-06-06T11:43:21Z</time>
      </trkpt>
      <trkpt lat="44.87372" lon="4.19452">
        <ele>1421.4</ele>
        <time>2021-06-06T11:43:25Z</time>
      </trkpt>
      <trkpt lat="44.87377" lon="4.19434">
        <ele>1421.8</ele>
        <time>2021-06-06T11:43:29Z</time>
      </trkpt>
      <trkpt lat="44.8738" lon="4.19415">
        <ele>1421.8</ele>
        <time>2021-06-06T11:43:33Z</time>
      </trkpt>
      <trkpt lat="44.87385" lon="4.19398">
        <ele>1422.4</ele>
        <time>2021-06-06T11:43:37Z</time>
      </trkpt>
      <trkpt lat="44.87386" lon="4.19378">
        <ele>1422.6</ele>
        <time>2021-06-06T11:43:41Z</time>
      </trkpt>
      <trkpt lat="44.87387" lon="4.19357">
        <ele>1422.8</ele>
        <time>2021-06-06T11:43:45Z</time>
      </trkpt>
      <trkpt lat="44.87388" lon="4.19336">
        <ele>1423.8</ele>
        <time>2021-06-06T11:43:49Z</time>
      </trkpt>
      <trkpt lat="44.8739" lon="4.19317">
        <ele>1423.6</ele>
        <time>2021-06-06T11:43:53Z</time>
      </trkpt>
      <trkpt lat="44.87391" lon="4.19299">
        <ele>1423.8</ele>
        <time>2021-06-06T11:43:57Z</time>
      </trkpt>
      <trkpt lat="44.87392" lon="4.19279">
        <ele>1425</ele>
        <time>2021-06-06T11:44:01Z</time>
      </trkpt>
      <trkpt lat="44.87394" lon="4.19264">
        <ele>1425.6</ele>
        <time>2021-06-06T11:44:05Z</time>
      </trkpt>
      <trkpt lat="44.87395" lon="4.19251">
        <ele>1425.8</ele>
        <time>2021-06-06T11:44:09Z</time>
      </trkpt>
      <trkpt lat="44.87398" lon="4.19235">
        <ele>1426.4</ele>
        <time>2021-06-06T11:44:13Z</time>
      </trkpt>
      <trkpt lat="44.87401" lon="4.19218">
        <ele>1426.6</ele>
        <time>2021-06-06T11:44:17Z</time>
      </trkpt>
      <trkpt lat="44.87403" lon="4.192">
        <ele>1426.4</ele>
        <time>2021-06-06T11:44:21Z</time>
      </trkpt>
      <trkpt lat="44.87405" lon="4.19179">
        <ele>1427.2</ele>
        <time>2021-06-06T11:44:25Z</time>
      </trkpt>
      <trkpt lat="44.87409" lon="4.19159">
        <ele>1428.2</ele>
        <time>2021-06-06T11:44:29Z</time>
      </trkpt>
      <trkpt lat="44.87411" lon="4.19139">
        <ele>1428.4</ele>
        <time>2021-06-06T11:44:33Z</time>
      </trkpt>
      <trkpt lat="44.87414" lon="4.19119">
        <ele>1429</ele>
        <time>2021-06-06T11:44:37Z</time>
      </trkpt>
      <trkpt lat="44.87418" lon="4.191">
        <ele>1429</ele>
        <time>2021-06-06T11:44:41Z</time>
      </trkpt>
      <trkpt lat="44.87425" lon="4.19087">
        <ele>1429.8</ele>
        <time>2021-06-06T11:44:45Z</time>
      </trkpt>
      <trkpt lat="44.8743" lon="4.19072">
        <ele>1430.4</ele>
        <time>2021-06-06T11:44:49Z</time>
      </trkpt>
      <trkpt lat="44.87433" lon="4.19051">
        <ele>1430.8</ele>
        <time>2021-06-06T11:44:53Z</time>
      </trkpt>
      <trkpt lat="44.8744" lon="4.19034">
        <ele>1431.4</ele>
        <time>2021-06-06T11:44:57Z</time>
      </trkpt>
      <trkpt lat="44.87448" lon="4.19019">
        <ele>1431.8</ele>
        <time>2021-06-06T11:45:01Z</time>
      </trkpt>
      <trkpt lat="44.87457" lon="4.19008">
        <ele>1432.6</ele>
        <time>2021-06-06T11:45:05Z</time>
      </trkpt>
      <trkpt lat="44.87464" lon="4.18997">
        <ele>1433</ele>
        <time>2021-06-06T11:45:09Z</time>
      </trkpt>
      <trkpt lat="44.87474" lon="4.18984">
        <ele>1433</ele>
        <time>2021-06-06T11:45:13Z</time>
      </trkpt>
      <trkpt lat="44.87485" lon="4.18969">
        <ele>1433</ele>
        <time>2021-06-06T11:45:17Z</time>
      </trkpt>
      <trkpt lat="44.87493" lon="4.18952">
        <ele>1433.4</ele>
        <time>2021-06-06T11:45:21Z</time>
      </trkpt>
      <trkpt lat="44.875" lon="4.18936">
        <ele>1434</ele>
        <time>2021-06-06T11:45:25Z</time>
      </trkpt>
      <trkpt lat="44.87509" lon="4.18922">
        <ele>1434.8</ele>
        <time>2021-06-06T11:45:29Z</time>
      </trkpt>
      <trkpt lat="44.87517" lon="4.18907">
        <ele>1435.6</ele>
        <time>2021-06-06T11:45:33Z</time>
      </trkpt>
      <trkpt lat="44.87525" lon="4.18892">
        <ele>1435.6</ele>
        <time>2021-06-06T11:45:37Z</time>
      </trkpt>
      <trkpt lat="44.87533" lon="4.18877">
        <ele>1436.2</ele>
        <time>2021-06-06T11:45:41Z</time>
      </trkpt>
      <trkpt lat="44.87541" lon="4.18861">
        <ele>1437.2</ele>
        <time>2021-06-06T11:45:45Z</time>
      </trkpt>
      <trkpt lat="44.87547" lon="4.18844">
        <ele>1437.6</ele>
        <time>2021-06-06T11:45:49Z</time>
      </trkpt>
      <trkpt lat="44.87552" lon="4.18825">
        <ele>1437.6</ele>
        <time>2021-06-06T11:45:53Z</time>
      </trkpt>
      <trkpt lat="44.87556" lon="4.18807">
        <ele>1438.6</ele>
        <time>2021-06-06T11:45:57Z</time>
      </trkpt>
      <trkpt lat="44.8756" lon="4.18789">
        <ele>1439.2</ele>
        <time>2021-06-06T11:46:01Z</time>
      </trkpt>
      <trkpt lat="44.87561" lon="4.1877">
        <ele>1439.6</ele>
        <time>2021-06-06T11:46:05Z</time>
      </trkpt>
      <trkpt lat="44.87558" lon="4.1875">
        <ele>1440.6</ele>
        <time>2021-06-06T11:46:09Z</time>
      </trkpt>
      <trkpt lat="44.87552" lon="4.18729">
        <ele>1440.4</ele>
        <time>2021-06-06T11:46:13Z</time>
      </trkpt>
      <trkpt lat="44.87546" lon="4.1871">
        <ele>1441</ele>
        <time>2021-06-06T11:46:17Z</time>
      </trkpt>
      <trkpt lat="44.87539" lon="4.18694">
        <ele>1441.2</ele>
        <time>2021-06-06T11:46:21Z</time>
      </trkpt>
      <trkpt lat="44.87529" lon="4.18679">
        <ele>1442</ele>
        <time>2021-06-06T11:46:25Z</time>
      </trkpt>
      <trkpt lat="44.87519" lon="4.18665">
        <ele>1442.4</ele>
        <time>2021-06-06T11:46:29Z</time>
      </trkpt>
      <trkpt lat="44.87507" lon="4.18653">
        <ele>1442.4</ele>
        <time>2021-06-06T11:46:33Z</time>
      </trkpt>
      <trkpt lat="44.87495" lon="4.18641">
        <ele>1442.6</ele>
        <time>2021-06-06T11:46:37Z</time>
      </trkpt>
      <trkpt lat="44.87481" lon="4.18631">
        <ele>1443.4</ele>
        <time>2021-06-06T11:46:41Z</time>
      </trkpt>
      <trkpt lat="44.87467" lon="4.1862">
        <ele>1442.6</ele>
        <time>2021-06-06T11:46:45Z</time>
      </trkpt>
      <trkpt lat="44.87453" lon="4.18611">
        <ele>1442.8</ele>
        <time>2021-06-06T11:46:49Z</time>
      </trkpt>
      <trkpt lat="44.87439" lon="4.18602">
        <ele>1442.8</ele>
        <time>2021-06-06T11:46:53Z</time>
      </trkpt>
      <trkpt lat="44.87425" lon="4.18595">
        <ele>1443.2</ele>
        <time>2021-06-06T11:46:57Z</time>
      </trkpt>
      <trkpt lat="44.8741" lon="4.18587">
        <ele>1442.6</ele>
        <time>2021-06-06T11:47:01Z</time>
      </trkpt>
      <trkpt lat="44.87395" lon="4.1858">
        <ele>1442.8</ele>
        <time>2021-06-06T11:47:05Z</time>
      </trkpt>
      <trkpt lat="44.87379" lon="4.18574">
        <ele>1443.2</ele>
        <time>2021-06-06T11:47:09Z</time>
      </trkpt>
      <trkpt lat="44.87359" lon="4.18571">
        <ele>1442.4</ele>
        <time>2021-06-06T11:47:13Z</time>
      </trkpt>
      <trkpt lat="44.87337" lon="4.18573">
        <ele>1441.8</ele>
        <time>2021-06-06T11:47:17Z</time>
      </trkpt>
      <trkpt lat="44.87311" lon="4.18577">
        <ele>1439.4</ele>
        <time>2021-06-06T11:47:21Z</time>
      </trkpt>
      <trkpt lat="44.87283" lon="4.18577">
        <ele>1438.6</ele>
        <time>2021-06-06T11:47:25Z</time>
      </trkpt>
      <trkpt lat="44.87249" lon="4.18575">
        <ele>1437.8</ele>
        <time>2021-06-06T11:47:29Z</time>
      </trkpt>
      <trkpt lat="44.87216" lon="4.18569">
        <ele>1435</ele>
        <time>2021-06-06T11:47:33Z</time>
      </trkpt>
      <trkpt lat="44.87179" lon="4.18559">
        <ele>1432</ele>
        <time>2021-06-06T11:47:37Z</time>
      </trkpt>
      <trkpt lat="44.87153" lon="4.1852">
        <ele>1428.8</ele>
        <time>2021-06-06T11:47:41Z</time>
      </trkpt>
      <trkpt lat="44.87134" lon="4.1847">
        <ele>1427.4</ele>
        <time>2021-06-06T11:47:45Z</time>
      </trkpt>
      <trkpt lat="44.87119" lon="4.18414">
        <ele>1425.4</ele>
        <time>2021-06-06T11:47:49Z</time>
      </trkpt>
      <trkpt lat="44.87106" lon="4.18361">
        <ele>1421.4</ele>
        <time>2021-06-06T11:47:53Z</time>
      </trkpt>
      <trkpt lat="44.87077" lon="4.18323">
        <ele>1419.6</ele>
        <time>2021-06-06T11:47:57Z</time>
      </trkpt>
      <trkpt lat="44.8704" lon="4.18308">
        <ele>1418.8</ele>
        <time>2021-06-06T11:48:01Z</time>
      </trkpt>
      <trkpt lat="44.87048" lon="4.18282">
        <ele>1416.6</ele>
        <time>2021-06-06T11:48:05Z</time>
      </trkpt>
      <trkpt lat="44.87073" lon="4.18296">
        <ele>1417.2</ele>
        <time>2021-06-06T11:48:09Z</time>
      </trkpt>
      <trkpt lat="44.87099" lon="4.18317">
        <ele>1414</ele>
        <time>2021-06-06T11:48:13Z</time>
      </trkpt>
      <trkpt lat="44.87125" lon="4.18347">
        <ele>1412.8</ele>
        <time>2021-06-06T11:48:17Z</time>
      </trkpt>
      <trkpt lat="44.87148" lon="4.18387">
        <ele>1410.2</ele>
        <time>2021-06-06T11:48:21Z</time>
      </trkpt>
      <trkpt lat="44.87175" lon="4.18426">
        <ele>1406.6</ele>
        <time>2021-06-06T11:48:25Z</time>
      </trkpt>
      <trkpt lat="44.87208" lon="4.1844">
        <ele>1403.4</ele>
        <time>2021-06-06T11:48:29Z</time>
      </trkpt>
      <trkpt lat="44.87254" lon="4.18429">
        <ele>1401.4</ele>
        <time>2021-06-06T11:48:33Z</time>
      </trkpt>
      <trkpt lat="44.87287" lon="4.18381">
        <ele>1396.4</ele>
        <time>2021-06-06T11:48:37Z</time>
      </trkpt>
      <trkpt lat="44.87296" lon="4.18313">
        <ele>1393.4</ele>
        <time>2021-06-06T11:48:41Z</time>
      </trkpt>
      <trkpt lat="44.87309" lon="4.18253">
        <ele>1389.8</ele>
        <time>2021-06-06T11:48:45Z</time>
      </trkpt>
      <trkpt lat="44.87343" lon="4.1821">
        <ele>1387.8</ele>
        <time>2021-06-06T11:48:49Z</time>
      </trkpt>
      <trkpt lat="44.8738" lon="4.18176">
        <ele>1385</ele>
        <time>2021-06-06T11:48:53Z</time>
      </trkpt>
      <trkpt lat="44.87413" lon="4.18142">
        <ele>1382.6</ele>
        <time>2021-06-06T11:48:57Z</time>
      </trkpt>
      <trkpt lat="44.87435" lon="4.18115">
        <ele>1381.4</ele>
        <time>2021-06-06T11:49:01Z</time>
      </trkpt>
      <trkpt lat="44.87455" lon="4.18107">
        <ele>1380.8</ele>
        <time>2021-06-06T11:49:05Z</time>
      </trkpt>
      <trkpt lat="44.87466" lon="4.18096">
        <ele>1380</ele>
        <time>2021-06-06T11:49:09Z</time>
      </trkpt>
      <trkpt lat="44.87468" lon="4.18072">
        <ele>1379.4</ele>
        <time>2021-06-06T11:49:13Z</time>
      </trkpt>
      <trkpt lat="44.8746" lon="4.18047">
        <ele>1379.4</ele>
        <time>2021-06-06T11:49:17Z</time>
      </trkpt>
      <trkpt lat="44.8745" lon="4.18026">
        <ele>1379.6</ele>
        <time>2021-06-06T11:49:21Z</time>
      </trkpt>
      <trkpt lat="44.87439" lon="4.18009">
        <ele>1380</ele>
        <time>2021-06-06T11:49:25Z</time>
      </trkpt>
      <trkpt lat="44.87426" lon="4.17996">
        <ele>1381</ele>
        <time>2021-06-06T11:49:29Z</time>
      </trkpt>
      <trkpt lat="44.87414" lon="4.17984">
        <ele>1381</ele>
        <time>2021-06-06T11:49:33Z</time>
      </trkpt>
      <trkpt lat="44.87402" lon="4.17971">
        <ele>1381.6</ele>
        <time>2021-06-06T11:49:37Z</time>
      </trkpt>
      <trkpt lat="44.87391" lon="4.17959">
        <ele>1381.8</ele>
        <time>2021-06-06T11:49:41Z</time>
      </trkpt>
      <trkpt lat="44.87382" lon="4.1795">
        <ele>1382.2</ele>
        <time>2021-06-06T11:49:45Z</time>
      </trkpt>
      <trkpt lat="44.87383" lon="4.1794">
        <ele>1383.6</ele>
        <time>2021-06-06T11:49:49Z</time>
      </trkpt>
      <trkpt lat="44.8739" lon="4.17944">
        <ele>1384</ele>
        <time>2021-06-06T11:49:53Z</time>
      </trkpt>
      <trkpt lat="44.87398" lon="4.17949">
        <ele>1384.4</ele>
        <time>2021-06-06T11:49:57Z</time>
      </trkpt>
      <trkpt lat="44.87406" lon="4.17953">
        <ele>1384.4</ele>
        <time>2021-06-06T11:50:01Z</time>
      </trkpt>
      <trkpt lat="44.87416" lon="4.17957">
        <ele>1385</ele>
        <time>2021-06-06T11:50:05Z</time>
      </trkpt>
      <trkpt lat="44.87424" lon="4.17963">
        <ele>1385.4</ele>
        <time>2021-06-06T11:50:09Z</time>
      </trkpt>
      <trkpt lat="44.87434" lon="4.17969">
        <ele>1385.8</ele>
        <time>2021-06-06T11:50:13Z</time>
      </trkpt>
      <trkpt lat="44.87443" lon="4.17973">
        <ele>1386.6</ele>
        <time>2021-06-06T11:50:17Z</time>
      </trkpt>
      <trkpt lat="44.87454" lon="4.17984">
        <ele>1387.2</ele>
        <time>2021-06-06T11:50:21Z</time>
      </trkpt>
      <trkpt lat="44.87464" lon="4.17993">
        <ele>1388.2</ele>
        <time>2021-06-06T11:50:25Z</time>
      </trkpt>
      <trkpt lat="44.87473" lon="4.18">
        <ele>1388.6</ele>
        <time>2021-06-06T11:50:29Z</time>
      </trkpt>
      <trkpt lat="44.87481" lon="4.18008">
        <ele>1389.8</ele>
        <time>2021-06-06T11:50:33Z</time>
      </trkpt>
      <trkpt lat="44.87489" lon="4.18016">
        <ele>1390.2</ele>
        <time>2021-06-06T11:50:37Z</time>
      </trkpt>
      <trkpt lat="44.87497" lon="4.18023">
        <ele>1390.8</ele>
        <time>2021-06-06T11:50:41Z</time>
      </trkpt>
      <trkpt lat="44.87503" lon="4.1803">
        <ele>1391.2</ele>
        <time>2021-06-06T11:50:45Z</time>
      </trkpt>
      <trkpt lat="44.8751" lon="4.18037">
        <ele>1392.2</ele>
        <time>2021-06-06T11:50:49Z</time>
      </trkpt>
      <trkpt lat="44.87517" lon="4.18044">
        <ele>1393</ele>
        <time>2021-06-06T11:50:53Z</time>
      </trkpt>
      <trkpt lat="44.87523" lon="4.18051">
        <ele>1394.2</ele>
        <time>2021-06-06T11:50:57Z</time>
      </trkpt>
      <trkpt lat="44.8753" lon="4.18057">
        <ele>1395</ele>
        <time>2021-06-06T11:51:01Z</time>
      </trkpt>
      <trkpt lat="44.87536" lon="4.18064">
        <ele>1395</ele>
        <time>2021-06-06T11:51:05Z</time>
      </trkpt>
      <trkpt lat="44.87542" lon="4.18073">
        <ele>1396</ele>
        <time>2021-06-06T11:51:09Z</time>
      </trkpt>
      <trkpt lat="44.87548" lon="4.1808">
        <ele>1396.6</ele>
        <time>2021-06-06T11:51:13Z</time>
      </trkpt>
      <trkpt lat="44.87554" lon="4.18087">
        <ele>1397</ele>
        <time>2021-06-06T11:51:17Z</time>
      </trkpt>
      <trkpt lat="44.87561" lon="4.18095">
        <ele>1397.2</ele>
        <time>2021-06-06T11:51:21Z</time>
      </trkpt>
      <trkpt lat="44.87568" lon="4.18103">
        <ele>1398.4</ele>
        <time>2021-06-06T11:51:25Z</time>
      </trkpt>
      <trkpt lat="44.87576" lon="4.18111">
        <ele>1398.6</ele>
        <time>2021-06-06T11:51:29Z</time>
      </trkpt>
      <trkpt lat="44.87583" lon="4.18119">
        <ele>1399.4</ele>
        <time>2021-06-06T11:51:33Z</time>
      </trkpt>
      <trkpt lat="44.87589" lon="4.18125">
        <ele>1399.8</ele>
        <time>2021-06-06T11:51:37Z</time>
      </trkpt>
      <trkpt lat="44.87596" lon="4.18132">
        <ele>1400.8</ele>
        <time>2021-06-06T11:51:41Z</time>
      </trkpt>
      <trkpt lat="44.87603" lon="4.18139">
        <ele>1402</ele>
        <time>2021-06-06T11:51:45Z</time>
      </trkpt>
      <trkpt lat="44.8761" lon="4.18146">
        <ele>1402.8</ele>
        <time>2021-06-06T11:51:49Z</time>
      </trkpt>
      <trkpt lat="44.87618" lon="4.18153">
        <ele>1402.8</ele>
        <time>2021-06-06T11:51:53Z</time>
      </trkpt>
      <trkpt lat="44.87626" lon="4.18161">
        <ele>1403</ele>
        <time>2021-06-06T11:51:57Z</time>
      </trkpt>
      <trkpt lat="44.87634" lon="4.18168">
        <ele>1403.6</ele>
        <time>2021-06-06T11:52:01Z</time>
      </trkpt>
      <trkpt lat="44.87643" lon="4.18177">
        <ele>1404</ele>
        <time>2021-06-06T11:52:05Z</time>
      </trkpt>
      <trkpt lat="44.87652" lon="4.18186">
        <ele>1404.4</ele>
        <time>2021-06-06T11:52:09Z</time>
      </trkpt>
      <trkpt lat="44.8766" lon="4.18197">
        <ele>1404.6</ele>
        <time>2021-06-06T11:52:13Z</time>
      </trkpt>
      <trkpt lat="44.87667" lon="4.18209">
        <ele>1404.8</ele>
        <time>2021-06-06T11:52:17Z</time>
      </trkpt>
      <trkpt lat="44.87673" lon="4.18221">
        <ele>1404.6</ele>
        <time>2021-06-06T11:52:21Z</time>
      </trkpt>
      <trkpt lat="44.87681" lon="4.18234">
        <ele>1405.6</ele>
        <time>2021-06-06T11:52:25Z</time>
      </trkpt>
      <trkpt lat="44.87689" lon="4.18249">
        <ele>1405</ele>
        <time>2021-06-06T11:52:29Z</time>
      </trkpt>
      <trkpt lat="44.87697" lon="4.18265">
        <ele>1405.8</ele>
        <time>2021-06-06T11:52:33Z</time>
      </trkpt>
      <trkpt lat="44.87705" lon="4.1828">
        <ele>1406.2</ele>
        <time>2021-06-06T11:52:37Z</time>
      </trkpt>
      <trkpt lat="44.87713" lon="4.18295">
        <ele>1406.8</ele>
        <time>2021-06-06T11:52:41Z</time>
      </trkpt>
      <trkpt lat="44.87721" lon="4.1831">
        <ele>1406.6</ele>
        <time>2021-06-06T11:52:45Z</time>
      </trkpt>
      <trkpt lat="44.8773" lon="4.18326">
        <ele>1406.6</ele>
        <time>2021-06-06T11:52:49Z</time>
      </trkpt>
      <trkpt lat="44.87738" lon="4.18341">
        <ele>1406.6</ele>
        <time>2021-06-06T11:52:53Z</time>
      </trkpt>
      <trkpt lat="44.87746" lon="4.18355">
        <ele>1407.4</ele>
        <time>2021-06-06T11:52:57Z</time>
      </trkpt>
      <trkpt lat="44.87754" lon="4.18369">
        <ele>1407.6</ele>
        <time>2021-06-06T11:53:01Z</time>
      </trkpt>
      <trkpt lat="44.87761" lon="4.18383">
        <ele>1408.4</ele>
        <time>2021-06-06T11:53:05Z</time>
      </trkpt>
      <trkpt lat="44.87768" lon="4.18396">
        <ele>1409</ele>
        <time>2021-06-06T11:53:09Z</time>
      </trkpt>
      <trkpt lat="44.87774" lon="4.18409">
        <ele>1409.4</ele>
        <time>2021-06-06T11:53:13Z</time>
      </trkpt>
      <trkpt lat="44.8778" lon="4.18419">
        <ele>1410</ele>
        <time>2021-06-06T11:53:17Z</time>
      </trkpt>
      <trkpt lat="44.87783" lon="4.18434">
        <ele>1409.8</ele>
        <time>2021-06-06T11:53:21Z</time>
      </trkpt>
      <trkpt lat="44.87785" lon="4.1845">
        <ele>1409.2</ele>
        <time>2021-06-06T11:53:25Z</time>
      </trkpt>
      <trkpt lat="44.87788" lon="4.18473">
        <ele>1407.8</ele>
        <time>2021-06-06T11:53:29Z</time>
      </trkpt>
      <trkpt lat="44.87791" lon="4.18502">
        <ele>1405.4</ele>
        <time>2021-06-06T11:53:33Z</time>
      </trkpt>
      <trkpt lat="44.87793" lon="4.1852">
        <ele>1404.8</ele>
        <time>2021-06-06T11:53:37Z</time>
      </trkpt>
      <trkpt lat="44.87793" lon="4.18525">
        <ele>1405</ele>
        <time>2021-06-06T11:53:41Z</time>
      </trkpt>
      <trkpt lat="44.87796" lon="4.18552">
        <ele>1402.4</ele>
        <time>2021-06-06T11:55:20Z</time>
      </trkpt>
      <trkpt lat="44.87801" lon="4.18582">
        <ele>1400.6</ele>
        <time>2021-06-06T11:55:24Z</time>
      </trkpt>
      <trkpt lat="44.87817" lon="4.18595">
        <ele>1400.2</ele>
        <time>2021-06-06T11:55:28Z</time>
      </trkpt>
      <trkpt lat="44.87821" lon="4.18572">
        <ele>1397.2</ele>
        <time>2021-06-06T11:55:32Z</time>
      </trkpt>
      <trkpt lat="44.87821" lon="4.18537">
        <ele>1393.6</ele>
        <time>2021-06-06T11:55:36Z</time>
      </trkpt>
      <trkpt lat="44.87829" lon="4.18503">
        <ele>1392</ele>
        <time>2021-06-06T11:55:40Z</time>
      </trkpt>
      <trkpt lat="44.87846" lon="4.1848">
        <ele>1390.6</ele>
        <time>2021-06-06T11:55:44Z</time>
      </trkpt>
      <trkpt lat="44.87874" lon="4.18478">
        <ele>1388.2</ele>
        <time>2021-06-06T11:55:48Z</time>
      </trkpt>
      <trkpt lat="44.87902" lon="4.18454">
        <ele>1385.6</ele>
        <time>2021-06-06T11:55:52Z</time>
      </trkpt>
      <trkpt lat="44.87923" lon="4.18416">
        <ele>1383.2</ele>
        <time>2021-06-06T11:55:56Z</time>
      </trkpt>
      <trkpt lat="44.87955" lon="4.18406">
        <ele>1383.6</ele>
        <time>2021-06-06T11:56:00Z</time>
      </trkpt>
      <trkpt lat="44.87986" lon="4.18408">
        <ele>1383.2</ele>
        <time>2021-06-06T11:56:04Z</time>
      </trkpt>
      <trkpt lat="44.88013" lon="4.18423">
        <ele>1383</ele>
        <time>2021-06-06T11:56:08Z</time>
      </trkpt>
      <trkpt lat="44.88033" lon="4.18441">
        <ele>1383.4</ele>
        <time>2021-06-06T11:56:12Z</time>
      </trkpt>
      <trkpt lat="44.88042" lon="4.1847">
        <ele>1384</ele>
        <time>2021-06-06T11:56:16Z</time>
      </trkpt>
      <trkpt lat="44.88042" lon="4.18499">
        <ele>1383.4</ele>
        <time>2021-06-06T11:56:20Z</time>
      </trkpt>
      <trkpt lat="44.88039" lon="4.18527">
        <ele>1382.2</ele>
        <time>2021-06-06T11:56:24Z</time>
      </trkpt>
      <trkpt lat="44.88037" lon="4.18558">
        <ele>1381.2</ele>
        <time>2021-06-06T11:56:28Z</time>
      </trkpt>
      <trkpt lat="44.88031" lon="4.18591">
        <ele>1380.6</ele>
        <time>2021-06-06T11:56:32Z</time>
      </trkpt>
      <trkpt lat="44.88028" lon="4.18623">
        <ele>1381.2</ele>
        <time>2021-06-06T11:56:36Z</time>
      </trkpt>
      <trkpt lat="44.88035" lon="4.18653">
        <ele>1381.8</ele>
        <time>2021-06-06T11:56:40Z</time>
      </trkpt>
      <trkpt lat="44.88044" lon="4.18667">
        <ele>1382.8</ele>
        <time>2021-06-06T11:56:44Z</time>
      </trkpt>
      <trkpt lat="44.8806" lon="4.18678">
        <ele>1381.6</ele>
        <time>2021-06-06T11:56:48Z</time>
      </trkpt>
      <trkpt lat="44.88079" lon="4.18688">
        <ele>1381.2</ele>
        <time>2021-06-06T11:56:52Z</time>
      </trkpt>
      <trkpt lat="44.88098" lon="4.18696">
        <ele>1381.2</ele>
        <time>2021-06-06T11:56:56Z</time>
      </trkpt>
      <trkpt lat="44.88116" lon="4.187">
        <ele>1381.8</ele>
        <time>2021-06-06T11:57:00Z</time>
      </trkpt>
      <trkpt lat="44.88132" lon="4.18699">
        <ele>1381.4</ele>
        <time>2021-06-06T11:57:04Z</time>
      </trkpt>
      <trkpt lat="44.88148" lon="4.18694">
        <ele>1381.2</ele>
        <time>2021-06-06T11:57:08Z</time>
      </trkpt>
      <trkpt lat="44.88166" lon="4.18689">
        <ele>1380.2</ele>
        <time>2021-06-06T11:57:12Z</time>
      </trkpt>
      <trkpt lat="44.88176" lon="4.18715">
        <ele>1378.4</ele>
        <time>2021-06-06T11:57:16Z</time>
      </trkpt>
      <trkpt lat="44.88166" lon="4.18747">
        <ele>1376.4</ele>
        <time>2021-06-06T11:57:20Z</time>
      </trkpt>
      <trkpt lat="44.88153" lon="4.18785">
        <ele>1375.2</ele>
        <time>2021-06-06T11:57:24Z</time>
      </trkpt>
      <trkpt lat="44.88143" lon="4.18825">
        <ele>1374.2</ele>
        <time>2021-06-06T11:57:28Z</time>
      </trkpt>
      <trkpt lat="44.88138" lon="4.18865">
        <ele>1374.8</ele>
        <time>2021-06-06T11:57:32Z</time>
      </trkpt>
      <trkpt lat="44.88136" lon="4.18898">
        <ele>1375.6</ele>
        <time>2021-06-06T11:57:36Z</time>
      </trkpt>
      <trkpt lat="44.88136" lon="4.18929">
        <ele>1374.8</ele>
        <time>2021-06-06T11:57:40Z</time>
      </trkpt>
      <trkpt lat="44.88137" lon="4.18963">
        <ele>1371.8</ele>
        <time>2021-06-06T11:57:44Z</time>
      </trkpt>
      <trkpt lat="44.88147" lon="4.18998">
        <ele>1372.2</ele>
        <time>2021-06-06T11:57:48Z</time>
      </trkpt>
      <trkpt lat="44.8816" lon="4.19032">
        <ele>1371.2</ele>
        <time>2021-06-06T11:57:52Z</time>
      </trkpt>
      <trkpt lat="44.8818" lon="4.19054">
        <ele>1370.6</ele>
        <time>2021-06-06T11:57:56Z</time>
      </trkpt>
      <trkpt lat="44.88196" lon="4.19066">
        <ele>1372.2</ele>
        <time>2021-06-06T11:58:00Z</time>
      </trkpt>
      <trkpt lat="44.88203" lon="4.19071">
        <ele>1372</ele>
        <time>2021-06-06T11:58:04Z</time>
      </trkpt>
      <trkpt lat="44.88211" lon="4.19074">
        <ele>1371.4</ele>
        <time>2021-06-06T11:58:08Z</time>
      </trkpt>
      <trkpt lat="44.88227" lon="4.19082">
        <ele>1369.6</ele>
        <time>2021-06-06T11:58:12Z</time>
      </trkpt>
      <trkpt lat="44.88246" lon="4.19096">
        <ele>1369.6</ele>
        <time>2021-06-06T11:58:16Z</time>
      </trkpt>
      <trkpt lat="44.8826" lon="4.19118">
        <ele>1369.6</ele>
        <time>2021-06-06T11:58:20Z</time>
      </trkpt>
      <trkpt lat="44.88262" lon="4.19145">
        <ele>1368.8</ele>
        <time>2021-06-06T11:58:24Z</time>
      </trkpt>
      <trkpt lat="44.88258" lon="4.19178">
        <ele>1366.8</ele>
        <time>2021-06-06T11:58:28Z</time>
      </trkpt>
      <trkpt lat="44.88256" lon="4.19215">
        <ele>1366</ele>
        <time>2021-06-06T11:58:32Z</time>
      </trkpt>
      <trkpt lat="44.8826" lon="4.19254">
        <ele>1364.6</ele>
        <time>2021-06-06T11:58:36Z</time>
      </trkpt>
      <trkpt lat="44.88263" lon="4.19293">
        <ele>1364.6</ele>
        <time>2021-06-06T11:58:40Z</time>
      </trkpt>
      <trkpt lat="44.88266" lon="4.19326">
        <ele>1364</ele>
        <time>2021-06-06T11:58:44Z</time>
      </trkpt>
      <trkpt lat="44.88275" lon="4.19362">
        <ele>1362.4</ele>
        <time>2021-06-06T11:58:48Z</time>
      </trkpt>
      <trkpt lat="44.88284" lon="4.19402">
        <ele>1360.4</ele>
        <time>2021-06-06T11:58:52Z</time>
      </trkpt>
      <trkpt lat="44.88298" lon="4.19441">
        <ele>1358.8</ele>
        <time>2021-06-06T11:58:56Z</time>
      </trkpt>
      <trkpt lat="44.88308" lon="4.19482">
        <ele>1356</ele>
        <time>2021-06-06T11:59:00Z</time>
      </trkpt>
      <trkpt lat="44.88309" lon="4.19526">
        <ele>1355.2</ele>
        <time>2021-06-06T11:59:04Z</time>
      </trkpt>
      <trkpt lat="44.88323" lon="4.19564">
        <ele>1353.8</ele>
        <time>2021-06-06T11:59:08Z</time>
      </trkpt>
      <trkpt lat="44.88348" lon="4.19588">
        <ele>1352</ele>
        <time>2021-06-06T11:59:12Z</time>
      </trkpt>
      <trkpt lat="44.88368" lon="4.19618">
        <ele>1352.6</ele>
        <time>2021-06-06T11:59:16Z</time>
      </trkpt>
      <trkpt lat="44.88371" lon="4.19656">
        <ele>1352.6</ele>
        <time>2021-06-06T11:59:20Z</time>
      </trkpt>
      <trkpt lat="44.88373" lon="4.19691">
        <ele>1352</ele>
        <time>2021-06-06T11:59:24Z</time>
      </trkpt>
      <trkpt lat="44.88374" lon="4.19704">
        <ele>1352.6</ele>
        <time>2021-06-06T11:59:28Z</time>
      </trkpt>
      <trkpt lat="44.88376" lon="4.1972">
        <ele>1351.2</ele>
        <time>2021-06-06T12:00:28Z</time>
      </trkpt>
      <trkpt lat="44.88377" lon="4.19738">
        <ele>1350.6</ele>
        <time>2021-06-06T12:00:32Z</time>
      </trkpt>
      <trkpt lat="44.88376" lon="4.19755">
        <ele>1350</ele>
        <time>2021-06-06T12:00:36Z</time>
      </trkpt>
      <trkpt lat="44.88375" lon="4.19772">
        <ele>1349.4</ele>
        <time>2021-06-06T12:00:40Z</time>
      </trkpt>
      <trkpt lat="44.88371" lon="4.19795">
        <ele>1347.4</ele>
        <time>2021-06-06T12:00:44Z</time>
      </trkpt>
      <trkpt lat="44.88365" lon="4.19821">
        <ele>1347</ele>
        <time>2021-06-06T12:00:48Z</time>
      </trkpt>
      <trkpt lat="44.8836" lon="4.19848">
        <ele>1345</ele>
        <time>2021-06-06T12:00:52Z</time>
      </trkpt>
      <trkpt lat="44.88373" lon="4.19871">
        <ele>1343.2</ele>
        <time>2021-06-06T12:00:56Z</time>
      </trkpt>
      <trkpt lat="44.88395" lon="4.19884">
        <ele>1341.8</ele>
        <time>2021-06-06T12:01:00Z</time>
      </trkpt>
      <trkpt lat="44.8842" lon="4.19897">
        <ele>1338.2</ele>
        <time>2021-06-06T12:01:04Z</time>
      </trkpt>
      <trkpt lat="44.88444" lon="4.19921">
        <ele>1337.8</ele>
        <time>2021-06-06T12:01:08Z</time>
      </trkpt>
      <trkpt lat="44.88457" lon="4.19963">
        <ele>1335</ele>
        <time>2021-06-06T12:01:12Z</time>
      </trkpt>
      <trkpt lat="44.88468" lon="4.20009">
        <ele>1332.8</ele>
        <time>2021-06-06T12:01:16Z</time>
      </trkpt>
      <trkpt lat="44.88456" lon="4.20048">
        <ele>1329.6</ele>
        <time>2021-06-06T12:01:20Z</time>
      </trkpt>
      <trkpt lat="44.88429" lon="4.20074">
        <ele>1327.6</ele>
        <time>2021-06-06T12:01:24Z</time>
      </trkpt>
      <trkpt lat="44.88405" lon="4.20105">
        <ele>1326.6</ele>
        <time>2021-06-06T12:01:28Z</time>
      </trkpt>
      <trkpt lat="44.88382" lon="4.20141">
        <ele>1325.6</ele>
        <time>2021-06-06T12:01:32Z</time>
      </trkpt>
      <trkpt lat="44.88366" lon="4.20184">
        <ele>1323.2</ele>
        <time>2021-06-06T12:01:36Z</time>
      </trkpt>
      <trkpt lat="44.88358" lon="4.2023">
        <ele>1321.6</ele>
        <time>2021-06-06T12:01:40Z</time>
      </trkpt>
      <trkpt lat="44.88357" lon="4.20276">
        <ele>1319.6</ele>
        <time>2021-06-06T12:01:44Z</time>
      </trkpt>
      <trkpt lat="44.88361" lon="4.20321">
        <ele>1317.6</ele>
        <time>2021-06-06T12:01:48Z</time>
      </trkpt>
      <trkpt lat="44.88375" lon="4.20366">
        <ele>1316.2</ele>
        <time>2021-06-06T12:01:52Z</time>
      </trkpt>
      <trkpt lat="44.88396" lon="4.20411">
        <ele>1312.6</ele>
        <time>2021-06-06T12:01:56Z</time>
      </trkpt>
      <trkpt lat="44.88405" lon="4.20465">
        <ele>1310.6</ele>
        <time>2021-06-06T12:02:00Z</time>
      </trkpt>
      <trkpt lat="44.88404" lon="4.20522">
        <ele>1308.4</ele>
        <time>2021-06-06T12:02:04Z</time>
      </trkpt>
      <trkpt lat="44.884" lon="4.20572">
        <ele>1305.6</ele>
        <time>2021-06-06T12:02:08Z</time>
      </trkpt>
      <trkpt lat="44.88395" lon="4.20601">
        <ele>1306.2</ele>
        <time>2021-06-06T12:02:12Z</time>
      </trkpt>
      <trkpt lat="44.88392" lon="4.20614">
        <ele>1305.2</ele>
        <time>2021-06-06T12:02:16Z</time>
      </trkpt>
      <trkpt lat="44.88388" lon="4.20631">
        <ele>1305.4</ele>
        <time>2021-06-06T12:05:23Z</time>
      </trkpt>
      <trkpt lat="44.88383" lon="4.20647">
        <ele>1304.6</ele>
        <time>2021-06-06T12:05:27Z</time>
      </trkpt>
      <trkpt lat="44.88383" lon="4.20672">
        <ele>1303.2</ele>
        <time>2021-06-06T12:05:31Z</time>
      </trkpt>
      <trkpt lat="44.88398" lon="4.20679">
        <ele>1302</ele>
        <time>2021-06-06T12:05:35Z</time>
      </trkpt>
      <trkpt lat="44.88413" lon="4.20665">
        <ele>1299.8</ele>
        <time>2021-06-06T12:05:39Z</time>
      </trkpt>
      <trkpt lat="44.88426" lon="4.20646">
        <ele>1298.6</ele>
        <time>2021-06-06T12:05:43Z</time>
      </trkpt>
      <trkpt lat="44.88448" lon="4.20636">
        <ele>1296.6</ele>
        <time>2021-06-06T12:05:47Z</time>
      </trkpt>
      <trkpt lat="44.88474" lon="4.20631">
        <ele>1295</ele>
        <time>2021-06-06T12:05:51Z</time>
      </trkpt>
      <trkpt lat="44.88503" lon="4.20627">
        <ele>1291.8</ele>
        <time>2021-06-06T12:05:55Z</time>
      </trkpt>
      <trkpt lat="44.88528" lon="4.20642">
        <ele>1290.4</ele>
        <time>2021-06-06T12:05:59Z</time>
      </trkpt>
      <trkpt lat="44.88542" lon="4.20674">
        <ele>1288.2</ele>
        <time>2021-06-06T12:06:03Z</time>
      </trkpt>
      <trkpt lat="44.88562" lon="4.20699">
        <ele>1286</ele>
        <time>2021-06-06T12:06:07Z</time>
      </trkpt>
      <trkpt lat="44.88586" lon="4.20717">
        <ele>1284.2</ele>
        <time>2021-06-06T12:06:11Z</time>
      </trkpt>
      <trkpt lat="44.88613" lon="4.20737">
        <ele>1282.4</ele>
        <time>2021-06-06T12:06:15Z</time>
      </trkpt>
      <trkpt lat="44.8863" lon="4.20772">
        <ele>1280.8</ele>
        <time>2021-06-06T12:06:19Z</time>
      </trkpt>
      <trkpt lat="44.88643" lon="4.20818">
        <ele>1278.4</ele>
        <time>2021-06-06T12:06:23Z</time>
      </trkpt>
      <trkpt lat="44.88659" lon="4.2087">
        <ele>1274.4</ele>
        <time>2021-06-06T12:06:27Z</time>
      </trkpt>
      <trkpt lat="44.88681" lon="4.2092">
        <ele>1270.8</ele>
        <time>2021-06-06T12:06:31Z</time>
      </trkpt>
      <trkpt lat="44.88709" lon="4.20963">
        <ele>1267.6</ele>
        <time>2021-06-06T12:06:35Z</time>
      </trkpt>
      <trkpt lat="44.88741" lon="4.20997">
        <ele>1263.8</ele>
        <time>2021-06-06T12:06:39Z</time>
      </trkpt>
      <trkpt lat="44.88777" lon="4.21016">
        <ele>1260.4</ele>
        <time>2021-06-06T12:06:43Z</time>
      </trkpt>
      <trkpt lat="44.88816" lon="4.21002">
        <ele>1258.2</ele>
        <time>2021-06-06T12:06:47Z</time>
      </trkpt>
      <trkpt lat="44.88849" lon="4.20966">
        <ele>1255.6</ele>
        <time>2021-06-06T12:06:51Z</time>
      </trkpt>
      <trkpt lat="44.88882" lon="4.20959">
        <ele>1256.8</ele>
        <time>2021-06-06T12:06:55Z</time>
      </trkpt>
      <trkpt lat="44.88904" lon="4.20987">
        <ele>1257.2</ele>
        <time>2021-06-06T12:06:59Z</time>
      </trkpt>
      <trkpt lat="44.8892" lon="4.21015">
        <ele>1257.6</ele>
        <time>2021-06-06T12:07:03Z</time>
      </trkpt>
      <trkpt lat="44.88942" lon="4.21041">
        <ele>1256.4</ele>
        <time>2021-06-06T12:07:07Z</time>
      </trkpt>
      <trkpt lat="44.88958" lon="4.21076">
        <ele>1253.2</ele>
        <time>2021-06-06T12:07:11Z</time>
      </trkpt>
      <trkpt lat="44.88967" lon="4.21122">
        <ele>1252</ele>
        <time>2021-06-06T12:07:15Z</time>
      </trkpt>
      <trkpt lat="44.88976" lon="4.21177">
        <ele>1249</ele>
        <time>2021-06-06T12:07:19Z</time>
      </trkpt>
      <trkpt lat="44.88977" lon="4.21239">
        <ele>1244.8</ele>
        <time>2021-06-06T12:07:23Z</time>
      </trkpt>
      <trkpt lat="44.88968" lon="4.21304">
        <ele>1238.2</ele>
        <time>2021-06-06T12:07:27Z</time>
      </trkpt>
      <trkpt lat="44.88961" lon="4.21368">
        <ele>1234.2</ele>
        <time>2021-06-06T12:07:31Z</time>
      </trkpt>
      <trkpt lat="44.88944" lon="4.21427">
        <ele>1231.6</ele>
        <time>2021-06-06T12:07:35Z</time>
      </trkpt>
      <trkpt lat="44.88925" lon="4.21483">
        <ele>1226.4</ele>
        <time>2021-06-06T12:07:39Z</time>
      </trkpt>
      <trkpt lat="44.88906" lon="4.2154">
        <ele>1224</ele>
        <time>2021-06-06T12:07:43Z</time>
      </trkpt>
      <trkpt lat="44.88895" lon="4.216">
        <ele>1222</ele>
        <time>2021-06-06T12:07:47Z</time>
      </trkpt>
      <trkpt lat="44.88885" lon="4.21659">
        <ele>1219.2</ele>
        <time>2021-06-06T12:07:51Z</time>
      </trkpt>
      <trkpt lat="44.88878" lon="4.21721">
        <ele>1215.6</ele>
        <time>2021-06-06T12:07:55Z</time>
      </trkpt>
      <trkpt lat="44.88876" lon="4.21785">
        <ele>1213.6</ele>
        <time>2021-06-06T12:07:59Z</time>
      </trkpt>
      <trkpt lat="44.88877" lon="4.21849">
        <ele>1209.8</ele>
        <time>2021-06-06T12:08:03Z</time>
      </trkpt>
      <trkpt lat="44.88889" lon="4.21912">
        <ele>1205.2</ele>
        <time>2021-06-06T12:08:07Z</time>
      </trkpt>
      <trkpt lat="44.889" lon="4.21975">
        <ele>1201.6</ele>
        <time>2021-06-06T12:08:11Z</time>
      </trkpt>
      <trkpt lat="44.88914" lon="4.22032">
        <ele>1199.4</ele>
        <time>2021-06-06T12:08:15Z</time>
      </trkpt>
      <trkpt lat="44.88933" lon="4.22084">
        <ele>1196.8</ele>
        <time>2021-06-06T12:08:19Z</time>
      </trkpt>
      <trkpt lat="44.88954" lon="4.22134">
        <ele>1193</ele>
        <time>2021-06-06T12:08:23Z</time>
      </trkpt>
      <trkpt lat="44.88973" lon="4.22186">
        <ele>1190.4</ele>
        <time>2021-06-06T12:08:27Z</time>
      </trkpt>
      <trkpt lat="44.88996" lon="4.22233">
        <ele>1187.6</ele>
        <time>2021-06-06T12:08:31Z</time>
      </trkpt>
      <trkpt lat="44.89029" lon="4.22263">
        <ele>1184.6</ele>
        <time>2021-06-06T12:08:35Z</time>
      </trkpt>
      <trkpt lat="44.89066" lon="4.22294">
        <ele>1182.2</ele>
        <time>2021-06-06T12:08:39Z</time>
      </trkpt>
      <trkpt lat="44.89101" lon="4.22315">
        <ele>1179.8</ele>
        <time>2021-06-06T12:08:43Z</time>
      </trkpt>
      <trkpt lat="44.89132" lon="4.22335">
        <ele>1177.4</ele>
        <time>2021-06-06T12:08:47Z</time>
      </trkpt>
      <trkpt lat="44.89174" lon="4.22359">
        <ele>1173.6</ele>
        <time>2021-06-06T12:08:51Z</time>
      </trkpt>
      <trkpt lat="44.89206" lon="4.22402">
        <ele>1172</ele>
        <time>2021-06-06T12:08:55Z</time>
      </trkpt>
      <trkpt lat="44.89238" lon="4.22435">
        <ele>1169.6</ele>
        <time>2021-06-06T12:08:59Z</time>
      </trkpt>
      <trkpt lat="44.89277" lon="4.2246">
        <ele>1166.6</ele>
        <time>2021-06-06T12:09:03Z</time>
      </trkpt>
      <trkpt lat="44.89317" lon="4.22496">
        <ele>1162.6</ele>
        <time>2021-06-06T12:09:07Z</time>
      </trkpt>
      <trkpt lat="44.8935" lon="4.22527">
        <ele>1160.8</ele>
        <time>2021-06-06T12:09:11Z</time>
      </trkpt>
      <trkpt lat="44.89378" lon="4.22557">
        <ele>1160.4</ele>
        <time>2021-06-06T12:09:15Z</time>
      </trkpt>
      <trkpt lat="44.89404" lon="4.22593">
        <ele>1156.8</ele>
        <time>2021-06-06T12:09:19Z</time>
      </trkpt>
      <trkpt lat="44.89433" lon="4.22629">
        <ele>1154</ele>
        <time>2021-06-06T12:09:23Z</time>
      </trkpt>
      <trkpt lat="44.89464" lon="4.2266">
        <ele>1151.4</ele>
        <time>2021-06-06T12:09:27Z</time>
      </trkpt>
      <trkpt lat="44.89502" lon="4.22685">
        <ele>1149.6</ele>
        <time>2021-06-06T12:09:31Z</time>
      </trkpt>
      <trkpt lat="44.89537" lon="4.22707">
        <ele>1148.2</ele>
        <time>2021-06-06T12:09:35Z</time>
      </trkpt>
      <trkpt lat="44.89561" lon="4.22747">
        <ele>1145.4</ele>
        <time>2021-06-06T12:09:39Z</time>
      </trkpt>
      <trkpt lat="44.89563" lon="4.22792">
        <ele>1146.8</ele>
        <time>2021-06-06T12:09:43Z</time>
      </trkpt>
      <trkpt lat="44.89558" lon="4.22827">
        <ele>1148.2</ele>
        <time>2021-06-06T12:09:47Z</time>
      </trkpt>
      <trkpt lat="44.89553" lon="4.22852">
        <ele>1149.6</ele>
        <time>2021-06-06T12:09:51Z</time>
      </trkpt>
      <trkpt lat="44.89547" lon="4.22871">
        <ele>1151.2</ele>
        <time>2021-06-06T12:09:55Z</time>
      </trkpt>
      <trkpt lat="44.89541" lon="4.22889">
        <ele>1151.2</ele>
        <time>2021-06-06T12:09:59Z</time>
      </trkpt>
      <trkpt lat="44.89536" lon="4.22906">
        <ele>1152.6</ele>
        <time>2021-06-06T12:10:03Z</time>
      </trkpt>
      <trkpt lat="44.8953" lon="4.22924">
        <ele>1153.4</ele>
        <time>2021-06-06T12:10:07Z</time>
      </trkpt>
      <trkpt lat="44.89525" lon="4.22941">
        <ele>1153.4</ele>
        <time>2021-06-06T12:10:11Z</time>
      </trkpt>
      <trkpt lat="44.8952" lon="4.22959">
        <ele>1153.6</ele>
        <time>2021-06-06T12:10:15Z</time>
      </trkpt>
      <trkpt lat="44.89515" lon="4.22976">
        <ele>1154.4</ele>
        <time>2021-06-06T12:10:19Z</time>
      </trkpt>
      <trkpt lat="44.89511" lon="4.22992">
        <ele>1154.6</ele>
        <time>2021-06-06T12:10:23Z</time>
      </trkpt>
      <trkpt lat="44.89507" lon="4.23009">
        <ele>1154.8</ele>
        <time>2021-06-06T12:10:27Z</time>
      </trkpt>
      <trkpt lat="44.89503" lon="4.23027">
        <ele>1155.4</ele>
        <time>2021-06-06T12:10:31Z</time>
      </trkpt>
      <trkpt lat="44.89498" lon="4.23043">
        <ele>1156.6</ele>
        <time>2021-06-06T12:10:35Z</time>
      </trkpt>
      <trkpt lat="44.89492" lon="4.23059">
        <ele>1157.4</ele>
        <time>2021-06-06T12:10:39Z</time>
      </trkpt>
      <trkpt lat="44.89488" lon="4.23075">
        <ele>1157.4</ele>
        <time>2021-06-06T12:10:43Z</time>
      </trkpt>
      <trkpt lat="44.89483" lon="4.23091">
        <ele>1157.8</ele>
        <time>2021-06-06T12:10:47Z</time>
      </trkpt>
      <trkpt lat="44.89478" lon="4.23107">
        <ele>1158.2</ele>
        <time>2021-06-06T12:10:51Z</time>
      </trkpt>
      <trkpt lat="44.89472" lon="4.23124">
        <ele>1158.6</ele>
        <time>2021-06-06T12:10:55Z</time>
      </trkpt>
      <trkpt lat="44.89466" lon="4.2314">
        <ele>1159</ele>
        <time>2021-06-06T12:10:59Z</time>
      </trkpt>
      <trkpt lat="44.89461" lon="4.23158">
        <ele>1158.8</ele>
        <time>2021-06-06T12:11:03Z</time>
      </trkpt>
      <trkpt lat="44.89456" lon="4.23176">
        <ele>1159</ele>
        <time>2021-06-06T12:11:07Z</time>
      </trkpt>
      <trkpt lat="44.89453" lon="4.23195">
        <ele>1160.2</ele>
        <time>2021-06-06T12:11:11Z</time>
      </trkpt>
      <trkpt lat="44.89452" lon="4.23213">
        <ele>1160.6</ele>
        <time>2021-06-06T12:11:15Z</time>
      </trkpt>
      <trkpt lat="44.89452" lon="4.23231">
        <ele>1161.4</ele>
        <time>2021-06-06T12:11:19Z</time>
      </trkpt>
      <trkpt lat="44.89452" lon="4.23247">
        <ele>1162.2</ele>
        <time>2021-06-06T12:11:23Z</time>
      </trkpt>
      <trkpt lat="44.89453" lon="4.23264">
        <ele>1162.6</ele>
        <time>2021-06-06T12:11:27Z</time>
      </trkpt>
      <trkpt lat="44.89453" lon="4.23281">
        <ele>1163.2</ele>
        <time>2021-06-06T12:11:31Z</time>
      </trkpt>
      <trkpt lat="44.89453" lon="4.23298">
        <ele>1163.8</ele>
        <time>2021-06-06T12:11:35Z</time>
      </trkpt>
      <trkpt lat="44.89453" lon="4.23317">
        <ele>1163.6</ele>
        <time>2021-06-06T12:11:39Z</time>
      </trkpt>
      <trkpt lat="44.89452" lon="4.23336">
        <ele>1164.6</ele>
        <time>2021-06-06T12:11:43Z</time>
      </trkpt>
      <trkpt lat="44.89451" lon="4.23356">
        <ele>1164.2</ele>
        <time>2021-06-06T12:11:47Z</time>
      </trkpt>
      <trkpt lat="44.89452" lon="4.23377">
        <ele>1164.2</ele>
        <time>2021-06-06T12:11:51Z</time>
      </trkpt>
      <trkpt lat="44.89453" lon="4.23398">
        <ele>1165</ele>
        <time>2021-06-06T12:11:55Z</time>
      </trkpt>
      <trkpt lat="44.89454" lon="4.23417">
        <ele>1165.8</ele>
        <time>2021-06-06T12:11:59Z</time>
      </trkpt>
      <trkpt lat="44.89456" lon="4.23435">
        <ele>1166.6</ele>
        <time>2021-06-06T12:12:03Z</time>
      </trkpt>
      <trkpt lat="44.89458" lon="4.23452">
        <ele>1167</ele>
        <time>2021-06-06T12:12:07Z</time>
      </trkpt>
      <trkpt lat="44.89458" lon="4.23469">
        <ele>1168</ele>
        <time>2021-06-06T12:12:11Z</time>
      </trkpt>
      <trkpt lat="44.89458" lon="4.23484">
        <ele>1169.2</ele>
        <time>2021-06-06T12:12:15Z</time>
      </trkpt>
      <trkpt lat="44.89458" lon="4.23499">
        <ele>1169.4</ele>
        <time>2021-06-06T12:12:19Z</time>
      </trkpt>
      <trkpt lat="44.89459" lon="4.23514">
        <ele>1170.4</ele>
        <time>2021-06-06T12:12:23Z</time>
      </trkpt>
      <trkpt lat="44.8946" lon="4.23528">
        <ele>1171.6</ele>
        <time>2021-06-06T12:12:27Z</time>
      </trkpt>
      <trkpt lat="44.89461" lon="4.23542">
        <ele>1171.6</ele>
        <time>2021-06-06T12:12:31Z</time>
      </trkpt>
      <trkpt lat="44.89464" lon="4.23557">
        <ele>1171.6</ele>
        <time>2021-06-06T12:12:35Z</time>
      </trkpt>
      <trkpt lat="44.89467" lon="4.23573">
        <ele>1172</ele>
        <time>2021-06-06T12:12:39Z</time>
      </trkpt>
      <trkpt lat="44.89472" lon="4.23588">
        <ele>1172.4</ele>
        <time>2021-06-06T12:12:43Z</time>
      </trkpt>
      <trkpt lat="44.89476" lon="4.23604">
        <ele>1172.8</ele>
        <time>2021-06-06T12:12:47Z</time>
      </trkpt>
      <trkpt lat="44.8948" lon="4.2362">
        <ele>1172.8</ele>
        <time>2021-06-06T12:12:51Z</time>
      </trkpt>
      <trkpt lat="44.89483" lon="4.23636">
        <ele>1174</ele>
        <time>2021-06-06T12:12:55Z</time>
      </trkpt>
      <trkpt lat="44.89487" lon="4.23651">
        <ele>1174.4</ele>
        <time>2021-06-06T12:12:59Z</time>
      </trkpt>
      <trkpt lat="44.89491" lon="4.23667">
        <ele>1174.8</ele>
        <time>2021-06-06T12:13:03Z</time>
      </trkpt>
      <trkpt lat="44.89496" lon="4.23683">
        <ele>1175</ele>
        <time>2021-06-06T12:13:07Z</time>
      </trkpt>
      <trkpt lat="44.89502" lon="4.237">
        <ele>1175</ele>
        <time>2021-06-06T12:13:11Z</time>
      </trkpt>
      <trkpt lat="44.89507" lon="4.23718">
        <ele>1175.4</ele>
        <time>2021-06-06T12:13:15Z</time>
      </trkpt>
      <trkpt lat="44.89514" lon="4.23733">
        <ele>1175.6</ele>
        <time>2021-06-06T12:13:19Z</time>
      </trkpt>
      <trkpt lat="44.89521" lon="4.23748">
        <ele>1176.2</ele>
        <time>2021-06-06T12:13:23Z</time>
      </trkpt>
      <trkpt lat="44.89527" lon="4.23761">
        <ele>1176.8</ele>
        <time>2021-06-06T12:13:27Z</time>
      </trkpt>
      <trkpt lat="44.89534" lon="4.23775">
        <ele>1177.4</ele>
        <time>2021-06-06T12:13:31Z</time>
      </trkpt>
      <trkpt lat="44.89541" lon="4.23784">
        <ele>1178.4</ele>
        <time>2021-06-06T12:13:35Z</time>
      </trkpt>
      <trkpt lat="44.89548" lon="4.23795">
        <ele>1179.6</ele>
        <time>2021-06-06T12:13:39Z</time>
      </trkpt>
      <trkpt lat="44.89556" lon="4.23804">
        <ele>1180</ele>
        <time>2021-06-06T12:13:43Z</time>
      </trkpt>
      <trkpt lat="44.89564" lon="4.23813">
        <ele>1180.4</ele>
        <time>2021-06-06T12:13:47Z</time>
      </trkpt>
      <trkpt lat="44.89573" lon="4.23822">
        <ele>1181</ele>
        <time>2021-06-06T12:13:51Z</time>
      </trkpt>
      <trkpt lat="44.89582" lon="4.23831">
        <ele>1181.8</ele>
        <time>2021-06-06T12:13:55Z</time>
      </trkpt>
      <trkpt lat="44.89591" lon="4.2384">
        <ele>1182.4</ele>
        <time>2021-06-06T12:13:59Z</time>
      </trkpt>
      <trkpt lat="44.89599" lon="4.2385">
        <ele>1182.6</ele>
        <time>2021-06-06T12:14:03Z</time>
      </trkpt>
      <trkpt lat="44.89608" lon="4.23859">
        <ele>1181.4</ele>
        <time>2021-06-06T12:14:07Z</time>
      </trkpt>
      <trkpt lat="44.89618" lon="4.23869">
        <ele>1182.6</ele>
        <time>2021-06-06T12:14:11Z</time>
      </trkpt>
      <trkpt lat="44.89629" lon="4.2388">
        <ele>1182.6</ele>
        <time>2021-06-06T12:14:15Z</time>
      </trkpt>
      <trkpt lat="44.89642" lon="4.2389">
        <ele>1182.2</ele>
        <time>2021-06-06T12:14:19Z</time>
      </trkpt>
      <trkpt lat="44.89656" lon="4.23902">
        <ele>1182.6</ele>
        <time>2021-06-06T12:14:23Z</time>
      </trkpt>
      <trkpt lat="44.8967" lon="4.23915">
        <ele>1182.2</ele>
        <time>2021-06-06T12:14:27Z</time>
      </trkpt>
      <trkpt lat="44.89684" lon="4.23926">
        <ele>1182</ele>
        <time>2021-06-06T12:14:31Z</time>
      </trkpt>
      <trkpt lat="44.89695" lon="4.23934">
        <ele>1182.8</ele>
        <time>2021-06-06T12:14:35Z</time>
      </trkpt>
      <trkpt lat="44.89707" lon="4.23941">
        <ele>1182.4</ele>
        <time>2021-06-06T12:14:39Z</time>
      </trkpt>
      <trkpt lat="44.89722" lon="4.23948">
        <ele>1183.6</ele>
        <time>2021-06-06T12:14:43Z</time>
      </trkpt>
      <trkpt lat="44.89736" lon="4.23954">
        <ele>1184</ele>
        <time>2021-06-06T12:14:47Z</time>
      </trkpt>
      <trkpt lat="44.89751" lon="4.23958">
        <ele>1184.2</ele>
        <time>2021-06-06T12:14:51Z</time>
      </trkpt>
      <trkpt lat="44.89763" lon="4.23961">
        <ele>1184</ele>
        <time>2021-06-06T12:14:55Z</time>
      </trkpt>
      <trkpt lat="44.89776" lon="4.23964">
        <ele>1184.6</ele>
        <time>2021-06-06T12:14:59Z</time>
      </trkpt>
      <trkpt lat="44.8979" lon="4.23967">
        <ele>1184.2</ele>
        <time>2021-06-06T12:15:03Z</time>
      </trkpt>
      <trkpt lat="44.89803" lon="4.23969">
        <ele>1185</ele>
        <time>2021-06-06T12:15:07Z</time>
      </trkpt>
      <trkpt lat="44.89814" lon="4.23972">
        <ele>1184.6</ele>
        <time>2021-06-06T12:15:11Z</time>
      </trkpt>
      <trkpt lat="44.89818" lon="4.23973">
        <ele>1185.4</ele>
        <time>2021-06-06T12:15:15Z</time>
      </trkpt>
      <trkpt lat="44.89826" lon="4.23973">
        <ele>1185.4</ele>
        <time>2021-06-06T12:15:19Z</time>
      </trkpt>
      <trkpt lat="44.89834" lon="4.23977">
        <ele>1186.6</ele>
        <time>2021-06-06T12:15:23Z</time>
      </trkpt>
      <trkpt lat="44.89839" lon="4.2398">
        <ele>1186.4</ele>
        <time>2021-06-06T12:15:27Z</time>
      </trkpt>
      <trkpt lat="44.89841" lon="4.23992">
        <ele>1185.6</ele>
        <time>2021-06-06T12:15:31Z</time>
      </trkpt>
      <trkpt lat="44.89834" lon="4.23996">
        <ele>1183.8</ele>
        <time>2021-06-06T12:16:10Z</time>
      </trkpt>
      <trkpt lat="44.89831" lon="4.24001">
        <ele>1182</ele>
        <time>2021-06-06T12:18:53Z</time>
      </trkpt>
      <trkpt lat="44.89838" lon="4.24004">
        <ele>1182.8</ele>
        <time>2021-06-06T12:18:57Z</time>
      </trkpt>
      <trkpt lat="44.89841" lon="4.24013">
        <ele>1182.8</ele>
        <time>2021-06-06T12:19:01Z</time>
      </trkpt>
      <trkpt lat="44.8984" lon="4.24025">
        <ele>1182.2</ele>
        <time>2021-06-06T12:19:05Z</time>
      </trkpt>
      <trkpt lat="44.8984" lon="4.24044">
        <ele>1179.8</ele>
        <time>2021-06-06T12:19:09Z</time>
      </trkpt>
      <trkpt lat="44.89851" lon="4.24063">
        <ele>1179.6</ele>
        <time>2021-06-06T12:19:13Z</time>
      </trkpt>
      <trkpt lat="44.89864" lon="4.24081">
        <ele>1177.2</ele>
        <time>2021-06-06T12:19:17Z</time>
      </trkpt>
      <trkpt lat="44.89877" lon="4.24099">
        <ele>1177.2</ele>
        <time>2021-06-06T12:19:21Z</time>
      </trkpt>
      <trkpt lat="44.89891" lon="4.24118">
        <ele>1176</ele>
        <time>2021-06-06T12:19:25Z</time>
      </trkpt>
      <trkpt lat="44.89906" lon="4.24138">
        <ele>1175.2</ele>
        <time>2021-06-06T12:19:29Z</time>
      </trkpt>
      <trkpt lat="44.89921" lon="4.2416">
        <ele>1174</ele>
        <time>2021-06-06T12:19:33Z</time>
      </trkpt>
      <trkpt lat="44.89938" lon="4.24182">
        <ele>1172.8</ele>
        <time>2021-06-06T12:19:37Z</time>
      </trkpt>
      <trkpt lat="44.89954" lon="4.24204">
        <ele>1172.8</ele>
        <time>2021-06-06T12:19:41Z</time>
      </trkpt>
      <trkpt lat="44.89966" lon="4.24226">
        <ele>1173.8</ele>
        <time>2021-06-06T12:19:45Z</time>
      </trkpt>
      <trkpt lat="44.89974" lon="4.2425">
        <ele>1173.8</ele>
        <time>2021-06-06T12:19:49Z</time>
      </trkpt>
      <trkpt lat="44.89974" lon="4.24274">
        <ele>1174.4</ele>
        <time>2021-06-06T12:19:53Z</time>
      </trkpt>
      <trkpt lat="44.8997" lon="4.24294">
        <ele>1175.4</ele>
        <time>2021-06-06T12:19:57Z</time>
      </trkpt>
      <trkpt lat="44.89965" lon="4.2431">
        <ele>1176.2</ele>
        <time>2021-06-06T12:20:01Z</time>
      </trkpt>
      <trkpt lat="44.89963" lon="4.24324">
        <ele>1177.2</ele>
        <time>2021-06-06T12:20:05Z</time>
      </trkpt>
      <trkpt lat="44.89959" lon="4.24339">
        <ele>1177</ele>
        <time>2021-06-06T12:20:09Z</time>
      </trkpt>
      <trkpt lat="44.89955" lon="4.24353">
        <ele>1177.8</ele>
        <time>2021-06-06T12:20:13Z</time>
      </trkpt>
      <trkpt lat="44.8995" lon="4.24367">
        <ele>1178.2</ele>
        <time>2021-06-06T12:20:17Z</time>
      </trkpt>
      <trkpt lat="44.89945" lon="4.24379">
        <ele>1178.6</ele>
        <time>2021-06-06T12:20:21Z</time>
      </trkpt>
      <trkpt lat="44.89941" lon="4.24392">
        <ele>1179.4</ele>
        <time>2021-06-06T12:20:25Z</time>
      </trkpt>
      <trkpt lat="44.89936" lon="4.24404">
        <ele>1180.6</ele>
        <time>2021-06-06T12:20:29Z</time>
      </trkpt>
      <trkpt lat="44.89932" lon="4.24416">
        <ele>1180.4</ele>
        <time>2021-06-06T12:20:33Z</time>
      </trkpt>
      <trkpt lat="44.89928" lon="4.24429">
        <ele>1181</ele>
        <time>2021-06-06T12:20:37Z</time>
      </trkpt>
      <trkpt lat="44.89924" lon="4.24442">
        <ele>1181.8</ele>
        <time>2021-06-06T12:20:41Z</time>
      </trkpt>
      <trkpt lat="44.89919" lon="4.24455">
        <ele>1182.2</ele>
        <time>2021-06-06T12:20:45Z</time>
      </trkpt>
      <trkpt lat="44.89915" lon="4.24467">
        <ele>1183.2</ele>
        <time>2021-06-06T12:20:49Z</time>
      </trkpt>
      <trkpt lat="44.8991" lon="4.24479">
        <ele>1183.6</ele>
        <time>2021-06-06T12:20:53Z</time>
      </trkpt>
      <trkpt lat="44.89906" lon="4.2449">
        <ele>1184.8</ele>
        <time>2021-06-06T12:20:57Z</time>
      </trkpt>
      <trkpt lat="44.89901" lon="4.24501">
        <ele>1185</ele>
        <time>2021-06-06T12:21:01Z</time>
      </trkpt>
      <trkpt lat="44.89897" lon="4.24512">
        <ele>1185.8</ele>
        <time>2021-06-06T12:21:05Z</time>
      </trkpt>
      <trkpt lat="44.89892" lon="4.24523">
        <ele>1186</ele>
        <time>2021-06-06T12:21:09Z</time>
      </trkpt>
      <trkpt lat="44.89887" lon="4.24534">
        <ele>1186.6</ele>
        <time>2021-06-06T12:21:13Z</time>
      </trkpt>
      <trkpt lat="44.89882" lon="4.24545">
        <ele>1186.4</ele>
        <time>2021-06-06T12:21:17Z</time>
      </trkpt>
      <trkpt lat="44.89876" lon="4.24556">
        <ele>1186.8</ele>
        <time>2021-06-06T12:21:21Z</time>
      </trkpt>
      <trkpt lat="44.89869" lon="4.24566">
        <ele>1187</ele>
        <time>2021-06-06T12:21:25Z</time>
      </trkpt>
      <trkpt lat="44.89862" lon="4.24575">
        <ele>1188</ele>
        <time>2021-06-06T12:21:29Z</time>
      </trkpt>
      <trkpt lat="44.89856" lon="4.24584">
        <ele>1188.2</ele>
        <time>2021-06-06T12:21:33Z</time>
      </trkpt>
      <trkpt lat="44.89849" lon="4.24593">
        <ele>1188.8</ele>
        <time>2021-06-06T12:21:37Z</time>
      </trkpt>
      <trkpt lat="44.89842" lon="4.24603">
        <ele>1189.8</ele>
        <time>2021-06-06T12:21:41Z</time>
      </trkpt>
      <trkpt lat="44.89835" lon="4.2461">
        <ele>1189.8</ele>
        <time>2021-06-06T12:21:45Z</time>
      </trkpt>
      <trkpt lat="44.89828" lon="4.24617">
        <ele>1191.2</ele>
        <time>2021-06-06T12:21:49Z</time>
      </trkpt>
      <trkpt lat="44.89821" lon="4.24624">
        <ele>1191.4</ele>
        <time>2021-06-06T12:21:53Z</time>
      </trkpt>
      <trkpt lat="44.89813" lon="4.24629">
        <ele>1192.4</ele>
        <time>2021-06-06T12:21:57Z</time>
      </trkpt>
      <trkpt lat="44.89806" lon="4.24634">
        <ele>1193</ele>
        <time>2021-06-06T12:22:01Z</time>
      </trkpt>
      <trkpt lat="44.89799" lon="4.24638">
        <ele>1194.2</ele>
        <time>2021-06-06T12:22:05Z</time>
      </trkpt>
      <trkpt lat="44.89791" lon="4.24641">
        <ele>1195</ele>
        <time>2021-06-06T12:22:09Z</time>
      </trkpt>
      <trkpt lat="44.89783" lon="4.24644">
        <ele>1195.4</ele>
        <time>2021-06-06T12:22:13Z</time>
      </trkpt>
      <trkpt lat="44.89775" lon="4.24648">
        <ele>1196.2</ele>
        <time>2021-06-06T12:22:17Z</time>
      </trkpt>
      <trkpt lat="44.89768" lon="4.24652">
        <ele>1197</ele>
        <time>2021-06-06T12:22:21Z</time>
      </trkpt>
      <trkpt lat="44.89761" lon="4.24656">
        <ele>1197.6</ele>
        <time>2021-06-06T12:22:25Z</time>
      </trkpt>
      <trkpt lat="44.89754" lon="4.24661">
        <ele>1197.8</ele>
        <time>2021-06-06T12:22:29Z</time>
      </trkpt>
      <trkpt lat="44.89748" lon="4.24666">
        <ele>1199</ele>
        <time>2021-06-06T12:22:33Z</time>
      </trkpt>
      <trkpt lat="44.89741" lon="4.24671">
        <ele>1199.8</ele>
        <time>2021-06-06T12:22:37Z</time>
      </trkpt>
      <trkpt lat="44.89735" lon="4.24675">
        <ele>1200</ele>
        <time>2021-06-06T12:22:41Z</time>
      </trkpt>
      <trkpt lat="44.89729" lon="4.24679">
        <ele>1200.6</ele>
        <time>2021-06-06T12:22:45Z</time>
      </trkpt>
      <trkpt lat="44.89722" lon="4.24683">
        <ele>1201</ele>
        <time>2021-06-06T12:22:49Z</time>
      </trkpt>
      <trkpt lat="44.89715" lon="4.24687">
        <ele>1201.6</ele>
        <time>2021-06-06T12:22:53Z</time>
      </trkpt>
      <trkpt lat="44.89709" lon="4.24692">
        <ele>1202.4</ele>
        <time>2021-06-06T12:22:57Z</time>
      </trkpt>
      <trkpt lat="44.89702" lon="4.24697">
        <ele>1202.8</ele>
        <time>2021-06-06T12:23:01Z</time>
      </trkpt>
      <trkpt lat="44.89696" lon="4.24704">
        <ele>1203.2</ele>
        <time>2021-06-06T12:23:05Z</time>
      </trkpt>
      <trkpt lat="44.89689" lon="4.24709">
        <ele>1204.2</ele>
        <time>2021-06-06T12:23:09Z</time>
      </trkpt>
      <trkpt lat="44.89683" lon="4.24715">
        <ele>1204.2</ele>
        <time>2021-06-06T12:23:13Z</time>
      </trkpt>
      <trkpt lat="44.89676" lon="4.24721">
        <ele>1205.4</ele>
        <time>2021-06-06T12:23:17Z</time>
      </trkpt>
      <trkpt lat="44.89671" lon="4.24724">
        <ele>1205.4</ele>
        <time>2021-06-06T12:23:21Z</time>
      </trkpt>
      <trkpt lat="44.89662" lon="4.24742">
        <ele>1206.6</ele>
        <time>2021-06-06T12:32:40Z</time>
      </trkpt>
      <trkpt lat="44.89657" lon="4.24751">
        <ele>1207</ele>
        <time>2021-06-06T12:32:44Z</time>
      </trkpt>
      <trkpt lat="44.89653" lon="4.24762">
        <ele>1207.6</ele>
        <time>2021-06-06T12:32:48Z</time>
      </trkpt>
      <trkpt lat="44.89648" lon="4.24775">
        <ele>1207.4</ele>
        <time>2021-06-06T12:32:52Z</time>
      </trkpt>
      <trkpt lat="44.89644" lon="4.24788">
        <ele>1207.8</ele>
        <time>2021-06-06T12:32:56Z</time>
      </trkpt>
      <trkpt lat="44.89639" lon="4.24803">
        <ele>1208.4</ele>
        <time>2021-06-06T12:33:00Z</time>
      </trkpt>
      <trkpt lat="44.89635" lon="4.24818">
        <ele>1208.2</ele>
        <time>2021-06-06T12:33:04Z</time>
      </trkpt>
      <trkpt lat="44.89631" lon="4.24833">
        <ele>1208.6</ele>
        <time>2021-06-06T12:33:08Z</time>
      </trkpt>
      <trkpt lat="44.89627" lon="4.24849">
        <ele>1209.2</ele>
        <time>2021-06-06T12:33:12Z</time>
      </trkpt>
      <trkpt lat="44.89624" lon="4.24867">
        <ele>1209.6</ele>
        <time>2021-06-06T12:33:16Z</time>
      </trkpt>
      <trkpt lat="44.89623" lon="4.24885">
        <ele>1209.6</ele>
        <time>2021-06-06T12:33:20Z</time>
      </trkpt>
      <trkpt lat="44.89627" lon="4.24902">
        <ele>1209.8</ele>
        <time>2021-06-06T12:33:24Z</time>
      </trkpt>
      <trkpt lat="44.89633" lon="4.24919">
        <ele>1210.4</ele>
        <time>2021-06-06T12:33:28Z</time>
      </trkpt>
      <trkpt lat="44.89639" lon="4.24934">
        <ele>1211</ele>
        <time>2021-06-06T12:33:32Z</time>
      </trkpt>
      <trkpt lat="44.89646" lon="4.24949">
        <ele>1210.8</ele>
        <time>2021-06-06T12:33:36Z</time>
      </trkpt>
      <trkpt lat="44.89652" lon="4.24965">
        <ele>1210.8</ele>
        <time>2021-06-06T12:33:40Z</time>
      </trkpt>
      <trkpt lat="44.89657" lon="4.24982">
        <ele>1211.2</ele>
        <time>2021-06-06T12:33:44Z</time>
      </trkpt>
      <trkpt lat="44.89661" lon="4.24999">
        <ele>1211.6</ele>
        <time>2021-06-06T12:33:48Z</time>
      </trkpt>
      <trkpt lat="44.89664" lon="4.25018">
        <ele>1211.6</ele>
        <time>2021-06-06T12:33:52Z</time>
      </trkpt>
      <trkpt lat="44.89667" lon="4.25036">
        <ele>1212.2</ele>
        <time>2021-06-06T12:33:56Z</time>
      </trkpt>
      <trkpt lat="44.89669" lon="4.25055">
        <ele>1212.4</ele>
        <time>2021-06-06T12:34:00Z</time>
      </trkpt>
      <trkpt lat="44.89671" lon="4.25076">
        <ele>1213</ele>
        <time>2021-06-06T12:34:04Z</time>
      </trkpt>
      <trkpt lat="44.89674" lon="4.25097">
        <ele>1212.8</ele>
        <time>2021-06-06T12:34:08Z</time>
      </trkpt>
      <trkpt lat="44.89676" lon="4.25119">
        <ele>1212.4</ele>
        <time>2021-06-06T12:34:12Z</time>
      </trkpt>
      <trkpt lat="44.89679" lon="4.25136">
        <ele>1213</ele>
        <time>2021-06-06T12:34:16Z</time>
      </trkpt>
      <trkpt lat="44.8968" lon="4.25144">
        <ele>1212.6</ele>
        <time>2021-06-06T12:34:20Z</time>
      </trkpt>
      <trkpt lat="44.89681" lon="4.25156">
        <ele>1213.2</ele>
        <time>2021-06-06T12:35:06Z</time>
      </trkpt>
      <trkpt lat="44.89686" lon="4.25174">
        <ele>1213.6</ele>
        <time>2021-06-06T12:35:10Z</time>
      </trkpt>
      <trkpt lat="44.89693" lon="4.25191">
        <ele>1213.6</ele>
        <time>2021-06-06T12:35:14Z</time>
      </trkpt>
      <trkpt lat="44.89702" lon="4.25206">
        <ele>1213.4</ele>
        <time>2021-06-06T12:35:18Z</time>
      </trkpt>
      <trkpt lat="44.89713" lon="4.25224">
        <ele>1212.8</ele>
        <time>2021-06-06T12:35:22Z</time>
      </trkpt>
      <trkpt lat="44.89723" lon="4.25242">
        <ele>1212.4</ele>
        <time>2021-06-06T12:35:26Z</time>
      </trkpt>
      <trkpt lat="44.89735" lon="4.25262">
        <ele>1212</ele>
        <time>2021-06-06T12:35:30Z</time>
      </trkpt>
      <trkpt lat="44.89748" lon="4.25281">
        <ele>1211.4</ele>
        <time>2021-06-06T12:35:34Z</time>
      </trkpt>
      <trkpt lat="44.89762" lon="4.25302">
        <ele>1210.6</ele>
        <time>2021-06-06T12:35:38Z</time>
      </trkpt>
      <trkpt lat="44.89778" lon="4.25323">
        <ele>1209.2</ele>
        <time>2021-06-06T12:35:42Z</time>
      </trkpt>
      <trkpt lat="44.89797" lon="4.25345">
        <ele>1209.6</ele>
        <time>2021-06-06T12:35:46Z</time>
      </trkpt>
      <trkpt lat="44.89813" lon="4.2537">
        <ele>1209.4</ele>
        <time>2021-06-06T12:35:50Z</time>
      </trkpt>
      <trkpt lat="44.89829" lon="4.25395">
        <ele>1209.2</ele>
        <time>2021-06-06T12:35:54Z</time>
      </trkpt>
      <trkpt lat="44.89842" lon="4.25419">
        <ele>1208.8</ele>
        <time>2021-06-06T12:35:58Z</time>
      </trkpt>
      <trkpt lat="44.89853" lon="4.25441">
        <ele>1208.4</ele>
        <time>2021-06-06T12:36:02Z</time>
      </trkpt>
      <trkpt lat="44.89863" lon="4.25463">
        <ele>1208</ele>
        <time>2021-06-06T12:36:06Z</time>
      </trkpt>
      <trkpt lat="44.89874" lon="4.25486">
        <ele>1207.2</ele>
        <time>2021-06-06T12:36:10Z</time>
      </trkpt>
      <trkpt lat="44.8989" lon="4.25508">
        <ele>1206</ele>
        <time>2021-06-06T12:36:14Z</time>
      </trkpt>
      <trkpt lat="44.8991" lon="4.25531">
        <ele>1202.8</ele>
        <time>2021-06-06T12:36:18Z</time>
      </trkpt>
      <trkpt lat="44.89935" lon="4.25549">
        <ele>1201.6</ele>
        <time>2021-06-06T12:36:22Z</time>
      </trkpt>
      <trkpt lat="44.89963" lon="4.25562">
        <ele>1199.6</ele>
        <time>2021-06-06T12:36:26Z</time>
      </trkpt>
      <trkpt lat="44.89992" lon="4.25575">
        <ele>1196.4</ele>
        <time>2021-06-06T12:36:30Z</time>
      </trkpt>
      <trkpt lat="44.90022" lon="4.2559">
        <ele>1194.2</ele>
        <time>2021-06-06T12:36:34Z</time>
      </trkpt>
      <trkpt lat="44.90055" lon="4.25604">
        <ele>1192.8</ele>
        <time>2021-06-06T12:36:38Z</time>
      </trkpt>
      <trkpt lat="44.90087" lon="4.25627">
        <ele>1190.2</ele>
        <time>2021-06-06T12:36:42Z</time>
      </trkpt>
      <trkpt lat="44.90118" lon="4.25651">
        <ele>1187.6</ele>
        <time>2021-06-06T12:36:46Z</time>
      </trkpt>
      <trkpt lat="44.90142" lon="4.25687">
        <ele>1185</ele>
        <time>2021-06-06T12:36:50Z</time>
      </trkpt>
      <trkpt lat="44.90167" lon="4.25724">
        <ele>1183</ele>
        <time>2021-06-06T12:36:54Z</time>
      </trkpt>
      <trkpt lat="44.90191" lon="4.25764">
        <ele>1181.2</ele>
        <time>2021-06-06T12:36:58Z</time>
      </trkpt>
      <trkpt lat="44.90215" lon="4.25804">
        <ele>1178.2</ele>
        <time>2021-06-06T12:37:02Z</time>
      </trkpt>
      <trkpt lat="44.90245" lon="4.25829">
        <ele>1177.2</ele>
        <time>2021-06-06T12:37:06Z</time>
      </trkpt>
      <trkpt lat="44.90275" lon="4.25844">
        <ele>1177.2</ele>
        <time>2021-06-06T12:37:10Z</time>
      </trkpt>
      <trkpt lat="44.90302" lon="4.25846">
        <ele>1177</ele>
        <time>2021-06-06T12:37:14Z</time>
      </trkpt>
      <trkpt lat="44.90327" lon="4.25839">
        <ele>1175.6</ele>
        <time>2021-06-06T12:37:18Z</time>
      </trkpt>
      <trkpt lat="44.90353" lon="4.25832">
        <ele>1174.2</ele>
        <time>2021-06-06T12:37:22Z</time>
      </trkpt>
      <trkpt lat="44.90382" lon="4.25825">
        <ele>1172.6</ele>
        <time>2021-06-06T12:37:26Z</time>
      </trkpt>
      <trkpt lat="44.90416" lon="4.25821">
        <ele>1169.4</ele>
        <time>2021-06-06T12:37:30Z</time>
      </trkpt>
      <trkpt lat="44.90451" lon="4.25823">
        <ele>1166.8</ele>
        <time>2021-06-06T12:37:34Z</time>
      </trkpt>
      <trkpt lat="44.90486" lon="4.25813">
        <ele>1164</ele>
        <time>2021-06-06T12:37:38Z</time>
      </trkpt>
      <trkpt lat="44.90519" lon="4.25797">
        <ele>1163</ele>
        <time>2021-06-06T12:37:42Z</time>
      </trkpt>
      <trkpt lat="44.90552" lon="4.25786">
        <ele>1162.2</ele>
        <time>2021-06-06T12:37:46Z</time>
      </trkpt>
      <trkpt lat="44.90586" lon="4.25793">
        <ele>1160</ele>
        <time>2021-06-06T12:37:50Z</time>
      </trkpt>
      <trkpt lat="44.9061" lon="4.25827">
        <ele>1158.4</ele>
        <time>2021-06-06T12:37:54Z</time>
      </trkpt>
      <trkpt lat="44.90626" lon="4.25875">
        <ele>1155.8</ele>
        <time>2021-06-06T12:37:58Z</time>
      </trkpt>
      <trkpt lat="44.9064" lon="4.25927">
        <ele>1153.8</ele>
        <time>2021-06-06T12:38:02Z</time>
      </trkpt>
      <trkpt lat="44.9067" lon="4.25966">
        <ele>1148.8</ele>
        <time>2021-06-06T12:38:06Z</time>
      </trkpt>
      <trkpt lat="44.90709" lon="4.25969">
        <ele>1146.2</ele>
        <time>2021-06-06T12:38:10Z</time>
      </trkpt>
      <trkpt lat="44.90741" lon="4.25938">
        <ele>1143.2</ele>
        <time>2021-06-06T12:38:14Z</time>
      </trkpt>
      <trkpt lat="44.90761" lon="4.25918">
        <ele>1142.4</ele>
        <time>2021-06-06T12:38:18Z</time>
      </trkpt>
      <trkpt lat="44.90771" lon="4.25911">
        <ele>1142</ele>
        <time>2021-06-06T12:38:22Z</time>
      </trkpt>
      <trkpt lat="44.90785" lon="4.25899">
        <ele>1140.8</ele>
        <time>2021-06-06T12:38:26Z</time>
      </trkpt>
      <trkpt lat="44.90801" lon="4.25881">
        <ele>1139.6</ele>
        <time>2021-06-06T12:38:30Z</time>
      </trkpt>
      <trkpt lat="44.90809" lon="4.25858">
        <ele>1138.8</ele>
        <time>2021-06-06T12:38:34Z</time>
      </trkpt>
      <trkpt lat="44.90825" lon="4.25848">
        <ele>1137.2</ele>
        <time>2021-06-06T12:38:38Z</time>
      </trkpt>
      <trkpt lat="44.90844" lon="4.25865">
        <ele>1136</ele>
        <time>2021-06-06T12:38:42Z</time>
      </trkpt>
      <trkpt lat="44.90868" lon="4.25885">
        <ele>1133.6</ele>
        <time>2021-06-06T12:38:46Z</time>
      </trkpt>
      <trkpt lat="44.90898" lon="4.25886">
        <ele>1131.2</ele>
        <time>2021-06-06T12:38:50Z</time>
      </trkpt>
      <trkpt lat="44.90928" lon="4.25874">
        <ele>1128.4</ele>
        <time>2021-06-06T12:38:54Z</time>
      </trkpt>
      <trkpt lat="44.90955" lon="4.25861">
        <ele>1126.4</ele>
        <time>2021-06-06T12:38:58Z</time>
      </trkpt>
      <trkpt lat="44.90978" lon="4.25861">
        <ele>1126.4</ele>
        <time>2021-06-06T12:39:02Z</time>
      </trkpt>
      <trkpt lat="44.9098" lon="4.25891">
        <ele>1125</ele>
        <time>2021-06-06T12:39:06Z</time>
      </trkpt>
      <trkpt lat="44.90971" lon="4.25921">
        <ele>1124.6</ele>
        <time>2021-06-06T12:39:10Z</time>
      </trkpt>
      <trkpt lat="44.90959" lon="4.2595">
        <ele>1123.8</ele>
        <time>2021-06-06T12:39:14Z</time>
      </trkpt>
      <trkpt lat="44.90957" lon="4.25983">
        <ele>1123</ele>
        <time>2021-06-06T12:39:18Z</time>
      </trkpt>
      <trkpt lat="44.9096" lon="4.26019">
        <ele>1122.4</ele>
        <time>2021-06-06T12:39:22Z</time>
      </trkpt>
      <trkpt lat="44.90968" lon="4.26056">
        <ele>1120.8</ele>
        <time>2021-06-06T12:39:26Z</time>
      </trkpt>
      <trkpt lat="44.90977" lon="4.26098">
        <ele>1119.4</ele>
        <time>2021-06-06T12:39:30Z</time>
      </trkpt>
      <trkpt lat="44.90979" lon="4.26148">
        <ele>1115.4</ele>
        <time>2021-06-06T12:39:34Z</time>
      </trkpt>
      <trkpt lat="44.90962" lon="4.26189">
        <ele>1112.4</ele>
        <time>2021-06-06T12:39:38Z</time>
      </trkpt>
      <trkpt lat="44.90948" lon="4.26232">
        <ele>1110.2</ele>
        <time>2021-06-06T12:39:42Z</time>
      </trkpt>
      <trkpt lat="44.90931" lon="4.26278">
        <ele>1108.4</ele>
        <time>2021-06-06T12:39:46Z</time>
      </trkpt>
      <trkpt lat="44.90919" lon="4.26324">
        <ele>1106.2</ele>
        <time>2021-06-06T12:39:50Z</time>
      </trkpt>
      <trkpt lat="44.9092" lon="4.26378">
        <ele>1101.8</ele>
        <time>2021-06-06T12:39:54Z</time>
      </trkpt>
      <trkpt lat="44.90912" lon="4.26431">
        <ele>1100.6</ele>
        <time>2021-06-06T12:39:58Z</time>
      </trkpt>
      <trkpt lat="44.90911" lon="4.26484">
        <ele>1096.8</ele>
        <time>2021-06-06T12:40:02Z</time>
      </trkpt>
      <trkpt lat="44.9091" lon="4.26535">
        <ele>1095.8</ele>
        <time>2021-06-06T12:40:06Z</time>
      </trkpt>
      <trkpt lat="44.90928" lon="4.26565">
        <ele>1094.6</ele>
        <time>2021-06-06T12:40:10Z</time>
      </trkpt>
      <trkpt lat="44.90948" lon="4.26602">
        <ele>1091.6</ele>
        <time>2021-06-06T12:40:14Z</time>
      </trkpt>
      <trkpt lat="44.90956" lon="4.26651">
        <ele>1087.8</ele>
        <time>2021-06-06T12:40:18Z</time>
      </trkpt>
      <trkpt lat="44.90971" lon="4.26699">
        <ele>1085.8</ele>
        <time>2021-06-06T12:40:22Z</time>
      </trkpt>
      <trkpt lat="44.90999" lon="4.26736">
        <ele>1083.4</ele>
        <time>2021-06-06T12:40:26Z</time>
      </trkpt>
      <trkpt lat="44.9103" lon="4.26759">
        <ele>1081</ele>
        <time>2021-06-06T12:40:30Z</time>
      </trkpt>
      <trkpt lat="44.91063" lon="4.26757">
        <ele>1080</ele>
        <time>2021-06-06T12:40:34Z</time>
      </trkpt>
      <trkpt lat="44.9108" lon="4.26745">
        <ele>1078.8</ele>
        <time>2021-06-06T12:40:38Z</time>
      </trkpt>
      <trkpt lat="44.91102" lon="4.26733">
        <ele>1076.2</ele>
        <time>2021-06-06T12:40:42Z</time>
      </trkpt>
      <trkpt lat="44.91146" lon="4.26706">
        <ele>1074</ele>
        <time>2021-06-06T12:40:46Z</time>
      </trkpt>
      <trkpt lat="44.91182" lon="4.2668">
        <ele>1072.8</ele>
        <time>2021-06-06T12:40:50Z</time>
      </trkpt>
      <trkpt lat="44.91211" lon="4.26659">
        <ele>1071.8</ele>
        <time>2021-06-06T12:40:54Z</time>
      </trkpt>
      <trkpt lat="44.9122" lon="4.26684">
        <ele>1070.6</ele>
        <time>2021-06-06T12:40:58Z</time>
      </trkpt>
      <trkpt lat="44.91205" lon="4.26714">
        <ele>1069.8</ele>
        <time>2021-06-06T12:41:02Z</time>
      </trkpt>
      <trkpt lat="44.9119" lon="4.26747">
        <ele>1067.4</ele>
        <time>2021-06-06T12:41:06Z</time>
      </trkpt>
      <trkpt lat="44.91191" lon="4.26792">
        <ele>1066</ele>
        <time>2021-06-06T12:41:10Z</time>
      </trkpt>
      <trkpt lat="44.91195" lon="4.26837">
        <ele>1065</ele>
        <time>2021-06-06T12:41:14Z</time>
      </trkpt>
      <trkpt lat="44.91195" lon="4.26884">
        <ele>1063</ele>
        <time>2021-06-06T12:41:18Z</time>
      </trkpt>
      <trkpt lat="44.91186" lon="4.2693">
        <ele>1062.2</ele>
        <time>2021-06-06T12:41:22Z</time>
      </trkpt>
      <trkpt lat="44.91171" lon="4.26975">
        <ele>1059.4</ele>
        <time>2021-06-06T12:41:26Z</time>
      </trkpt>
      <trkpt lat="44.91162" lon="4.27024">
        <ele>1057.8</ele>
        <time>2021-06-06T12:41:30Z</time>
      </trkpt>
      <trkpt lat="44.9116" lon="4.27072">
        <ele>1056</ele>
        <time>2021-06-06T12:41:34Z</time>
      </trkpt>
      <trkpt lat="44.91173" lon="4.27115">
        <ele>1055.2</ele>
        <time>2021-06-06T12:41:38Z</time>
      </trkpt>
      <trkpt lat="44.91184" lon="4.27161">
        <ele>1053</ele>
        <time>2021-06-06T12:41:42Z</time>
      </trkpt>
      <trkpt lat="44.91196" lon="4.27205">
        <ele>1050</ele>
        <time>2021-06-06T12:41:46Z</time>
      </trkpt>
      <trkpt lat="44.91208" lon="4.27248">
        <ele>1049.4</ele>
        <time>2021-06-06T12:41:50Z</time>
      </trkpt>
      <trkpt lat="44.91213" lon="4.27291">
        <ele>1046.8</ele>
        <time>2021-06-06T12:41:54Z</time>
      </trkpt>
      <trkpt lat="44.91227" lon="4.27335">
        <ele>1044.6</ele>
        <time>2021-06-06T12:41:58Z</time>
      </trkpt>
      <trkpt lat="44.91243" lon="4.27383">
        <ele>1040.6</ele>
        <time>2021-06-06T12:42:02Z</time>
      </trkpt>
      <trkpt lat="44.91247" lon="4.27429">
        <ele>1037.6</ele>
        <time>2021-06-06T12:42:06Z</time>
      </trkpt>
      <trkpt lat="44.91267" lon="4.27462">
        <ele>1035.6</ele>
        <time>2021-06-06T12:42:10Z</time>
      </trkpt>
      <trkpt lat="44.91293" lon="4.27492">
        <ele>1034.2</ele>
        <time>2021-06-06T12:42:14Z</time>
      </trkpt>
      <trkpt lat="44.91312" lon="4.27535">
        <ele>1032.2</ele>
        <time>2021-06-06T12:42:18Z</time>
      </trkpt>
      <trkpt lat="44.91328" lon="4.27584">
        <ele>1027.2</ele>
        <time>2021-06-06T12:42:22Z</time>
      </trkpt>
      <trkpt lat="44.91344" lon="4.2763">
        <ele>1024.6</ele>
        <time>2021-06-06T12:42:26Z</time>
      </trkpt>
      <trkpt lat="44.91363" lon="4.27671">
        <ele>1023.4</ele>
        <time>2021-06-06T12:42:30Z</time>
      </trkpt>
      <trkpt lat="44.91371" lon="4.27721">
        <ele>1020.4</ele>
        <time>2021-06-06T12:42:34Z</time>
      </trkpt>
      <trkpt lat="44.91357" lon="4.27761">
        <ele>1018.2</ele>
        <time>2021-06-06T12:42:38Z</time>
      </trkpt>
      <trkpt lat="44.91339" lon="4.27794">
        <ele>1016.4</ele>
        <time>2021-06-06T12:42:42Z</time>
      </trkpt>
      <trkpt lat="44.9133" lon="4.27839">
        <ele>1014.4</ele>
        <time>2021-06-06T12:42:46Z</time>
      </trkpt>
      <trkpt lat="44.91328" lon="4.27887">
        <ele>1009.8</ele>
        <time>2021-06-06T12:42:50Z</time>
      </trkpt>
      <trkpt lat="44.91337" lon="4.27937">
        <ele>1006.4</ele>
        <time>2021-06-06T12:42:54Z</time>
      </trkpt>
      <trkpt lat="44.91344" lon="4.2798">
        <ele>1003</ele>
        <time>2021-06-06T12:42:58Z</time>
      </trkpt>
      <trkpt lat="44.91363" lon="4.28015">
        <ele>1000.6</ele>
        <time>2021-06-06T12:43:02Z</time>
      </trkpt>
      <trkpt lat="44.91389" lon="4.28044">
        <ele>996.2</ele>
        <time>2021-06-06T12:43:06Z</time>
      </trkpt>
      <trkpt lat="44.91393" lon="4.28066">
        <ele>994.8</ele>
        <time>2021-06-06T12:43:10Z</time>
      </trkpt>
      <trkpt lat="44.91371" lon="4.28059">
        <ele>993.8</ele>
        <time>2021-06-06T12:43:14Z</time>
      </trkpt>
      <trkpt lat="44.91353" lon="4.28037">
        <ele>992.2</ele>
        <time>2021-06-06T12:43:18Z</time>
      </trkpt>
      <trkpt lat="44.91347" lon="4.28051">
        <ele>990.8</ele>
        <time>2021-06-06T12:43:22Z</time>
      </trkpt>
      <trkpt lat="44.91361" lon="4.28077">
        <ele>990</ele>
        <time>2021-06-06T12:43:26Z</time>
      </trkpt>
      <trkpt lat="44.91373" lon="4.28113">
        <ele>987.6</ele>
        <time>2021-06-06T12:43:30Z</time>
      </trkpt>
      <trkpt lat="44.91384" lon="4.28154">
        <ele>985.6</ele>
        <time>2021-06-06T12:43:34Z</time>
      </trkpt>
      <trkpt lat="44.91404" lon="4.28193">
        <ele>981.2</ele>
        <time>2021-06-06T12:43:38Z</time>
      </trkpt>
      <trkpt lat="44.91423" lon="4.28237">
        <ele>976.6</ele>
        <time>2021-06-06T12:43:42Z</time>
      </trkpt>
      <trkpt lat="44.91429" lon="4.28284">
        <ele>974.2</ele>
        <time>2021-06-06T12:43:46Z</time>
      </trkpt>
      <trkpt lat="44.9141" lon="4.28313">
        <ele>974.8</ele>
        <time>2021-06-06T12:43:50Z</time>
      </trkpt>
      <trkpt lat="44.91392" lon="4.28342">
        <ele>973.8</ele>
        <time>2021-06-06T12:43:54Z</time>
      </trkpt>
      <trkpt lat="44.91383" lon="4.28379">
        <ele>971.8</ele>
        <time>2021-06-06T12:43:58Z</time>
      </trkpt>
      <trkpt lat="44.91381" lon="4.28424">
        <ele>969</ele>
        <time>2021-06-06T12:44:02Z</time>
      </trkpt>
      <trkpt lat="44.91383" lon="4.28471">
        <ele>965.4</ele>
        <time>2021-06-06T12:44:06Z</time>
      </trkpt>
      <trkpt lat="44.91388" lon="4.28507">
        <ele>963.4</ele>
        <time>2021-06-06T12:44:10Z</time>
      </trkpt>
      <trkpt lat="44.91408" lon="4.28501">
        <ele>961</ele>
        <time>2021-06-06T12:44:14Z</time>
      </trkpt>
      <trkpt lat="44.91433" lon="4.28477">
        <ele>958.4</ele>
        <time>2021-06-06T12:44:18Z</time>
      </trkpt>
      <trkpt lat="44.91467" lon="4.28483">
        <ele>956.6</ele>
        <time>2021-06-06T12:44:22Z</time>
      </trkpt>
      <trkpt lat="44.91503" lon="4.28481">
        <ele>953</ele>
        <time>2021-06-06T12:44:26Z</time>
      </trkpt>
      <trkpt lat="44.91532" lon="4.28468">
        <ele>951</ele>
        <time>2021-06-06T12:44:30Z</time>
      </trkpt>
      <trkpt lat="44.91549" lon="4.28448">
        <ele>950.6</ele>
        <time>2021-06-06T12:44:34Z</time>
      </trkpt>
      <trkpt lat="44.91562" lon="4.28465">
        <ele>948.4</ele>
        <time>2021-06-06T12:44:38Z</time>
      </trkpt>
      <trkpt lat="44.91558" lon="4.285">
        <ele>946.2</ele>
        <time>2021-06-06T12:44:42Z</time>
      </trkpt>
      <trkpt lat="44.91537" lon="4.28524">
        <ele>943</ele>
        <time>2021-06-06T12:44:46Z</time>
      </trkpt>
      <trkpt lat="44.91504" lon="4.28534">
        <ele>939.8</ele>
        <time>2021-06-06T12:44:50Z</time>
      </trkpt>
      <trkpt lat="44.91472" lon="4.28539">
        <ele>936.4</ele>
        <time>2021-06-06T12:44:54Z</time>
      </trkpt>
      <trkpt lat="44.91443" lon="4.28547">
        <ele>935.2</ele>
        <time>2021-06-06T12:44:58Z</time>
      </trkpt>
      <trkpt lat="44.91415" lon="4.28572">
        <ele>933</ele>
        <time>2021-06-06T12:45:02Z</time>
      </trkpt>
      <trkpt lat="44.91387" lon="4.2857">
        <ele>930.4</ele>
        <time>2021-06-06T12:45:06Z</time>
      </trkpt>
      <trkpt lat="44.91356" lon="4.28557">
        <ele>928</ele>
        <time>2021-06-06T12:45:10Z</time>
      </trkpt>
      <trkpt lat="44.91334" lon="4.28536">
        <ele>926</ele>
        <time>2021-06-06T12:45:14Z</time>
      </trkpt>
      <trkpt lat="44.91328" lon="4.28499">
        <ele>922.4</ele>
        <time>2021-06-06T12:45:18Z</time>
      </trkpt>
      <trkpt lat="44.9131" lon="4.28453">
        <ele>919.2</ele>
        <time>2021-06-06T12:45:22Z</time>
      </trkpt>
      <trkpt lat="44.91295" lon="4.28426">
        <ele>918.6</ele>
        <time>2021-06-06T12:45:26Z</time>
      </trkpt>
      <trkpt lat="44.91282" lon="4.28436">
        <ele>917.6</ele>
        <time>2021-06-06T12:45:30Z</time>
      </trkpt>
      <trkpt lat="44.91286" lon="4.28469">
        <ele>915.4</ele>
        <time>2021-06-06T12:45:34Z</time>
      </trkpt>
      <trkpt lat="44.9129" lon="4.28506">
        <ele>912.8</ele>
        <time>2021-06-06T12:45:38Z</time>
      </trkpt>
      <trkpt lat="44.91298" lon="4.28549">
        <ele>909.4</ele>
        <time>2021-06-06T12:45:42Z</time>
      </trkpt>
      <trkpt lat="44.91307" lon="4.28592">
        <ele>906</ele>
        <time>2021-06-06T12:45:46Z</time>
      </trkpt>
      <trkpt lat="44.91322" lon="4.2862">
        <ele>902.2</ele>
        <time>2021-06-06T12:45:50Z</time>
      </trkpt>
      <trkpt lat="44.91347" lon="4.2864">
        <ele>900.4</ele>
        <time>2021-06-06T12:45:54Z</time>
      </trkpt>
      <trkpt lat="44.91372" lon="4.28639">
        <ele>896.8</ele>
        <time>2021-06-06T12:45:58Z</time>
      </trkpt>
      <trkpt lat="44.91411" lon="4.28646">
        <ele>894.6</ele>
        <time>2021-06-06T12:46:02Z</time>
      </trkpt>
      <trkpt lat="44.91445" lon="4.28657">
        <ele>890.8</ele>
        <time>2021-06-06T12:46:06Z</time>
      </trkpt>
      <trkpt lat="44.91481" lon="4.28666">
        <ele>886</ele>
        <time>2021-06-06T12:46:10Z</time>
      </trkpt>
      <trkpt lat="44.91481" lon="4.28666">
        <ele>882.6</ele>
        <time>2021-06-06T12:46:14Z</time>
      </trkpt>
      <trkpt lat="44.91527" lon="4.28694">
        <ele>878.8</ele>
        <time>2021-06-06T12:46:18Z</time>
      </trkpt>
      <trkpt lat="44.91551" lon="4.28736">
        <ele>877</ele>
        <time>2021-06-06T12:46:22Z</time>
      </trkpt>
      <trkpt lat="44.91576" lon="4.2878">
        <ele>873.2</ele>
        <time>2021-06-06T12:46:26Z</time>
      </trkpt>
      <trkpt lat="44.91588" lon="4.28826">
        <ele>871.6</ele>
        <time>2021-06-06T12:46:30Z</time>
      </trkpt>
      <trkpt lat="44.91609" lon="4.28856">
        <ele>869</ele>
        <time>2021-06-06T12:46:34Z</time>
      </trkpt>
      <trkpt lat="44.91626" lon="4.28856">
        <ele>866.2</ele>
        <time>2021-06-06T12:46:38Z</time>
      </trkpt>
      <trkpt lat="44.9164" lon="4.28856">
        <ele>864.2</ele>
        <time>2021-06-06T12:46:42Z</time>
      </trkpt>
      <trkpt lat="44.9164" lon="4.28883">
        <ele>862</ele>
        <time>2021-06-06T12:46:46Z</time>
      </trkpt>
      <trkpt lat="44.91637" lon="4.28917">
        <ele>859.8</ele>
        <time>2021-06-06T12:46:50Z</time>
      </trkpt>
      <trkpt lat="44.91636" lon="4.28942">
        <ele>858.4</ele>
        <time>2021-06-06T12:46:54Z</time>
      </trkpt>
      <trkpt lat="44.91649" lon="4.28932">
        <ele>856.4</ele>
        <time>2021-06-06T12:46:58Z</time>
      </trkpt>
      <trkpt lat="44.9166" lon="4.28905">
        <ele>854</ele>
        <time>2021-06-06T12:47:02Z</time>
      </trkpt>
      <trkpt lat="44.91682" lon="4.28909">
        <ele>852.6</ele>
        <time>2021-06-06T12:47:06Z</time>
      </trkpt>
      <trkpt lat="44.91705" lon="4.28924">
        <ele>851.8</ele>
        <time>2021-06-06T12:47:10Z</time>
      </trkpt>
      <trkpt lat="44.91716" lon="4.28956">
        <ele>849.4</ele>
        <time>2021-06-06T12:47:14Z</time>
      </trkpt>
      <trkpt lat="44.91707" lon="4.28985">
        <ele>847.2</ele>
        <time>2021-06-06T12:47:18Z</time>
      </trkpt>
      <trkpt lat="44.91718" lon="4.29014">
        <ele>846.2</ele>
        <time>2021-06-06T12:47:22Z</time>
      </trkpt>
      <trkpt lat="44.91747" lon="4.29022">
        <ele>842.2</ele>
        <time>2021-06-06T12:47:26Z</time>
      </trkpt>
      <trkpt lat="44.91771" lon="4.29049">
        <ele>839.4</ele>
        <time>2021-06-06T12:47:30Z</time>
      </trkpt>
      <trkpt lat="44.91792" lon="4.29077">
        <ele>836.8</ele>
        <time>2021-06-06T12:47:34Z</time>
      </trkpt>
      <trkpt lat="44.91813" lon="4.29101">
        <ele>834.6</ele>
        <time>2021-06-06T12:47:38Z</time>
      </trkpt>
      <trkpt lat="44.91837" lon="4.29123">
        <ele>830.6</ele>
        <time>2021-06-06T12:47:42Z</time>
      </trkpt>
      <trkpt lat="44.91877" lon="4.29128">
        <ele>828.4</ele>
        <time>2021-06-06T12:47:46Z</time>
      </trkpt>
      <trkpt lat="44.91914" lon="4.29125">
        <ele>826.2</ele>
        <time>2021-06-06T12:47:50Z</time>
      </trkpt>
      <trkpt lat="44.91949" lon="4.29116">
        <ele>823.4</ele>
        <time>2021-06-06T12:47:54Z</time>
      </trkpt>
      <trkpt lat="44.91988" lon="4.29111">
        <ele>821.2</ele>
        <time>2021-06-06T12:47:58Z</time>
      </trkpt>
      <trkpt lat="44.92024" lon="4.29119">
        <ele>820.2</ele>
        <time>2021-06-06T12:48:02Z</time>
      </trkpt>
      <trkpt lat="44.92054" lon="4.29144">
        <ele>816.2</ele>
        <time>2021-06-06T12:48:06Z</time>
      </trkpt>
      <trkpt lat="44.92088" lon="4.29175">
        <ele>813.4</ele>
        <time>2021-06-06T12:48:10Z</time>
      </trkpt>
      <trkpt lat="44.9212" lon="4.29208">
        <ele>813.8</ele>
        <time>2021-06-06T12:48:14Z</time>
      </trkpt>
      <trkpt lat="44.9215" lon="4.29241">
        <ele>812.6</ele>
        <time>2021-06-06T12:48:18Z</time>
      </trkpt>
      <trkpt lat="44.92164" lon="4.29283">
        <ele>812</ele>
        <time>2021-06-06T12:48:22Z</time>
      </trkpt>
      <trkpt lat="44.92179" lon="4.29325">
        <ele>810.6</ele>
        <time>2021-06-06T12:48:26Z</time>
      </trkpt>
      <trkpt lat="44.92196" lon="4.29363">
        <ele>809</ele>
        <time>2021-06-06T12:48:30Z</time>
      </trkpt>
      <trkpt lat="44.9221" lon="4.294">
        <ele>807.4</ele>
        <time>2021-06-06T12:48:34Z</time>
      </trkpt>
      <trkpt lat="44.92223" lon="4.29437">
        <ele>807.2</ele>
        <time>2021-06-06T12:48:38Z</time>
      </trkpt>
      <trkpt lat="44.92241" lon="4.2947">
        <ele>806.4</ele>
        <time>2021-06-06T12:48:42Z</time>
      </trkpt>
      <trkpt lat="44.92253" lon="4.29508">
        <ele>804.6</ele>
        <time>2021-06-06T12:48:46Z</time>
      </trkpt>
      <trkpt lat="44.92264" lon="4.29556">
        <ele>804</ele>
        <time>2021-06-06T12:48:50Z</time>
      </trkpt>
      <trkpt lat="44.92264" lon="4.29593">
        <ele>802.2</ele>
        <time>2021-06-06T12:48:54Z</time>
      </trkpt>
      <trkpt lat="44.92274" lon="4.29622">
        <ele>801.8</ele>
        <time>2021-06-06T12:48:58Z</time>
      </trkpt>
      <trkpt lat="44.92295" lon="4.29647">
        <ele>800.2</ele>
        <time>2021-06-06T12:49:02Z</time>
      </trkpt>
      <trkpt lat="44.92314" lon="4.29679">
        <ele>799.4</ele>
        <time>2021-06-06T12:49:06Z</time>
      </trkpt>
      <trkpt lat="44.92324" lon="4.29719">
        <ele>798.2</ele>
        <time>2021-06-06T12:49:10Z</time>
      </trkpt>
      <trkpt lat="44.92334" lon="4.2976">
        <ele>796.4</ele>
        <time>2021-06-06T12:49:14Z</time>
      </trkpt>
      <trkpt lat="44.92339" lon="4.29802">
        <ele>794.4</ele>
        <time>2021-06-06T12:49:18Z</time>
      </trkpt>
      <trkpt lat="44.92343" lon="4.29848">
        <ele>792.8</ele>
        <time>2021-06-06T12:49:22Z</time>
      </trkpt>
      <trkpt lat="44.92357" lon="4.29891">
        <ele>790.2</ele>
        <time>2021-06-06T12:49:26Z</time>
      </trkpt>
      <trkpt lat="44.92373" lon="4.29934">
        <ele>787.4</ele>
        <time>2021-06-06T12:49:30Z</time>
      </trkpt>
      <trkpt lat="44.92386" lon="4.2998">
        <ele>784.6</ele>
        <time>2021-06-06T12:49:34Z</time>
      </trkpt>
      <trkpt lat="44.92401" lon="4.30031">
        <ele>782.2</ele>
        <time>2021-06-06T12:49:38Z</time>
      </trkpt>
      <trkpt lat="44.92416" lon="4.30086">
        <ele>779.4</ele>
        <time>2021-06-06T12:49:42Z</time>
      </trkpt>
      <trkpt lat="44.92423" lon="4.30141">
        <ele>777.2</ele>
        <time>2021-06-06T12:49:46Z</time>
      </trkpt>
      <trkpt lat="44.92428" lon="4.3019">
        <ele>777.4</ele>
        <time>2021-06-06T12:49:50Z</time>
      </trkpt>
      <trkpt lat="44.92429" lon="4.30235">
        <ele>776.6</ele>
        <time>2021-06-06T12:49:54Z</time>
      </trkpt>
      <trkpt lat="44.92425" lon="4.30277">
        <ele>776.4</ele>
        <time>2021-06-06T12:49:58Z</time>
      </trkpt>
      <trkpt lat="44.92425" lon="4.30317">
        <ele>776</ele>
        <time>2021-06-06T12:50:02Z</time>
      </trkpt>
      <trkpt lat="44.92428" lon="4.30354">
        <ele>776</ele>
        <time>2021-06-06T12:50:06Z</time>
      </trkpt>
      <trkpt lat="44.92432" lon="4.30388">
        <ele>776</ele>
        <time>2021-06-06T12:50:10Z</time>
      </trkpt>
      <trkpt lat="44.92436" lon="4.30422">
        <ele>776</ele>
        <time>2021-06-06T12:50:14Z</time>
      </trkpt>
      <trkpt lat="44.9244" lon="4.30455">
        <ele>775.2</ele>
        <time>2021-06-06T12:50:18Z</time>
      </trkpt>
      <trkpt lat="44.92445" lon="4.30488">
        <ele>773.8</ele>
        <time>2021-06-06T12:50:22Z</time>
      </trkpt>
      <trkpt lat="44.92452" lon="4.30522">
        <ele>772.8</ele>
        <time>2021-06-06T12:50:26Z</time>
      </trkpt>
      <trkpt lat="44.92457" lon="4.30555">
        <ele>773</ele>
        <time>2021-06-06T12:50:30Z</time>
      </trkpt>
      <trkpt lat="44.92458" lon="4.30591">
        <ele>772.4</ele>
        <time>2021-06-06T12:50:34Z</time>
      </trkpt>
      <trkpt lat="44.92454" lon="4.30628">
        <ele>771.6</ele>
        <time>2021-06-06T12:50:38Z</time>
      </trkpt>
      <trkpt lat="44.92451" lon="4.30666">
        <ele>770.8</ele>
        <time>2021-06-06T12:50:42Z</time>
      </trkpt>
      <trkpt lat="44.92449" lon="4.30708">
        <ele>768.6</ele>
        <time>2021-06-06T12:50:46Z</time>
      </trkpt>
      <trkpt lat="44.92448" lon="4.30751">
        <ele>767.2</ele>
        <time>2021-06-06T12:50:50Z</time>
      </trkpt>
      <trkpt lat="44.92459" lon="4.30795">
        <ele>763.6</ele>
        <time>2021-06-06T12:50:54Z</time>
      </trkpt>
      <trkpt lat="44.92482" lon="4.30825">
        <ele>760.8</ele>
        <time>2021-06-06T12:50:58Z</time>
      </trkpt>
      <trkpt lat="44.92512" lon="4.30846">
        <ele>757.8</ele>
        <time>2021-06-06T12:51:02Z</time>
      </trkpt>
      <trkpt lat="44.92526" lon="4.30881">
        <ele>756</ele>
        <time>2021-06-06T12:51:06Z</time>
      </trkpt>
      <trkpt lat="44.92541" lon="4.30918">
        <ele>756.4</ele>
        <time>2021-06-06T12:51:10Z</time>
      </trkpt>
      <trkpt lat="44.92555" lon="4.30954">
        <ele>755.6</ele>
        <time>2021-06-06T12:51:14Z</time>
      </trkpt>
      <trkpt lat="44.92567" lon="4.30989">
        <ele>754.8</ele>
        <time>2021-06-06T12:51:18Z</time>
      </trkpt>
      <trkpt lat="44.92581" lon="4.31024">
        <ele>753.4</ele>
        <time>2021-06-06T12:51:22Z</time>
      </trkpt>
      <trkpt lat="44.92603" lon="4.31039">
        <ele>753.4</ele>
        <time>2021-06-06T12:51:26Z</time>
      </trkpt>
      <trkpt lat="44.92624" lon="4.31039">
        <ele>752.4</ele>
        <time>2021-06-06T12:51:30Z</time>
      </trkpt>
      <trkpt lat="44.92648" lon="4.31034">
        <ele>751.2</ele>
        <time>2021-06-06T12:51:34Z</time>
      </trkpt>
      <trkpt lat="44.92673" lon="4.31047">
        <ele>749.2</ele>
        <time>2021-06-06T12:51:38Z</time>
      </trkpt>
      <trkpt lat="44.92697" lon="4.31071">
        <ele>748.6</ele>
        <time>2021-06-06T12:51:42Z</time>
      </trkpt>
      <trkpt lat="44.9271" lon="4.31112">
        <ele>747.8</ele>
        <time>2021-06-06T12:51:46Z</time>
      </trkpt>
      <trkpt lat="44.92714" lon="4.31155">
        <ele>747.2</ele>
        <time>2021-06-06T12:51:50Z</time>
      </trkpt>
      <trkpt lat="44.92723" lon="4.3119">
        <ele>746.6</ele>
        <time>2021-06-06T12:51:54Z</time>
      </trkpt>
      <trkpt lat="44.92742" lon="4.31216">
        <ele>746.6</ele>
        <time>2021-06-06T12:51:58Z</time>
      </trkpt>
      <trkpt lat="44.92766" lon="4.31231">
        <ele>744.8</ele>
        <time>2021-06-06T12:52:02Z</time>
      </trkpt>
      <trkpt lat="44.92794" lon="4.31244">
        <ele>742.6</ele>
        <time>2021-06-06T12:52:06Z</time>
      </trkpt>
      <trkpt lat="44.92826" lon="4.31264">
        <ele>738.8</ele>
        <time>2021-06-06T12:52:10Z</time>
      </trkpt>
      <trkpt lat="44.92861" lon="4.31284">
        <ele>736.6</ele>
        <time>2021-06-06T12:52:14Z</time>
      </trkpt>
      <trkpt lat="44.92899" lon="4.31305">
        <ele>734.2</ele>
        <time>2021-06-06T12:52:18Z</time>
      </trkpt>
      <trkpt lat="44.92938" lon="4.31332">
        <ele>731.6</ele>
        <time>2021-06-06T12:52:22Z</time>
      </trkpt>
      <trkpt lat="44.92968" lon="4.31354">
        <ele>730.6</ele>
        <time>2021-06-06T12:52:26Z</time>
      </trkpt>
      <trkpt lat="44.92977" lon="4.3139">
        <ele>731.4</ele>
        <time>2021-06-06T12:52:30Z</time>
      </trkpt>
      <trkpt lat="44.92986" lon="4.31416">
        <ele>732.8</ele>
        <time>2021-06-06T12:52:34Z</time>
      </trkpt>
      <trkpt lat="44.92997" lon="4.31434">
        <ele>732.8</ele>
        <time>2021-06-06T12:52:38Z</time>
      </trkpt>
      <trkpt lat="44.93005" lon="4.31451">
        <ele>734.4</ele>
        <time>2021-06-06T12:52:42Z</time>
      </trkpt>
      <trkpt lat="44.93012" lon="4.31468">
        <ele>735.2</ele>
        <time>2021-06-06T12:52:46Z</time>
      </trkpt>
      <trkpt lat="44.93018" lon="4.31484">
        <ele>735.8</ele>
        <time>2021-06-06T12:52:50Z</time>
      </trkpt>
      <trkpt lat="44.93022" lon="4.31499">
        <ele>736.6</ele>
        <time>2021-06-06T12:52:54Z</time>
      </trkpt>
      <trkpt lat="44.93026" lon="4.31514">
        <ele>737.6</ele>
        <time>2021-06-06T12:52:58Z</time>
      </trkpt>
      <trkpt lat="44.93031" lon="4.31528">
        <ele>738.2</ele>
        <time>2021-06-06T12:53:02Z</time>
      </trkpt>
      <trkpt lat="44.93037" lon="4.31542">
        <ele>738</ele>
        <time>2021-06-06T12:53:06Z</time>
      </trkpt>
      <trkpt lat="44.93045" lon="4.31556">
        <ele>738.6</ele>
        <time>2021-06-06T12:53:10Z</time>
      </trkpt>
      <trkpt lat="44.93054" lon="4.31569">
        <ele>738.8</ele>
        <time>2021-06-06T12:53:14Z</time>
      </trkpt>
      <trkpt lat="44.93063" lon="4.31583">
        <ele>738.8</ele>
        <time>2021-06-06T12:53:18Z</time>
      </trkpt>
      <trkpt lat="44.93073" lon="4.31597">
        <ele>738.4</ele>
        <time>2021-06-06T12:53:22Z</time>
      </trkpt>
      <trkpt lat="44.93086" lon="4.31611">
        <ele>738.4</ele>
        <time>2021-06-06T12:53:26Z</time>
      </trkpt>
      <trkpt lat="44.931" lon="4.31625">
        <ele>738.2</ele>
        <time>2021-06-06T12:53:30Z</time>
      </trkpt>
      <trkpt lat="44.93115" lon="4.31636">
        <ele>738</ele>
        <time>2021-06-06T12:53:34Z</time>
      </trkpt>
      <trkpt lat="44.9313" lon="4.31649">
        <ele>738.2</ele>
        <time>2021-06-06T12:53:38Z</time>
      </trkpt>
      <trkpt lat="44.93143" lon="4.31666">
        <ele>737.2</ele>
        <time>2021-06-06T12:53:42Z</time>
      </trkpt>
      <trkpt lat="44.93155" lon="4.31688">
        <ele>736.4</ele>
        <time>2021-06-06T12:53:46Z</time>
      </trkpt>
      <trkpt lat="44.93168" lon="4.31714">
        <ele>736</ele>
        <time>2021-06-06T12:53:50Z</time>
      </trkpt>
      <trkpt lat="44.93181" lon="4.31741">
        <ele>734.8</ele>
        <time>2021-06-06T12:53:54Z</time>
      </trkpt>
      <trkpt lat="44.93195" lon="4.31769">
        <ele>734</ele>
        <time>2021-06-06T12:53:58Z</time>
      </trkpt>
      <trkpt lat="44.93207" lon="4.31795">
        <ele>733.2</ele>
        <time>2021-06-06T12:54:02Z</time>
      </trkpt>
      <trkpt lat="44.93218" lon="4.31828">
        <ele>731.2</ele>
        <time>2021-06-06T12:54:06Z</time>
      </trkpt>
      <trkpt lat="44.93226" lon="4.31864">
        <ele>730</ele>
        <time>2021-06-06T12:54:10Z</time>
      </trkpt>
      <trkpt lat="44.9324" lon="4.3189">
        <ele>728.2</ele>
        <time>2021-06-06T12:54:14Z</time>
      </trkpt>
      <trkpt lat="44.93264" lon="4.31905">
        <ele>727.2</ele>
        <time>2021-06-06T12:54:18Z</time>
      </trkpt>
      <trkpt lat="44.93278" lon="4.31935">
        <ele>728.4</ele>
        <time>2021-06-06T12:54:22Z</time>
      </trkpt>
      <trkpt lat="44.93278" lon="4.31966">
        <ele>727.4</ele>
        <time>2021-06-06T12:54:26Z</time>
      </trkpt>
      <trkpt lat="44.93288" lon="4.31994">
        <ele>725.2</ele>
        <time>2021-06-06T12:54:30Z</time>
      </trkpt>
      <trkpt lat="44.9331" lon="4.32021">
        <ele>722.4</ele>
        <time>2021-06-06T12:54:34Z</time>
      </trkpt>
      <trkpt lat="44.93334" lon="4.32049">
        <ele>719.6</ele>
        <time>2021-06-06T12:54:38Z</time>
      </trkpt>
      <trkpt lat="44.93359" lon="4.3208">
        <ele>717.4</ele>
        <time>2021-06-06T12:54:42Z</time>
      </trkpt>
      <trkpt lat="44.93385" lon="4.32111">
        <ele>715.6</ele>
        <time>2021-06-06T12:54:46Z</time>
      </trkpt>
      <trkpt lat="44.93408" lon="4.32146">
        <ele>714.4</ele>
        <time>2021-06-06T12:54:50Z</time>
      </trkpt>
      <trkpt lat="44.93436" lon="4.32176">
        <ele>711.8</ele>
        <time>2021-06-06T12:54:54Z</time>
      </trkpt>
      <trkpt lat="44.93459" lon="4.32214">
        <ele>709.2</ele>
        <time>2021-06-06T12:54:58Z</time>
      </trkpt>
      <trkpt lat="44.93479" lon="4.32256">
        <ele>706.2</ele>
        <time>2021-06-06T12:55:02Z</time>
      </trkpt>
      <trkpt lat="44.93509" lon="4.32286">
        <ele>703</ele>
        <time>2021-06-06T12:55:06Z</time>
      </trkpt>
      <trkpt lat="44.93542" lon="4.32314">
        <ele>699.6</ele>
        <time>2021-06-06T12:55:10Z</time>
      </trkpt>
      <trkpt lat="44.93573" lon="4.32345">
        <ele>697</ele>
        <time>2021-06-06T12:55:14Z</time>
      </trkpt>
      <trkpt lat="44.93598" lon="4.32388">
        <ele>693.8</ele>
        <time>2021-06-06T12:55:18Z</time>
      </trkpt>
      <trkpt lat="44.93619" lon="4.32437">
        <ele>690.6</ele>
        <time>2021-06-06T12:55:22Z</time>
      </trkpt>
      <trkpt lat="44.93643" lon="4.32482">
        <ele>687</ele>
        <time>2021-06-06T12:55:26Z</time>
      </trkpt>
      <trkpt lat="44.93668" lon="4.32525">
        <ele>686.2</ele>
        <time>2021-06-06T12:55:30Z</time>
      </trkpt>
      <trkpt lat="44.93694" lon="4.32563">
        <ele>684.2</ele>
        <time>2021-06-06T12:55:34Z</time>
      </trkpt>
      <trkpt lat="44.93722" lon="4.32599">
        <ele>683.2</ele>
        <time>2021-06-06T12:55:38Z</time>
      </trkpt>
      <trkpt lat="44.93749" lon="4.32635">
        <ele>680.2</ele>
        <time>2021-06-06T12:55:42Z</time>
      </trkpt>
      <trkpt lat="44.93773" lon="4.32676">
        <ele>677.8</ele>
        <time>2021-06-06T12:55:46Z</time>
      </trkpt>
      <trkpt lat="44.93784" lon="4.32724">
        <ele>674.8</ele>
        <time>2021-06-06T12:55:50Z</time>
      </trkpt>
      <trkpt lat="44.93815" lon="4.32749">
        <ele>672.6</ele>
        <time>2021-06-06T12:55:54Z</time>
      </trkpt>
      <trkpt lat="44.93851" lon="4.32762">
        <ele>670.4</ele>
        <time>2021-06-06T12:55:58Z</time>
      </trkpt>
      <trkpt lat="44.93886" lon="4.32788">
        <ele>669.4</ele>
        <time>2021-06-06T12:56:02Z</time>
      </trkpt>
      <trkpt lat="44.93916" lon="4.32822">
        <ele>665</ele>
        <time>2021-06-06T12:56:06Z</time>
      </trkpt>
      <trkpt lat="44.93934" lon="4.3287">
        <ele>662.4</ele>
        <time>2021-06-06T12:56:10Z</time>
      </trkpt>
      <trkpt lat="44.93945" lon="4.32924">
        <ele>659</ele>
        <time>2021-06-06T12:56:14Z</time>
      </trkpt>
      <trkpt lat="44.93953" lon="4.32976">
        <ele>656.8</ele>
        <time>2021-06-06T12:56:18Z</time>
      </trkpt>
      <trkpt lat="44.93965" lon="4.33025">
        <ele>654.4</ele>
        <time>2021-06-06T12:56:22Z</time>
      </trkpt>
      <trkpt lat="44.93946" lon="4.3307">
        <ele>652.8</ele>
        <time>2021-06-06T12:56:26Z</time>
      </trkpt>
      <trkpt lat="44.93949" lon="4.33114">
        <ele>652.8</ele>
        <time>2021-06-06T12:56:30Z</time>
      </trkpt>
      <trkpt lat="44.93952" lon="4.33153">
        <ele>652.6</ele>
        <time>2021-06-06T12:56:34Z</time>
      </trkpt>
      <trkpt lat="44.93955" lon="4.33189">
        <ele>651.4</ele>
        <time>2021-06-06T12:56:38Z</time>
      </trkpt>
      <trkpt lat="44.93958" lon="4.33221">
        <ele>650.6</ele>
        <time>2021-06-06T12:56:42Z</time>
      </trkpt>
      <trkpt lat="44.93963" lon="4.33254">
        <ele>650.4</ele>
        <time>2021-06-06T12:56:46Z</time>
      </trkpt>
      <trkpt lat="44.93978" lon="4.33287">
        <ele>650</ele>
        <time>2021-06-06T12:56:50Z</time>
      </trkpt>
      <trkpt lat="44.93997" lon="4.33314">
        <ele>649.6</ele>
        <time>2021-06-06T12:56:54Z</time>
      </trkpt>
      <trkpt lat="44.94006" lon="4.33331">
        <ele>649.6</ele>
        <time>2021-06-06T12:56:58Z</time>
      </trkpt>
      <trkpt lat="44.94009" lon="4.33339">
        <ele>648.4</ele>
        <time>2021-06-06T12:57:02Z</time>
      </trkpt>
      <trkpt lat="44.9401" lon="4.33354">
        <ele>648.2</ele>
        <time>2021-06-06T12:57:06Z</time>
      </trkpt>
      <trkpt lat="44.94014" lon="4.33378">
        <ele>646.6</ele>
        <time>2021-06-06T12:57:10Z</time>
      </trkpt>
      <trkpt lat="44.94016" lon="4.33406">
        <ele>645.2</ele>
        <time>2021-06-06T12:57:14Z</time>
      </trkpt>
      <trkpt lat="44.94018" lon="4.33433">
        <ele>643.4</ele>
        <time>2021-06-06T12:57:18Z</time>
      </trkpt>
      <trkpt lat="44.94017" lon="4.3346">
        <ele>642</ele>
        <time>2021-06-06T12:57:22Z</time>
      </trkpt>
      <trkpt lat="44.94021" lon="4.33485">
        <ele>641.2</ele>
        <time>2021-06-06T12:57:26Z</time>
      </trkpt>
      <trkpt lat="44.94026" lon="4.33517">
        <ele>640.2</ele>
        <time>2021-06-06T12:57:30Z</time>
      </trkpt>
      <trkpt lat="44.94032" lon="4.33559">
        <ele>639.2</ele>
        <time>2021-06-06T12:57:34Z</time>
      </trkpt>
      <trkpt lat="44.94039" lon="4.33607">
        <ele>637</ele>
        <time>2021-06-06T12:57:38Z</time>
      </trkpt>
      <trkpt lat="44.94052" lon="4.33644">
        <ele>636.8</ele>
        <time>2021-06-06T12:57:42Z</time>
      </trkpt>
      <trkpt lat="44.94069" lon="4.33678">
        <ele>636</ele>
        <time>2021-06-06T12:57:46Z</time>
      </trkpt>
      <trkpt lat="44.94092" lon="4.33712">
        <ele>635.2</ele>
        <time>2021-06-06T12:57:50Z</time>
      </trkpt>
      <trkpt lat="44.94112" lon="4.33745">
        <ele>634</ele>
        <time>2021-06-06T12:57:54Z</time>
      </trkpt>
      <trkpt lat="44.94126" lon="4.33788">
        <ele>631.6</ele>
        <time>2021-06-06T12:57:58Z</time>
      </trkpt>
      <trkpt lat="44.94151" lon="4.33821">
        <ele>631</ele>
        <time>2021-06-06T12:58:02Z</time>
      </trkpt>
      <trkpt lat="44.94182" lon="4.33832">
        <ele>632.2</ele>
        <time>2021-06-06T12:58:06Z</time>
      </trkpt>
      <trkpt lat="44.94205" lon="4.33847">
        <ele>634.6</ele>
        <time>2021-06-06T12:58:10Z</time>
      </trkpt>
      <trkpt lat="44.94216" lon="4.33866">
        <ele>635.2</ele>
        <time>2021-06-06T12:58:14Z</time>
      </trkpt>
      <trkpt lat="44.94225" lon="4.3389">
        <ele>634.4</ele>
        <time>2021-06-06T12:58:18Z</time>
      </trkpt>
      <trkpt lat="44.94232" lon="4.33914">
        <ele>634.4</ele>
        <time>2021-06-06T12:58:22Z</time>
      </trkpt>
      <trkpt lat="44.94237" lon="4.33939">
        <ele>635</ele>
        <time>2021-06-06T12:58:26Z</time>
      </trkpt>
      <trkpt lat="44.94242" lon="4.33965">
        <ele>635</ele>
        <time>2021-06-06T12:58:30Z</time>
      </trkpt>
      <trkpt lat="44.94245" lon="4.33991">
        <ele>634.8</ele>
        <time>2021-06-06T12:58:34Z</time>
      </trkpt>
      <trkpt lat="44.94248" lon="4.34018">
        <ele>634.2</ele>
        <time>2021-06-06T12:58:38Z</time>
      </trkpt>
      <trkpt lat="44.94256" lon="4.34042">
        <ele>634.4</ele>
        <time>2021-06-06T12:58:42Z</time>
      </trkpt>
      <trkpt lat="44.94265" lon="4.34066">
        <ele>634</ele>
        <time>2021-06-06T12:58:46Z</time>
      </trkpt>
      <trkpt lat="44.94272" lon="4.34091">
        <ele>634.2</ele>
        <time>2021-06-06T12:58:50Z</time>
      </trkpt>
      <trkpt lat="44.9428" lon="4.34116">
        <ele>633.8</ele>
        <time>2021-06-06T12:58:54Z</time>
      </trkpt>
      <trkpt lat="44.94289" lon="4.34141">
        <ele>632.4</ele>
        <time>2021-06-06T12:58:58Z</time>
      </trkpt>
      <trkpt lat="44.943" lon="4.34167">
        <ele>631.8</ele>
        <time>2021-06-06T12:59:02Z</time>
      </trkpt>
      <trkpt lat="44.94307" lon="4.34195">
        <ele>632.4</ele>
        <time>2021-06-06T12:59:06Z</time>
      </trkpt>
      <trkpt lat="44.94314" lon="4.34222">
        <ele>632.8</ele>
        <time>2021-06-06T12:59:10Z</time>
      </trkpt>
      <trkpt lat="44.94322" lon="4.34252">
        <ele>632.2</ele>
        <time>2021-06-06T12:59:14Z</time>
      </trkpt>
      <trkpt lat="44.94329" lon="4.34281">
        <ele>631.2</ele>
        <time>2021-06-06T12:59:18Z</time>
      </trkpt>
      <trkpt lat="44.94333" lon="4.34309">
        <ele>631.6</ele>
        <time>2021-06-06T12:59:22Z</time>
      </trkpt>
      <trkpt lat="44.94337" lon="4.3434">
        <ele>630.8</ele>
        <time>2021-06-06T12:59:26Z</time>
      </trkpt>
      <trkpt lat="44.94337" lon="4.34372">
        <ele>629.6</ele>
        <time>2021-06-06T12:59:30Z</time>
      </trkpt>
      <trkpt lat="44.94337" lon="4.34406">
        <ele>629.4</ele>
        <time>2021-06-06T12:59:34Z</time>
      </trkpt>
      <trkpt lat="44.94337" lon="4.3444">
        <ele>628.6</ele>
        <time>2021-06-06T12:59:38Z</time>
      </trkpt>
      <trkpt lat="44.94337" lon="4.34474">
        <ele>626.4</ele>
        <time>2021-06-06T12:59:42Z</time>
      </trkpt>
      <trkpt lat="44.94335" lon="4.34508">
        <ele>625.4</ele>
        <time>2021-06-06T12:59:46Z</time>
      </trkpt>
      <trkpt lat="44.9433" lon="4.34543">
        <ele>625.6</ele>
        <time>2021-06-06T12:59:50Z</time>
      </trkpt>
      <trkpt lat="44.94325" lon="4.34579">
        <ele>624.6</ele>
        <time>2021-06-06T12:59:54Z</time>
      </trkpt>
      <trkpt lat="44.9432" lon="4.34617">
        <ele>624.2</ele>
        <time>2021-06-06T12:59:58Z</time>
      </trkpt>
      <trkpt lat="44.94317" lon="4.34655">
        <ele>623.2</ele>
        <time>2021-06-06T13:00:02Z</time>
      </trkpt>
      <trkpt lat="44.94316" lon="4.34694">
        <ele>621.8</ele>
        <time>2021-06-06T13:00:06Z</time>
      </trkpt>
      <trkpt lat="44.94315" lon="4.34731">
        <ele>622.2</ele>
        <time>2021-06-06T13:00:10Z</time>
      </trkpt>
      <trkpt lat="44.94312" lon="4.34766">
        <ele>621</ele>
        <time>2021-06-06T13:00:14Z</time>
      </trkpt>
      <trkpt lat="44.94316" lon="4.34799">
        <ele>620.8</ele>
        <time>2021-06-06T13:00:18Z</time>
      </trkpt>
      <trkpt lat="44.94325" lon="4.34826">
        <ele>621</ele>
        <time>2021-06-06T13:00:22Z</time>
      </trkpt>
      <trkpt lat="44.94334" lon="4.3485">
        <ele>620</ele>
        <time>2021-06-06T13:00:26Z</time>
      </trkpt>
      <trkpt lat="44.94343" lon="4.34876">
        <ele>620.8</ele>
        <time>2021-06-06T13:00:30Z</time>
      </trkpt>
      <trkpt lat="44.9435" lon="4.34902">
        <ele>620.4</ele>
        <time>2021-06-06T13:00:34Z</time>
      </trkpt>
      <trkpt lat="44.94355" lon="4.34928">
        <ele>621</ele>
        <time>2021-06-06T13:00:38Z</time>
      </trkpt>
      <trkpt lat="44.9436" lon="4.34954">
        <ele>621.2</ele>
        <time>2021-06-06T13:00:42Z</time>
      </trkpt>
      <trkpt lat="44.94365" lon="4.34977">
        <ele>619.6</ele>
        <time>2021-06-06T13:00:46Z</time>
      </trkpt>
      <trkpt lat="44.9437" lon="4.35001">
        <ele>619.4</ele>
        <time>2021-06-06T13:00:50Z</time>
      </trkpt>
      <trkpt lat="44.94374" lon="4.35024">
        <ele>619.6</ele>
        <time>2021-06-06T13:00:54Z</time>
      </trkpt>
      <trkpt lat="44.94377" lon="4.35047">
        <ele>619.6</ele>
        <time>2021-06-06T13:00:58Z</time>
      </trkpt>
      <trkpt lat="44.94381" lon="4.35071">
        <ele>619.4</ele>
        <time>2021-06-06T13:01:02Z</time>
      </trkpt>
      <trkpt lat="44.94387" lon="4.35096">
        <ele>618.8</ele>
        <time>2021-06-06T13:01:06Z</time>
      </trkpt>
      <trkpt lat="44.94398" lon="4.35117">
        <ele>619</ele>
        <time>2021-06-06T13:01:10Z</time>
      </trkpt>
      <trkpt lat="44.94409" lon="4.35137">
        <ele>617.4</ele>
        <time>2021-06-06T13:01:14Z</time>
      </trkpt>
      <trkpt lat="44.94422" lon="4.35158">
        <ele>616.8</ele>
        <time>2021-06-06T13:01:18Z</time>
      </trkpt>
      <trkpt lat="44.94433" lon="4.35181">
        <ele>616.8</ele>
        <time>2021-06-06T13:01:22Z</time>
      </trkpt>
      <trkpt lat="44.94444" lon="4.35202">
        <ele>617.2</ele>
        <time>2021-06-06T13:01:26Z</time>
      </trkpt>
      <trkpt lat="44.94454" lon="4.35226">
        <ele>616.8</ele>
        <time>2021-06-06T13:01:30Z</time>
      </trkpt>
      <trkpt lat="44.94463" lon="4.3525">
        <ele>615.8</ele>
        <time>2021-06-06T13:01:34Z</time>
      </trkpt>
      <trkpt lat="44.9447" lon="4.35276">
        <ele>616.4</ele>
        <time>2021-06-06T13:01:38Z</time>
      </trkpt>
      <trkpt lat="44.94476" lon="4.35304">
        <ele>616.2</ele>
        <time>2021-06-06T13:01:42Z</time>
      </trkpt>
      <trkpt lat="44.94479" lon="4.35331">
        <ele>616.2</ele>
        <time>2021-06-06T13:01:46Z</time>
      </trkpt>
      <trkpt lat="44.94483" lon="4.35355">
        <ele>615.2</ele>
        <time>2021-06-06T13:01:50Z</time>
      </trkpt>
      <trkpt lat="44.94488" lon="4.35381">
        <ele>613.4</ele>
        <time>2021-06-06T13:01:54Z</time>
      </trkpt>
      <trkpt lat="44.94494" lon="4.35409">
        <ele>613.8</ele>
        <time>2021-06-06T13:01:58Z</time>
      </trkpt>
      <trkpt lat="44.94499" lon="4.35438">
        <ele>613.4</ele>
        <time>2021-06-06T13:02:02Z</time>
      </trkpt>
      <trkpt lat="44.94505" lon="4.35468">
        <ele>612.8</ele>
        <time>2021-06-06T13:02:06Z</time>
      </trkpt>
      <trkpt lat="44.94512" lon="4.35495">
        <ele>613</ele>
        <time>2021-06-06T13:02:10Z</time>
      </trkpt>
      <trkpt lat="44.94519" lon="4.35526">
        <ele>610.8</ele>
        <time>2021-06-06T13:02:14Z</time>
      </trkpt>
      <trkpt lat="44.94526" lon="4.35556">
        <ele>611</ele>
        <time>2021-06-06T13:02:18Z</time>
      </trkpt>
      <trkpt lat="44.94533" lon="4.35585">
        <ele>610.4</ele>
        <time>2021-06-06T13:02:22Z</time>
      </trkpt>
      <trkpt lat="44.94548" lon="4.3561">
        <ele>610.2</ele>
        <time>2021-06-06T13:02:26Z</time>
      </trkpt>
      <trkpt lat="44.94569" lon="4.35624">
        <ele>609.6</ele>
        <time>2021-06-06T13:02:30Z</time>
      </trkpt>
      <trkpt lat="44.94591" lon="4.35636">
        <ele>608.8</ele>
        <time>2021-06-06T13:02:34Z</time>
      </trkpt>
      <trkpt lat="44.94613" lon="4.35655">
        <ele>607.4</ele>
        <time>2021-06-06T13:02:38Z</time>
      </trkpt>
      <trkpt lat="44.94637" lon="4.35671">
        <ele>606</ele>
        <time>2021-06-06T13:02:42Z</time>
      </trkpt>
      <trkpt lat="44.94666" lon="4.35679">
        <ele>605.4</ele>
        <time>2021-06-06T13:02:46Z</time>
      </trkpt>
      <trkpt lat="44.94696" lon="4.35684">
        <ele>604.2</ele>
        <time>2021-06-06T13:02:50Z</time>
      </trkpt>
      <trkpt lat="44.94723" lon="4.35703">
        <ele>603.2</ele>
        <time>2021-06-06T13:02:54Z</time>
      </trkpt>
      <trkpt lat="44.94747" lon="4.3573">
        <ele>602.8</ele>
        <time>2021-06-06T13:02:58Z</time>
      </trkpt>
      <trkpt lat="44.94768" lon="4.35762">
        <ele>601.6</ele>
        <time>2021-06-06T13:03:02Z</time>
      </trkpt>
      <trkpt lat="44.94779" lon="4.35801">
        <ele>601.4</ele>
        <time>2021-06-06T13:03:06Z</time>
      </trkpt>
      <trkpt lat="44.94788" lon="4.3584">
        <ele>600.2</ele>
        <time>2021-06-06T13:03:10Z</time>
      </trkpt>
      <trkpt lat="44.94792" lon="4.35877">
        <ele>600.2</ele>
        <time>2021-06-06T13:03:14Z</time>
      </trkpt>
      <trkpt lat="44.94794" lon="4.35914">
        <ele>599.8</ele>
        <time>2021-06-06T13:03:18Z</time>
      </trkpt>
      <trkpt lat="44.94796" lon="4.35951">
        <ele>599.6</ele>
        <time>2021-06-06T13:03:22Z</time>
      </trkpt>
      <trkpt lat="44.94797" lon="4.35985">
        <ele>599.4</ele>
        <time>2021-06-06T13:03:26Z</time>
      </trkpt>
      <trkpt lat="44.94796" lon="4.36019">
        <ele>599.2</ele>
        <time>2021-06-06T13:03:30Z</time>
      </trkpt>
      <trkpt lat="44.94792" lon="4.36053">
        <ele>599</ele>
        <time>2021-06-06T13:03:34Z</time>
      </trkpt>
      <trkpt lat="44.94785" lon="4.36083">
        <ele>598.4</ele>
        <time>2021-06-06T13:03:38Z</time>
      </trkpt>
      <trkpt lat="44.94776" lon="4.36111">
        <ele>597.8</ele>
        <time>2021-06-06T13:03:42Z</time>
      </trkpt>
      <trkpt lat="44.94762" lon="4.36133">
        <ele>596.8</ele>
        <time>2021-06-06T13:03:46Z</time>
      </trkpt>
      <trkpt lat="44.9474" lon="4.36152">
        <ele>594.4</ele>
        <time>2021-06-06T13:03:50Z</time>
      </trkpt>
      <trkpt lat="44.94718" lon="4.36178">
        <ele>592.8</ele>
        <time>2021-06-06T13:03:54Z</time>
      </trkpt>
      <trkpt lat="44.94694" lon="4.36199">
        <ele>591.6</ele>
        <time>2021-06-06T13:03:58Z</time>
      </trkpt>
      <trkpt lat="44.9467" lon="4.36219">
        <ele>591.6</ele>
        <time>2021-06-06T13:04:02Z</time>
      </trkpt>
      <trkpt lat="44.94645" lon="4.36235">
        <ele>590.4</ele>
        <time>2021-06-06T13:04:06Z</time>
      </trkpt>
      <trkpt lat="44.9462" lon="4.36253">
        <ele>588.8</ele>
        <time>2021-06-06T13:04:10Z</time>
      </trkpt>
      <trkpt lat="44.94593" lon="4.36269">
        <ele>588.8</ele>
        <time>2021-06-06T13:04:14Z</time>
      </trkpt>
      <trkpt lat="44.94566" lon="4.36288">
        <ele>588.4</ele>
        <time>2021-06-06T13:04:18Z</time>
      </trkpt>
      <trkpt lat="44.94539" lon="4.36304">
        <ele>588.4</ele>
        <time>2021-06-06T13:04:22Z</time>
      </trkpt>
      <trkpt lat="44.94513" lon="4.36311">
        <ele>588.4</ele>
        <time>2021-06-06T13:04:26Z</time>
      </trkpt>
      <trkpt lat="44.94489" lon="4.36313">
        <ele>588.8</ele>
        <time>2021-06-06T13:04:30Z</time>
      </trkpt>
      <trkpt lat="44.94464" lon="4.36314">
        <ele>587.8</ele>
        <time>2021-06-06T13:04:34Z</time>
      </trkpt>
      <trkpt lat="44.94441" lon="4.3632">
        <ele>588.2</ele>
        <time>2021-06-06T13:04:38Z</time>
      </trkpt>
      <trkpt lat="44.94421" lon="4.36336">
        <ele>588.4</ele>
        <time>2021-06-06T13:04:42Z</time>
      </trkpt>
      <trkpt lat="44.94409" lon="4.36362">
        <ele>587.4</ele>
        <time>2021-06-06T13:04:46Z</time>
      </trkpt>
      <trkpt lat="44.944" lon="4.36394">
        <ele>586</ele>
        <time>2021-06-06T13:04:50Z</time>
      </trkpt>
      <trkpt lat="44.94392" lon="4.36426">
        <ele>585.2</ele>
        <time>2021-06-06T13:04:54Z</time>
      </trkpt>
      <trkpt lat="44.94384" lon="4.36461">
        <ele>584.4</ele>
        <time>2021-06-06T13:04:58Z</time>
      </trkpt>
      <trkpt lat="44.94379" lon="4.36493">
        <ele>582.6</ele>
        <time>2021-06-06T13:05:02Z</time>
      </trkpt>
      <trkpt lat="44.94376" lon="4.36525">
        <ele>581.6</ele>
        <time>2021-06-06T13:05:06Z</time>
      </trkpt>
      <trkpt lat="44.9437" lon="4.36556">
        <ele>580.2</ele>
        <time>2021-06-06T13:05:10Z</time>
      </trkpt>
      <trkpt lat="44.94362" lon="4.36578">
        <ele>579.6</ele>
        <time>2021-06-06T13:05:14Z</time>
      </trkpt>
      <trkpt lat="44.94355" lon="4.36587">
        <ele>578.6</ele>
        <time>2021-06-06T13:05:18Z</time>
      </trkpt>
      <trkpt lat="44.94346" lon="4.36602">
        <ele>579.4</ele>
        <time>2021-06-06T13:06:00Z</time>
      </trkpt>
      <trkpt lat="44.94353" lon="4.36602">
        <ele>579.6</ele>
        <time>2021-06-06T13:06:04Z</time>
      </trkpt>
      <trkpt lat="44.94358" lon="4.36603">
        <ele>579.6</ele>
        <time>2021-06-06T13:06:08Z</time>
      </trkpt>
      <trkpt lat="44.94364" lon="4.36603">
        <ele>579.8</ele>
        <time>2021-06-06T13:06:12Z</time>
      </trkpt>
      <trkpt lat="44.94367" lon="4.36607">
        <ele>579.6</ele>
        <time>2021-06-06T13:06:16Z</time>
      </trkpt>
      <trkpt lat="44.9437" lon="4.36621">
        <ele>578.8</ele>
        <time>2021-06-06T13:06:40Z</time>
      </trkpt>
      <trkpt lat="44.94371" lon="4.36638">
        <ele>578</ele>
        <time>2021-06-06T13:06:44Z</time>
      </trkpt>
      <trkpt lat="44.94371" lon="4.36658">
        <ele>577.2</ele>
        <time>2021-06-06T13:06:48Z</time>
      </trkpt>
      <trkpt lat="44.94363" lon="4.36679">
        <ele>576.4</ele>
        <time>2021-06-06T13:06:52Z</time>
      </trkpt>
      <trkpt lat="44.94353" lon="4.36694">
        <ele>576.2</ele>
        <time>2021-06-06T13:06:56Z</time>
      </trkpt>
      <trkpt lat="44.94343" lon="4.36715">
        <ele>576.2</ele>
        <time>2021-06-06T13:07:00Z</time>
      </trkpt>
      <trkpt lat="44.94343" lon="4.36741">
        <ele>576.6</ele>
        <time>2021-06-06T13:07:04Z</time>
      </trkpt>
      <trkpt lat="44.94343" lon="4.36767">
        <ele>577.4</ele>
        <time>2021-06-06T13:07:08Z</time>
      </trkpt>
      <trkpt lat="44.94339" lon="4.3679">
        <ele>578.8</ele>
        <time>2021-06-06T13:07:12Z</time>
      </trkpt>
      <trkpt lat="44.94337" lon="4.3681">
        <ele>579.6</ele>
        <time>2021-06-06T13:07:16Z</time>
      </trkpt>
      <trkpt lat="44.94341" lon="4.36824">
        <ele>580.6</ele>
        <time>2021-06-06T13:07:20Z</time>
      </trkpt>
      <trkpt lat="44.94345" lon="4.36835">
        <ele>581.4</ele>
        <time>2021-06-06T13:07:24Z</time>
      </trkpt>
      <trkpt lat="44.94349" lon="4.36845">
        <ele>582.4</ele>
        <time>2021-06-06T13:07:28Z</time>
      </trkpt>
      <trkpt lat="44.94352" lon="4.36855">
        <ele>583.2</ele>
        <time>2021-06-06T13:07:32Z</time>
      </trkpt>
      <trkpt lat="44.94352" lon="4.36864">
        <ele>584.8</ele>
        <time>2021-06-06T13:07:36Z</time>
      </trkpt>
      <trkpt lat="44.94348" lon="4.36872">
        <ele>585.4</ele>
        <time>2021-06-06T13:07:40Z</time>
      </trkpt>
      <trkpt lat="44.94343" lon="4.36881">
        <ele>586.4</ele>
        <time>2021-06-06T13:07:44Z</time>
      </trkpt>
      <trkpt lat="44.94337" lon="4.3689">
        <ele>586.6</ele>
        <time>2021-06-06T13:07:48Z</time>
      </trkpt>
      <trkpt lat="44.94331" lon="4.369">
        <ele>587.2</ele>
        <time>2021-06-06T13:07:52Z</time>
      </trkpt>
      <trkpt lat="44.94324" lon="4.3691">
        <ele>587.8</ele>
        <time>2021-06-06T13:07:56Z</time>
      </trkpt>
      <trkpt lat="44.94317" lon="4.3692">
        <ele>588.4</ele>
        <time>2021-06-06T13:08:00Z</time>
      </trkpt>
      <trkpt lat="44.94312" lon="4.36931">
        <ele>588.6</ele>
        <time>2021-06-06T13:08:04Z</time>
      </trkpt>
      <trkpt lat="44.94307" lon="4.36942">
        <ele>589</ele>
        <time>2021-06-06T13:08:08Z</time>
      </trkpt>
      <trkpt lat="44.94301" lon="4.36955">
        <ele>589.2</ele>
        <time>2021-06-06T13:08:12Z</time>
      </trkpt>
      <trkpt lat="44.94294" lon="4.36968">
        <ele>588.4</ele>
        <time>2021-06-06T13:08:16Z</time>
      </trkpt>
      <trkpt lat="44.94286" lon="4.36983">
        <ele>587.8</ele>
        <time>2021-06-06T13:08:20Z</time>
      </trkpt>
      <trkpt lat="44.94277" lon="4.36999">
        <ele>587.6</ele>
        <time>2021-06-06T13:08:24Z</time>
      </trkpt>
      <trkpt lat="44.94267" lon="4.37018">
        <ele>586.8</ele>
        <time>2021-06-06T13:08:28Z</time>
      </trkpt>
      <trkpt lat="44.94256" lon="4.37039">
        <ele>586.4</ele>
        <time>2021-06-06T13:08:32Z</time>
      </trkpt>
      <trkpt lat="44.94246" lon="4.3706">
        <ele>585.6</ele>
        <time>2021-06-06T13:08:36Z</time>
      </trkpt>
      <trkpt lat="44.94233" lon="4.37084">
        <ele>585.2</ele>
        <time>2021-06-06T13:08:40Z</time>
      </trkpt>
      <trkpt lat="44.94219" lon="4.37109">
        <ele>584</ele>
        <time>2021-06-06T13:08:44Z</time>
      </trkpt>
      <trkpt lat="44.94205" lon="4.37134">
        <ele>583</ele>
        <time>2021-06-06T13:08:48Z</time>
      </trkpt>
      <trkpt lat="44.94188" lon="4.37156">
        <ele>582.8</ele>
        <time>2021-06-06T13:08:52Z</time>
      </trkpt>
      <trkpt lat="44.94167" lon="4.37173">
        <ele>581.4</ele>
        <time>2021-06-06T13:08:56Z</time>
      </trkpt>
      <trkpt lat="44.94148" lon="4.37189">
        <ele>581.2</ele>
        <time>2021-06-06T13:09:00Z</time>
      </trkpt>
      <trkpt lat="44.94129" lon="4.37202">
        <ele>580.2</ele>
        <time>2021-06-06T13:09:04Z</time>
      </trkpt>
      <trkpt lat="44.9411" lon="4.37217">
        <ele>579.4</ele>
        <time>2021-06-06T13:09:08Z</time>
      </trkpt>
      <trkpt lat="44.94088" lon="4.37226">
        <ele>578.2</ele>
        <time>2021-06-06T13:09:12Z</time>
      </trkpt>
      <trkpt lat="44.94065" lon="4.37227">
        <ele>578</ele>
        <time>2021-06-06T13:09:16Z</time>
      </trkpt>
      <trkpt lat="44.9404" lon="4.37231">
        <ele>577.4</ele>
        <time>2021-06-06T13:09:20Z</time>
      </trkpt>
      <trkpt lat="44.94015" lon="4.37235">
        <ele>575.8</ele>
        <time>2021-06-06T13:09:24Z</time>
      </trkpt>
      <trkpt lat="44.93987" lon="4.3724">
        <ele>575</ele>
        <time>2021-06-06T13:09:28Z</time>
      </trkpt>
      <trkpt lat="44.93961" lon="4.37238">
        <ele>574.8</ele>
        <time>2021-06-06T13:09:32Z</time>
      </trkpt>
      <trkpt lat="44.93933" lon="4.37232">
        <ele>572.6</ele>
        <time>2021-06-06T13:09:36Z</time>
      </trkpt>
      <trkpt lat="44.9391" lon="4.37229">
        <ele>572.6</ele>
        <time>2021-06-06T13:09:40Z</time>
      </trkpt>
      <trkpt lat="44.93886" lon="4.37224">
        <ele>571.8</ele>
        <time>2021-06-06T13:09:44Z</time>
      </trkpt>
      <trkpt lat="44.93859" lon="4.37222">
        <ele>571.4</ele>
        <time>2021-06-06T13:09:48Z</time>
      </trkpt>
      <trkpt lat="44.9383" lon="4.37222">
        <ele>570.6</ele>
        <time>2021-06-06T13:09:52Z</time>
      </trkpt>
      <trkpt lat="44.93801" lon="4.37229">
        <ele>569</ele>
        <time>2021-06-06T13:09:56Z</time>
      </trkpt>
      <trkpt lat="44.93771" lon="4.37237">
        <ele>567.6</ele>
        <time>2021-06-06T13:10:00Z</time>
      </trkpt>
      <trkpt lat="44.93741" lon="4.37237">
        <ele>567.2</ele>
        <time>2021-06-06T13:10:04Z</time>
      </trkpt>
      <trkpt lat="44.93713" lon="4.37236">
        <ele>566.2</ele>
        <time>2021-06-06T13:10:08Z</time>
      </trkpt>
      <trkpt lat="44.9369" lon="4.37241">
        <ele>565.6</ele>
        <time>2021-06-06T13:10:12Z</time>
      </trkpt>
      <trkpt lat="44.93669" lon="4.37251">
        <ele>565.4</ele>
        <time>2021-06-06T13:10:16Z</time>
      </trkpt>
      <trkpt lat="44.93657" lon="4.37264">
        <ele>565.2</ele>
        <time>2021-06-06T13:10:20Z</time>
      </trkpt>
      <trkpt lat="44.93649" lon="4.37279">
        <ele>565.2</ele>
        <time>2021-06-06T13:10:24Z</time>
      </trkpt>
      <trkpt lat="44.93644" lon="4.3729">
        <ele>565.6</ele>
        <time>2021-06-06T13:10:28Z</time>
      </trkpt>
      <trkpt lat="44.93639" lon="4.373">
        <ele>565.8</ele>
        <time>2021-06-06T13:10:32Z</time>
      </trkpt>
      <trkpt lat="44.93635" lon="4.37311">
        <ele>566.8</ele>
        <time>2021-06-06T13:10:36Z</time>
      </trkpt>
      <trkpt lat="44.93631" lon="4.37326">
        <ele>567</ele>
        <time>2021-06-06T13:10:40Z</time>
      </trkpt>
      <trkpt lat="44.93628" lon="4.3734">
        <ele>567.6</ele>
        <time>2021-06-06T13:10:44Z</time>
      </trkpt>
      <trkpt lat="44.93627" lon="4.37356">
        <ele>567.8</ele>
        <time>2021-06-06T13:10:48Z</time>
      </trkpt>
      <trkpt lat="44.93627" lon="4.37374">
        <ele>567.6</ele>
        <time>2021-06-06T13:10:52Z</time>
      </trkpt>
      <trkpt lat="44.9363" lon="4.37394">
        <ele>567.2</ele>
        <time>2021-06-06T13:10:56Z</time>
      </trkpt>
      <trkpt lat="44.93637" lon="4.37416">
        <ele>566.8</ele>
        <time>2021-06-06T13:11:00Z</time>
      </trkpt>
      <trkpt lat="44.93647" lon="4.37438">
        <ele>566.4</ele>
        <time>2021-06-06T13:11:04Z</time>
      </trkpt>
      <trkpt lat="44.93661" lon="4.37454">
        <ele>566.4</ele>
        <time>2021-06-06T13:11:08Z</time>
      </trkpt>
      <trkpt lat="44.93679" lon="4.3746">
        <ele>566</ele>
        <time>2021-06-06T13:11:12Z</time>
      </trkpt>
      <trkpt lat="44.93695" lon="4.37463">
        <ele>566</ele>
        <time>2021-06-06T13:11:16Z</time>
      </trkpt>
      <trkpt lat="44.937" lon="4.37473">
        <ele>566.2</ele>
        <time>2021-06-06T13:11:20Z</time>
      </trkpt>
      <trkpt lat="44.93696" lon="4.37488">
        <ele>565.8</ele>
        <time>2021-06-06T13:11:24Z</time>
      </trkpt>
      <trkpt lat="44.93701" lon="4.37505">
        <ele>565.2</ele>
        <time>2021-06-06T13:11:28Z</time>
      </trkpt>
      <trkpt lat="44.93716" lon="4.37515">
        <ele>565.2</ele>
        <time>2021-06-06T13:11:32Z</time>
      </trkpt>
      <trkpt lat="44.93733" lon="4.37525">
        <ele>565</ele>
        <time>2021-06-06T13:11:36Z</time>
      </trkpt>
      <trkpt lat="44.9375" lon="4.37535">
        <ele>565.6</ele>
        <time>2021-06-06T13:11:40Z</time>
      </trkpt>
      <trkpt lat="44.93765" lon="4.37545">
        <ele>565.6</ele>
        <time>2021-06-06T13:11:44Z</time>
      </trkpt>
      <trkpt lat="44.9378" lon="4.37557">
        <ele>565.4</ele>
        <time>2021-06-06T13:11:48Z</time>
      </trkpt>
      <trkpt lat="44.93796" lon="4.37569">
        <ele>565.6</ele>
        <time>2021-06-06T13:11:52Z</time>
      </trkpt>
      <trkpt lat="44.93811" lon="4.37585">
        <ele>565.8</ele>
        <time>2021-06-06T13:11:56Z</time>
      </trkpt>
      <trkpt lat="44.93826" lon="4.37599">
        <ele>565.8</ele>
        <time>2021-06-06T13:12:00Z</time>
      </trkpt>
      <trkpt lat="44.93841" lon="4.37615">
        <ele>565.8</ele>
        <time>2021-06-06T13:12:04Z</time>
      </trkpt>
      <trkpt lat="44.93856" lon="4.37631">
        <ele>566.2</ele>
        <time>2021-06-06T13:12:08Z</time>
      </trkpt>
      <trkpt lat="44.93871" lon="4.37647">
        <ele>566.2</ele>
        <time>2021-06-06T13:12:12Z</time>
      </trkpt>
      <trkpt lat="44.93883" lon="4.37663">
        <ele>566.2</ele>
        <time>2021-06-06T13:12:16Z</time>
      </trkpt>
      <trkpt lat="44.93894" lon="4.37677">
        <ele>566.6</ele>
        <time>2021-06-06T13:12:20Z</time>
      </trkpt>
      <trkpt lat="44.93907" lon="4.37694">
        <ele>567</ele>
        <time>2021-06-06T13:12:24Z</time>
      </trkpt>
      <trkpt lat="44.9392" lon="4.37712">
        <ele>566.6</ele>
        <time>2021-06-06T13:12:28Z</time>
      </trkpt>
      <trkpt lat="44.93929" lon="4.37735">
        <ele>566.4</ele>
        <time>2021-06-06T13:12:32Z</time>
      </trkpt>
      <trkpt lat="44.93935" lon="4.37761">
        <ele>566.6</ele>
        <time>2021-06-06T13:12:36Z</time>
      </trkpt>
      <trkpt lat="44.93937" lon="4.37788">
        <ele>566.6</ele>
        <time>2021-06-06T13:12:40Z</time>
      </trkpt>
      <trkpt lat="44.93939" lon="4.37814">
        <ele>567.2</ele>
        <time>2021-06-06T13:12:44Z</time>
      </trkpt>
      <trkpt lat="44.93942" lon="4.37839">
        <ele>567.2</ele>
        <time>2021-06-06T13:12:48Z</time>
      </trkpt>
      <trkpt lat="44.93947" lon="4.37864">
        <ele>567.2</ele>
        <time>2021-06-06T13:12:52Z</time>
      </trkpt>
      <trkpt lat="44.93956" lon="4.37888">
        <ele>567.8</ele>
        <time>2021-06-06T13:12:56Z</time>
      </trkpt>
      <trkpt lat="44.93965" lon="4.37911">
        <ele>567.6</ele>
        <time>2021-06-06T13:13:00Z</time>
      </trkpt>
      <trkpt lat="44.93975" lon="4.37932">
        <ele>568.2</ele>
        <time>2021-06-06T13:13:04Z</time>
      </trkpt>
      <trkpt lat="44.93985" lon="4.37954">
        <ele>568</ele>
        <time>2021-06-06T13:13:08Z</time>
      </trkpt>
      <trkpt lat="44.93995" lon="4.37975">
        <ele>568.6</ele>
        <time>2021-06-06T13:13:12Z</time>
      </trkpt>
      <trkpt lat="44.94005" lon="4.37997">
        <ele>568.2</ele>
        <time>2021-06-06T13:13:16Z</time>
      </trkpt>
      <trkpt lat="44.94013" lon="4.38021">
        <ele>568.2</ele>
        <time>2021-06-06T13:13:20Z</time>
      </trkpt>
      <trkpt lat="44.94019" lon="4.38045">
        <ele>568.4</ele>
        <time>2021-06-06T13:13:24Z</time>
      </trkpt>
      <trkpt lat="44.94023" lon="4.38074">
        <ele>568.2</ele>
        <time>2021-06-06T13:13:28Z</time>
      </trkpt>
      <trkpt lat="44.94026" lon="4.38104">
        <ele>568.4</ele>
        <time>2021-06-06T13:13:32Z</time>
      </trkpt>
      <trkpt lat="44.94029" lon="4.38132">
        <ele>568</ele>
        <time>2021-06-06T13:13:36Z</time>
      </trkpt>
      <trkpt lat="44.94031" lon="4.38158">
        <ele>568.4</ele>
        <time>2021-06-06T13:13:40Z</time>
      </trkpt>
      <trkpt lat="44.94034" lon="4.38184">
        <ele>569</ele>
        <time>2021-06-06T13:13:44Z</time>
      </trkpt>
      <trkpt lat="44.94036" lon="4.38207">
        <ele>568</ele>
        <time>2021-06-06T13:13:48Z</time>
      </trkpt>
      <trkpt lat="44.94032" lon="4.38227">
        <ele>567.8</ele>
        <time>2021-06-06T13:13:52Z</time>
      </trkpt>
      <trkpt lat="44.94032" lon="4.38249">
        <ele>567.8</ele>
        <time>2021-06-06T13:13:56Z</time>
      </trkpt>
      <trkpt lat="44.94032" lon="4.38274">
        <ele>567.6</ele>
        <time>2021-06-06T13:14:00Z</time>
      </trkpt>
      <trkpt lat="44.94029" lon="4.38301">
        <ele>567.6</ele>
        <time>2021-06-06T13:14:04Z</time>
      </trkpt>
      <trkpt lat="44.94021" lon="4.38325">
        <ele>568.6</ele>
        <time>2021-06-06T13:14:08Z</time>
      </trkpt>
      <trkpt lat="44.94014" lon="4.38348">
        <ele>567.8</ele>
        <time>2021-06-06T13:14:12Z</time>
      </trkpt>
      <trkpt lat="44.94012" lon="4.38375">
        <ele>568.2</ele>
        <time>2021-06-06T13:14:16Z</time>
      </trkpt>
      <trkpt lat="44.94011" lon="4.38403">
        <ele>568.2</ele>
        <time>2021-06-06T13:14:20Z</time>
      </trkpt>
      <trkpt lat="44.94009" lon="4.38431">
        <ele>568.4</ele>
        <time>2021-06-06T13:14:24Z</time>
      </trkpt>
      <trkpt lat="44.94006" lon="4.38459">
        <ele>568</ele>
        <time>2021-06-06T13:14:28Z</time>
      </trkpt>
      <trkpt lat="44.94004" lon="4.38485">
        <ele>568</ele>
        <time>2021-06-06T13:14:32Z</time>
      </trkpt>
      <trkpt lat="44.94001" lon="4.38511">
        <ele>567.2</ele>
        <time>2021-06-06T13:14:36Z</time>
      </trkpt>
      <trkpt lat="44.93996" lon="4.38537">
        <ele>567.8</ele>
        <time>2021-06-06T13:14:40Z</time>
      </trkpt>
      <trkpt lat="44.93989" lon="4.38562">
        <ele>567.8</ele>
        <time>2021-06-06T13:14:44Z</time>
      </trkpt>
      <trkpt lat="44.93982" lon="4.38588">
        <ele>567.6</ele>
        <time>2021-06-06T13:14:48Z</time>
      </trkpt>
      <trkpt lat="44.93974" lon="4.38614">
        <ele>567.8</ele>
        <time>2021-06-06T13:14:52Z</time>
      </trkpt>
      <trkpt lat="44.93966" lon="4.3864">
        <ele>566.8</ele>
        <time>2021-06-06T13:14:56Z</time>
      </trkpt>
      <trkpt lat="44.93956" lon="4.38666">
        <ele>566</ele>
        <time>2021-06-06T13:15:00Z</time>
      </trkpt>
      <trkpt lat="44.93941" lon="4.38688">
        <ele>565.2</ele>
        <time>2021-06-06T13:15:04Z</time>
      </trkpt>
      <trkpt lat="44.93926" lon="4.38709">
        <ele>565.6</ele>
        <time>2021-06-06T13:15:08Z</time>
      </trkpt>
      <trkpt lat="44.93912" lon="4.3873">
        <ele>564.8</ele>
        <time>2021-06-06T13:15:12Z</time>
      </trkpt>
      <trkpt lat="44.93903" lon="4.38756">
        <ele>564.4</ele>
        <time>2021-06-06T13:15:16Z</time>
      </trkpt>
      <trkpt lat="44.93895" lon="4.38784">
        <ele>564</ele>
        <time>2021-06-06T13:15:20Z</time>
      </trkpt>
      <trkpt lat="44.93893" lon="4.38811">
        <ele>564</ele>
        <time>2021-06-06T13:15:24Z</time>
      </trkpt>
      <trkpt lat="44.93896" lon="4.38841">
        <ele>563.6</ele>
        <time>2021-06-06T13:15:28Z</time>
      </trkpt>
      <trkpt lat="44.93899" lon="4.3887">
        <ele>563</ele>
        <time>2021-06-06T13:15:32Z</time>
      </trkpt>
      <trkpt lat="44.93904" lon="4.38901">
        <ele>562.4</ele>
        <time>2021-06-06T13:15:36Z</time>
      </trkpt>
      <trkpt lat="44.93909" lon="4.38935">
        <ele>561.2</ele>
        <time>2021-06-06T13:15:40Z</time>
      </trkpt>
      <trkpt lat="44.93912" lon="4.38965">
        <ele>561.4</ele>
        <time>2021-06-06T13:15:44Z</time>
      </trkpt>
      <trkpt lat="44.93914" lon="4.38992">
        <ele>560.8</ele>
        <time>2021-06-06T13:15:48Z</time>
      </trkpt>
      <trkpt lat="44.93918" lon="4.39024">
        <ele>560</ele>
        <time>2021-06-06T13:15:52Z</time>
      </trkpt>
      <trkpt lat="44.93919" lon="4.39054">
        <ele>559.6</ele>
        <time>2021-06-06T13:15:56Z</time>
      </trkpt>
      <trkpt lat="44.93918" lon="4.39081">
        <ele>559.8</ele>
        <time>2021-06-06T13:16:00Z</time>
      </trkpt>
      <trkpt lat="44.93916" lon="4.39112">
        <ele>559.2</ele>
        <time>2021-06-06T13:16:04Z</time>
      </trkpt>
      <trkpt lat="44.93917" lon="4.39142">
        <ele>559.8</ele>
        <time>2021-06-06T13:16:08Z</time>
      </trkpt>
      <trkpt lat="44.9392" lon="4.39173">
        <ele>560</ele>
        <time>2021-06-06T13:16:12Z</time>
      </trkpt>
      <trkpt lat="44.93922" lon="4.39207">
        <ele>559.8</ele>
        <time>2021-06-06T13:16:16Z</time>
      </trkpt>
      <trkpt lat="44.93922" lon="4.39236">
        <ele>560.6</ele>
        <time>2021-06-06T13:16:20Z</time>
      </trkpt>
      <trkpt lat="44.93924" lon="4.39263">
        <ele>559.4</ele>
        <time>2021-06-06T13:16:24Z</time>
      </trkpt>
      <trkpt lat="44.93924" lon="4.39292">
        <ele>559.4</ele>
        <time>2021-06-06T13:16:28Z</time>
      </trkpt>
      <trkpt lat="44.93924" lon="4.39321">
        <ele>559.4</ele>
        <time>2021-06-06T13:16:32Z</time>
      </trkpt>
      <trkpt lat="44.93924" lon="4.39352">
        <ele>558.6</ele>
        <time>2021-06-06T13:16:36Z</time>
      </trkpt>
      <trkpt lat="44.93926" lon="4.39384">
        <ele>557.2</ele>
        <time>2021-06-06T13:16:40Z</time>
      </trkpt>
      <trkpt lat="44.93927" lon="4.39417">
        <ele>557.4</ele>
        <time>2021-06-06T13:16:44Z</time>
      </trkpt>
      <trkpt lat="44.93931" lon="4.39448">
        <ele>556.2</ele>
        <time>2021-06-06T13:16:48Z</time>
      </trkpt>
      <trkpt lat="44.93937" lon="4.39482">
        <ele>555.2</ele>
        <time>2021-06-06T13:16:52Z</time>
      </trkpt>
      <trkpt lat="44.93941" lon="4.39516">
        <ele>554</ele>
        <time>2021-06-06T13:16:56Z</time>
      </trkpt>
      <trkpt lat="44.93944" lon="4.39551">
        <ele>554.2</ele>
        <time>2021-06-06T13:17:00Z</time>
      </trkpt>
      <trkpt lat="44.93947" lon="4.39586">
        <ele>553.6</ele>
        <time>2021-06-06T13:17:04Z</time>
      </trkpt>
      <trkpt lat="44.93948" lon="4.39622">
        <ele>552.6</ele>
        <time>2021-06-06T13:17:08Z</time>
      </trkpt>
      <trkpt lat="44.93949" lon="4.3966">
        <ele>552.6</ele>
        <time>2021-06-06T13:17:12Z</time>
      </trkpt>
      <trkpt lat="44.9395" lon="4.39699">
        <ele>552</ele>
        <time>2021-06-06T13:17:16Z</time>
      </trkpt>
      <trkpt lat="44.93951" lon="4.39734">
        <ele>551.2</ele>
        <time>2021-06-06T13:17:20Z</time>
      </trkpt>
      <trkpt lat="44.93952" lon="4.39762">
        <ele>550.8</ele>
        <time>2021-06-06T13:17:24Z</time>
      </trkpt>
      <trkpt lat="44.93953" lon="4.39791">
        <ele>550.4</ele>
        <time>2021-06-06T13:17:28Z</time>
      </trkpt>
      <trkpt lat="44.93955" lon="4.39823">
        <ele>549</ele>
        <time>2021-06-06T13:17:32Z</time>
      </trkpt>
      <trkpt lat="44.93956" lon="4.39856">
        <ele>549</ele>
        <time>2021-06-06T13:17:36Z</time>
      </trkpt>
      <trkpt lat="44.93956" lon="4.39886">
        <ele>549</ele>
        <time>2021-06-06T13:17:40Z</time>
      </trkpt>
      <trkpt lat="44.93954" lon="4.39915">
        <ele>548.4</ele>
        <time>2021-06-06T13:17:44Z</time>
      </trkpt>
      <trkpt lat="44.9395" lon="4.39944">
        <ele>549</ele>
        <time>2021-06-06T13:17:48Z</time>
      </trkpt>
      <trkpt lat="44.93944" lon="4.39973">
        <ele>548.2</ele>
        <time>2021-06-06T13:17:52Z</time>
      </trkpt>
      <trkpt lat="44.93937" lon="4.39998">
        <ele>548.4</ele>
        <time>2021-06-06T13:17:56Z</time>
      </trkpt>
      <trkpt lat="44.93929" lon="4.40023">
        <ele>548.6</ele>
        <time>2021-06-06T13:18:00Z</time>
      </trkpt>
      <trkpt lat="44.93918" lon="4.40047">
        <ele>548.2</ele>
        <time>2021-06-06T13:18:04Z</time>
      </trkpt>
      <trkpt lat="44.93907" lon="4.40067">
        <ele>548</ele>
        <time>2021-06-06T13:18:08Z</time>
      </trkpt>
      <trkpt lat="44.93894" lon="4.40088">
        <ele>548.6</ele>
        <time>2021-06-06T13:18:12Z</time>
      </trkpt>
      <trkpt lat="44.93883" lon="4.40108">
        <ele>548.4</ele>
        <time>2021-06-06T13:18:16Z</time>
      </trkpt>
      <trkpt lat="44.93869" lon="4.40125">
        <ele>547.6</ele>
        <time>2021-06-06T13:18:20Z</time>
      </trkpt>
      <trkpt lat="44.93853" lon="4.40135">
        <ele>547.8</ele>
        <time>2021-06-06T13:18:24Z</time>
      </trkpt>
      <trkpt lat="44.93834" lon="4.40142">
        <ele>548</ele>
        <time>2021-06-06T13:18:28Z</time>
      </trkpt>
      <trkpt lat="44.93816" lon="4.40145">
        <ele>548</ele>
        <time>2021-06-06T13:18:32Z</time>
      </trkpt>
      <trkpt lat="44.93798" lon="4.40145">
        <ele>547.8</ele>
        <time>2021-06-06T13:18:36Z</time>
      </trkpt>
      <trkpt lat="44.93782" lon="4.40143">
        <ele>548.4</ele>
        <time>2021-06-06T13:18:40Z</time>
      </trkpt>
      <trkpt lat="44.93766" lon="4.40145">
        <ele>548.6</ele>
        <time>2021-06-06T13:18:44Z</time>
      </trkpt>
      <trkpt lat="44.93749" lon="4.40152">
        <ele>549</ele>
        <time>2021-06-06T13:18:48Z</time>
      </trkpt>
      <trkpt lat="44.93728" lon="4.40129">
        <ele>548.2</ele>
        <time>2021-06-06T13:18:52Z</time>
      </trkpt>
      <trkpt lat="44.93708" lon="4.40122">
        <ele>548.6</ele>
        <time>2021-06-06T13:18:56Z</time>
      </trkpt>
      <trkpt lat="44.93689" lon="4.40118">
        <ele>550</ele>
        <time>2021-06-06T13:19:00Z</time>
      </trkpt>
      <trkpt lat="44.93671" lon="4.40123">
        <ele>549</ele>
        <time>2021-06-06T13:19:04Z</time>
      </trkpt>
      <trkpt lat="44.93653" lon="4.40131">
        <ele>549.4</ele>
        <time>2021-06-06T13:19:08Z</time>
      </trkpt>
      <trkpt lat="44.93638" lon="4.40145">
        <ele>548</ele>
        <time>2021-06-06T13:19:12Z</time>
      </trkpt>
      <trkpt lat="44.93623" lon="4.40164">
        <ele>548</ele>
        <time>2021-06-06T13:19:16Z</time>
      </trkpt>
      <trkpt lat="44.93612" lon="4.40186">
        <ele>548.2</ele>
        <time>2021-06-06T13:19:20Z</time>
      </trkpt>
      <trkpt lat="44.93606" lon="4.40212">
        <ele>547.8</ele>
        <time>2021-06-06T13:19:24Z</time>
      </trkpt>
      <trkpt lat="44.93603" lon="4.40237">
        <ele>547.6</ele>
        <time>2021-06-06T13:19:28Z</time>
      </trkpt>
      <trkpt lat="44.93599" lon="4.40258">
        <ele>548.2</ele>
        <time>2021-06-06T13:19:32Z</time>
      </trkpt>
      <trkpt lat="44.936" lon="4.40276">
        <ele>547.8</ele>
        <time>2021-06-06T13:19:36Z</time>
      </trkpt>
      <trkpt lat="44.936" lon="4.40291">
        <ele>548</ele>
        <time>2021-06-06T13:19:40Z</time>
      </trkpt>
      <trkpt lat="44.93599" lon="4.40312">
        <ele>547.4</ele>
        <time>2021-06-06T13:19:44Z</time>
      </trkpt>
      <trkpt lat="44.93596" lon="4.40338">
        <ele>547.2</ele>
        <time>2021-06-06T13:19:48Z</time>
      </trkpt>
      <trkpt lat="44.93589" lon="4.40367">
        <ele>546.8</ele>
        <time>2021-06-06T13:19:52Z</time>
      </trkpt>
      <trkpt lat="44.93578" lon="4.40394">
        <ele>546.2</ele>
        <time>2021-06-06T13:19:56Z</time>
      </trkpt>
      <trkpt lat="44.93567" lon="4.40418">
        <ele>546</ele>
        <time>2021-06-06T13:20:00Z</time>
      </trkpt>
      <trkpt lat="44.93557" lon="4.40445">
        <ele>546.2</ele>
        <time>2021-06-06T13:20:04Z</time>
      </trkpt>
      <trkpt lat="44.93542" lon="4.40468">
        <ele>546.4</ele>
        <time>2021-06-06T13:20:08Z</time>
      </trkpt>
      <trkpt lat="44.93525" lon="4.40485">
        <ele>546</ele>
        <time>2021-06-06T13:20:12Z</time>
      </trkpt>
      <trkpt lat="44.93505" lon="4.40495">
        <ele>545.4</ele>
        <time>2021-06-06T13:20:16Z</time>
      </trkpt>
      <trkpt lat="44.93486" lon="4.40502">
        <ele>546</ele>
        <time>2021-06-06T13:20:20Z</time>
      </trkpt>
      <trkpt lat="44.93466" lon="4.4051">
        <ele>546.2</ele>
        <time>2021-06-06T13:20:24Z</time>
      </trkpt>
      <trkpt lat="44.93447" lon="4.40515">
        <ele>545.6</ele>
        <time>2021-06-06T13:20:28Z</time>
      </trkpt>
      <trkpt lat="44.93428" lon="4.40512">
        <ele>545.2</ele>
        <time>2021-06-06T13:20:32Z</time>
      </trkpt>
      <trkpt lat="44.93413" lon="4.40504">
        <ele>545.8</ele>
        <time>2021-06-06T13:20:36Z</time>
      </trkpt>
      <trkpt lat="44.93398" lon="4.40491">
        <ele>543.8</ele>
        <time>2021-06-06T13:20:40Z</time>
      </trkpt>
      <trkpt lat="44.93385" lon="4.40477">
        <ele>544.8</ele>
        <time>2021-06-06T13:20:44Z</time>
      </trkpt>
      <trkpt lat="44.93367" lon="4.40463">
        <ele>544.4</ele>
        <time>2021-06-06T13:20:48Z</time>
      </trkpt>
      <trkpt lat="44.93354" lon="4.40447">
        <ele>544.8</ele>
        <time>2021-06-06T13:20:52Z</time>
      </trkpt>
      <trkpt lat="44.93336" lon="4.40427">
        <ele>545.4</ele>
        <time>2021-06-06T13:20:56Z</time>
      </trkpt>
      <trkpt lat="44.93319" lon="4.40411">
        <ele>546</ele>
        <time>2021-06-06T13:21:00Z</time>
      </trkpt>
      <trkpt lat="44.93305" lon="4.40397">
        <ele>545.6</ele>
        <time>2021-06-06T13:21:04Z</time>
      </trkpt>
      <trkpt lat="44.93293" lon="4.40384">
        <ele>545.4</ele>
        <time>2021-06-06T13:21:08Z</time>
      </trkpt>
      <trkpt lat="44.93281" lon="4.40368">
        <ele>545.8</ele>
        <time>2021-06-06T13:21:12Z</time>
      </trkpt>
      <trkpt lat="44.93268" lon="4.40352">
        <ele>545.6</ele>
        <time>2021-06-06T13:21:16Z</time>
      </trkpt>
      <trkpt lat="44.93259" lon="4.40336">
        <ele>546</ele>
        <time>2021-06-06T13:21:20Z</time>
      </trkpt>
      <trkpt lat="44.93259" lon="4.40336">
        <ele>545.6</ele>
        <time>2021-06-06T13:21:24Z</time>
      </trkpt>
      <trkpt lat="44.93239" lon="4.40298">
        <ele>546.4</ele>
        <time>2021-06-06T13:21:28Z</time>
      </trkpt>
      <trkpt lat="44.93227" lon="4.40274">
        <ele>545.8</ele>
        <time>2021-06-06T13:21:32Z</time>
      </trkpt>
      <trkpt lat="44.93217" lon="4.40257">
        <ele>546.2</ele>
        <time>2021-06-06T13:21:36Z</time>
      </trkpt>
      <trkpt lat="44.93203" lon="4.40245">
        <ele>546.2</ele>
        <time>2021-06-06T13:21:40Z</time>
      </trkpt>
      <trkpt lat="44.93188" lon="4.40235">
        <ele>546.6</ele>
        <time>2021-06-06T13:21:44Z</time>
      </trkpt>
      <trkpt lat="44.9317" lon="4.40228">
        <ele>546.2</ele>
        <time>2021-06-06T13:21:48Z</time>
      </trkpt>
      <trkpt lat="44.93149" lon="4.40223">
        <ele>545.8</ele>
        <time>2021-06-06T13:21:52Z</time>
      </trkpt>
      <trkpt lat="44.93126" lon="4.40228">
        <ele>545.4</ele>
        <time>2021-06-06T13:21:56Z</time>
      </trkpt>
      <trkpt lat="44.93105" lon="4.40237">
        <ele>543.8</ele>
        <time>2021-06-06T13:22:00Z</time>
      </trkpt>
      <trkpt lat="44.93088" lon="4.40255">
        <ele>544.2</ele>
        <time>2021-06-06T13:22:04Z</time>
      </trkpt>
      <trkpt lat="44.93074" lon="4.40278">
        <ele>544.6</ele>
        <time>2021-06-06T13:22:08Z</time>
      </trkpt>
      <trkpt lat="44.93062" lon="4.40299">
        <ele>544.2</ele>
        <time>2021-06-06T13:22:12Z</time>
      </trkpt>
      <trkpt lat="44.93046" lon="4.40321">
        <ele>543.8</ele>
        <time>2021-06-06T13:22:16Z</time>
      </trkpt>
      <trkpt lat="44.93026" lon="4.40339">
        <ele>543.6</ele>
        <time>2021-06-06T13:22:20Z</time>
      </trkpt>
      <trkpt lat="44.93007" lon="4.40352">
        <ele>544</ele>
        <time>2021-06-06T13:22:24Z</time>
      </trkpt>
      <trkpt lat="44.92988" lon="4.40362">
        <ele>544.2</ele>
        <time>2021-06-06T13:22:28Z</time>
      </trkpt>
      <trkpt lat="44.92968" lon="4.40373">
        <ele>543.6</ele>
        <time>2021-06-06T13:22:32Z</time>
      </trkpt>
      <trkpt lat="44.92947" lon="4.40383">
        <ele>544</ele>
        <time>2021-06-06T13:22:36Z</time>
      </trkpt>
      <trkpt lat="44.92928" lon="4.40391">
        <ele>543.6</ele>
        <time>2021-06-06T13:22:40Z</time>
      </trkpt>
      <trkpt lat="44.92907" lon="4.40397">
        <ele>544.8</ele>
        <time>2021-06-06T13:22:44Z</time>
      </trkpt>
      <trkpt lat="44.92886" lon="4.40394">
        <ele>543.6</ele>
        <time>2021-06-06T13:22:48Z</time>
      </trkpt>
      <trkpt lat="44.92868" lon="4.40388">
        <ele>543.6</ele>
        <time>2021-06-06T13:22:52Z</time>
      </trkpt>
      <trkpt lat="44.9285" lon="4.40379">
        <ele>544.2</ele>
        <time>2021-06-06T13:22:56Z</time>
      </trkpt>
      <trkpt lat="44.92835" lon="4.40366">
        <ele>543.6</ele>
        <time>2021-06-06T13:23:00Z</time>
      </trkpt>
      <trkpt lat="44.92818" lon="4.40348">
        <ele>543.4</ele>
        <time>2021-06-06T13:23:04Z</time>
      </trkpt>
      <trkpt lat="44.92806" lon="4.40327">
        <ele>543.6</ele>
        <time>2021-06-06T13:23:08Z</time>
      </trkpt>
      <trkpt lat="44.9279" lon="4.40298">
        <ele>543.4</ele>
        <time>2021-06-06T13:24:24Z</time>
      </trkpt>
      <trkpt lat="44.92778" lon="4.40284">
        <ele>543.6</ele>
        <time>2021-06-06T13:24:28Z</time>
      </trkpt>
      <trkpt lat="44.92764" lon="4.40273">
        <ele>543.6</ele>
        <time>2021-06-06T13:24:32Z</time>
      </trkpt>
      <trkpt lat="44.92746" lon="4.40266">
        <ele>543.6</ele>
        <time>2021-06-06T13:24:36Z</time>
      </trkpt>
      <trkpt lat="44.92724" lon="4.40262">
        <ele>542.6</ele>
        <time>2021-06-06T13:24:40Z</time>
      </trkpt>
      <trkpt lat="44.927" lon="4.40266">
        <ele>541.8</ele>
        <time>2021-06-06T13:24:44Z</time>
      </trkpt>
      <trkpt lat="44.9268" lon="4.40278">
        <ele>541.4</ele>
        <time>2021-06-06T13:24:48Z</time>
      </trkpt>
      <trkpt lat="44.92659" lon="4.40302">
        <ele>540.2</ele>
        <time>2021-06-06T13:24:52Z</time>
      </trkpt>
      <trkpt lat="44.9264" lon="4.40328">
        <ele>538.4</ele>
        <time>2021-06-06T13:24:56Z</time>
      </trkpt>
      <trkpt lat="44.92621" lon="4.40354">
        <ele>538.2</ele>
        <time>2021-06-06T13:25:00Z</time>
      </trkpt>
      <trkpt lat="44.92597" lon="4.40369">
        <ele>537.4</ele>
        <time>2021-06-06T13:25:04Z</time>
      </trkpt>
      <trkpt lat="44.92572" lon="4.40377">
        <ele>536.4</ele>
        <time>2021-06-06T13:25:08Z</time>
      </trkpt>
      <trkpt lat="44.92547" lon="4.4038">
        <ele>535.8</ele>
        <time>2021-06-06T13:25:12Z</time>
      </trkpt>
      <trkpt lat="44.92522" lon="4.40383">
        <ele>535.6</ele>
        <time>2021-06-06T13:25:16Z</time>
      </trkpt>
      <trkpt lat="44.92497" lon="4.40398">
        <ele>535.4</ele>
        <time>2021-06-06T13:25:20Z</time>
      </trkpt>
      <trkpt lat="44.92475" lon="4.40423">
        <ele>532.4</ele>
        <time>2021-06-06T13:25:24Z</time>
      </trkpt>
      <trkpt lat="44.9246" lon="4.40458">
        <ele>531.6</ele>
        <time>2021-06-06T13:25:28Z</time>
      </trkpt>
      <trkpt lat="44.92452" lon="4.40496">
        <ele>530.8</ele>
        <time>2021-06-06T13:25:32Z</time>
      </trkpt>
      <trkpt lat="44.92446" lon="4.40532">
        <ele>530.6</ele>
        <time>2021-06-06T13:25:36Z</time>
      </trkpt>
      <trkpt lat="44.92439" lon="4.40566">
        <ele>529</ele>
        <time>2021-06-06T13:25:40Z</time>
      </trkpt>
      <trkpt lat="44.9243" lon="4.40601">
        <ele>529.2</ele>
        <time>2021-06-06T13:25:44Z</time>
      </trkpt>
      <trkpt lat="44.92416" lon="4.40628">
        <ele>529.2</ele>
        <time>2021-06-06T13:25:48Z</time>
      </trkpt>
      <trkpt lat="44.92399" lon="4.40647">
        <ele>528.8</ele>
        <time>2021-06-06T13:25:52Z</time>
      </trkpt>
      <trkpt lat="44.92381" lon="4.40663">
        <ele>528.8</ele>
        <time>2021-06-06T13:25:56Z</time>
      </trkpt>
      <trkpt lat="44.92363" lon="4.40679">
        <ele>529.2</ele>
        <time>2021-06-06T13:26:00Z</time>
      </trkpt>
      <trkpt lat="44.92345" lon="4.40694">
        <ele>529.6</ele>
        <time>2021-06-06T13:26:04Z</time>
      </trkpt>
      <trkpt lat="44.92327" lon="4.40708">
        <ele>529.2</ele>
        <time>2021-06-06T13:26:08Z</time>
      </trkpt>
      <trkpt lat="44.92307" lon="4.4072">
        <ele>529.2</ele>
        <time>2021-06-06T13:26:12Z</time>
      </trkpt>
      <trkpt lat="44.92284" lon="4.40725">
        <ele>528.8</ele>
        <time>2021-06-06T13:26:16Z</time>
      </trkpt>
      <trkpt lat="44.92263" lon="4.40723">
        <ele>529.4</ele>
        <time>2021-06-06T13:26:20Z</time>
      </trkpt>
      <trkpt lat="44.92242" lon="4.40718">
        <ele>528.6</ele>
        <time>2021-06-06T13:26:24Z</time>
      </trkpt>
      <trkpt lat="44.92222" lon="4.40716">
        <ele>529.2</ele>
        <time>2021-06-06T13:26:28Z</time>
      </trkpt>
      <trkpt lat="44.92201" lon="4.40718">
        <ele>529.6</ele>
        <time>2021-06-06T13:26:32Z</time>
      </trkpt>
      <trkpt lat="44.9218" lon="4.40729">
        <ele>528.8</ele>
        <time>2021-06-06T13:26:36Z</time>
      </trkpt>
      <trkpt lat="44.92163" lon="4.40746">
        <ele>528.2</ele>
        <time>2021-06-06T13:26:40Z</time>
      </trkpt>
      <trkpt lat="44.92149" lon="4.40768">
        <ele>527.8</ele>
        <time>2021-06-06T13:26:44Z</time>
      </trkpt>
      <trkpt lat="44.92137" lon="4.40795">
        <ele>527.6</ele>
        <time>2021-06-06T13:26:48Z</time>
      </trkpt>
      <trkpt lat="44.92132" lon="4.40829">
        <ele>527</ele>
        <time>2021-06-06T13:26:52Z</time>
      </trkpt>
      <trkpt lat="44.92133" lon="4.40865">
        <ele>525.4</ele>
        <time>2021-06-06T13:26:56Z</time>
      </trkpt>
      <trkpt lat="44.92138" lon="4.409">
        <ele>525.2</ele>
        <time>2021-06-06T13:27:00Z</time>
      </trkpt>
      <trkpt lat="44.92144" lon="4.40938">
        <ele>524</ele>
        <time>2021-06-06T13:27:04Z</time>
      </trkpt>
      <trkpt lat="44.92143" lon="4.40972">
        <ele>522.8</ele>
        <time>2021-06-06T13:27:08Z</time>
      </trkpt>
      <trkpt lat="44.92135" lon="4.41009">
        <ele>521.6</ele>
        <time>2021-06-06T13:27:12Z</time>
      </trkpt>
      <trkpt lat="44.92125" lon="4.41044">
        <ele>519.6</ele>
        <time>2021-06-06T13:27:16Z</time>
      </trkpt>
      <trkpt lat="44.92113" lon="4.41077">
        <ele>519.2</ele>
        <time>2021-06-06T13:27:20Z</time>
      </trkpt>
      <trkpt lat="44.92095" lon="4.411">
        <ele>518.2</ele>
        <time>2021-06-06T13:27:24Z</time>
      </trkpt>
      <trkpt lat="44.92075" lon="4.41119">
        <ele>517.6</ele>
        <time>2021-06-06T13:27:28Z</time>
      </trkpt>
      <trkpt lat="44.92053" lon="4.41137">
        <ele>516.6</ele>
        <time>2021-06-06T13:27:32Z</time>
      </trkpt>
      <trkpt lat="44.92031" lon="4.41155">
        <ele>515.6</ele>
        <time>2021-06-06T13:27:36Z</time>
      </trkpt>
      <trkpt lat="44.92008" lon="4.41167">
        <ele>514.2</ele>
        <time>2021-06-06T13:27:40Z</time>
      </trkpt>
      <trkpt lat="44.91978" lon="4.41179">
        <ele>514.6</ele>
        <time>2021-06-06T13:27:44Z</time>
      </trkpt>
      <trkpt lat="44.91954" lon="4.4119">
        <ele>513.6</ele>
        <time>2021-06-06T13:27:48Z</time>
      </trkpt>
      <trkpt lat="44.91929" lon="4.412">
        <ele>513</ele>
        <time>2021-06-06T13:27:52Z</time>
      </trkpt>
      <trkpt lat="44.91904" lon="4.41214">
        <ele>511.2</ele>
        <time>2021-06-06T13:27:56Z</time>
      </trkpt>
      <trkpt lat="44.91883" lon="4.41235">
        <ele>511.6</ele>
        <time>2021-06-06T13:28:00Z</time>
      </trkpt>
      <trkpt lat="44.91866" lon="4.41265">
        <ele>510</ele>
        <time>2021-06-06T13:28:04Z</time>
      </trkpt>
      <trkpt lat="44.91849" lon="4.41304">
        <ele>509.2</ele>
        <time>2021-06-06T13:28:08Z</time>
      </trkpt>
      <trkpt lat="44.91831" lon="4.41339">
        <ele>508.2</ele>
        <time>2021-06-06T13:28:12Z</time>
      </trkpt>
      <trkpt lat="44.91812" lon="4.41371">
        <ele>507.4</ele>
        <time>2021-06-06T13:28:16Z</time>
      </trkpt>
      <trkpt lat="44.91795" lon="4.414">
        <ele>507</ele>
        <time>2021-06-06T13:28:20Z</time>
      </trkpt>
      <trkpt lat="44.91779" lon="4.41432">
        <ele>506.2</ele>
        <time>2021-06-06T13:28:24Z</time>
      </trkpt>
      <trkpt lat="44.91764" lon="4.41464">
        <ele>506</ele>
        <time>2021-06-06T13:28:28Z</time>
      </trkpt>
      <trkpt lat="44.91747" lon="4.41489">
        <ele>505.6</ele>
        <time>2021-06-06T13:28:32Z</time>
      </trkpt>
      <trkpt lat="44.91725" lon="4.41508">
        <ele>504.4</ele>
        <time>2021-06-06T13:28:36Z</time>
      </trkpt>
      <trkpt lat="44.91701" lon="4.41522">
        <ele>504.6</ele>
        <time>2021-06-06T13:28:40Z</time>
      </trkpt>
      <trkpt lat="44.9168" lon="4.41536">
        <ele>504.4</ele>
        <time>2021-06-06T13:28:44Z</time>
      </trkpt>
      <trkpt lat="44.91662" lon="4.41553">
        <ele>505.2</ele>
        <time>2021-06-06T13:28:48Z</time>
      </trkpt>
      <trkpt lat="44.91647" lon="4.41571">
        <ele>504.8</ele>
        <time>2021-06-06T13:28:52Z</time>
      </trkpt>
      <trkpt lat="44.91638" lon="4.41602">
        <ele>504.4</ele>
        <time>2021-06-06T13:28:56Z</time>
      </trkpt>
      <trkpt lat="44.91629" lon="4.41634">
        <ele>502.2</ele>
        <time>2021-06-06T13:29:00Z</time>
      </trkpt>
      <trkpt lat="44.91631" lon="4.41672">
        <ele>502.4</ele>
        <time>2021-06-06T13:29:04Z</time>
      </trkpt>
      <trkpt lat="44.91639" lon="4.41711">
        <ele>501.8</ele>
        <time>2021-06-06T13:29:08Z</time>
      </trkpt>
      <trkpt lat="44.91653" lon="4.41747">
        <ele>501.2</ele>
        <time>2021-06-06T13:29:12Z</time>
      </trkpt>
      <trkpt lat="44.91666" lon="4.41782">
        <ele>499</ele>
        <time>2021-06-06T13:29:16Z</time>
      </trkpt>
      <trkpt lat="44.91678" lon="4.41816">
        <ele>498.2</ele>
        <time>2021-06-06T13:29:20Z</time>
      </trkpt>
      <trkpt lat="44.91687" lon="4.41851">
        <ele>497.4</ele>
        <time>2021-06-06T13:29:24Z</time>
      </trkpt>
      <trkpt lat="44.91694" lon="4.41887">
        <ele>496.8</ele>
        <time>2021-06-06T13:29:28Z</time>
      </trkpt>
      <trkpt lat="44.91699" lon="4.41923">
        <ele>496.8</ele>
        <time>2021-06-06T13:29:32Z</time>
      </trkpt>
      <trkpt lat="44.91702" lon="4.41959">
        <ele>496.6</ele>
        <time>2021-06-06T13:29:36Z</time>
      </trkpt>
      <trkpt lat="44.91703" lon="4.41996">
        <ele>494</ele>
        <time>2021-06-06T13:29:40Z</time>
      </trkpt>
      <trkpt lat="44.91697" lon="4.42033">
        <ele>492.6</ele>
        <time>2021-06-06T13:29:44Z</time>
      </trkpt>
      <trkpt lat="44.91683" lon="4.42065">
        <ele>492.6</ele>
        <time>2021-06-06T13:29:48Z</time>
      </trkpt>
      <trkpt lat="44.91669" lon="4.42095">
        <ele>490.8</ele>
        <time>2021-06-06T13:29:52Z</time>
      </trkpt>
      <trkpt lat="44.91656" lon="4.42122">
        <ele>490.4</ele>
        <time>2021-06-06T13:29:56Z</time>
      </trkpt>
      <trkpt lat="44.91649" lon="4.42132">
        <ele>491</ele>
        <time>2021-06-06T13:30:00Z</time>
      </trkpt>
      <trkpt lat="44.91637" lon="4.42149">
        <ele>490.2</ele>
        <time>2021-06-06T13:31:38Z</time>
      </trkpt>
      <trkpt lat="44.91627" lon="4.42162">
        <ele>490.2</ele>
        <time>2021-06-06T13:31:42Z</time>
      </trkpt>
      <trkpt lat="44.91616" lon="4.42177">
        <ele>489.4</ele>
        <time>2021-06-06T13:31:46Z</time>
      </trkpt>
      <trkpt lat="44.91605" lon="4.42195">
        <ele>489</ele>
        <time>2021-06-06T13:31:50Z</time>
      </trkpt>
      <trkpt lat="44.91593" lon="4.42214">
        <ele>488.6</ele>
        <time>2021-06-06T13:31:54Z</time>
      </trkpt>
      <trkpt lat="44.91579" lon="4.42233">
        <ele>487.4</ele>
        <time>2021-06-06T13:31:58Z</time>
      </trkpt>
      <trkpt lat="44.91562" lon="4.42253">
        <ele>487.6</ele>
        <time>2021-06-06T13:32:02Z</time>
      </trkpt>
      <trkpt lat="44.91547" lon="4.42279">
        <ele>486.8</ele>
        <time>2021-06-06T13:32:06Z</time>
      </trkpt>
      <trkpt lat="44.91531" lon="4.42306">
        <ele>486.2</ele>
        <time>2021-06-06T13:32:10Z</time>
      </trkpt>
      <trkpt lat="44.91516" lon="4.42335">
        <ele>485.6</ele>
        <time>2021-06-06T13:32:14Z</time>
      </trkpt>
      <trkpt lat="44.91501" lon="4.42363">
        <ele>484.8</ele>
        <time>2021-06-06T13:32:18Z</time>
      </trkpt>
      <trkpt lat="44.91483" lon="4.42391">
        <ele>484.4</ele>
        <time>2021-06-06T13:32:22Z</time>
      </trkpt>
      <trkpt lat="44.91464" lon="4.42416">
        <ele>481.4</ele>
        <time>2021-06-06T13:32:26Z</time>
      </trkpt>
      <trkpt lat="44.91442" lon="4.42436">
        <ele>482.6</ele>
        <time>2021-06-06T13:32:30Z</time>
      </trkpt>
      <trkpt lat="44.91417" lon="4.42453">
        <ele>481.8</ele>
        <time>2021-06-06T13:32:34Z</time>
      </trkpt>
      <trkpt lat="44.9139" lon="4.42465">
        <ele>480.8</ele>
        <time>2021-06-06T13:32:38Z</time>
      </trkpt>
      <trkpt lat="44.91365" lon="4.42477">
        <ele>479.6</ele>
        <time>2021-06-06T13:32:42Z</time>
      </trkpt>
      <trkpt lat="44.9134" lon="4.42485">
        <ele>479.2</ele>
        <time>2021-06-06T13:32:46Z</time>
      </trkpt>
      <trkpt lat="44.91321" lon="4.42494">
        <ele>478.4</ele>
        <time>2021-06-06T13:32:50Z</time>
      </trkpt>
      <trkpt lat="44.91309" lon="4.42502">
        <ele>478</ele>
        <time>2021-06-06T13:32:54Z</time>
      </trkpt>
      <trkpt lat="44.91295" lon="4.42515">
        <ele>477.2</ele>
        <time>2021-06-06T13:32:58Z</time>
      </trkpt>
      <trkpt lat="44.91284" lon="4.42532">
        <ele>477</ele>
        <time>2021-06-06T13:33:02Z</time>
      </trkpt>
      <trkpt lat="44.91273" lon="4.42551">
        <ele>476.8</ele>
        <time>2021-06-06T13:33:06Z</time>
      </trkpt>
      <trkpt lat="44.91261" lon="4.42573">
        <ele>475.8</ele>
        <time>2021-06-06T13:33:10Z</time>
      </trkpt>
      <trkpt lat="44.91249" lon="4.426">
        <ele>475.4</ele>
        <time>2021-06-06T13:33:14Z</time>
      </trkpt>
      <trkpt lat="44.9124" lon="4.42629">
        <ele>475.6</ele>
        <time>2021-06-06T13:33:18Z</time>
      </trkpt>
      <trkpt lat="44.91236" lon="4.42657">
        <ele>475.8</ele>
        <time>2021-06-06T13:33:22Z</time>
      </trkpt>
      <trkpt lat="44.91231" lon="4.42681">
        <ele>474.6</ele>
        <time>2021-06-06T13:33:26Z</time>
      </trkpt>
      <trkpt lat="44.91229" lon="4.42708">
        <ele>475.8</ele>
        <time>2021-06-06T13:33:30Z</time>
      </trkpt>
      <trkpt lat="44.91242" lon="4.42722">
        <ele>477</ele>
        <time>2021-06-06T13:33:34Z</time>
      </trkpt>
      <trkpt lat="44.91255" lon="4.42739">
        <ele>476.4</ele>
        <time>2021-06-06T13:33:38Z</time>
      </trkpt>
      <trkpt lat="44.91265" lon="4.42755">
        <ele>476.8</ele>
        <time>2021-06-06T13:33:42Z</time>
      </trkpt>
      <trkpt lat="44.9128" lon="4.42769">
        <ele>476.8</ele>
        <time>2021-06-06T13:33:46Z</time>
      </trkpt>
      <trkpt lat="44.91293" lon="4.4278">
        <ele>477.2</ele>
        <time>2021-06-06T13:33:50Z</time>
      </trkpt>
      <trkpt lat="44.91302" lon="4.42797">
        <ele>477.6</ele>
        <time>2021-06-06T13:33:54Z</time>
      </trkpt>
      <trkpt lat="44.91307" lon="4.42814">
        <ele>477.8</ele>
        <time>2021-06-06T13:33:58Z</time>
      </trkpt>
      <trkpt lat="44.91317" lon="4.42829">
        <ele>477.8</ele>
        <time>2021-06-06T13:34:02Z</time>
      </trkpt>
      <trkpt lat="44.91325" lon="4.42849">
        <ele>477.6</ele>
        <time>2021-06-06T13:34:06Z</time>
      </trkpt>
      <trkpt lat="44.91334" lon="4.42866">
        <ele>478.2</ele>
        <time>2021-06-06T13:34:10Z</time>
      </trkpt>
      <trkpt lat="44.9134" lon="4.42862">
        <ele>478.2</ele>
        <time>2021-06-06T13:34:14Z</time>
      </trkpt>
      <trkpt lat="44.91335" lon="4.42851">
        <ele>477.8</ele>
        <time>2021-06-06T13:34:18Z</time>
      </trkpt>
      <trkpt lat="44.91332" lon="4.42836">
        <ele>478.4</ele>
        <time>2021-06-06T13:34:22Z</time>
      </trkpt>
      <trkpt lat="44.91335" lon="4.42821">
        <ele>478.8</ele>
        <time>2021-06-06T13:34:26Z</time>
      </trkpt>
      <trkpt lat="44.91341" lon="4.42808">
        <ele>480</ele>
        <time>2021-06-06T13:34:30Z</time>
      </trkpt>
      <trkpt lat="44.9135" lon="4.42805">
        <ele>480.8</ele>
        <time>2021-06-06T13:34:34Z</time>
      </trkpt>
      <trkpt lat="44.9136" lon="4.42814">
        <ele>480.8</ele>
        <time>2021-06-06T13:34:38Z</time>
      </trkpt>
      <trkpt lat="44.9137" lon="4.42825">
        <ele>480.6</ele>
        <time>2021-06-06T13:34:42Z</time>
      </trkpt>
      <trkpt lat="44.91383" lon="4.42838">
        <ele>480.8</ele>
        <time>2021-06-06T13:34:46Z</time>
      </trkpt>
      <trkpt lat="44.91393" lon="4.42856">
        <ele>480.8</ele>
        <time>2021-06-06T13:34:50Z</time>
      </trkpt>
      <trkpt lat="44.91402" lon="4.42874">
        <ele>480.8</ele>
        <time>2021-06-06T13:34:54Z</time>
      </trkpt>
      <trkpt lat="44.91412" lon="4.42894">
        <ele>481.2</ele>
        <time>2021-06-06T13:34:58Z</time>
      </trkpt>
      <trkpt lat="44.91423" lon="4.42916">
        <ele>480.6</ele>
        <time>2021-06-06T13:35:02Z</time>
      </trkpt>
      <trkpt lat="44.91433" lon="4.42937">
        <ele>481</ele>
        <time>2021-06-06T13:35:06Z</time>
      </trkpt>
      <trkpt lat="44.91444" lon="4.42959">
        <ele>480.6</ele>
        <time>2021-06-06T13:35:10Z</time>
      </trkpt>
      <trkpt lat="44.91455" lon="4.42982">
        <ele>481</ele>
        <time>2021-06-06T13:35:14Z</time>
      </trkpt>
      <trkpt lat="44.91464" lon="4.43003">
        <ele>480.8</ele>
        <time>2021-06-06T13:35:18Z</time>
      </trkpt>
      <trkpt lat="44.91475" lon="4.43025">
        <ele>480.6</ele>
        <time>2021-06-06T13:35:22Z</time>
      </trkpt>
      <trkpt lat="44.91484" lon="4.43046">
        <ele>481.4</ele>
        <time>2021-06-06T13:35:26Z</time>
      </trkpt>
      <trkpt lat="44.91491" lon="4.43065">
        <ele>481.2</ele>
        <time>2021-06-06T13:35:30Z</time>
      </trkpt>
      <trkpt lat="44.91498" lon="4.43078">
        <ele>481.2</ele>
        <time>2021-06-06T13:35:53Z</time>
      </trkpt>
      <trkpt lat="44.91498" lon="4.43078">
        <ele>481.4</ele>
        <time>2021-06-06T13:35:57Z</time>
      </trkpt>
      <trkpt lat="44.91496" lon="4.43081">
        <ele>481.4</ele>
        <time>2021-06-06T13:36:23Z</time>
      </trkpt>
    </trkseg>
  </trk>
</gpx>